GFSCGP_sfc_wetblb_000.txt.gz
Wetbulb
60.01 55.54 53.09 55.14 57.32 58.12 58.34 56.96 56.78 58.65 62.04 60.94 59.86 59.79 62.67 64.05 65.02 65.69 66.73 67.16 67.65 68.00 71.48 72.57 73.79 74.82 74.98 75.54 77.35 76.37 78.21 79.77 79.70 78.43 77.83 78.56 77.48 78.86 77.14 77.91 77.94 78.03 78.87 77.25
56.42 53.15 56.69 57.89 58.03 56.78 56.46 55.65 55.71 58.71 60.83 60.32 60.23 59.78 62.76 63.51 63.92 65.49 66.50 66.90 67.29 68.41 69.27 70.85 72.12 72.24 73.59 76.00 77.15 78.04 78.92 79.57 79.33 79.58 79.88 78.46 77.91 77.56 77.22 76.87 77.92 77.88 76.66 76.88
53.93 55.30 57.70 56.77 55.73 54.87 55.44 53.96 54.67 56.38 59.03 59.30 58.82 58.53 58.37 63.07 64.52 65.18 66.13 67.56 67.95 67.80 68.14 70.29 71.33 72.44 73.65 74.77 76.42 77.56 79.15 78.65 79.72 79.61 79.34 78.71 77.72 77.43 75.92 76.49 73.44 75.36 74.20 74.49
54.93 57.51 56.35 55.68 54.49 55.01 52.32 55.93 55.43 55.06 55.43 51.94 58.57 50.82 57.95 60.65 61.73 63.74 64.63 65.56 66.62 67.33 68.94 69.76 70.86 72.30 73.29 74.86 76.59 77.82 79.23 79.74 79.54 79.20 78.50 76.48 73.69 70.68 74.88 74.93 73.49 73.39 74.39 74.22
53.08 54.52 54.84 54.33 55.14 56.22 53.64 56.51 55.06 55.03 53.56 53.25 54.07 52.68 56.60 61.79 59.29 61.21 63.61 64.82 66.08 67.25 67.94 68.58 69.66 71.68 72.97 74.68 75.32 77.29 79.36 79.17 78.13 77.12 75.76 73.91 73.18 71.14 72.62 72.65 73.24 74.62 73.32 73.91
54.93 57.70 56.02 55.27 56.45 56.52 56.89 57.01 55.94 55.01 53.31 49.12 52.97 53.96 54.61 57.47 61.84 61.02 62.56 64.70 66.20 66.98 68.16 68.86 70.16 71.66 72.24 74.07 74.83 76.96 77.27 77.29 77.06 75.85 75.18 74.05 73.52 72.83 71.29 72.01 71.31 70.40 71.83 71.96
53.45 54.06 57.08 57.43 54.86 56.96 56.09 54.84 49.92 48.45 48.40 47.94 54.32 52.77 56.84 60.34 62.50 63.81 63.32 64.01 66.18 67.63 68.52 69.16 68.91 69.98 71.67 72.83 74.37 75.94 75.68 75.61 75.73 74.82 74.47 72.95 72.85 73.69 73.30 72.30 71.87 71.83 69.78 71.30
49.59 48.59 55.11 56.98 55.70 54.60 54.55 54.44 50.02 46.42 46.80 49.15 55.09 51.36 55.99 60.22 63.56 66.19 66.47 67.39 66.50 66.61 69.01 69.54 70.57 70.52 72.24 73.08 74.80 74.34 74.64 74.39 74.60 74.41 74.63 73.71 74.69 72.83 72.91 73.48 71.41 70.47 70.35 70.88
50.61 51.37 57.23 56.80 57.61 57.31 54.68 52.64 55.86 51.97 52.55 49.29 52.01 55.07 57.82 59.49 59.46 59.67 61.62 61.88 65.93 66.47 67.40 69.36 71.17 72.26 72.83 73.10 74.08 74.46 74.64 74.87 74.34 73.61 75.40 74.78 74.38 73.73 73.57 73.82 73.64 70.86 73.57 70.15
55.29 52.00 55.53 56.24 57.61 57.51 56.16 57.26 51.19 51.93 48.00 46.37 49.95 51.38 52.02 58.50 58.28 59.35 59.41 60.24 63.35 67.69 68.00 68.61 70.14 72.21 73.65 73.85 74.49 74.27 74.93 74.65 73.63 73.88 73.68 73.30 73.58 73.39 73.79 73.38 72.61 72.75 72.79 72.73
56.45 55.39 54.07 55.85 54.17 53.21 54.33 53.56 54.17 53.58 51.91 47.97 46.90 49.71 59.31 60.43 60.40 58.95 60.05 61.67 62.43 64.15 68.36 69.62 70.63 72.96 74.23 73.60 73.64 72.73 73.33 73.77 72.62 73.19 73.75 73.33 71.84 72.06 72.63 71.92 71.98 72.38 73.24 73.07
56.74 54.88 52.17 53.26 56.84 57.52 56.18 55.06 55.60 51.11 51.72 53.14 52.25 50.71 59.49 59.56 59.46 59.91 61.02 61.60 63.89 65.69 68.00 70.96 71.07 73.30 73.85 73.22 72.61 71.50 71.16 71.67 71.92 72.43 73.44 72.47 72.45 72.32 72.48 72.05 71.87 72.86 72.11 72.61
57.08 54.28 50.56 51.95 54.20 56.13 54.15 55.54 55.09 54.83 54.60 53.76 49.93 51.14 61.96 59.82 60.09 61.64 61.30 62.86 67.61 68.74 72.02 71.74 71.25 71.67 72.96 73.06 72.34 70.56 70.14 70.18 70.93 71.86 70.16 71.71 71.99 71.66 71.85 72.03 72.39 72.23 71.90 71.19
61.09 54.13 53.90 48.45 52.71 54.95 53.01 53.52 54.29 53.57 52.33 52.61 52.58 54.66 57.99 59.47 60.82 63.88 63.69 65.24 65.93 69.13 69.85 71.96 71.51 71.68 72.38 72.69 71.55 70.82 69.44 69.61 70.05 69.69 70.04 71.13 71.40 71.67 71.46 72.23 72.70 72.02 71.67 71.29
57.03 55.75 53.93 53.39 53.55 53.86 54.03 53.59 53.64 52.68 54.38 52.08 54.57 55.88 59.08 60.39 61.08 61.75 62.56 64.05 64.80 67.71 69.31 71.76 71.17 71.97 72.39 72.30 71.26 71.20 69.76 71.32 70.29 70.25 70.82 71.52 72.32 72.20 72.09 71.91 71.81 71.44 71.44 71.22
57.32 55.11 54.51 52.22 54.01 53.56 52.11 53.46 54.69 54.23 53.68 53.53 54.47 55.92 59.79 62.34 63.21 61.75 60.97 61.83 64.01 65.52 66.20 70.07 71.76 71.58 72.69 72.20 71.08 69.92 69.81 70.80 72.18 69.16 70.05 71.82 71.91 71.37 70.94 71.78 72.03 71.58 71.60 71.88
58.18 54.69 54.77 50.65 53.59 53.32 50.76 53.29 53.52 54.72 56.08 55.43 53.90 59.17 61.61 60.83 60.13 60.48 62.46 62.78 64.30 65.38 66.72 67.28 71.51 70.80 73.51 72.07 71.43 69.27 70.61 71.10 71.01 71.11 71.09 71.17 71.57 71.21 71.57 71.32 71.18 71.35 71.68 71.13
59.37 59.15 56.20 51.51 54.81 47.21 54.20 58.03 56.50 55.16 56.24 57.13 57.74 59.75 61.51 60.76 60.64 61.97 63.44 64.78 64.04 65.65 66.62 68.03 69.67 72.59 73.71 72.54 71.42 71.74 70.86 70.67 71.33 70.58 70.70 70.92 71.12 70.82 71.50 71.30 71.07 71.38 71.28 70.60
55.11 59.27 53.89 51.66 50.17 53.16 55.02 57.05 56.74 54.94 56.47 59.45 58.43 60.17 61.58 60.92 60.45 63.01 65.84 64.67 64.64 67.69 70.12 70.43 68.88 71.17 73.30 72.10 72.02 71.84 69.78 70.36 70.51 70.00 70.28 70.87 70.92 70.74 70.96 70.71 70.43 71.24 70.72 69.51
57.48 58.61 55.68 53.94 48.94 46.58 55.79 58.37 60.41 59.53 52.35 60.27 59.91 60.54 59.80 60.41 55.65 61.68 67.02 65.59 65.59 66.77 69.67 71.43 72.11 72.83 73.31 72.81 72.68 70.91 69.61 70.05 69.10 69.53 70.49 71.33 71.41 71.50 71.07 70.86 70.29 69.18 71.26 68.86
54.06 55.52 51.91 51.54 50.05 51.80 58.07 59.38 60.23 49.85 50.64 60.63 61.94 61.11 61.57 60.90 62.51 66.35 67.22 66.49 67.14 69.15 69.77 71.83 73.12 72.94 73.42 73.53 72.05 69.13 69.36 69.76 70.57 70.98 71.38 71.69 72.12 72.45 72.66 72.40 70.20 69.47 67.35 66.64
54.35 52.48 51.53 53.79 51.00 49.10 60.59 58.86 54.79 62.32 63.54 62.49 62.57 63.03 62.69 63.12 63.18 63.79 64.55 68.33 68.03 68.95 69.66 71.22 73.01 72.67 73.49 73.92 72.64 69.64 69.84 72.27 74.59 73.28 72.43 72.95 73.36 70.22 68.99 72.25 71.18 68.75 68.99 67.37
52.41 54.57 54.14 54.98 52.60 58.68 62.22 61.89 63.13 63.22 63.89 62.41 62.63 62.39 62.70 61.65 61.75 62.67 64.43 65.15 68.55 69.16 70.01 71.02 72.00 73.52 73.46 73.35 75.11 73.46 74.18 74.64 75.05 74.37 73.94 73.97 73.31 71.56 72.14 70.49 68.22 68.28 67.36 65.49
57.79 59.08 56.87 54.11 54.86 55.40 60.13 60.73 61.47 61.96 61.50 61.27 62.01 61.77 62.17 61.72 62.45 64.45 65.53 66.18 69.73 70.08 70.25 71.12 72.29 71.80 71.99 74.79 74.16 74.72 74.04 74.24 72.87 73.07 73.39 73.24 71.25 71.51 68.77 68.76 67.48 64.49 65.96 64.15
56.49 55.56 53.55 57.39 54.87 59.38 59.56 59.92 60.57 60.88 61.97 61.76 62.27 61.91 61.94 62.94 63.98 66.20 66.60 69.93 69.78 70.81 68.85 68.86 68.70 66.08 64.38 64.99 63.74 66.65 69.72 69.47 71.52 71.75 71.30 71.31 69.46 68.61 67.26 58.53 57.08 61.84 52.97 53.23
56.74 56.49 54.27 52.45 57.41 58.97 58.09 59.58 59.95 59.05 59.06 60.85 61.69 61.47 62.22 63.34 64.88 67.30 68.85 69.76 69.82 68.80 69.11 66.42 66.22 64.78 61.96 65.62 67.16 68.18 68.48 71.02 70.39 69.27 67.81 67.30 66.80 61.85 64.74 60.55 56.43 45.84 45.27 43.25

GFSCGP_sfc_wetblb_003.txt.gz
Wetbulb
52.65 50.59 48.54 51.09 51.77 52.48 54.75 53.59 54.37 57.53 58.55 56.38 56.39 59.45 61.74 63.53 63.86 63.17 63.73 65.00 66.14 66.82 69.77 70.66 71.52 71.87 72.12 72.65 72.53 72.58 71.65 73.48 74.00 73.32 72.86 72.40 71.55 72.61 73.32 74.07 74.32 72.94 73.14 73.44
50.22 49.60 54.67 56.20 54.92 53.81 52.89 55.19 54.18 57.16 59.22 57.08 55.94 57.81 60.82 61.37 62.67 63.92 64.43 64.52 65.78 65.97 69.07 70.21 70.87 70.94 71.45 71.97 72.80 73.47 73.64 74.24 74.57 74.33 74.20 73.52 73.15 73.80 73.23 74.37 73.15 72.68 71.76 72.62
48.76 53.19 57.38 55.17 53.02 52.50 51.48 49.97 54.10 54.98 58.55 58.85 57.25 53.83 56.14 61.12 61.29 63.91 65.63 65.79 66.05 66.14 66.92 69.15 70.31 70.51 71.67 72.50 73.34 74.06 74.53 74.85 74.60 73.53 74.38 73.29 72.39 71.62 69.85 71.13 71.14 68.79 68.16 68.48
51.02 55.39 54.64 52.89 51.84 52.74 46.51 53.48 53.62 55.66 55.00 48.99 56.64 46.54 52.22 56.14 57.21 61.64 63.89 64.63 64.77 66.07 66.75 67.46 67.25 67.82 70.94 73.11 74.00 74.81 74.64 73.96 74.86 73.99 72.85 69.59 66.28 61.57 67.48 67.80 67.86 67.33 68.39 68.28
50.50 52.53 52.40 51.50 52.42 53.81 50.02 53.96 51.98 51.31 50.98 48.18 51.54 46.37 52.49 55.36 54.07 58.23 61.39 64.20 65.12 66.05 66.78 67.29 67.95 69.15 71.01 73.38 73.33 73.32 74.34 74.55 71.71 66.95 67.69 64.02 61.61 63.93 66.08 66.47 65.45 63.48 65.50 67.84
51.93 55.55 53.67 53.25 55.18 54.72 55.14 51.44 49.94 48.74 45.36 40.45 46.48 47.38 49.19 52.99 55.93 59.14 61.38 63.41 64.63 65.80 66.91 67.84 68.85 69.97 71.22 72.47 73.71 74.74 73.45 70.18 69.06 66.54 65.16 63.36 62.71 63.16 63.20 64.59 63.58 64.38 64.67 65.35
50.58 51.46 53.33 54.50 50.12 52.62 51.01 47.48 41.82 40.00 39.97 40.09 46.58 45.85 50.71 57.82 59.87 59.35 59.85 60.23 62.72 65.42 66.25 66.72 67.38 68.62 70.64 70.93 72.85 74.26 71.19 69.10 68.34 66.97 67.02 65.51 64.57 64.26 63.50 63.88 65.16 63.24 62.86 65.38
45.06 44.15 50.70 53.82 50.07 48.43 48.43 46.74 43.13 38.71 39.46 43.60 49.61 44.46 50.05 60.61 61.81 61.36 62.31 61.34 62.11 64.50 65.47 66.12 66.82 67.83 69.81 70.79 72.45 72.54 70.65 69.70 68.41 67.76 65.96 65.48 64.93 64.33 65.83 67.17 64.93 62.87 62.82 64.76
45.12 46.18 53.50 54.19 54.11 52.88 49.49 46.35 50.26 44.58 45.81 42.37 45.69 50.09 55.89 60.04 59.75 60.97 62.41 61.58 60.21 61.99 65.03 65.24 66.30 67.67 69.67 69.86 72.01 71.59 71.10 70.33 68.99 68.47 67.08 66.22 66.25 65.61 66.20 65.55 64.83 63.93 66.10 65.15
48.89 44.43 51.33 53.43 53.87 53.67 51.23 52.69 45.94 44.03 38.96 38.40 44.41 48.22 47.65 52.05 54.76 59.10 59.97 60.04 61.00 61.91 64.98 65.83 66.12 67.25 69.70 70.37 71.64 71.83 71.65 70.65 70.23 69.21 68.64 68.37 67.79 66.83 66.01 65.40 64.48 65.07 64.37 65.84
50.83 46.80 49.45 51.74 48.84 48.64 49.06 47.27 48.16 46.59 44.49 39.45 39.23 44.12 54.23 55.12 55.50 54.76 55.21 57.16 59.51 63.11 63.41 66.08 66.79 68.06 69.68 70.62 71.66 71.66 71.73 70.95 69.84 69.63 68.51 67.71 67.03 66.47 66.46 65.47 65.04 65.53 66.26 66.64
51.65 47.58 46.79 48.95 52.65 54.19 51.38 48.74 49.58 43.37 43.12 44.79 44.37 46.68 56.84 56.89 56.62 57.13 58.17 59.11 58.86 61.24 64.07 65.52 67.67 68.96 69.67 70.31 70.99 71.15 71.62 70.75 69.11 69.11 68.58 64.96 64.23 65.57 65.68 65.05 65.02 65.27 64.42 65.07
51.61 48.67 44.25 46.48 49.74 52.18 50.23 50.48 49.45 49.50 46.51 43.22 43.11 45.51 56.52 55.97 55.32 57.54 57.02 59.11 60.23 60.45 61.79 64.53 67.62 68.94 69.82 70.13 69.62 70.18 70.68 69.86 68.79 68.06 67.42 65.68 65.55 65.48 64.34 65.12 65.17 65.03 64.66 64.26
57.34 47.59 46.65 43.12 48.12 50.58 48.49 50.96 50.80 47.13 42.81 43.62 46.15 49.33 52.06 55.36 57.77 57.86 58.62 58.95 61.82 62.16 65.99 65.16 67.61 69.73 70.44 70.15 68.86 68.37 68.51 68.86 67.92 67.96 66.90 65.80 66.40 66.11 65.72 65.52 65.43 65.62 65.18 64.57
53.07 46.95 48.03 48.81 50.86 51.02 52.28 51.50 50.75 47.59 47.24 45.37 47.50 51.74 52.51 54.76 56.01 57.13 58.45 58.54 59.36 62.90 64.47 66.19 65.55 69.66 70.39 69.89 68.13 67.23 67.41 67.75 67.58 66.46 65.71 66.30 66.74 66.49 66.35 65.98 66.26 65.58 65.19 65.74
51.43 48.30 48.34 46.89 51.41 50.76 49.48 52.13 52.58 52.58 51.23 49.07 49.10 49.34 56.16 57.57 58.65 58.30 58.10 58.18 58.03 58.97 60.72 66.99 67.41 67.13 69.68 69.77 67.32 66.78 65.88 66.33 66.60 65.65 65.94 67.94 67.91 67.02 66.36 66.06 65.94 65.24 64.80 65.27
51.12 49.96 46.34 42.31 48.99 49.61 46.06 49.93 50.85 51.56 53.13 51.71 48.01 52.09 56.33 56.43 57.87 56.78 56.67 57.72 58.09 59.40 60.09 59.21 65.84 67.19 68.96 69.43 68.04 66.22 65.67 66.42 65.95 66.09 66.26 66.95 67.09 66.56 66.39 66.57 66.54 66.45 65.74 64.28
52.26 50.44 47.36 43.72 47.88 39.50 48.98 54.61 54.94 54.43 55.55 55.81 55.41 57.15 57.99 56.08 56.37 56.49 57.05 57.39 58.41 58.95 59.93 59.57 61.44 67.64 69.38 69.09 67.45 66.60 66.76 65.50 65.98 65.26 66.23 66.55 66.40 66.49 66.62 66.45 65.98 65.93 64.53 63.74
54.99 51.11 47.62 43.42 42.67 46.44 51.69 53.69 54.10 51.62 51.92 56.78 55.54 57.19 57.56 58.25 59.34 58.22 60.91 59.60 59.59 61.21 62.08 62.54 62.97 68.99 69.42 68.02 67.13 66.68 65.96 65.47 65.71 65.05 65.60 66.67 66.73 66.00 66.01 66.34 65.94 65.61 64.90 64.13
52.90 53.50 49.02 45.15 41.17 40.81 48.99 56.54 58.35 56.27 47.92 57.33 58.02 56.73 58.71 56.09 54.26 55.70 60.12 61.88 61.80 62.66 63.51 63.75 65.51 68.76 68.83 68.30 67.60 66.93 65.93 66.49 66.13 66.05 66.87 67.45 67.23 66.55 66.35 66.76 66.02 65.29 64.74 63.93
48.88 48.86 44.98 44.29 43.24 46.94 55.49 58.51 58.42 47.70 49.11 57.84 57.62 56.71 57.80 54.32 55.53 58.38 60.50 59.77 61.53 61.57 63.96 65.11 65.87 68.25 68.86 69.00 68.96 66.56 65.63 65.46 66.81 67.31 67.12 67.61 67.60 67.66 67.60 67.23 66.08 64.05 63.44 59.61
49.11 47.67 43.81 46.45 43.76 42.06 57.70 58.07 53.33 54.92 57.30 58.86 59.02 58.46 57.86 57.74 57.75 58.36 58.38 58.36 61.47 61.12 64.02 65.77 67.32 68.93 69.54 69.68 68.36 65.98 65.42 67.11 67.35 66.95 67.17 67.62 67.76 68.74 68.68 64.55 64.36 63.77 63.77 60.84
48.27 51.78 51.10 50.84 49.69 55.56 56.99 54.42 57.98 58.38 56.85 57.45 57.56 58.30 58.36 58.65 58.43 59.07 58.59 56.94 59.65 62.55 63.93 66.50 68.69 68.43 68.60 69.34 66.44 64.57 63.17 60.74 59.82 66.51 67.32 68.13 68.42 66.02 64.39 63.02 63.44 62.57 61.09 61.08
54.03 54.94 51.62 51.11 53.08 53.82 56.92 56.26 56.47 57.42 58.15 59.06 59.58 59.47 58.90 57.45 59.31 59.12 60.13 60.30 60.57 63.14 63.65 67.21 66.22 62.26 60.39 63.26 61.55 60.66 60.96 61.27 61.20 60.07 62.26 65.84 64.48 64.03 63.75 62.00 60.70 59.38 56.71 56.93
52.02 53.90 50.74 52.83 55.88 56.26 56.88 57.52 57.41 58.26 59.11 59.78 60.29 59.76 58.96 59.34 59.40 59.96 61.36 64.02 63.01 63.79 64.34 64.44 62.07 60.92 61.67 63.76 62.99 61.36 61.17 61.01 59.06 58.53 66.18 64.89 65.38 61.88 55.48 51.86 53.17 56.91 48.91 50.61
53.53 51.23 50.79 49.16 54.76 54.76 54.54 57.04 57.83 56.33 56.60 56.97 56.54 57.97 59.56 59.47 59.70 63.91 64.37 64.28 63.58 61.95 62.13 61.44 61.44 62.76 62.56 61.24 60.43 62.22 61.75 63.07 64.12 64.88 63.51 61.53 61.38 58.34 56.39 51.99 49.22 44.79 45.53 42.97

GFSCGP_sfc_wetblb_006.txt.gz
Wetbulb
48.78 46.22 44.92 49.45 50.21 50.53 50.84 52.33 52.73 55.17 56.10 58.49 58.03 58.50 61.11 63.01 63.58 63.35 63.66 64.26 64.97 65.57 67.12 68.07 68.93 69.57 70.52 70.37 70.00 69.99 70.32 71.97 72.95 72.08 71.15 71.00 70.68 71.17 71.76 72.25 72.93 72.79 72.28 72.44
46.18 44.89 50.85 54.17 53.87 51.79 49.75 51.10 52.43 55.31 56.63 54.78 57.94 58.07 61.04 62.69 63.38 64.07 64.19 64.95 65.55 66.07 66.25 67.74 68.78 69.89 70.13 69.82 69.91 70.63 70.58 72.25 72.40 72.23 71.67 71.71 71.06 71.65 72.11 72.67 72.98 72.07 71.39 72.02
44.29 48.07 54.71 54.30 52.52 51.32 48.44 51.33 52.46 53.40 56.63 56.62 57.35 54.39 56.81 61.86 63.59 64.04 64.90 66.27 66.39 66.29 66.15 67.23 68.39 68.75 70.27 69.98 70.93 71.15 72.05 72.40 72.81 72.82 72.73 71.98 71.03 69.93 68.89 69.55 69.90 68.57 67.44 67.89
46.42 51.39 51.91 52.60 51.66 51.51 44.55 52.34 55.99 55.63 54.19 47.82 55.08 45.95 52.03 57.95 58.55 60.01 62.33 63.92 65.37 66.30 67.91 68.12 68.34 67.94 69.54 70.98 72.69 72.19 72.64 72.92 73.20 72.37 72.09 69.97 66.90 62.24 65.42 66.88 66.73 65.14 65.95 67.25
46.09 49.50 49.66 49.69 52.12 52.35 48.96 52.27 51.16 55.79 53.12 49.18 51.11 46.85 53.16 53.90 52.36 54.97 60.07 63.53 64.87 66.49 68.01 68.24 68.79 68.89 70.70 71.88 72.99 72.96 73.02 73.12 73.04 71.30 71.31 65.57 61.54 62.65 65.44 65.29 64.29 63.49 63.43 65.76
48.16 52.96 51.75 51.81 53.90 52.67 53.59 50.04 47.32 47.07 45.00 41.16 49.14 47.07 45.72 51.39 55.10 56.75 58.50 63.91 64.57 65.82 67.99 68.95 69.86 69.21 71.00 72.20 72.97 73.41 72.29 71.26 68.59 66.83 63.43 61.14 61.97 61.81 63.11 62.77 61.37 62.15 61.57 65.63
46.71 48.88 51.72 53.48 47.93 50.56 49.03 42.94 38.14 37.97 37.42 37.59 42.41 48.38 50.09 55.63 58.53 57.49 58.28 63.22 64.54 65.80 66.27 67.30 67.37 67.48 70.39 71.23 71.85 72.81 72.09 69.53 65.50 64.03 62.47 61.14 61.91 61.43 61.47 61.33 62.54 62.18 63.92 63.61
41.48 41.54 49.09 51.29 48.88 46.79 45.55 44.15 38.82 35.20 37.26 39.92 44.53 41.77 47.71 57.44 60.21 59.68 61.12 64.07 64.97 64.87 65.82 66.31 66.61 67.52 69.46 70.99 71.33 72.13 70.58 69.10 65.62 64.21 63.41 63.34 63.26 62.05 61.92 63.28 63.70 60.31 61.53 63.55
40.10 42.10 50.67 51.25 52.34 49.46 46.33 43.14 47.09 42.34 41.58 40.20 42.50 47.50 54.08 56.99 58.07 58.97 58.50 60.52 62.26 64.21 65.44 65.71 66.97 67.83 69.27 70.14 71.28 72.07 69.69 68.22 66.58 64.97 64.09 62.96 62.96 64.37 65.05 64.81 63.02 61.71 63.77 63.94
43.72 40.43 47.18 50.99 50.82 50.75 49.14 49.07 43.15 40.43 36.59 34.97 40.98 43.59 45.78 52.88 55.42 57.57 57.90 57.83 59.59 63.62 65.15 65.73 66.59 67.43 69.52 70.11 71.68 72.52 70.29 68.69 67.20 66.52 64.74 64.12 64.41 64.29 64.58 63.90 62.92 63.99 63.00 63.41
46.51 42.66 45.69 47.48 45.94 46.28 47.31 44.92 43.86 43.67 41.08 37.79 36.47 41.12 50.26 55.60 56.74 57.39 58.45 60.23 58.88 61.27 63.84 65.10 66.23 67.28 69.25 70.24 71.27 71.81 70.42 69.21 67.52 67.18 65.40 65.34 65.47 64.81 64.14 63.79 63.37 63.48 63.60 64.68
46.18 41.98 42.36 44.82 49.77 50.38 49.21 47.12 44.85 41.00 39.40 39.86 40.24 42.50 54.18 55.25 55.88 59.03 59.82 60.73 59.06 60.47 62.99 64.65 65.49 66.29 67.95 68.85 70.76 71.08 70.88 69.67 68.66 68.03 66.70 66.47 66.43 65.15 64.17 63.84 63.75 63.59 63.95 63.53
48.62 40.94 40.65 41.72 44.33 46.86 48.06 47.48 46.34 43.51 41.83 40.34 39.91 43.02 53.91 53.40 53.38 54.73 54.70 56.08 57.43 59.42 60.38 64.22 64.57 65.09 66.83 68.28 69.90 70.57 70.69 70.05 69.44 68.49 66.98 64.26 63.39 63.23 63.69 63.49 63.37 63.42 63.05 62.67
54.20 41.47 42.04 41.49 42.48 46.07 45.02 47.87 47.87 45.18 40.63 40.61 42.98 45.75 49.41 52.80 53.84 54.48 55.64 56.62 57.75 59.24 60.74 63.56 64.30 64.97 66.97 68.23 69.60 70.28 70.31 70.34 68.80 68.18 66.82 63.55 62.56 62.77 63.46 63.68 63.70 63.46 63.18 62.87
47.54 41.98 43.93 45.17 48.81 49.60 49.36 49.14 47.93 44.93 45.68 44.50 45.02 47.21 49.45 53.28 54.40 55.26 56.72 57.96 58.57 58.35 61.12 61.39 64.31 65.75 66.91 67.75 69.03 69.65 70.04 69.14 68.08 67.24 66.17 64.57 64.25 63.93 63.34 63.63 64.17 63.53 63.73 63.44
45.34 43.06 44.95 46.11 48.73 49.67 47.79 49.38 50.06 50.33 49.22 48.57 47.51 48.86 52.96 55.55 56.70 55.31 56.88 56.82 57.12 58.13 61.66 63.31 63.35 66.21 67.16 68.15 68.37 68.94 69.11 68.48 67.31 66.53 66.24 65.42 65.11 64.42 64.42 65.21 64.29 63.64 63.77 63.18
45.86 44.19 42.22 41.08 46.83 47.89 45.86 48.79 48.96 50.57 53.19 50.72 45.59 48.75 53.92 53.30 54.72 54.15 54.86 55.74 56.05 57.18 58.52 60.92 65.15 65.74 68.24 68.92 68.72 67.27 67.50 67.38 66.26 65.85 65.66 65.03 65.25 64.88 65.46 65.54 64.08 63.84 63.46 62.73
44.99 43.33 41.23 42.07 42.00 38.95 46.52 52.97 55.01 53.02 53.56 53.58 51.93 53.20 55.61 55.38 55.38 55.08 54.86 55.31 56.08 57.12 57.48 57.37 59.15 63.84 68.78 70.27 68.95 66.57 65.66 65.93 65.64 64.87 64.74 65.72 65.70 65.08 65.56 64.61 64.01 63.82 63.95 63.94
50.68 47.33 43.91 39.49 38.43 42.75 48.92 51.38 52.77 51.36 51.37 55.54 53.37 54.66 54.78 55.79 56.62 55.07 56.35 56.25 56.68 56.93 58.50 59.68 60.21 63.03 66.10 69.29 67.79 65.38 65.17 65.53 64.84 64.24 64.49 65.33 65.93 65.35 64.79 63.81 63.75 64.35 63.74 62.88
50.97 49.76 47.45 44.24 40.48 37.64 45.49 53.95 56.37 54.67 45.96 55.21 55.59 54.70 54.65 55.25 50.68 52.87 56.98 58.60 59.17 60.29 61.07 61.59 61.60 66.50 65.91 66.43 66.21 64.99 64.50 64.15 63.91 64.45 64.93 65.57 65.63 65.13 64.20 64.27 64.49 65.18 63.93 63.63
45.66 45.91 42.42 42.16 40.63 43.43 52.25 56.15 56.26 44.00 46.04 54.95 55.58 54.53 53.84 53.75 54.78 56.28 57.13 57.98 59.41 60.75 62.19 62.93 65.54 67.28 65.78 65.94 65.79 64.38 63.83 63.44 64.60 64.91 64.60 64.46 65.41 65.01 64.77 65.08 64.87 63.82 62.97 60.52
47.16 45.78 43.88 44.18 41.67 39.38 54.96 54.92 51.25 52.32 53.86 56.09 56.47 56.45 56.53 56.16 57.43 57.67 57.80 56.72 57.42 57.35 59.68 62.54 63.49 65.75 65.98 65.75 65.80 64.10 62.47 62.70 62.75 61.24 60.82 61.69 62.78 65.75 66.46 65.45 64.09 62.20 61.10 60.14
47.09 49.02 48.51 48.34 46.88 52.26 54.40 53.72 54.14 54.48 54.22 55.82 55.59 56.60 56.69 56.58 56.87 59.42 58.80 58.45 58.15 59.01 59.83 61.56 62.76 65.36 65.60 65.87 63.79 60.19 58.72 60.92 61.03 59.67 59.62 61.56 59.19 59.58 62.26 63.88 62.92 61.03 59.39 58.56
52.06 54.21 50.31 50.71 52.44 54.63 55.72 55.99 56.17 56.67 56.25 57.11 57.13 57.47 57.29 56.36 58.12 58.95 59.79 60.42 62.01 62.85 61.26 64.32 63.15 62.14 60.81 61.68 60.79 59.66 60.64 60.74 59.42 58.99 58.61 61.07 58.78 58.13 62.28 62.09 61.49 60.06 58.60 56.24
51.47 50.85 51.07 51.09 54.69 54.67 55.53 55.58 56.28 57.49 58.39 58.01 57.99 57.94 57.51 57.74 61.97 63.22 62.71 62.15 61.56 61.00 61.24 61.64 61.57 60.75 59.20 59.48 59.36 59.95 60.36 59.32 58.78 59.66 59.28 59.02 59.32 61.04 57.64 54.72 53.65 55.29 48.79 51.75
50.30 50.09 48.90 47.33 53.52 51.89 52.80 55.05 56.29 54.29 54.60 55.65 54.79 54.44 55.59 57.45 59.37 63.91 63.06 62.19 60.33 59.55 60.13 60.77 61.05 61.28 59.62 58.99 58.79 59.39 60.33 59.18 57.64 56.58 57.96 60.25 61.01 58.53 54.28 51.22 49.25 45.68 44.27 43.03

GFSCGP_sfc_wetblb_009.txt.gz
Wetbulb
46.99 44.42 43.04 45.58 49.39 49.23 50.38 50.07 52.78 55.66 56.80 57.31 56.29 56.75 59.26 61.93 62.04 61.81 62.62 63.17 63.92 64.73 66.31 67.66 69.35 69.87 69.11 69.11 70.21 69.53 69.85 71.31 71.86 71.21 70.53 70.51 70.67 71.07 71.20 71.74 72.29 72.29 71.63 72.10
43.72 42.80 47.24 50.01 51.69 50.20 48.93 48.77 50.39 53.74 57.91 57.03 55.47 56.27 59.39 60.71 61.24 61.97 61.99 62.36 63.36 64.32 64.38 66.36 67.76 68.54 68.40 68.54 69.05 68.49 69.56 70.46 71.89 71.25 70.69 70.73 70.30 70.26 70.68 71.38 72.29 71.89 71.65 71.35
41.65 44.93 50.55 51.69 50.79 50.17 46.77 46.62 48.78 51.41 54.80 57.79 56.86 53.49 56.63 60.59 61.57 62.55 63.30 64.05 64.43 64.17 64.01 65.28 66.24 67.06 68.54 68.04 68.44 69.01 69.00 70.77 71.47 71.54 70.98 70.75 70.14 69.35 68.50 69.04 69.65 69.14 69.92 69.87
44.46 48.63 49.39 50.14 49.87 50.55 43.87 50.74 52.40 53.26 51.91 47.88 55.97 46.28 51.94 57.57 59.18 61.31 62.80 63.20 64.45 64.92 65.45 65.74 66.40 66.95 68.16 68.46 69.61 69.59 70.04 70.89 71.50 71.57 70.77 69.62 68.39 65.75 64.34 66.65 67.42 66.33 65.29 65.96
43.82 46.93 46.74 47.60 50.01 51.88 49.45 51.33 49.61 51.91 50.61 49.01 49.79 46.67 49.89 55.55 54.53 58.67 61.66 62.71 64.86 65.85 65.92 65.60 66.64 67.73 68.78 69.65 70.11 70.35 70.70 71.16 71.65 71.11 71.26 69.51 64.96 62.91 64.53 64.70 64.57 62.81 63.56 64.89
46.22 49.62 49.07 48.69 50.95 52.44 53.01 48.77 45.60 44.85 45.21 42.37 49.24 46.80 45.40 52.50 56.39 58.82 60.86 62.19 64.91 65.39 66.62 66.78 67.68 68.25 68.38 69.92 70.77 71.45 70.87 71.40 71.57 71.01 69.98 67.67 62.76 62.47 63.64 62.92 61.93 60.43 61.33 62.78
44.35 46.27 47.91 51.52 47.00 49.24 47.45 42.33 36.83 37.81 39.54 40.12 45.28 45.72 48.16 54.49 59.58 60.39 60.32 60.77 64.07 65.24 66.77 66.82 67.07 67.17 67.77 69.05 70.34 71.36 71.16 70.71 70.94 69.26 66.55 64.02 61.44 62.15 62.97 62.13 60.84 61.68 62.54 62.96
38.50 39.48 45.95 48.92 47.91 45.65 44.42 43.07 37.69 33.33 34.46 40.03 42.80 43.82 50.16 55.97 59.50 61.55 61.78 61.70 63.93 64.16 66.45 67.12 67.63 67.66 67.84 69.41 70.34 71.33 71.09 70.53 68.76 66.27 62.97 60.31 61.07 60.40 60.75 60.69 61.73 61.17 62.02 63.01
37.55 39.33 47.30 49.30 49.80 49.01 44.03 40.80 44.35 38.90 37.51 37.28 39.61 44.38 50.45 54.85 55.50 59.30 58.95 59.25 62.24 63.81 65.24 66.92 68.12 67.84 68.40 69.58 70.06 70.88 71.40 71.02 67.94 64.71 62.50 60.77 61.05 61.01 60.90 62.51 63.08 60.23 60.84 63.58
42.57 37.91 44.64 47.87 49.15 48.44 47.46 46.78 40.68 38.08 34.61 33.56 38.68 41.07 43.57 49.95 52.30 56.07 57.01 57.79 61.34 63.41 64.43 66.10 67.67 67.53 68.78 70.14 70.67 70.99 71.65 70.93 68.52 64.78 63.36 62.77 62.09 62.37 63.36 63.64 62.01 61.63 62.66 62.66
42.17 40.22 41.39 45.74 44.21 44.12 44.77 41.89 40.53 41.13 38.40 35.91 35.20 39.75 47.77 51.04 53.54 54.95 56.83 59.00 61.07 62.68 63.82 64.96 66.32 67.20 67.69 69.86 70.36 70.48 70.69 70.22 68.15 65.62 63.88 62.82 62.39 63.51 63.64 63.13 62.50 62.50 62.35 61.95
43.94 40.38 40.43 42.01 45.93 47.59 45.73 44.89 43.87 41.58 37.28 36.68 38.40 40.78 50.64 52.85 55.29 57.22 57.43 58.56 58.78 61.63 63.42 64.80 65.61 66.49 66.47 67.61 69.11 70.15 70.64 69.66 68.33 66.27 64.47 63.42 63.54 63.33 63.38 62.71 62.68 62.33 62.23 62.95
43.92 37.87 35.81 38.58 40.31 44.05 43.89 45.14 42.37 40.83 39.88 38.75 39.18 41.49 51.33 51.88 53.49 56.35 56.91 57.48 57.88 59.24 60.85 63.92 64.86 65.26 65.87 66.96 68.22 69.55 70.75 69.74 68.69 66.54 65.23 64.19 64.12 63.94 63.47 63.49 63.12 62.63 62.52 62.64
52.10 37.51 41.14 40.03 40.63 43.61 43.28 45.85 45.59 44.05 39.40 38.92 41.24 44.11 48.14 51.03 52.88 53.47 55.13 57.11 58.12 58.74 59.68 62.10 63.27 64.40 65.39 66.20 67.89 68.97 70.43 70.53 68.97 66.96 65.96 64.48 64.66 64.97 64.50 64.37 63.57 62.94 62.68 62.37
45.95 41.59 39.81 44.34 46.03 45.73 46.03 46.33 46.25 44.37 45.24 44.60 44.53 45.54 49.45 51.41 52.64 54.25 54.91 55.24 56.13 57.23 58.35 60.27 61.84 62.67 63.69 64.75 66.79 68.67 70.04 70.33 69.11 67.64 66.64 65.06 65.06 64.61 64.52 64.41 63.93 63.41 63.49 63.44
43.94 40.86 42.42 42.19 45.01 45.99 45.19 47.08 47.53 47.94 45.29 45.13 44.78 45.68 50.38 53.39 52.78 53.10 54.81 55.00 55.59 55.98 58.29 59.48 61.74 61.48 61.75 64.21 66.03 68.18 69.35 69.86 69.11 68.14 67.18 65.83 64.59 63.71 63.60 64.05 63.92 63.75 63.73 63.54
41.98 43.07 38.73 41.26 43.40 45.44 42.19 46.12 46.97 48.80 49.84 48.57 44.68 47.89 51.18 51.28 53.36 53.72 53.95 55.59 56.26 56.99 59.81 59.72 60.09 61.95 63.27 64.49 66.32 67.26 68.88 69.75 68.45 68.33 66.91 65.05 64.83 64.33 64.04 64.38 64.23 63.76 63.53 63.27
44.89 40.70 39.15 41.82 41.47 38.16 44.38 50.37 51.67 51.38 52.40 52.52 51.65 49.42 52.76 53.37 56.11 54.31 53.45 54.76 55.40 56.67 57.85 60.71 61.86 61.97 64.35 65.32 66.50 67.20 68.50 68.32 67.46 66.78 65.34 65.72 65.11 65.01 64.39 64.19 64.19 63.87 63.82 62.85
45.93 41.27 39.65 38.36 38.37 44.55 48.67 51.63 50.14 48.15 49.02 53.26 52.72 52.96 53.89 54.47 54.20 53.48 55.04 54.85 55.69 55.67 55.65 56.62 59.19 61.90 62.88 65.76 66.89 66.39 66.54 66.95 66.48 65.72 65.17 65.48 65.45 64.68 63.94 63.34 63.80 64.40 63.11 63.10
46.81 45.65 43.61 38.42 38.30 38.68 47.72 53.35 55.50 53.29 45.15 54.16 54.58 53.73 53.47 54.05 50.69 50.27 55.43 55.85 56.07 56.56 58.44 58.57 59.34 60.85 63.12 63.43 66.23 64.89 64.30 64.97 65.01 65.54 64.68 65.07 65.03 64.06 63.28 63.70 63.88 63.49 63.80 63.32
44.86 44.44 41.18 41.01 41.23 44.50 50.81 53.40 55.36 44.98 45.19 53.86 53.33 52.35 52.97 50.88 51.49 52.91 54.63 56.26 57.12 57.98 58.94 60.02 59.53 63.35 64.35 64.59 64.02 62.92 63.24 63.62 63.93 64.21 64.01 64.02 64.13 64.30 63.75 63.39 63.38 63.71 62.61 61.23
46.06 44.65 45.07 43.39 40.50 39.70 53.37 53.01 48.61 50.09 51.31 53.19 53.02 53.38 53.55 54.29 55.56 56.38 57.48 56.93 57.66 57.88 57.89 59.07 60.15 62.46 64.92 64.22 63.18 61.47 61.35 62.67 63.40 62.38 60.83 59.77 61.54 61.75 61.25 61.08 60.53 61.81 62.46 60.96
45.13 48.98 46.23 46.70 43.87 49.94 52.72 50.74 53.38 53.68 52.32 52.74 54.13 54.41 55.17 56.71 55.90 57.63 58.00 58.85 59.84 60.98 61.70 62.06 60.55 61.02 62.86 62.79 62.88 60.60 60.40 61.22 61.51 61.11 59.69 59.47 60.19 60.48 61.25 59.90 58.00 58.28 60.81 59.27
51.10 52.45 47.99 49.57 49.75 51.72 53.13 54.30 54.69 54.82 54.05 54.76 55.34 55.31 56.00 57.48 60.59 59.05 59.59 61.12 61.26 61.29 62.27 62.62 62.09 61.40 59.93 60.57 61.27 60.23 60.46 60.14 60.20 59.36 59.05 59.60 59.59 59.08 59.34 59.66 59.47 60.05 59.95 58.60
49.95 52.49 50.22 49.68 53.50 53.85 53.58 54.19 55.33 55.98 56.19 55.58 55.15 56.65 56.56 55.67 55.67 58.07 60.53 61.56 61.72 61.56 60.48 60.89 59.65 58.86 58.48 59.01 59.41 60.18 60.59 60.83 60.50 60.17 60.57 59.44 58.37 58.13 57.50 53.78 54.40 56.92 52.08 53.12
49.84 49.85 48.84 47.45 53.62 51.97 51.98 54.62 56.06 53.19 53.24 53.70 52.75 52.71 53.13 53.80 53.19 56.46 60.30 61.33 59.89 60.03 59.40 59.49 57.86 57.50 58.40 59.44 59.46 60.08 60.63 60.36 59.52 58.54 58.76 58.74 58.44 58.38 55.74 52.18 48.49 45.09 44.13 43.10

GFSCGP_sfc_wetblb_012.txt.gz
Wetbulb
45.12 43.41 41.66 45.87 48.40 52.01 50.83 51.97 51.91 54.22 56.71 55.32 54.83 55.37 59.43 61.35 61.58 61.31 61.81 62.71 63.98 64.55 66.92 67.94 68.48 69.80 69.24 70.20 70.85 70.99 71.03 71.82 72.10 71.52 71.25 71.64 71.59 72.48 72.61 72.70 73.34 73.29 72.33 72.96
43.13 41.31 46.12 48.86 50.01 49.66 51.29 50.22 50.55 52.99 56.94 56.07 55.12 55.35 59.26 60.97 61.11 61.67 61.94 62.20 63.09 64.32 63.83 65.68 67.45 68.60 68.42 68.75 70.48 70.43 70.85 71.30 71.74 71.67 71.63 71.79 71.80 71.96 72.11 72.42 72.90 73.53 72.91 72.75
40.39 44.07 48.67 50.19 48.42 47.71 45.84 46.99 48.62 52.42 55.54 56.35 55.71 52.94 54.85 59.59 61.19 62.00 62.69 63.37 63.84 63.82 63.23 64.29 66.39 67.77 68.23 67.70 68.96 69.69 70.10 70.71 71.58 72.01 71.49 71.34 71.27 70.63 70.07 71.13 71.71 71.79 72.16 72.14
42.78 46.73 48.23 47.71 48.55 49.02 43.47 49.57 50.36 52.34 52.59 46.50 54.12 43.44 52.02 56.34 57.90 59.70 61.03 61.86 62.76 63.55 64.68 64.77 65.70 66.78 67.86 68.02 69.10 69.59 69.66 69.67 71.15 71.79 71.35 70.81 69.85 68.97 68.40 68.98 70.56 69.74 69.44 69.15
43.75 44.61 45.59 46.36 48.57 50.66 48.00 50.72 50.17 51.61 49.03 48.01 50.02 45.17 48.52 55.99 54.54 57.62 60.20 61.75 62.84 63.91 64.59 64.77 65.51 66.77 68.02 69.01 68.63 69.09 68.83 69.56 70.98 71.56 71.89 70.84 68.81 68.04 65.49 66.83 68.36 66.92 66.25 66.88
46.37 47.99 47.70 47.40 50.14 52.11 50.96 46.62 45.42 44.22 44.62 40.54 47.47 47.82 45.21 51.22 56.46 58.81 60.93 62.50 63.63 64.51 65.06 65.71 66.44 67.32 67.38 68.78 68.99 69.26 69.08 69.48 70.97 71.36 71.25 70.76 69.08 65.16 64.71 65.13 65.25 63.88 63.88 64.79
43.09 44.53 46.63 49.55 46.30 47.87 45.68 42.22 36.40 36.37 38.33 38.89 44.68 45.72 49.91 53.30 58.81 60.11 60.28 61.95 63.81 65.04 65.15 65.16 65.22 66.23 66.88 67.64 68.45 69.26 69.18 69.23 70.79 71.22 70.95 70.67 68.89 64.79 65.03 64.91 64.41 62.45 63.24 65.09
38.27 37.47 44.57 47.47 46.27 44.68 43.89 43.07 37.20 33.19 34.00 40.04 44.65 44.46 50.21 57.29 57.91 60.70 61.34 62.36 62.92 64.31 65.65 65.58 65.83 66.47 67.02 67.96 68.56 69.31 69.36 69.35 70.65 71.21 70.87 69.71 67.55 64.47 64.74 64.63 62.91 62.74 63.90 65.38
36.87 37.92 45.29 47.39 48.34 47.83 42.17 40.16 43.37 37.18 34.25 36.07 39.41 44.02 50.43 53.06 53.55 56.85 58.65 59.96 60.98 63.51 64.89 66.11 66.54 66.94 67.30 67.83 68.58 69.45 69.68 70.08 70.48 70.75 70.12 66.61 64.74 62.56 62.92 63.30 63.51 63.47 64.28 64.95
41.49 35.95 43.14 45.64 47.33 46.73 45.48 45.46 40.57 36.60 32.99 31.83 37.33 39.55 43.05 48.38 52.03 53.23 55.45 58.27 60.43 62.74 64.38 66.26 67.03 67.38 67.84 68.34 69.07 69.90 70.56 70.28 70.52 70.37 68.84 65.98 63.43 62.86 62.57 62.54 63.39 62.84 63.24 64.68
41.63 38.58 39.92 43.58 43.21 43.33 42.31 40.51 39.17 39.28 36.91 34.33 33.52 37.85 46.15 48.94 51.64 53.38 55.14 58.71 59.62 61.20 63.30 65.41 67.22 68.05 68.37 68.81 69.13 69.51 70.28 70.62 70.47 69.56 67.53 65.62 62.68 62.71 63.13 63.44 64.30 63.64 63.40 64.06
42.69 40.96 38.79 40.45 43.76 45.78 45.63 42.89 41.95 39.73 35.33 35.75 36.59 39.17 49.34 51.20 51.79 54.83 55.82 58.36 58.43 60.82 63.15 64.72 66.78 67.76 67.94 68.08 68.72 69.38 70.12 70.70 71.17 70.04 66.75 64.94 63.63 63.59 63.85 64.08 64.34 63.90 64.04 63.90
42.74 36.83 36.32 36.84 38.93 42.05 42.01 43.17 39.51 39.28 38.24 36.27 37.49 39.87 49.91 50.35 52.30 54.84 55.45 56.31 57.36 60.11 61.12 63.51 64.66 66.19 67.04 67.30 68.42 69.55 70.14 70.46 71.25 69.70 65.79 64.56 63.59 63.70 64.13 64.30 64.04 63.66 63.86 63.90
51.17 36.76 39.56 39.20 39.89 41.98 41.29 44.11 43.03 41.56 36.93 37.64 39.74 43.59 47.07 51.20 52.05 53.67 55.58 56.75 56.68 59.03 60.77 62.17 63.19 64.52 65.86 66.22 67.18 68.78 69.71 70.82 70.75 68.83 66.30 64.96 63.99 63.92 64.39 64.54 64.14 63.90 63.66 63.55
43.41 39.12 38.50 44.66 43.58 44.11 44.13 44.55 43.81 42.11 42.16 41.51 44.22 44.27 48.41 51.03 52.22 53.38 56.65 57.22 57.20 57.17 57.77 60.74 62.69 63.53 64.16 64.55 65.70 67.55 68.89 70.43 70.41 68.04 66.69 65.94 65.38 65.20 65.07 64.62 64.69 64.15 63.68 63.86
42.81 39.57 39.14 42.72 44.52 44.40 43.77 44.97 45.37 45.30 45.08 43.54 44.43 44.67 49.45 52.28 53.48 53.72 54.71 56.09 57.00 57.74 58.53 58.88 60.53 61.58 62.11 63.44 64.46 66.73 68.12 69.48 70.44 68.37 67.21 67.43 65.83 65.54 65.54 65.42 64.99 64.46 64.07 64.12
41.50 38.97 36.50 39.10 41.77 40.79 38.48 44.17 44.45 45.35 46.69 47.27 43.63 49.35 50.11 51.11 52.58 53.44 53.90 55.40 57.21 57.98 58.22 57.70 59.15 60.92 61.34 62.04 64.24 65.56 67.60 69.60 69.90 68.73 68.38 66.65 64.83 65.36 65.13 64.94 64.73 64.86 64.26 64.28
44.41 38.33 37.08 38.04 38.26 32.57 43.44 47.51 48.39 47.88 50.02 50.34 50.48 49.71 51.44 52.75 54.63 54.74 55.16 54.83 55.45 56.55 58.25 58.28 59.20 61.19 62.43 62.80 63.96 65.52 67.61 68.83 69.15 68.58 68.06 65.74 65.25 64.45 64.87 65.05 64.97 64.87 64.37 64.06
46.62 40.04 37.08 35.97 35.12 40.06 47.57 50.17 50.16 49.81 49.11 53.78 51.73 53.55 53.27 53.87 54.21 53.65 55.49 56.04 56.26 58.04 59.05 61.04 61.35 61.11 61.74 63.80 64.87 65.86 67.35 68.29 68.34 67.75 66.50 66.10 65.39 65.01 65.38 64.99 64.39 64.72 64.76 64.16
48.79 45.49 41.01 35.93 35.64 36.87 44.70 51.01 54.49 52.73 44.65 53.09 53.62 52.40 52.49 53.62 48.88 50.34 55.04 56.56 56.44 57.02 57.68 58.17 59.09 60.05 61.73 63.04 66.00 65.76 66.12 66.65 66.87 66.45 66.36 66.45 66.41 66.86 65.80 65.36 64.64 64.63 64.74 64.77
43.67 45.11 41.81 39.40 39.73 42.84 50.18 52.33 54.47 45.38 45.09 51.79 52.74 52.79 52.91 50.80 51.73 54.47 56.39 56.83 57.62 57.96 59.04 60.20 60.68 61.33 63.40 65.27 65.74 64.69 64.70 65.33 65.89 65.62 65.92 65.91 66.14 65.20 64.81 64.47 65.12 64.66 63.77 62.53
45.37 42.80 43.33 43.39 39.37 38.80 51.78 52.26 47.74 50.48 52.92 52.87 53.53 53.55 53.28 53.57 55.72 57.53 58.05 58.94 60.38 60.38 61.52 62.15 61.06 60.75 65.10 65.72 65.34 63.96 63.67 64.29 64.65 64.05 64.22 64.37 64.64 65.25 63.91 62.41 63.12 63.31 62.42 61.41
45.09 49.13 46.17 46.15 43.59 49.83 52.31 50.66 52.66 53.06 54.15 54.49 55.65 56.72 56.80 55.61 55.44 57.14 58.16 59.86 60.75 61.47 61.95 63.22 62.82 62.47 62.12 63.57 63.63 61.72 62.30 63.34 62.12 61.03 60.69 60.82 61.81 62.23 62.10 61.08 61.01 60.83 61.12 60.82
50.43 51.86 48.74 48.31 50.76 52.08 52.92 53.58 54.42 54.62 53.53 54.35 54.31 54.52 54.32 53.33 55.24 56.42 57.98 59.09 60.28 61.02 61.01 62.06 60.99 59.77 59.27 60.30 61.03 61.14 62.09 62.45 60.90 59.61 59.83 60.02 60.09 60.11 61.26 60.80 59.33 59.88 60.35 60.52
48.97 51.56 49.91 49.73 51.44 52.46 53.89 54.38 54.97 54.29 54.08 52.96 53.34 52.89 52.73 52.94 53.00 55.26 56.67 60.62 60.69 60.49 60.95 60.46 59.75 59.34 59.85 60.07 60.69 61.26 61.79 61.64 60.58 60.10 59.70 59.80 60.56 60.16 58.25 51.23 53.95 59.48 56.06 57.01
47.36 48.94 48.02 47.52 52.48 50.94 52.27 54.29 54.95 53.06 52.74 53.00 53.07 52.14 52.24 52.27 52.13 54.09 52.90 56.25 60.47 60.17 60.62 58.62 58.21 58.89 59.08 59.88 60.51 61.20 62.35 62.48 61.37 60.73 60.46 59.70 59.27 58.54 55.40 53.85 51.66 44.83 43.80 43.72

GFSCGP_sfc_wetblb_015.txt.gz
Wetbulb
52.11 49.03 47.06 51.41 56.25 57.35 57.53 57.04 56.81 59.09 61.15 60.24 59.61 59.98 62.21 64.86 65.26 65.16 66.70 67.28 67.86 68.75 71.11 72.52 73.07 73.88 74.09 74.52 74.88 75.37 75.57 76.53 76.53 75.66 75.03 75.20 74.74 76.80 76.72 78.47 76.91 77.29 77.31 77.00
49.00 46.79 50.89 53.32 53.85 56.03 57.53 56.52 56.94 58.91 61.06 60.66 59.42 59.23 62.21 64.27 64.51 65.35 65.77 66.81 67.80 68.76 70.12 71.27 72.31 72.76 73.15 73.67 74.20 75.05 75.64 76.61 76.41 76.19 76.17 75.97 76.07 76.39 76.54 77.17 77.30 77.41 76.94 76.97
47.36 48.57 51.19 51.53 52.06 52.00 55.89 56.44 56.60 56.79 59.02 60.39 59.72 57.47 59.73 63.34 65.05 65.61 66.29 67.06 67.69 67.93 68.61 69.62 70.56 71.62 72.66 72.86 73.73 74.65 75.88 76.68 76.63 76.81 76.39 75.84 76.24 76.02 75.44 75.36 75.46 76.32 76.75 76.47
48.13 50.56 49.62 50.30 51.29 53.10 51.55 56.80 58.40 57.40 56.51 52.66 59.46 51.06 58.01 61.39 62.38 64.00 65.19 65.80 66.51 67.39 68.63 69.36 69.73 70.86 71.88 72.46 73.73 75.33 75.73 76.51 76.36 76.76 75.74 75.40 73.95 73.40 74.47 74.44 75.35 75.88 76.31 75.57
48.75 47.78 48.79 49.12 50.94 53.93 53.19 55.50 56.64 57.82 56.84 55.16 55.59 52.95 56.42 60.40 59.72 62.26 64.49 65.68 66.66 67.65 68.24 68.50 69.49 70.61 71.95 72.72 72.97 73.92 75.49 76.15 76.16 76.37 76.62 75.11 74.83 75.05 74.89 73.64 74.60 75.83 74.74 74.52
51.51 51.38 50.89 51.22 53.58 54.86 54.43 53.57 53.33 55.48 55.27 49.04 54.03 53.62 53.16 57.44 60.08 62.20 64.38 65.77 66.59 67.31 68.20 69.16 70.23 70.96 71.36 72.77 72.88 73.26 74.61 75.59 75.55 75.53 75.76 75.71 75.36 75.11 73.41 72.63 71.63 73.11 72.54 71.59
50.19 49.64 51.36 51.71 50.58 54.58 53.48 51.90 46.62 45.73 46.38 45.91 53.07 53.29 55.02 59.33 62.21 63.32 64.02 64.97 66.44 67.60 67.92 68.42 69.16 69.66 71.08 71.59 72.50 73.07 74.47 74.45 74.90 74.77 75.38 75.56 75.69 75.90 74.36 73.54 71.91 72.18 71.28 69.95
46.04 44.04 49.30 51.71 50.81 50.60 51.31 51.51 47.64 42.47 43.85 46.54 50.70 49.03 54.02 60.99 62.33 63.70 65.63 66.15 66.87 67.11 68.41 68.46 70.26 70.45 70.70 71.19 73.03 73.52 74.00 74.32 74.33 74.37 75.59 76.42 76.47 75.06 74.29 73.73 72.23 71.80 71.46 70.40
46.14 45.88 49.40 50.61 52.24 53.38 50.92 48.49 53.71 48.74 46.38 47.08 50.31 53.53 56.32 59.40 59.99 61.35 62.78 64.93 65.79 66.95 67.96 68.66 69.73 70.17 71.06 71.99 72.72 73.37 73.97 74.46 74.86 74.56 75.98 75.82 75.92 75.47 74.25 73.46 72.12 71.67 71.73 70.11
49.33 44.85 49.28 49.98 52.11 52.02 51.47 53.08 47.04 48.08 44.53 42.11 46.32 48.24 50.13 56.74 59.08 61.53 61.43 63.19 65.24 67.18 68.02 69.00 70.29 70.99 71.80 72.27 73.21 73.83 74.36 74.19 74.85 74.21 75.46 75.37 75.09 73.07 74.29 72.85 70.28 71.16 71.13 70.74
51.37 48.93 46.98 48.87 48.28 47.87 48.81 48.19 48.98 50.58 48.98 45.88 44.17 47.36 56.59 58.25 60.59 60.97 62.34 63.07 64.78 66.55 67.46 69.21 70.79 71.46 72.13 72.35 72.57 72.93 73.64 74.31 74.55 74.87 75.66 75.69 73.60 72.98 71.45 71.21 70.04 68.06 70.56 69.96
50.89 49.46 46.23 47.31 50.19 51.08 50.99 49.93 50.92 47.38 46.63 47.50 48.12 48.62 56.30 58.16 60.07 60.94 62.20 63.34 64.44 66.45 67.42 69.02 70.05 70.80 71.04 72.01 72.00 72.25 73.48 73.27 74.44 74.93 75.34 74.43 72.73 69.42 71.12 65.74 68.77 69.83 68.79 69.17
49.66 47.25 44.09 45.45 48.53 49.92 47.98 49.65 50.76 50.81 50.72 49.49 45.48 47.91 58.13 57.65 57.95 59.73 60.37 63.39 64.36 65.66 66.84 68.46 69.44 70.59 71.51 71.85 72.73 72.91 73.13 73.16 73.95 74.62 73.81 73.17 71.64 69.08 68.23 69.11 67.75 68.49 68.64 67.98
54.90 50.18 48.18 44.67 47.53 49.84 47.26 47.86 49.29 49.03 47.04 47.50 48.06 50.54 54.51 56.97 58.54 60.81 61.78 63.05 64.24 64.43 66.04 67.87 68.72 70.32 71.60 72.78 73.08 73.20 73.10 73.52 73.78 74.01 73.93 73.36 72.02 70.89 69.30 66.54 66.43 65.14 65.61 66.60
54.23 48.63 48.87 50.03 51.19 50.05 48.94 47.52 48.04 48.04 50.00 48.12 49.78 50.68 55.38 58.23 59.75 61.84 64.26 64.62 63.49 63.68 65.15 67.41 67.78 69.81 71.48 72.19 73.09 73.17 73.14 74.42 74.76 74.25 73.64 72.66 72.02 71.26 69.55 68.12 66.79 65.74 64.49 65.26
51.48 48.62 48.30 47.06 49.37 49.65 47.75 49.35 49.01 48.93 49.07 49.84 50.61 52.39 58.02 60.24 60.69 60.63 62.42 63.13 63.41 63.83 64.61 66.58 68.27 69.04 69.60 70.93 70.95 71.51 72.48 73.55 74.59 74.33 73.19 73.02 71.72 69.86 69.12 68.65 68.26 66.76 64.97 66.03
53.51 49.42 47.39 45.78 49.25 47.91 45.11 48.79 49.37 50.21 51.36 51.19 49.41 54.11 59.58 57.24 58.42 60.71 63.65 63.41 64.10 65.32 65.46 65.93 67.62 69.44 70.05 69.96 70.84 70.69 71.56 72.97 73.72 73.54 73.40 72.45 71.24 69.29 69.13 68.88 67.79 66.94 64.22 64.44
52.16 49.76 48.18 46.63 46.48 39.31 48.59 52.62 51.95 50.72 51.85 53.26 53.63 55.84 58.71 59.00 61.28 62.50 63.75 64.15 64.35 65.92 66.69 66.84 66.27 67.47 69.11 69.83 70.22 71.26 71.71 72.46 72.90 73.34 72.73 72.02 70.36 69.69 69.24 69.40 67.84 67.30 67.60 63.71
55.15 50.45 48.17 45.15 45.77 48.60 49.99 53.13 50.32 49.32 50.85 54.90 54.22 56.60 58.42 58.36 59.29 60.26 61.02 61.95 63.96 64.28 65.47 66.48 67.19 67.95 69.06 68.97 69.85 70.46 70.96 72.02 72.59 72.69 72.44 71.35 70.42 69.76 68.91 68.46 66.78 66.30 66.88 66.61
52.59 52.67 48.80 47.12 41.45 41.56 50.60 54.46 57.03 56.35 48.44 58.03 58.61 58.94 59.20 58.55 54.67 59.56 60.45 61.91 63.01 64.63 66.49 67.08 67.24 68.46 69.39 69.87 70.54 70.74 71.00 71.56 71.66 72.31 72.10 71.63 70.76 69.84 68.76 66.94 66.59 67.95 68.44 67.51
49.76 51.05 47.52 47.89 45.10 49.01 53.39 54.80 57.14 48.74 51.87 57.39 58.75 59.68 58.67 58.10 58.91 60.41 62.37 63.64 65.22 65.45 65.73 67.40 68.52 68.79 70.19 70.74 71.53 71.18 71.08 71.06 72.28 72.14 72.13 70.77 70.03 69.00 66.94 67.08 67.66 68.24 67.53 66.77
49.76 48.08 48.15 48.61 45.78 44.79 55.52 55.42 52.26 55.43 57.35 57.77 59.05 59.37 59.31 61.15 62.59 63.38 64.36 64.88 66.08 66.23 66.67 67.66 68.25 68.39 69.62 70.75 71.48 70.43 70.08 69.94 70.47 70.33 69.99 69.15 69.30 68.99 67.90 66.97 67.28 67.37 67.57 67.08
48.47 52.55 48.87 50.55 49.53 55.19 56.54 55.10 57.67 59.15 59.02 59.76 60.01 60.42 61.48 60.40 61.09 62.79 63.30 64.25 64.83 65.76 65.91 67.50 67.06 67.70 68.42 69.57 70.77 68.82 66.90 68.96 69.40 68.79 67.70 68.31 69.09 69.43 69.00 68.12 67.85 67.12 67.15 64.37
53.68 55.66 51.42 51.90 53.73 54.70 55.60 57.26 57.64 58.02 57.29 58.10 59.35 59.86 60.37 59.81 62.75 64.29 65.09 65.34 65.40 65.42 65.26 65.97 64.94 63.97 64.22 66.89 68.38 66.98 67.23 68.91 68.59 68.20 67.73 68.27 68.48 67.65 67.91 67.11 66.55 64.90 63.79 63.18
51.70 54.23 52.05 52.08 53.64 54.94 55.80 55.71 55.75 55.92 56.70 56.64 57.44 58.27 58.18 57.51 58.06 61.43 63.78 64.71 65.31 65.55 65.67 66.08 65.69 65.28 63.62 65.38 66.18 67.73 67.93 68.11 67.54 67.42 67.18 67.67 67.75 66.97 61.35 57.89 60.74 64.00 64.23 60.48
48.37 50.94 51.33 49.91 55.04 55.43 55.37 55.50 55.86 54.08 54.72 56.03 56.26 56.48 58.13 59.21 58.94 59.79 60.62 62.71 64.31 64.67 64.50 63.98 64.98 64.51 64.21 65.30 65.83 66.75 67.27 66.64 66.54 65.23 65.00 64.81 64.09 62.10 60.87 59.68 55.05 43.95 44.65 43.73

GFSCGP_sfc_wetblb_018.txt.gz
Wetbulb
54.39 51.63 50.14 53.42 56.31 57.67 57.91 57.43 56.72 58.97 63.49 62.43 61.57 61.23 64.30 67.00 67.34 67.08 67.98 68.43 68.53 68.85 71.17 73.05 74.06 74.62 75.12 76.09 76.64 76.98 77.05 78.04 77.71 77.25 76.24 75.84 75.10 76.29 76.97 77.66 77.77 78.10 78.05 77.98
51.86 49.23 53.34 55.65 56.22 56.54 57.17 56.63 56.77 59.97 63.16 62.63 61.65 61.12 63.66 65.66 67.00 67.39 67.66 68.50 69.21 69.32 70.54 72.27 73.74 74.54 74.79 75.58 76.50 77.24 77.54 78.15 78.25 77.71 78.29 76.96 76.39 76.24 76.91 77.85 77.92 78.25 77.81 78.04
50.28 51.14 53.77 53.35 54.20 55.02 56.77 56.30 56.89 58.43 61.78 63.11 61.31 60.19 61.97 64.40 66.63 67.74 68.35 68.86 70.04 69.81 69.86 71.08 72.29 73.71 74.58 75.04 76.15 76.94 77.93 78.32 78.80 78.90 78.03 77.84 77.95 77.15 76.33 76.21 76.31 76.99 77.96 77.97
51.62 53.40 51.77 51.69 51.86 55.20 54.00 58.01 57.92 58.60 58.94 55.47 61.45 53.13 59.24 62.17 63.54 65.97 67.62 68.09 68.48 70.08 71.04 71.51 72.07 72.88 73.99 74.86 76.31 77.42 78.10 78.61 78.90 79.40 78.76 78.32 75.27 73.59 73.97 74.78 74.90 75.37 77.23 76.60
50.17 50.62 50.36 50.03 51.40 55.03 54.91 58.47 57.86 58.64 58.59 57.94 58.35 55.71 57.90 61.78 61.63 64.04 66.92 68.15 68.21 68.93 70.16 70.86 71.59 72.40 73.88 74.86 75.47 76.65 77.93 78.77 79.11 78.92 79.38 77.17 76.61 75.34 75.20 74.81 75.36 76.38 76.79 76.48
53.16 54.57 52.56 52.21 53.25 54.75 57.36 56.71 57.40 57.93 57.78 52.76 56.71 56.47 55.99 58.79 61.88 63.36 65.98 68.02 68.57 68.14 68.86 69.91 71.32 72.28 73.04 74.54 75.13 75.83 77.42 79.07 79.04 78.64 78.60 78.23 77.60 76.53 74.58 75.08 73.66 73.64 74.32 75.42
51.91 51.59 52.62 53.18 51.55 54.12 55.64 54.97 50.70 49.62 50.08 50.11 57.55 55.36 56.76 59.62 61.61 63.20 62.93 67.00 68.91 68.70 68.63 69.15 69.92 70.74 72.19 73.35 74.29 75.12 78.07 78.56 78.85 78.08 77.78 77.92 77.75 77.62 77.06 76.52 73.77 73.72 72.61 72.39
48.34 46.16 51.72 53.05 52.09 51.97 53.34 54.56 51.06 46.21 47.19 49.98 56.47 52.25 55.70 61.82 62.71 62.98 64.35 65.61 68.56 69.29 68.88 69.23 70.34 71.14 72.13 73.12 74.64 75.74 77.60 78.29 77.74 77.48 77.92 79.18 78.65 77.03 76.60 77.11 73.98 72.78 71.52 72.19
49.22 48.70 53.46 53.09 53.43 54.10 52.90 52.28 56.60 53.01 53.50 50.51 52.68 56.09 59.00 60.75 61.25 62.44 63.41 65.28 66.83 69.01 69.43 69.13 70.47 71.51 72.52 73.51 75.38 76.78 77.88 78.62 78.29 77.12 78.65 78.20 78.76 78.15 77.35 77.97 76.95 73.98 74.52 72.36
53.34 48.92 52.86 53.11 53.84 53.96 54.10 56.34 51.29 52.79 48.21 46.27 50.36 52.50 53.90 58.11 59.33 60.86 61.86 63.78 66.29 68.53 69.68 69.91 69.98 71.53 72.96 73.96 74.90 75.85 77.55 78.43 77.83 77.15 77.22 76.91 77.16 77.99 77.84 77.92 76.64 75.56 74.81 74.01
54.78 52.10 51.01 52.82 50.65 50.18 51.21 51.40 53.70 54.37 52.61 48.50 47.51 50.50 58.15 58.32 59.67 59.80 60.78 63.81 65.51 67.11 69.29 70.35 70.90 71.63 73.35 74.23 74.72 75.40 75.97 76.56 76.72 77.36 78.04 78.10 77.04 77.05 77.80 77.04 75.50 75.24 74.73 74.38
55.52 53.45 49.15 48.60 52.64 53.37 53.26 52.53 54.05 49.98 50.56 52.41 51.38 51.62 59.25 59.98 60.06 60.39 60.95 62.01 62.99 66.22 68.34 70.49 71.58 72.38 72.68 73.54 74.46 74.99 75.59 75.87 76.54 77.93 78.13 77.58 77.63 77.92 76.51 76.56 76.02 74.46 73.81 73.56
55.87 52.22 48.07 49.24 50.68 51.86 50.29 52.32 53.23 54.07 54.09 53.43 49.19 51.27 59.96 59.77 60.44 61.49 62.36 62.91 64.81 68.09 68.69 70.35 71.27 72.21 72.83 73.54 75.52 74.84 75.56 75.70 76.24 77.38 76.55 76.91 77.18 76.76 76.71 76.32 74.65 73.84 72.44 72.01
57.10 52.83 50.49 47.06 49.80 52.13 49.31 49.55 51.22 51.58 50.33 50.85 51.44 54.17 57.15 58.46 59.10 60.55 62.20 64.34 65.15 67.67 69.00 70.24 71.01 72.15 73.45 74.50 76.46 76.58 75.14 75.94 76.20 76.36 76.53 77.56 77.50 76.66 75.43 76.05 73.56 72.22 70.12 70.50
54.05 50.98 53.10 52.55 52.66 52.68 51.77 50.68 50.07 49.31 50.72 49.77 52.41 53.33 56.63 58.85 59.52 60.63 61.83 62.62 64.10 67.72 68.66 69.68 70.69 72.04 74.00 74.67 75.93 75.68 75.70 76.41 76.78 76.17 76.30 76.82 77.42 76.80 75.75 74.84 73.09 71.68 69.89 69.31
55.91 52.48 54.05 51.79 53.42 53.01 51.32 52.28 52.14 50.78 50.51 50.95 51.62 52.49 58.41 59.79 60.42 60.55 61.02 62.07 63.35 67.00 68.69 69.77 71.20 72.49 73.42 74.34 74.98 75.50 75.64 75.75 76.53 76.34 76.14 77.42 77.06 76.00 75.29 74.15 72.85 71.60 71.38 69.84
54.28 53.03 52.63 49.22 53.22 52.39 49.14 52.54 52.84 52.94 52.63 51.57 49.52 54.01 57.30 57.33 58.93 61.31 63.66 63.72 64.41 66.39 69.20 69.81 70.88 72.98 73.86 74.56 75.49 75.16 75.54 76.20 76.30 76.14 76.50 76.70 76.83 75.63 74.44 73.27 71.94 71.42 70.36 69.09
55.34 54.89 53.82 50.19 52.48 44.85 52.75 56.20 55.16 53.54 53.90 53.43 53.54 54.99 56.66 57.95 60.27 62.46 64.81 65.00 65.50 66.92 68.62 70.49 70.94 72.16 73.87 74.30 74.66 75.26 75.29 75.71 75.85 76.05 76.22 76.47 76.06 74.02 72.93 71.84 70.86 71.27 69.53 68.19
56.39 55.87 51.52 48.88 48.55 51.99 52.92 56.37 56.02 53.76 53.14 56.27 55.17 55.95 56.96 58.33 59.96 62.24 65.05 66.44 67.36 68.33 69.98 71.61 71.66 72.32 73.55 73.42 74.30 74.56 74.33 74.66 74.91 75.15 75.64 75.82 75.22 73.62 72.06 71.36 69.71 70.13 69.28 68.04
55.68 56.74 52.89 51.12 46.79 45.03 54.14 57.17 59.61 59.10 51.67 57.80 57.17 56.79 57.17 58.39 55.20 59.00 66.63 66.13 66.06 67.88 70.08 70.37 71.06 71.64 72.19 72.76 73.49 73.57 73.37 73.99 74.24 75.08 75.48 75.77 75.03 73.95 72.16 71.74 70.61 70.30 69.26 67.26
51.71 53.23 49.83 51.17 49.47 51.72 56.38 57.52 59.87 50.59 52.79 60.98 62.30 58.37 58.01 58.33 60.52 65.63 66.32 66.93 68.14 69.18 70.14 71.19 71.46 71.50 72.50 72.72 73.28 73.07 73.54 73.72 74.94 75.64 75.86 75.67 74.74 73.67 72.38 72.17 71.34 68.70 66.92 67.46
51.53 50.30 49.63 51.94 49.25 47.04 58.19 57.69 53.94 58.53 62.74 62.42 62.37 63.40 62.91 64.83 64.71 66.11 67.19 67.51 68.45 68.85 69.83 70.83 71.02 71.78 73.09 74.16 74.39 73.82 73.83 75.60 75.91 75.73 75.40 73.96 72.48 71.84 71.45 70.73 69.05 68.43 68.21 68.40
50.49 54.19 52.50 53.61 53.46 58.59 58.99 57.56 59.49 62.36 62.08 63.41 63.56 63.73 64.69 64.65 65.47 66.40 66.93 67.84 68.06 68.56 68.90 70.16 70.87 71.60 72.91 74.35 75.01 74.19 74.86 75.26 74.93 74.34 73.45 71.12 70.45 70.51 70.60 68.90 68.64 68.75 68.72 67.86
56.79 59.76 55.74 55.05 56.32 57.75 58.74 58.83 58.91 60.43 61.28 62.68 64.41 64.96 65.39 64.48 65.41 66.00 66.71 67.27 67.78 68.54 68.87 70.12 70.41 70.41 71.10 72.85 73.25 73.33 73.52 73.33 73.27 70.65 70.03 69.50 69.10 68.33 68.89 69.45 69.58 68.83 68.42 68.12
55.34 57.71 56.41 55.39 57.28 58.61 58.39 58.16 57.95 58.57 60.24 60.99 62.03 62.57 63.84 65.57 66.04 67.23 67.25 67.35 68.11 68.48 68.94 69.61 69.52 69.92 70.23 71.60 71.47 72.07 72.25 72.52 71.66 70.80 70.34 70.23 69.84 68.01 61.87 58.15 52.55 63.06 58.59 57.09
50.95 52.31 54.58 53.48 58.18 58.10 53.69 55.58 56.34 55.93 56.97 59.63 60.40 60.78 62.19 62.16 62.10 62.96 63.80 65.48 66.99 68.49 69.17 69.47 69.88 70.47 70.56 71.34 71.44 71.46 72.24 72.54 71.22 70.11 70.09 69.55 67.34 65.82 66.01 65.60 63.44 44.49 45.15 44.25

GFSCGP_sfc_wetblb_021.txt.gz
Wetbulb
55.72 52.22 50.50 53.87 56.46 57.66 58.42 57.88 56.78 59.19 61.14 61.12 61.04 61.50 63.68 66.60 66.66 65.44 65.35 66.78 67.36 68.23 71.06 72.30 73.23 73.56 73.90 74.88 75.88 76.22 77.34 80.07 77.99 76.27 76.01 76.03 75.38 76.06 76.07 77.01 78.13 79.06 78.46 77.84
53.28 50.37 54.02 56.01 56.76 56.56 57.31 57.21 57.33 59.32 60.98 60.86 60.71 60.63 64.05 66.12 66.48 67.07 66.41 66.36 67.23 68.19 69.44 71.28 72.89 73.32 73.93 74.72 76.07 77.84 78.38 80.12 79.03 77.63 77.71 77.73 77.19 75.07 76.16 77.58 79.59 78.42 77.69 78.33
51.16 52.43 54.74 54.74 55.21 55.32 56.14 56.35 57.36 57.11 60.90 62.32 60.85 59.31 61.38 64.44 67.08 67.56 67.72 67.82 68.07 67.93 68.16 70.00 71.93 72.97 73.97 74.37 75.70 78.29 79.85 80.55 80.33 80.42 78.97 78.11 77.87 76.64 75.63 74.62 75.81 77.49 77.38 77.68
52.53 54.89 53.06 53.04 53.35 55.65 53.75 58.27 58.14 57.78 57.24 55.80 60.70 54.05 60.15 62.33 63.17 65.93 67.38 67.98 67.79 68.40 69.00 69.68 71.36 72.77 73.56 74.42 76.19 79.01 79.90 80.68 80.38 81.24 78.62 79.20 75.96 73.85 73.61 74.64 75.20 75.32 75.95 75.97
52.29 52.38 52.40 51.51 52.96 56.04 54.93 58.94 58.42 58.24 57.20 57.59 57.01 54.95 57.46 61.73 60.75 62.96 66.20 67.84 68.44 68.54 69.17 69.21 70.61 72.25 73.73 74.75 75.40 77.04 80.14 81.09 81.13 80.90 79.99 77.56 77.27 74.75 74.74 74.49 77.76 77.30 78.22 75.96
53.99 56.34 54.65 53.54 54.93 55.77 57.12 57.51 57.99 57.81 56.73 51.72 57.15 54.88 56.63 57.80 61.43 62.93 64.98 67.30 69.09 68.93 69.46 70.56 71.18 72.15 72.99 74.27 75.08 76.05 79.51 80.87 81.54 81.09 80.61 80.47 80.31 77.29 75.28 75.86 74.22 73.40 74.21 74.36
53.28 53.33 54.66 55.07 52.44 55.30 55.17 54.60 50.76 50.02 50.39 49.86 58.10 55.50 57.82 61.37 62.93 63.74 63.83 65.25 68.30 70.16 69.04 69.59 70.67 71.10 72.57 73.87 75.23 76.13 79.04 80.42 81.38 80.43 80.18 79.71 80.16 79.97 78.78 77.71 74.47 75.71 72.99 73.26
49.95 48.20 53.31 54.37 52.76 52.06 53.14 53.65 50.89 46.78 48.22 50.86 56.58 53.85 57.48 63.43 63.49 64.67 64.98 64.67 66.75 69.56 70.16 69.16 70.06 70.72 71.96 73.51 76.18 76.89 78.32 79.90 80.77 80.34 80.81 81.01 80.98 77.34 76.88 77.82 75.51 72.97 72.48 73.63
50.86 50.69 55.36 54.74 54.72 53.75 52.77 52.01 56.33 52.98 54.29 51.59 53.79 56.97 59.79 62.37 62.63 63.14 63.37 63.36 63.87 68.27 69.85 69.48 69.98 70.24 71.09 73.56 75.93 77.08 78.20 79.74 80.31 80.17 81.12 80.90 80.50 79.99 77.34 79.10 79.15 75.77 77.18 73.57
54.19 50.49 54.58 54.38 55.23 54.20 52.93 56.02 52.04 53.94 49.18 48.32 51.74 53.55 54.56 59.58 60.26 61.61 62.14 62.44 63.95 65.92 69.02 70.04 69.88 70.61 72.15 72.57 75.20 77.21 78.40 79.71 80.26 80.27 80.59 79.91 80.20 80.61 80.32 80.39 79.73 78.33 78.07 76.24
54.47 53.33 52.72 54.80 52.64 51.28 50.97 51.82 54.04 54.53 53.65 49.47 48.66 52.59 59.40 60.44 61.64 61.33 62.12 63.10 63.69 64.96 67.99 70.07 70.38 71.06 72.46 72.64 73.45 75.48 77.49 78.85 79.59 79.73 80.17 79.88 79.63 79.09 80.05 79.32 79.38 78.80 78.56 77.54
55.00 53.37 50.80 52.30 55.41 55.46 53.56 51.94 53.28 53.18 51.89 53.13 52.36 52.47 60.47 60.82 61.52 61.82 62.50 63.19 64.18 64.97 66.26 68.80 70.57 71.25 71.64 73.56 72.98 74.11 75.67 76.32 78.40 79.09 80.25 79.81 80.11 79.36 78.83 79.10 79.24 79.25 77.74 77.70
55.07 52.04 49.15 50.55 53.14 54.67 52.31 52.66 53.14 53.76 54.93 54.54 50.78 52.45 61.13 61.26 61.42 62.12 61.75 62.87 64.03 64.76 65.34 66.75 69.56 71.31 73.00 74.29 74.96 74.97 75.98 75.32 76.64 78.67 78.78 79.76 79.69 79.19 78.76 79.25 79.48 78.95 77.97 74.81
59.72 53.29 51.12 48.99 51.26 53.14 50.73 51.12 52.20 52.05 51.27 52.15 52.64 54.84 58.48 59.81 60.61 61.58 62.18 63.27 63.95 64.60 67.73 69.08 68.53 70.45 73.57 74.87 76.02 76.81 76.31 75.94 76.41 77.10 77.57 78.74 79.68 79.61 79.11 79.58 79.41 79.06 77.38 75.65
55.84 52.07 53.70 53.44 54.31 54.19 52.40 50.51 50.74 50.34 52.21 50.70 53.10 54.44 57.71 59.85 60.70 62.22 62.61 63.21 63.38 64.10 65.49 69.45 69.79 70.23 75.22 76.14 77.24 77.29 77.95 78.16 77.63 78.46 78.47 79.11 80.21 80.23 80.12 79.20 79.31 78.86 76.77 75.89
56.17 52.09 54.14 52.06 53.46 53.02 51.75 52.97 52.16 51.73 51.20 51.88 52.79 53.39 59.17 60.84 61.99 62.26 62.47 62.41 62.64 63.32 64.11 68.48 71.08 71.61 74.99 76.05 77.39 78.00 77.97 78.41 78.75 79.30 78.91 79.85 80.60 80.01 79.64 79.23 78.64 77.87 76.46 74.70
53.63 52.75 51.80 48.89 53.07 52.89 49.69 52.48 53.37 53.98 54.32 53.18 50.41 54.22 57.53 58.43 60.48 62.15 65.10 63.54 63.27 63.82 66.11 65.17 70.85 72.96 75.89 75.75 77.77 77.60 78.51 79.00 79.10 79.65 79.51 80.22 80.46 79.73 79.23 78.58 77.98 76.94 75.34 73.80
53.38 54.42 52.87 50.20 52.32 45.12 53.58 57.18 55.88 54.48 55.45 56.20 56.14 56.52 57.02 57.85 59.84 62.49 64.31 64.93 64.96 65.14 65.91 66.60 70.15 72.26 74.49 75.33 75.98 78.14 77.31 79.08 79.40 79.09 79.71 80.09 80.51 79.57 78.63 77.02 76.45 75.46 73.85 73.59
56.15 53.81 50.43 48.49 48.89 52.47 54.01 56.79 56.56 55.97 55.82 57.50 56.76 57.78 58.13 58.19 58.22 60.26 62.47 64.38 65.70 67.19 68.09 67.63 70.06 72.12 75.17 76.02 77.80 78.51 77.85 77.59 77.97 77.80 78.90 79.31 79.48 79.15 77.83 76.00 75.29 74.13 73.29 72.74
55.61 57.11 53.37 51.41 47.47 46.25 53.88 59.09 61.19 60.41 52.08 58.51 59.84 60.22 59.01 58.14 53.88 58.49 63.88 62.50 63.67 66.40 67.87 68.62 69.94 72.35 73.73 76.55 76.19 77.28 77.32 77.60 77.61 78.06 78.05 79.46 79.53 78.44 76.16 75.73 75.13 74.46 73.00 71.84
49.03 51.09 49.70 50.90 49.54 52.02 58.99 59.47 60.83 51.77 54.10 63.26 63.56 63.36 63.21 61.16 59.89 62.11 63.61 64.73 65.79 67.88 68.88 72.08 73.26 72.79 76.95 77.25 77.29 77.19 76.66 75.92 76.96 76.85 77.02 77.93 77.73 77.80 76.75 74.34 74.74 72.77 70.61 70.31
48.12 48.64 48.80 51.32 49.39 46.74 61.16 60.18 56.20 60.97 63.86 64.22 64.98 64.58 63.57 64.93 64.23 62.04 67.52 67.97 68.66 69.01 69.78 71.68 72.16 73.46 75.23 77.34 77.61 76.92 76.63 78.20 78.65 78.33 77.59 77.63 77.63 75.81 74.88 74.49 73.81 70.74 70.88 69.29
48.92 53.23 51.36 52.67 53.00 61.74 62.07 61.64 62.58 63.41 63.01 64.46 65.47 65.32 65.69 65.33 65.56 67.22 67.65 68.63 69.78 70.68 71.37 72.39 73.06 74.45 74.26 76.55 77.40 76.43 78.91 79.15 78.16 77.31 76.25 76.07 75.70 74.53 74.25 72.86 69.85 67.99 69.54 68.37
55.54 57.54 55.74 56.85 59.15 58.76 60.54 61.45 62.67 63.29 62.77 65.40 66.28 66.74 66.49 66.86 67.88 68.41 68.84 69.18 69.74 70.77 71.35 72.44 72.56 72.76 73.64 76.95 77.32 77.10 77.27 77.13 76.90 75.35 73.34 72.63 71.29 71.64 71.51 69.84 69.31 68.22 68.40 68.34
50.57 53.88 54.90 57.56 59.14 59.35 59.79 60.60 61.47 61.97 63.15 64.03 65.80 66.79 66.78 67.06 66.36 66.94 67.31 68.17 68.69 69.55 70.23 71.08 71.23 71.54 72.33 73.69 74.14 74.96 75.46 75.59 73.81 72.27 70.64 69.92 69.22 69.78 67.48 62.34 65.65 69.43 63.24 61.45
50.30 50.17 49.61 55.37 59.72 59.52 57.58 59.57 60.73 60.62 61.25 62.66 62.72 63.29 64.01 64.40 65.06 65.67 66.11 68.65 68.59 68.08 68.89 69.41 70.67 71.71 72.40 73.11 73.18 74.08 74.60 74.06 72.49 71.17 70.75 69.93 68.82 68.83 68.89 67.04 62.76 45.62 46.75 44.42

GFSCGP_sfc_wetblb_024.txt.gz
Wetbulb
56.50 52.35 49.97 52.40 54.03 55.42 55.15 55.55 55.17 58.02 60.67 59.37 60.35 59.48 59.34 63.78 64.30 62.80 64.48 65.27 65.98 67.33 69.98 71.59 72.30 73.15 73.65 74.51 75.91 76.27 77.35 78.75 78.71 77.93 76.07 76.15 75.71 76.74 76.61 77.64 75.58 77.22 79.20 79.60
52.86 49.87 53.14 54.70 54.97 54.71 54.97 54.60 55.98 58.58 61.37 61.13 59.30 61.11 61.98 64.87 64.77 64.19 63.85 64.95 65.77 67.05 68.91 70.93 72.14 72.96 73.17 74.22 75.13 76.61 76.83 79.39 78.28 77.75 77.77 76.79 75.57 76.20 75.74 76.78 79.08 78.05 78.21 78.60
50.41 52.04 54.10 53.19 53.28 53.55 54.25 54.14 55.74 56.70 59.50 60.22 58.91 57.44 59.45 63.82 65.43 65.90 66.03 65.91 66.18 66.75 67.12 69.94 71.55 72.11 73.17 73.85 75.46 76.18 76.96 78.49 77.85 79.23 77.66 77.55 78.26 79.59 76.54 76.60 76.08 77.68 78.63 78.75
52.55 54.34 52.87 51.64 51.68 54.22 51.79 56.65 56.63 56.18 56.72 53.16 59.57 51.81 59.52 61.58 63.55 64.30 64.88 65.57 65.81 66.81 68.08 68.63 70.73 72.20 72.71 73.92 76.17 77.12 77.80 77.87 78.94 77.89 77.80 77.04 74.68 74.68 75.64 76.73 76.18 77.32 77.69 77.71
51.79 51.87 51.61 50.63 51.57 54.85 54.02 57.42 56.43 56.10 55.26 57.12 57.32 53.65 57.80 61.38 60.88 63.19 64.47 65.35 66.07 67.39 67.47 67.86 69.78 71.86 73.05 74.66 75.34 77.24 78.02 78.40 78.40 78.81 78.24 77.70 77.37 74.38 76.67 76.49 77.48 77.64 77.83 78.12
53.51 56.36 53.89 53.28 53.88 54.57 56.75 55.57 55.70 55.75 55.37 50.81 55.92 54.20 55.88 58.88 59.44 61.86 64.91 65.82 67.52 67.63 68.45 69.00 70.14 71.90 72.87 74.34 75.21 76.04 77.94 78.16 78.61 78.82 78.30 78.24 76.93 75.91 76.29 77.30 74.93 74.87 75.04 76.18
52.67 52.57 55.09 54.93 52.21 53.89 53.35 52.16 49.01 48.58 49.87 48.97 56.67 55.79 57.49 61.68 62.95 63.03 62.80 64.36 67.76 68.96 68.75 69.24 69.40 70.68 72.57 73.12 74.38 75.83 77.52 77.72 78.52 78.79 78.60 77.75 78.49 77.70 77.54 79.48 75.03 74.02 73.02 73.04
48.92 47.43 52.28 55.00 52.62 51.12 51.25 51.49 49.55 45.21 47.31 49.48 55.40 51.91 57.53 63.18 63.86 63.59 63.58 64.59 67.15 68.29 69.40 69.97 70.66 70.75 72.45 73.18 74.33 75.57 77.10 77.44 78.54 78.24 79.10 79.01 78.49 78.47 77.29 77.72 77.05 74.80 74.25 74.50
49.77 49.61 55.33 54.69 54.77 53.43 51.21 49.31 53.27 50.21 52.65 50.59 53.05 55.83 59.27 63.10 61.96 63.83 63.36 64.56 64.59 68.03 69.40 69.89 71.14 71.69 72.29 73.18 73.99 74.87 77.06 77.67 78.56 78.92 78.61 79.18 78.52 77.81 77.24 77.88 77.44 76.79 75.51 77.65
53.25 49.61 54.27 54.97 55.52 54.15 52.15 54.33 48.48 49.99 45.93 46.67 51.20 53.45 54.97 60.15 59.88 63.00 63.15 63.40 64.26 66.96 68.79 70.01 69.94 71.40 72.58 73.83 74.58 75.62 76.62 77.65 78.79 79.05 79.07 78.80 78.98 78.32 77.81 77.95 77.60 75.83 78.05 77.32
53.17 52.79 51.92 54.91 52.72 51.48 50.70 49.49 50.68 51.42 51.06 48.46 48.09 52.07 60.61 61.54 63.25 63.12 63.56 64.13 64.70 64.16 67.88 69.85 70.22 71.13 72.16 73.22 74.28 75.04 75.62 77.59 78.42 78.92 78.94 79.05 78.92 78.98 78.07 77.63 77.40 76.77 77.11 76.66
54.12 52.00 50.22 51.28 55.39 55.55 53.42 51.11 50.85 47.89 49.77 51.68 52.02 52.96 60.45 61.61 63.10 64.60 63.91 64.61 64.90 65.71 66.02 68.51 70.63 71.05 71.24 71.67 72.96 74.23 75.49 75.93 77.75 78.62 78.72 78.79 78.94 78.80 78.32 77.18 78.16 77.88 76.78 77.43
55.64 51.10 48.39 49.15 52.50 54.83 52.57 52.66 51.86 51.04 51.16 51.63 49.56 51.64 60.75 63.26 61.05 62.29 63.80 64.28 65.54 66.38 68.68 69.27 69.35 70.59 71.27 71.46 72.32 73.33 74.46 75.20 77.50 78.08 78.12 78.58 78.34 78.24 77.88 78.01 77.08 77.68 77.25 76.03
58.60 52.38 50.92 47.60 50.90 53.30 52.29 52.07 52.48 50.84 48.36 49.94 52.33 54.77 57.80 60.77 61.65 63.17 63.94 64.72 66.27 70.08 70.71 70.06 71.69 70.15 71.42 71.90 72.31 72.73 73.45 75.12 76.12 77.54 77.43 77.44 77.86 77.86 77.65 77.83 77.67 77.50 77.75 76.07
54.90 52.15 53.34 52.09 52.40 53.71 52.92 52.10 51.71 50.90 52.06 50.01 52.16 54.82 57.95 59.75 62.00 63.27 64.98 66.81 66.78 68.81 69.29 71.92 70.15 73.17 72.67 72.84 72.79 73.12 73.86 74.59 75.65 76.27 76.73 77.34 78.30 78.41 78.27 77.48 77.82 77.40 78.03 76.71
56.00 51.63 53.21 51.20 52.32 52.41 51.84 52.67 52.39 52.17 51.88 52.14 52.67 53.01 59.12 61.85 62.79 63.57 61.48 62.83 65.18 66.63 67.96 70.98 72.41 73.27 75.56 74.44 74.06 73.53 74.20 74.48 75.63 75.28 75.98 77.17 77.86 78.68 78.09 77.77 77.47 77.62 77.55 77.02
53.87 52.32 52.31 48.51 51.90 51.76 48.90 52.79 53.45 52.53 53.19 52.33 50.47 54.82 59.43 59.07 59.86 62.55 66.67 65.97 65.49 65.74 66.72 67.89 71.92 73.03 73.98 76.34 75.81 74.29 74.56 76.31 75.59 76.37 76.43 76.89 77.74 77.89 77.92 78.22 77.31 77.17 76.79 76.29
53.88 52.92 52.17 49.66 51.93 43.48 53.01 56.44 55.42 54.15 54.76 54.80 55.34 56.76 58.06 58.55 60.04 61.00 63.28 63.87 65.19 67.34 67.09 69.60 67.48 72.04 74.57 74.81 76.21 77.36 76.28 76.32 76.79 76.48 77.36 77.77 78.02 78.17 78.05 77.76 77.19 76.52 77.02 76.27
55.34 54.05 49.28 47.91 47.36 50.55 52.30 54.94 54.54 53.26 54.74 57.74 56.14 58.57 58.64 59.89 59.63 60.03 61.85 62.70 64.86 65.88 68.99 69.08 67.50 66.60 73.77 74.00 76.43 76.93 77.26 76.49 76.87 76.61 78.60 78.11 78.83 78.48 77.99 77.53 77.00 77.05 76.42 75.04
52.56 56.46 51.81 49.13 46.13 44.65 54.05 56.06 60.01 59.84 52.39 60.09 61.44 60.26 60.03 61.36 57.02 60.53 63.21 62.90 63.22 64.28 66.02 69.05 67.84 67.12 70.46 75.06 76.17 76.78 76.43 76.88 75.95 77.14 77.24 79.25 79.76 78.83 78.16 77.92 77.29 77.29 75.59 73.74
48.67 51.01 47.96 48.49 47.57 49.82 58.29 59.82 61.16 51.74 54.59 63.15 63.42 63.26 62.52 61.06 63.74 67.01 67.18 67.15 64.21 66.56 65.35 68.20 74.61 74.21 75.07 75.77 76.38 76.25 76.47 76.38 77.58 78.72 78.68 79.34 79.09 78.89 78.82 77.77 76.57 75.62 74.04 72.84
47.30 46.66 47.73 50.52 47.89 45.68 60.41 59.31 54.38 60.92 64.05 63.83 64.03 64.34 64.21 65.56 66.21 66.31 66.64 67.69 69.33 71.13 69.04 71.21 74.94 78.50 77.54 77.22 78.05 76.89 76.54 78.25 79.16 78.55 78.24 78.57 78.93 77.85 76.97 75.74 73.95 73.99 72.48 70.94
46.12 50.14 49.11 52.45 52.08 60.09 62.43 61.73 63.72 64.61 63.86 63.88 63.75 64.38 65.01 64.30 65.15 65.38 68.48 69.69 68.94 70.40 72.66 72.35 75.48 77.52 78.45 80.45 78.18 76.63 78.46 78.44 77.99 77.37 77.48 77.82 77.48 76.95 75.84 74.05 72.16 70.82 70.78 68.49
52.62 55.51 49.53 52.90 58.81 60.64 61.77 62.81 63.77 64.07 64.16 66.81 67.20 66.97 67.18 65.37 67.65 68.16 68.92 69.27 70.49 72.78 73.12 74.70 74.42 74.23 75.38 77.60 77.85 78.00 77.48 78.21 77.44 77.11 76.47 75.34 73.03 72.23 71.64 70.12 69.22 68.62 68.36 67.78
52.98 53.30 54.56 54.10 60.27 59.69 60.79 62.01 62.66 64.13 65.46 65.17 64.90 66.28 65.48 66.98 67.06 68.18 68.82 69.87 71.08 72.04 72.94 73.93 73.93 74.34 75.95 77.14 77.15 77.56 77.44 77.21 75.37 73.44 72.94 72.27 71.12 70.55 65.13 58.41 60.86 68.48 60.54 61.49
51.40 51.94 51.77 53.76 55.97 58.10 59.92 62.00 62.92 61.33 61.75 63.50 63.16 63.28 64.15 63.24 61.97 63.01 66.08 68.95 69.21 69.47 70.78 70.19 69.81 70.87 72.80 73.78 74.07 75.50 76.34 74.37 72.48 70.49 69.85 69.11 69.46 67.99 64.48 61.38 57.81 46.03 46.76 45.10

GFSCGP_sfc_wetblb_027.txt.gz
Wetbulb
51.62 47.28 46.36 47.91 49.12 49.75 50.45 49.75 49.65 53.09 58.52 57.35 56.90 56.45 58.48 60.12 60.18 60.78 62.99 63.72 64.44 65.32 66.86 68.70 69.44 70.94 71.20 71.98 72.65 71.65 71.91 73.72 74.05 73.63 73.31 72.64 71.67 73.04 73.26 73.96 74.75 74.40 74.74 74.73
48.70 46.13 50.78 52.47 51.89 50.42 50.06 49.18 49.54 53.68 58.17 57.17 58.21 56.66 58.74 59.15 59.23 61.09 62.20 63.40 64.02 65.09 65.86 67.82 68.63 69.63 70.67 70.98 72.25 72.04 72.37 74.58 73.96 74.13 73.33 72.84 71.85 72.80 72.84 72.89 73.31 73.64 75.09 74.48
47.22 49.10 53.84 51.87 50.09 49.75 49.39 48.26 49.73 51.69 57.18 58.48 58.05 55.95 55.80 59.16 61.24 62.28 63.03 64.06 64.90 64.80 65.08 66.79 67.84 68.67 69.87 70.40 72.06 72.47 73.33 74.65 74.60 74.55 74.23 73.66 73.33 73.53 73.56 73.12 73.41 75.48 75.05 75.08
49.15 52.74 51.69 50.00 48.69 49.79 46.29 52.49 52.84 52.43 53.74 49.84 58.23 49.13 54.77 57.82 59.61 61.31 61.51 62.53 63.35 64.77 66.09 66.84 67.93 68.23 69.60 70.86 72.64 72.65 73.52 75.15 73.80 74.76 72.97 71.46 70.58 69.89 71.56 73.59 72.80 73.78 74.69 74.60
48.09 50.50 49.70 48.42 48.93 50.41 48.74 53.50 52.71 52.41 50.56 52.48 52.94 49.93 52.21 58.65 57.88 59.98 61.07 62.05 63.01 64.13 65.45 66.69 68.11 68.76 70.11 71.48 72.17 73.54 73.52 75.03 74.08 73.63 73.92 72.84 71.64 72.02 70.98 69.73 72.50 73.58 73.41 73.44
49.84 53.72 52.31 50.50 51.88 51.25 52.08 50.90 51.24 51.30 49.64 44.56 51.32 50.59 50.79 53.17 58.19 59.69 61.21 62.70 63.19 63.76 65.10 66.65 68.50 69.76 69.82 71.66 73.16 73.80 73.37 73.31 75.27 73.25 73.63 73.51 72.67 71.19 68.89 71.43 72.18 72.77 71.05 71.63
49.83 49.66 51.98 53.37 48.16 50.09 49.27 45.33 42.65 41.58 42.87 41.91 52.38 51.03 51.78 57.40 59.88 62.02 62.58 62.99 63.65 64.49 64.62 64.92 67.16 68.67 69.24 70.38 72.10 73.79 73.49 73.41 74.62 75.05 74.64 74.50 74.05 72.69 71.26 71.23 70.30 70.18 69.76 69.68
44.75 43.28 49.41 52.20 49.38 45.64 46.73 45.52 42.73 36.28 39.79 42.89 48.43 47.32 52.73 60.13 61.55 63.83 63.33 63.38 62.89 65.03 65.07 65.16 66.06 68.17 69.45 69.93 71.70 73.79 73.69 73.55 75.00 74.88 74.52 74.70 74.49 75.35 72.89 72.77 71.38 69.42 70.84 70.29
45.05 45.31 52.72 52.47 52.64 50.35 45.89 43.99 46.77 40.91 43.99 41.93 46.42 49.53 54.23 59.73 60.23 61.01 61.50 62.24 62.79 63.30 65.66 65.66 66.16 67.69 69.16 69.75 71.29 72.22 74.29 74.23 74.84 75.49 75.37 75.06 74.41 74.41 75.18 73.18 73.34 71.32 70.19 71.33
47.66 43.33 51.03 52.59 52.93 51.58 48.61 47.62 42.80 44.08 37.47 38.41 44.19 46.10 48.21 54.12 57.94 59.39 60.16 60.83 61.90 63.63 63.81 65.80 66.69 67.32 69.48 70.49 71.46 72.79 75.06 74.62 75.51 74.88 76.05 76.23 75.71 74.80 74.75 73.87 72.77 73.07 70.82 71.78
49.28 47.03 47.69 51.14 49.02 47.05 45.49 45.73 43.74 43.65 44.11 39.74 39.53 44.53 51.64 56.80 59.22 59.05 60.47 62.10 62.92 63.42 65.52 65.90 67.40 67.86 69.82 70.69 71.24 72.32 74.43 74.91 75.54 75.77 75.37 75.92 76.41 75.81 74.79 74.75 73.58 72.88 72.50 72.09
50.69 47.12 43.93 46.62 51.75 52.69 50.61 46.72 43.82 41.58 37.84 42.07 42.27 44.35 54.80 55.36 60.60 61.18 61.45 61.66 62.20 63.31 64.87 66.96 67.90 68.44 69.04 70.07 70.85 71.84 74.79 74.74 75.55 76.35 76.24 75.56 75.80 76.39 75.22 74.33 73.88 74.32 72.31 72.76
51.33 47.20 41.69 43.56 47.30 50.56 48.68 49.46 47.21 46.15 42.78 41.87 40.12 44.24 53.62 54.53 59.79 60.51 59.26 61.31 62.88 62.06 61.46 67.05 67.34 68.15 68.90 70.10 70.66 71.76 73.74 75.01 76.01 76.23 76.43 76.10 75.58 75.87 75.83 74.79 74.74 74.74 73.74 72.74
57.17 48.81 45.57 42.16 44.63 47.03 47.34 49.13 49.09 46.53 42.29 41.65 43.59 44.18 50.48 53.91 57.03 58.65 60.78 61.92 61.16 62.32 61.13 63.23 66.97 67.37 68.68 69.70 70.72 71.35 72.35 74.95 75.84 76.32 76.09 75.77 75.75 76.10 76.22 76.13 74.83 74.55 74.88 73.25
46.79 45.51 48.28 48.16 49.31 50.14 49.58 49.93 49.37 46.78 46.29 42.38 44.40 45.42 49.06 52.37 57.04 57.91 59.60 59.87 60.79 62.57 62.52 62.40 66.34 67.13 67.60 68.17 69.72 71.08 72.27 72.80 75.40 75.53 75.40 75.24 76.10 76.46 76.37 75.99 75.88 74.50 74.48 74.33
45.10 43.67 48.75 46.88 49.34 49.17 47.75 50.02 50.87 49.42 49.20 48.39 47.94 47.30 50.88 53.43 59.32 60.16 59.65 60.47 60.00 60.52 65.02 63.92 64.62 67.38 67.64 67.82 68.59 70.04 71.10 72.25 73.27 74.50 74.62 75.41 75.32 75.96 75.81 75.62 75.53 75.36 74.16 74.68
42.11 41.25 44.25 43.04 48.04 47.90 44.15 47.75 49.18 50.67 51.16 49.86 46.43 49.12 51.95 52.17 55.33 58.39 60.48 59.10 59.54 59.52 64.32 64.76 64.64 67.04 68.22 68.48 68.99 69.19 70.40 71.74 72.20 72.66 74.28 74.62 74.81 75.01 75.42 75.59 74.93 74.95 74.31 74.82
43.55 42.46 43.91 42.08 45.20 39.48 47.80 51.73 52.48 51.39 52.87 52.25 50.84 51.45 53.15 53.28 54.68 55.97 56.84 57.46 57.72 60.37 62.16 63.38 67.18 66.74 68.20 70.44 69.94 70.25 70.66 70.92 71.48 72.05 72.78 74.10 74.54 74.82 75.63 75.62 74.78 74.58 75.11 74.63
48.34 44.08 42.48 40.65 42.08 44.69 49.93 51.80 51.55 49.34 49.54 54.39 51.59 52.38 53.34 54.66 54.51 52.52 57.94 57.39 56.86 58.81 58.18 61.75 64.41 67.36 69.07 70.30 71.68 70.66 70.33 71.34 71.18 71.68 72.13 73.88 74.59 74.75 75.43 75.23 75.01 74.74 74.58 73.65
47.69 47.46 44.41 42.17 39.41 39.12 46.44 53.69 55.83 57.30 47.45 58.73 58.81 58.13 58.24 57.07 50.69 54.34 60.69 62.17 61.73 60.80 59.29 61.11 63.19 63.15 68.32 68.04 73.11 71.58 70.49 71.48 71.07 71.60 73.18 73.84 74.57 74.83 75.34 75.37 75.16 74.78 74.42 73.91
43.36 45.38 43.28 42.82 40.34 44.28 51.94 56.17 56.54 48.11 48.94 59.41 60.20 59.61 59.29 56.27 58.09 60.75 62.26 61.52 61.56 62.98 60.86 59.92 62.05 62.40 63.76 68.64 73.37 72.35 71.73 71.12 73.38 74.16 74.57 75.17 75.78 75.93 76.04 75.49 75.38 74.82 73.39 72.06
42.67 39.53 41.61 43.63 40.70 39.25 58.09 57.12 52.28 56.29 58.27 60.48 60.20 59.70 59.58 59.05 59.63 59.97 61.35 61.66 61.24 63.01 66.81 64.39 61.77 65.08 68.41 69.18 72.57 72.24 72.62 73.44 73.41 75.01 75.60 76.38 76.53 76.54 76.31 75.42 73.84 72.29 71.45 71.10
41.48 44.85 44.48 46.97 47.92 56.06 58.33 57.67 59.55 61.59 59.86 60.25 59.12 62.92 60.18 60.73 61.17 65.36 64.53 65.08 65.21 66.19 69.58 72.42 72.64 73.28 74.53 73.48 73.04 72.38 74.09 75.38 75.32 75.45 75.74 75.78 75.62 75.66 74.36 72.52 71.28 70.46 68.91 68.63
49.24 51.80 48.79 49.84 54.35 55.33 56.41 59.12 59.99 63.09 62.38 63.49 64.18 64.58 63.81 62.55 64.31 64.33 64.98 67.02 68.40 69.25 69.39 70.39 71.73 72.02 72.90 74.53 75.14 75.14 75.23 75.28 75.07 74.78 73.78 72.20 71.68 70.87 70.74 70.47 70.08 68.50 67.33 66.82
49.18 49.67 49.45 50.07 54.14 57.08 59.18 58.47 59.50 62.17 63.14 62.00 61.40 61.05 60.82 61.12 61.02 62.94 64.20 65.68 67.83 68.82 70.09 71.89 72.40 72.77 72.87 74.06 74.26 74.92 74.66 74.60 73.07 71.24 70.16 69.86 68.01 63.56 58.98 53.20 57.82 65.29 57.23 63.38
49.31 46.53 48.55 49.49 52.16 52.94 51.39 54.70 60.26 60.96 61.29 60.80 59.76 59.28 60.46 59.92 59.22 60.69 60.87 64.78 66.78 67.68 68.82 68.50 69.41 70.47 71.06 72.22 71.93 71.74 72.12 71.82 70.19 68.66 68.87 66.30 64.54 62.12 60.11 57.46 53.92 46.44 45.77 45.14

GFSCGP_sfc_wetblb_030.txt.gz
Wetbulb
48.95 44.59 44.23 46.09 46.38 47.17 46.25 45.44 45.30 49.16 52.89 56.52 55.08 55.64 57.50 62.38 63.21 63.14 63.56 64.25 64.87 65.44 67.25 67.31 70.27 70.74 70.22 70.83 71.36 71.88 71.66 71.54 71.46 71.76 71.51 71.12 70.67 71.55 72.56 71.57 73.02 74.02 73.66 74.56
44.97 43.84 47.36 50.05 49.25 47.94 46.78 45.71 45.83 48.78 52.30 55.41 55.04 55.94 57.44 60.52 61.55 62.86 63.03 63.39 64.32 65.05 65.77 66.75 68.37 69.95 69.95 69.87 70.89 70.84 71.53 72.00 71.82 72.40 72.29 71.58 71.21 71.94 71.83 72.24 73.49 73.37 73.51 73.82
43.62 46.06 50.72 49.92 48.80 47.41 46.73 45.29 45.93 46.64 50.96 56.68 55.75 53.53 55.03 58.21 60.53 62.38 63.55 64.26 64.72 64.56 64.34 65.67 67.01 68.68 69.82 69.11 70.52 70.67 71.29 72.30 72.36 72.86 72.59 71.79 71.55 71.62 71.37 71.33 71.69 72.26 74.25 73.59
45.20 49.94 49.43 48.40 48.03 48.60 42.48 49.62 49.25 48.77 47.17 47.09 55.01 45.18 53.11 56.13 55.79 57.98 61.56 62.68 63.69 64.65 65.39 65.79 66.89 67.73 69.04 69.67 70.96 70.86 71.27 73.13 72.92 73.13 72.58 71.68 70.52 69.39 70.23 71.53 73.10 72.49 73.80 73.77
45.99 48.56 48.31 47.42 48.56 50.38 46.32 50.04 48.93 48.84 45.95 45.88 50.25 46.27 49.02 55.27 54.64 55.59 59.14 62.13 63.50 64.72 65.46 65.31 66.82 67.68 69.29 70.06 70.77 71.34 71.30 73.05 73.39 73.26 72.86 72.15 70.64 70.72 70.46 70.21 71.10 71.49 72.63 73.32
49.01 51.70 50.44 49.65 51.21 51.11 51.16 47.10 46.43 45.70 44.68 41.59 47.22 49.86 46.45 52.91 55.61 58.00 59.98 61.15 63.53 64.23 65.34 65.89 67.52 68.11 68.50 70.14 71.00 71.31 71.16 72.35 73.32 73.35 72.70 71.88 71.08 69.91 69.19 68.83 70.02 71.34 72.33 71.89
47.67 48.59 49.13 51.57 46.98 48.57 47.58 40.84 36.84 37.33 38.12 38.68 45.98 46.04 50.27 55.31 59.05 60.16 60.39 60.97 62.68 64.25 64.84 65.21 66.12 66.92 67.81 68.76 70.14 71.23 71.06 71.71 72.50 73.12 72.43 72.01 71.48 71.13 69.55 68.87 70.49 70.69 70.16 69.46
42.57 41.30 47.97 49.66 48.47 46.07 43.06 43.65 38.59 32.72 34.02 37.66 43.80 43.58 50.24 56.97 59.96 62.42 63.05 63.17 62.75 63.06 64.38 65.14 65.96 67.28 67.68 68.68 70.00 71.22 70.74 70.98 72.26 71.82 72.75 72.89 72.42 72.33 71.92 69.99 70.71 71.75 71.52 70.35
40.41 42.77 50.20 51.53 50.67 49.45 43.97 40.69 44.35 37.68 38.08 37.57 41.28 46.21 51.37 56.57 57.34 61.51 62.32 62.92 62.39 62.93 63.60 64.84 66.20 67.47 67.92 68.71 69.86 71.03 71.03 70.94 72.52 72.63 72.09 71.98 72.86 73.11 73.01 71.57 70.27 70.25 70.08 69.94
44.02 39.30 47.79 51.05 51.04 50.26 47.59 44.93 40.11 35.24 35.25 34.95 38.33 42.07 45.59 49.65 55.34 57.55 61.06 61.97 62.83 62.97 63.47 64.33 65.04 66.94 68.36 68.91 70.22 71.57 71.82 71.27 72.01 73.33 73.22 72.95 72.56 72.95 73.48 72.46 71.15 69.54 69.58 70.04
47.22 42.22 43.64 47.03 47.09 46.03 45.41 42.67 40.97 40.77 39.29 37.52 34.20 41.06 47.48 49.38 53.09 56.41 60.64 62.16 62.59 62.93 63.49 64.35 65.23 66.39 68.05 69.33 70.19 71.83 71.98 71.74 72.31 72.97 73.26 73.21 73.24 72.74 72.70 73.61 72.64 71.92 69.74 70.18
46.23 43.81 41.17 44.01 48.13 50.51 49.51 45.99 41.94 40.78 35.59 37.77 41.58 42.30 50.00 50.77 54.36 58.37 59.79 61.75 62.88 63.63 62.90 64.87 65.40 65.69 66.91 68.55 69.38 70.56 72.74 72.31 72.91 73.79 73.80 73.38 73.58 73.51 72.90 72.46 73.68 72.54 71.86 70.42
46.04 41.36 38.60 39.40 44.21 47.35 44.99 46.67 46.72 38.69 38.41 40.52 37.91 40.14 49.27 48.73 54.68 58.11 58.48 59.78 61.60 61.24 60.98 62.50 64.00 64.99 66.07 67.94 68.96 70.57 72.39 73.03 73.44 73.80 73.68 74.04 74.08 73.98 73.73 73.08 73.08 73.15 72.04 71.31
45.33 41.49 40.53 40.53 41.72 44.26 42.42 46.60 45.89 44.49 41.73 40.28 41.94 40.85 44.93 47.49 53.59 57.23 59.19 60.48 60.73 61.08 61.16 61.63 63.07 65.30 66.05 68.04 68.86 69.93 71.36 73.77 74.02 74.19 73.58 73.23 73.81 74.72 74.69 74.13 73.28 73.08 73.28 70.84
39.98 34.12 39.11 42.89 46.45 47.33 46.66 46.88 47.23 43.98 45.31 42.37 43.76 42.70 44.45 46.05 51.96 55.98 58.96 60.31 60.68 60.84 61.30 62.08 63.12 65.47 66.21 67.86 68.85 69.81 71.34 73.09 73.99 74.11 74.20 73.68 74.13 74.61 75.09 74.85 74.03 73.37 73.13 73.20
39.34 34.86 38.05 40.31 46.92 47.24 45.76 47.52 48.24 47.66 46.92 45.50 42.91 42.69 47.00 49.26 50.88 54.03 57.25 58.72 58.82 57.64 59.70 59.80 63.50 65.51 66.74 67.92 68.48 69.73 70.52 72.87 73.88 74.00 74.04 74.61 74.63 74.39 74.40 74.90 74.97 73.65 73.39 72.94
36.67 35.23 35.20 34.09 43.66 45.69 42.90 46.95 47.53 47.69 49.21 47.52 43.39 45.71 48.56 49.30 52.91 54.27 56.40 57.37 58.94 58.23 58.60 60.73 63.29 65.70 67.20 68.36 69.49 69.16 70.33 72.35 73.52 73.76 74.10 74.24 74.56 74.38 74.68 74.85 74.58 74.36 73.14 73.04
38.65 37.32 36.05 34.26 37.99 36.37 46.47 50.48 50.39 47.48 48.54 49.67 48.45 48.70 49.97 50.64 50.83 55.51 55.69 57.29 58.68 58.20 59.58 61.87 63.25 65.00 67.20 68.45 69.36 70.27 70.71 71.03 72.70 73.10 73.61 74.23 74.16 74.23 74.68 74.59 74.35 74.43 74.35 72.82
43.92 41.20 36.18 33.53 35.20 42.21 47.30 47.98 48.06 45.34 46.21 51.50 49.49 50.65 51.34 51.85 52.33 55.60 57.35 54.64 52.78 56.32 57.21 60.00 63.41 65.60 65.47 67.29 68.13 68.88 69.30 70.43 70.70 71.98 72.67 73.72 74.21 73.70 74.25 74.16 74.14 74.13 74.28 73.47
44.38 44.24 40.38 38.54 34.90 35.57 44.26 51.04 54.31 51.98 43.12 56.81 52.19 52.01 53.33 51.66 45.97 50.46 58.41 59.41 58.99 58.79 58.36 56.74 62.14 65.39 68.10 68.37 67.83 67.90 68.03 69.01 69.73 70.62 71.51 73.35 74.01 73.98 73.51 74.33 74.25 74.43 74.53 73.85
42.12 41.90 38.27 38.67 38.13 41.16 49.61 53.45 53.62 44.52 45.01 56.88 56.32 55.75 54.92 53.50 52.34 57.21 59.53 58.60 58.96 63.17 61.36 58.66 55.81 59.45 66.02 68.53 68.87 67.29 67.57 67.95 69.78 71.03 71.42 71.75 73.50 73.64 74.12 74.75 74.95 74.40 74.04 73.60
40.83 40.58 39.81 40.97 39.27 37.32 54.76 55.14 46.65 50.43 55.87 57.66 57.31 56.68 57.05 57.22 60.27 60.41 61.18 59.80 58.89 60.00 64.53 62.86 59.09 57.24 58.45 66.15 69.89 68.06 67.40 69.29 70.27 70.16 70.28 71.03 72.47 73.72 74.17 74.93 74.89 73.93 73.63 72.29
39.54 43.60 42.39 43.96 44.61 50.45 52.12 56.78 59.76 60.93 59.93 60.49 60.52 60.67 62.82 62.34 62.50 64.56 65.78 66.87 67.43 68.30 69.26 69.85 67.06 69.41 69.56 63.51 70.22 69.20 69.35 69.67 70.40 70.35 71.11 72.09 72.91 73.75 74.83 74.76 74.24 72.66 71.97 70.69
46.89 49.60 45.97 47.26 49.58 52.36 52.36 55.21 60.03 60.05 59.27 59.88 60.84 61.76 63.03 61.89 63.72 64.39 65.96 66.74 67.64 68.61 69.49 70.46 70.37 69.85 69.88 70.56 69.46 69.45 70.71 70.70 72.14 71.66 73.97 74.90 74.68 74.49 74.79 74.18 73.37 71.57 69.78 68.52
47.01 49.22 47.52 48.14 51.36 53.41 53.73 53.52 56.40 59.54 59.91 59.58 59.63 59.43 60.09 61.95 61.72 64.50 64.68 65.80 66.92 67.30 67.73 69.17 69.96 71.16 71.03 71.39 71.36 73.20 73.67 73.88 73.79 73.99 73.92 72.81 71.23 67.84 59.61 57.96 65.01 68.00 62.11 67.00
47.71 46.25 46.36 47.80 51.68 52.03 51.51 54.04 55.89 55.08 55.49 57.19 57.96 57.74 58.78 59.60 58.90 61.32 61.69 63.70 65.64 66.52 67.30 67.39 67.23 67.66 68.95 69.87 69.08 70.57 71.95 72.36 71.58 68.47 67.41 66.19 63.79 61.44 60.76 59.31 55.85 49.48 48.81 52.04

GFSCGP_sfc_wetblb_033.txt.gz
Wetbulb
47.64 44.22 42.11 45.58 45.01 46.37 45.16 43.55 43.72 46.79 52.74 53.89 52.41 53.60 60.38 62.54 62.50 61.90 62.36 63.54 64.58 65.67 67.89 68.96 69.67 70.29 70.03 69.90 69.62 70.66 70.37 71.28 71.31 70.82 70.96 69.78 69.14 69.91 71.14 70.94 71.40 71.56 73.43 73.41
43.91 43.25 46.83 48.54 47.98 46.67 44.95 43.93 44.22 46.44 50.08 49.49 51.28 53.37 60.44 61.83 62.01 62.56 62.51 62.94 63.71 64.34 64.96 66.44 68.16 69.67 69.45 68.62 69.16 70.14 70.69 71.04 71.39 71.40 71.79 70.83 70.18 70.53 70.77 71.71 71.27 72.79 73.44 73.77
44.18 44.82 48.77 47.86 46.49 45.60 43.54 43.01 44.80 44.53 48.40 51.72 52.52 50.29 55.70 61.39 62.71 63.41 64.05 64.42 64.64 64.42 64.42 64.07 67.10 68.53 69.27 68.24 69.13 70.06 70.68 70.69 71.25 71.40 70.79 70.56 70.33 70.65 70.18 70.31 70.97 72.32 72.72 73.73
43.31 47.77 47.46 45.58 45.42 46.49 40.67 47.21 47.55 46.44 44.20 40.45 52.55 43.38 50.03 57.18 59.20 61.11 62.33 63.37 64.16 64.66 65.51 65.62 66.38 67.87 68.62 68.53 70.00 70.49 70.80 70.88 70.96 71.02 70.83 70.46 69.14 68.54 69.30 70.35 70.87 70.92 72.46 73.22
42.92 44.74 45.50 44.85 46.37 47.79 45.47 48.92 46.87 46.45 42.99 40.40 45.03 44.44 47.56 54.42 55.03 57.45 60.27 62.40 63.76 64.89 65.39 65.39 65.69 67.58 69.05 69.61 69.80 70.49 70.54 71.06 71.33 71.36 71.37 70.68 69.61 70.21 69.23 69.73 70.34 70.61 71.72 72.55
46.98 49.27 47.66 46.70 49.07 49.12 49.58 46.48 43.83 42.87 40.56 36.74 43.74 44.73 45.52 51.39 54.30 56.51 58.58 61.80 63.24 64.20 65.07 65.75 66.43 67.41 68.29 69.73 69.46 70.33 69.58 70.77 71.35 71.41 71.60 71.09 70.28 69.58 68.84 68.02 69.23 69.58 70.82 71.83
44.20 45.74 47.48 49.54 45.47 46.91 45.55 39.95 34.93 33.21 34.04 36.14 41.80 41.89 46.04 51.63 57.56 58.44 58.21 59.26 62.77 64.17 64.65 64.97 65.08 65.94 67.11 68.28 68.97 69.75 69.36 70.05 71.46 71.43 71.47 71.44 70.93 70.20 69.66 68.77 69.03 69.15 69.60 69.20
40.08 38.76 46.24 48.08 46.44 44.20 42.30 42.57 33.44 29.53 31.03 35.89 40.46 39.22 45.29 54.40 56.55 60.04 61.27 61.13 61.63 63.45 64.34 64.92 65.32 65.65 66.66 67.89 68.60 69.23 69.11 69.71 71.47 71.78 71.53 71.64 71.46 70.99 70.63 69.30 69.04 70.08 70.63 71.05
40.67 41.15 48.42 50.15 48.68 48.42 42.03 40.67 43.97 34.91 34.90 34.16 38.34 43.13 49.05 53.09 54.37 56.14 58.87 60.31 60.91 62.16 64.02 64.43 65.56 65.82 66.61 67.24 68.25 69.07 69.39 69.66 71.16 71.76 71.88 71.50 71.54 71.09 70.67 69.39 69.72 70.29 70.92 71.48
42.34 38.11 45.27 48.60 49.25 47.70 46.10 43.43 37.83 32.21 32.59 32.22 34.99 39.37 42.53 48.79 52.20 54.17 57.28 59.00 60.99 62.20 63.10 64.53 65.29 65.84 66.84 67.51 68.44 69.39 69.89 69.86 70.72 71.63 72.04 71.81 71.70 71.75 71.40 70.88 69.74 69.74 69.95 70.24
39.73 39.08 41.18 46.01 43.75 45.41 41.90 40.99 38.31 39.08 35.48 34.26 31.19 38.34 45.62 49.05 52.57 53.80 57.06 60.11 61.60 62.33 62.51 63.77 64.99 65.91 66.79 67.65 68.02 69.02 69.88 69.78 70.30 71.11 71.35 71.69 71.83 72.07 72.15 71.66 70.98 70.11 69.41 69.00
42.90 35.44 39.39 42.98 46.08 49.58 47.23 43.54 38.95 36.05 35.15 35.61 39.99 39.21 46.88 50.87 51.09 53.32 55.88 59.46 62.19 63.45 63.54 63.61 64.36 65.54 66.23 66.86 67.59 68.80 69.88 69.89 70.27 71.52 71.43 71.28 71.41 71.17 71.50 72.35 72.04 71.06 69.35 69.27
43.16 35.65 32.36 36.00 39.76 42.22 43.53 44.87 45.05 43.71 36.48 39.55 36.46 37.52 46.58 48.69 49.40 52.64 54.61 57.06 60.16 62.45 62.37 62.85 63.65 63.74 64.59 66.67 67.24 68.62 69.84 70.40 70.63 71.11 71.63 71.54 71.50 71.53 71.08 71.42 72.30 72.14 70.89 69.15
42.33 34.28 34.48 34.47 36.57 41.19 40.17 43.99 45.43 43.17 39.06 41.30 41.34 39.62 42.85 45.67 47.90 51.39 55.15 57.22 58.37 60.46 61.12 62.39 62.90 63.45 63.81 66.07 67.43 68.29 69.94 70.99 70.98 71.09 71.16 71.28 71.44 71.77 71.90 71.84 71.19 72.22 72.54 70.96
38.18 31.83 35.01 38.36 41.27 42.67 43.37 44.11 45.41 42.18 44.09 41.31 43.50 41.83 44.37 45.50 48.07 50.93 54.11 57.12 57.83 58.66 60.67 61.48 62.38 62.75 62.99 64.64 66.78 68.03 69.74 71.25 71.41 71.01 71.33 71.28 71.93 72.34 72.50 72.27 71.89 71.80 72.07 72.10
36.61 33.44 35.29 36.56 42.63 43.52 42.66 44.75 45.93 46.08 46.15 43.72 43.24 41.23 45.67 48.52 46.97 48.05 50.78 54.28 56.63 57.89 59.78 60.02 62.03 63.48 64.13 64.82 66.39 67.84 69.12 71.06 71.96 71.27 71.57 72.09 72.28 72.67 72.73 72.89 72.76 72.14 71.69 71.78
34.03 34.03 32.77 30.51 38.95 39.66 38.99 43.86 45.45 46.27 47.46 46.76 43.02 43.59 46.36 45.91 46.71 47.65 49.27 52.59 56.08 57.53 60.25 58.65 59.04 61.38 64.14 65.39 66.93 67.21 68.47 70.43 71.93 71.76 72.08 72.20 72.11 72.18 72.59 73.39 73.16 72.46 71.59 71.74
34.20 33.66 33.75 30.99 34.13 31.06 43.20 47.88 49.04 46.84 47.14 46.68 45.31 46.45 47.71 49.04 49.98 51.19 51.41 52.50 55.07 57.10 56.78 57.58 59.07 59.78 63.64 65.87 67.12 68.23 68.83 69.84 71.24 71.67 72.15 72.64 72.47 72.19 72.59 72.66 73.16 73.32 72.80 71.86
40.17 36.96 32.26 30.44 30.80 37.88 43.93 46.95 45.88 44.17 44.77 48.53 48.53 48.53 48.40 49.74 50.65 50.33 54.87 53.69 56.05 57.24 57.46 58.56 61.01 61.27 62.50 65.07 66.88 67.49 67.74 69.00 70.81 71.12 72.00 72.62 73.29 72.86 72.77 72.67 72.82 73.39 73.69 72.77
39.65 39.45 37.96 33.15 30.30 31.11 40.87 50.06 53.43 51.25 43.27 49.70 49.52 49.20 48.95 49.22 45.90 49.93 56.78 55.66 54.47 53.08 56.01 58.06 60.98 62.17 62.19 63.79 66.90 67.43 67.12 68.52 69.73 71.29 71.97 72.79 73.44 73.40 73.09 73.39 73.36 73.61 74.01 73.68
34.11 35.21 33.83 34.57 34.00 36.96 46.01 52.33 54.84 40.77 44.36 52.59 52.69 50.29 48.57 47.54 50.48 52.02 58.18 57.48 57.45 59.03 58.49 55.64 58.23 62.62 64.08 63.86 66.20 67.05 67.70 68.01 69.76 71.48 72.67 72.78 73.48 73.24 73.57 73.59 73.91 73.75 73.82 73.71
36.39 37.18 34.81 35.86 36.46 33.25 52.17 52.66 49.28 51.04 56.65 56.10 54.72 54.32 53.12 55.05 55.83 57.26 57.45 56.51 57.24 59.54 62.25 58.71 54.95 56.01 59.94 63.97 64.21 65.06 66.24 68.75 69.72 70.24 70.48 72.08 72.54 73.42 73.48 73.16 73.55 73.85 73.80 73.31
35.39 41.01 38.26 40.96 41.87 48.60 51.49 53.87 55.18 56.61 57.28 58.66 56.42 58.90 61.21 61.63 61.74 62.92 63.51 64.90 66.52 67.06 67.62 68.07 66.16 65.15 66.54 58.62 65.27 63.98 65.52 67.22 67.57 67.97 68.86 69.64 71.23 72.52 73.25 72.88 73.25 73.54 73.49 72.90
41.88 44.66 43.08 45.40 49.06 51.32 53.87 54.95 55.27 55.72 57.19 58.73 61.23 61.80 63.97 62.91 63.89 64.30 65.14 65.81 66.75 67.50 68.56 68.81 68.81 68.18 68.27 69.90 67.85 65.85 66.48 65.03 64.89 66.27 67.36 68.57 69.06 70.81 72.45 73.18 73.70 73.60 73.03 72.41
40.88 44.10 42.55 45.79 50.27 51.91 54.88 54.35 54.71 56.89 56.81 58.08 58.53 58.67 60.38 63.59 62.55 64.39 64.86 65.58 66.28 66.85 67.55 68.07 69.26 69.24 69.17 69.74 69.15 69.87 70.49 67.91 65.47 66.51 66.22 68.06 69.54 69.53 64.59 56.90 66.58 73.22 66.35 70.03
43.74 44.10 42.50 42.84 51.07 51.13 52.06 54.40 55.40 55.34 55.27 56.07 56.76 57.42 58.61 59.26 59.34 61.96 62.29 63.30 64.76 65.34 65.86 66.60 66.71 67.89 68.70 68.34 68.86 69.40 69.20 68.99 70.03 68.97 66.40 64.06 62.79 61.64 60.88 60.60 58.29 51.30 54.22 54.40

GFSCGP_sfc_wetblb_036.txt.gz
Wetbulb
47.57 43.56 41.86 43.26 43.47 44.95 44.57 42.60 43.43 45.97 50.20 51.73 50.49 51.80 58.12 61.50 62.23 62.23 62.97 63.55 64.20 64.88 66.96 68.36 69.22 69.93 69.86 70.43 69.78 70.12 70.08 70.34 70.80 70.78 70.17 70.40 70.19 70.54 71.19 71.89 72.69 73.02 73.19 74.07
41.85 42.82 46.43 47.99 46.43 45.88 44.05 42.84 43.03 45.24 48.55 46.79 46.64 51.46 58.87 60.94 61.60 62.70 63.24 63.49 64.24 65.05 65.91 67.38 68.35 68.90 68.99 69.26 69.33 69.68 69.90 70.34 70.52 70.96 71.23 71.40 71.15 70.71 71.65 72.60 72.44 73.04 73.28 74.08
44.31 43.26 48.65 47.36 44.93 44.44 41.72 42.81 42.71 43.51 46.50 47.55 50.35 48.14 54.95 60.24 61.59 62.69 63.20 64.61 65.15 65.20 65.33 66.41 67.47 68.12 68.84 68.65 68.91 69.16 69.98 70.39 71.03 71.15 71.09 70.77 71.13 71.55 70.91 71.36 71.94 72.29 73.34 74.09
42.37 47.47 47.54 44.34 44.64 45.26 38.15 45.51 46.44 45.28 42.49 39.30 49.08 40.13 49.06 57.40 58.87 60.59 61.48 62.03 63.45 64.69 65.93 65.97 67.18 67.42 68.57 68.99 69.62 69.78 70.19 70.49 71.16 71.42 70.80 70.53 70.19 69.66 70.68 70.70 71.71 72.48 73.60 73.31
42.83 44.17 44.81 44.40 45.93 46.48 43.72 47.58 45.52 44.92 41.58 38.55 42.47 42.18 45.78 54.86 55.90 58.35 60.88 62.24 63.32 64.32 65.03 64.80 65.43 67.95 68.83 69.91 69.30 69.37 69.79 70.49 70.89 71.15 71.16 70.32 70.27 70.30 69.94 70.99 71.38 71.46 72.30 73.48
44.68 46.87 47.81 46.09 47.16 47.57 47.99 44.66 41.83 39.98 38.78 34.95 40.67 41.87 39.91 48.15 55.92 58.91 61.18 62.66 63.93 64.51 65.08 65.83 65.72 67.15 68.20 69.65 69.38 69.32 69.63 70.10 70.66 70.76 70.91 70.45 70.14 69.19 69.06 69.57 70.40 70.87 71.68 72.21
42.61 44.63 45.29 46.75 43.70 44.78 44.93 39.72 32.74 31.77 32.53 36.26 39.70 40.11 44.57 50.31 55.99 59.23 60.61 61.97 63.55 64.96 65.28 65.40 65.41 65.29 67.10 68.06 68.68 68.97 69.29 69.18 70.35 70.34 70.39 70.64 70.44 70.05 69.79 69.56 69.92 70.01 70.64 71.29
38.51 36.44 44.42 46.23 44.00 41.98 41.84 39.18 32.61 28.28 29.45 35.15 38.42 37.29 42.33 50.46 56.84 58.67 60.83 62.26 62.78 63.70 65.03 65.45 65.94 65.94 65.92 67.77 68.52 68.67 68.85 68.87 69.95 70.39 70.38 71.01 71.23 70.86 70.79 70.33 70.22 70.50 70.71 71.59
37.94 38.89 46.56 46.90 47.16 46.84 39.82 39.61 41.68 33.98 32.69 32.21 36.02 40.82 47.45 50.56 51.54 56.87 58.08 59.34 59.93 61.67 64.11 64.89 65.88 66.30 66.17 66.87 68.14 68.35 68.94 69.07 69.66 70.54 70.91 71.08 71.47 71.40 70.88 70.80 70.71 70.61 71.65 72.15
40.22 36.90 44.28 46.72 47.61 46.70 43.07 43.49 37.42 31.98 30.02 28.35 33.22 36.32 40.68 46.81 49.60 52.31 54.14 57.57 59.68 60.71 62.36 64.43 65.33 66.01 66.38 66.93 68.20 68.92 69.15 68.97 69.73 70.83 71.20 71.27 71.43 71.67 71.62 71.09 70.27 70.63 71.21 72.21
38.69 38.12 39.24 44.39 43.36 43.97 40.04 38.94 36.16 39.04 33.93 31.94 29.49 35.56 43.75 47.65 50.00 51.36 53.50 56.73 59.20 60.50 61.21 63.10 64.87 65.94 66.69 66.96 67.73 68.36 68.76 68.89 69.20 70.78 71.45 71.40 71.48 71.65 71.87 71.15 71.12 70.78 71.02 71.48
41.10 33.39 36.29 39.30 44.13 47.80 47.87 42.10 37.43 35.11 32.92 34.59 33.17 37.14 46.01 47.88 50.93 52.21 53.03 55.49 58.43 60.66 61.82 62.80 64.31 65.50 66.16 66.00 66.83 67.76 68.44 68.95 69.61 70.47 71.17 71.25 71.60 71.75 71.35 71.25 71.72 71.48 70.62 70.91
41.10 33.59 30.69 35.00 41.12 42.21 41.63 43.40 42.87 41.03 35.25 36.46 34.59 37.43 46.80 46.89 48.66 50.04 52.36 54.69 57.81 60.06 60.59 61.84 63.16 64.28 64.83 65.58 66.35 67.05 68.16 68.96 69.84 70.10 70.79 71.06 71.32 71.30 71.27 71.54 72.07 71.80 70.99 70.52
42.03 33.14 32.03 31.69 34.47 38.62 37.22 42.05 42.68 42.62 39.85 39.76 39.98 40.07 43.39 45.59 46.98 49.03 50.59 53.22 54.98 57.18 59.61 60.88 61.70 63.40 64.48 65.31 65.99 66.79 67.90 69.30 69.83 70.11 70.39 70.24 70.83 71.06 71.50 71.95 72.31 72.31 71.77 70.43
36.92 31.99 33.56 36.21 39.23 40.78 40.77 41.17 42.31 40.86 42.65 40.05 42.54 42.30 43.52 45.57 46.93 49.17 49.82 53.23 55.98 57.70 58.42 59.69 61.40 62.62 63.19 64.67 65.96 66.84 67.92 68.98 69.84 69.66 69.77 70.29 70.82 71.16 71.38 71.35 71.70 72.38 72.56 71.56
34.85 31.53 33.66 34.29 40.32 40.62 38.63 41.50 42.91 43.09 42.88 42.72 43.99 41.88 46.25 48.48 48.00 48.86 50.59 52.35 54.75 56.59 58.53 59.38 61.62 62.76 62.32 63.62 65.41 66.69 67.59 69.01 69.95 69.54 69.34 70.40 71.05 71.25 71.28 71.49 71.32 71.25 72.00 72.33
32.45 31.44 31.44 29.15 37.06 37.47 35.72 40.83 42.73 43.19 44.32 43.84 41.34 44.90 47.22 46.31 46.61 48.47 49.95 50.17 51.66 54.80 58.19 58.73 59.83 61.68 62.77 63.28 65.40 66.40 67.54 69.41 69.62 69.67 70.02 70.21 70.85 71.01 71.30 71.84 71.85 71.22 70.84 71.74
32.05 31.20 31.73 29.43 32.84 27.91 38.55 44.59 46.12 44.89 45.90 46.25 45.24 47.60 48.12 49.29 49.98 50.13 50.77 51.73 51.26 52.28 56.32 58.77 60.13 61.81 63.53 64.66 65.04 66.83 67.81 68.82 69.86 69.73 69.88 70.72 70.93 70.93 71.52 71.62 71.81 71.89 71.74 71.31
36.91 32.12 29.41 28.70 29.13 36.19 40.02 45.59 46.89 44.93 44.30 48.20 46.97 47.90 48.18 50.12 50.48 49.00 50.66 50.95 52.05 53.16 55.55 58.32 61.02 61.89 62.72 62.77 64.63 65.89 66.70 68.30 69.78 69.92 70.21 70.83 71.60 71.13 71.40 71.53 71.97 72.40 72.27 71.94
36.66 37.19 32.45 29.69 28.23 28.38 39.74 48.79 52.79 52.01 42.04 48.98 50.26 49.09 48.98 47.70 44.72 49.27 52.74 54.93 54.51 55.23 56.61 57.52 58.54 60.59 60.61 62.01 64.28 65.48 66.16 67.36 68.38 70.38 70.94 71.65 72.09 71.80 71.40 71.69 72.08 72.98 73.23 72.69
29.57 32.15 29.53 30.71 31.17 35.22 42.57 51.68 55.47 42.06 42.80 53.71 55.02 55.06 49.19 47.53 51.22 52.71 54.14 56.74 55.91 55.56 55.50 57.26 59.36 61.71 61.93 62.90 65.09 65.28 66.09 66.59 68.73 70.37 71.62 72.00 72.57 72.46 72.44 72.31 72.64 72.61 72.95 73.21
29.64 29.68 29.93 30.81 30.38 28.85 49.92 50.84 48.00 49.14 53.71 55.56 55.98 57.00 56.51 49.11 50.44 54.07 57.01 57.34 57.41 60.54 61.47 59.20 56.17 56.76 60.60 63.63 65.73 65.49 65.64 67.98 69.45 70.31 71.21 71.81 72.51 72.90 73.19 72.91 72.96 72.90 72.62 72.86
30.61 35.73 34.57 34.09 33.96 43.46 51.03 50.97 53.38 54.51 54.78 55.95 56.88 58.04 58.15 52.93 54.13 57.22 59.78 63.72 65.91 67.04 67.74 67.15 66.82 68.12 69.58 66.13 64.31 63.86 64.97 67.08 68.07 68.93 69.37 71.48 72.48 72.98 73.68 73.26 73.13 73.09 73.29 72.69
37.88 39.64 38.89 39.73 42.62 45.76 51.05 54.08 54.53 55.07 55.49 56.44 58.29 59.69 60.10 60.40 62.49 64.21 65.75 66.13 65.99 66.80 67.02 67.89 68.56 68.58 69.18 70.19 69.74 69.48 70.68 68.83 66.28 66.64 67.62 68.85 69.98 71.40 72.99 73.55 73.52 73.26 73.12 72.83
36.69 37.13 36.05 40.24 43.58 48.45 52.97 52.96 53.92 55.97 56.98 57.06 60.13 60.84 63.97 64.83 64.68 65.52 65.60 65.94 65.72 65.89 66.78 67.75 67.73 67.62 68.69 69.72 69.93 70.31 71.05 68.87 66.25 66.80 66.98 68.64 68.26 61.99 60.59 59.33 58.20 62.98 58.55 63.96
38.67 36.16 35.76 36.96 44.17 47.42 50.13 52.85 55.73 55.81 55.74 58.04 59.75 60.93 61.98 63.54 62.87 63.45 62.81 63.71 63.98 63.76 64.89 65.03 65.25 65.12 65.87 66.99 67.90 68.46 68.35 69.72 66.93 64.55 63.65 63.03 62.81 63.51 63.60 63.57 60.92 51.78 53.05 52.51

GFSCGP_sfc_wetblb_039.txt.gz
Wetbulb
53.18 49.06 46.76 49.06 49.95 50.38 49.16 49.07 49.94 52.87 54.15 54.54 55.78 58.01 59.60 63.50 65.57 65.56 65.68 65.27 65.89 66.62 69.01 70.49 71.29 72.10 72.65 73.40 73.68 73.64 73.76 75.21 74.27 73.35 72.46 72.34 71.40 72.94 74.21 75.67 76.62 76.97 77.34 77.62
48.58 46.11 50.22 51.31 50.34 48.79 48.16 47.87 49.19 51.84 52.35 51.91 53.28 54.06 57.49 62.30 63.96 65.54 65.95 65.79 66.16 67.04 68.27 69.52 70.60 71.63 72.13 72.76 73.38 73.97 74.47 75.27 74.40 74.04 74.41 73.77 73.95 73.96 75.21 76.31 76.87 77.26 77.23 77.79
46.60 48.43 51.06 49.82 49.00 48.13 47.67 46.88 48.98 49.47 50.52 51.86 52.64 52.02 56.36 62.24 64.24 65.67 66.80 67.36 67.52 67.39 67.65 68.94 69.88 70.89 72.06 72.36 73.35 74.24 75.13 75.55 75.11 75.50 74.50 74.44 74.93 74.93 74.37 74.73 75.67 76.47 77.06 77.56
47.85 51.09 49.44 48.53 47.81 49.19 45.79 49.55 49.17 48.85 48.66 46.90 53.67 47.41 54.09 59.24 61.72 63.68 65.21 66.44 67.27 67.94 68.74 69.40 69.87 70.67 71.44 72.76 73.55 74.43 74.86 75.72 75.20 75.99 74.59 74.75 72.39 72.09 73.45 74.47 75.76 76.07 77.25 77.22
46.87 48.07 48.10 47.47 47.92 50.58 47.65 50.51 49.56 49.73 48.87 48.85 49.23 47.62 52.40 58.15 59.29 61.79 64.16 65.73 67.13 68.43 68.86 69.09 69.91 71.23 72.10 72.87 72.93 73.71 74.79 75.40 75.76 75.80 75.72 74.20 73.89 73.79 74.63 74.80 76.50 77.36 77.82 77.26
49.48 50.96 50.86 50.27 51.20 51.47 52.19 50.25 49.49 48.77 48.53 43.04 48.17 47.55 49.63 53.72 58.64 62.00 64.46 65.85 66.53 68.10 69.02 69.96 70.82 71.74 71.85 72.60 72.87 73.05 74.12 74.74 75.74 75.74 75.58 75.62 75.24 75.17 73.97 74.29 74.15 74.60 75.18 75.66
47.90 47.64 50.88 51.91 48.96 51.02 50.40 47.73 42.25 40.72 40.96 40.96 49.73 46.83 49.59 55.02 59.64 60.78 63.81 65.35 66.79 67.54 68.30 69.06 69.88 69.93 71.85 72.25 72.99 73.37 73.99 73.88 75.23 75.21 75.29 75.51 75.53 76.02 75.67 75.47 74.01 74.94 73.91 74.61
43.54 41.28 47.85 50.64 49.82 47.57 48.34 47.64 42.67 37.95 39.60 42.10 47.98 44.61 49.52 55.37 57.41 61.24 63.60 65.67 67.19 67.62 68.35 68.51 70.14 70.24 70.37 72.32 73.01 73.49 73.35 73.49 74.40 74.77 75.16 75.76 76.22 75.03 75.14 75.51 74.51 74.15 74.26 74.94
44.36 44.21 49.51 50.03 51.32 51.04 47.72 45.69 49.40 44.20 43.16 42.45 45.55 48.95 52.48 55.13 55.69 59.58 61.59 63.95 65.58 67.04 68.06 68.57 69.48 70.62 70.65 71.30 72.59 73.55 73.36 73.67 74.35 74.49 74.92 75.30 75.76 75.53 75.23 76.33 76.61 74.99 76.62 75.58
48.04 43.88 49.08 49.40 51.00 51.32 48.92 50.57 43.44 45.29 38.93 38.02 43.08 45.16 47.67 53.14 54.62 56.98 59.82 61.54 63.81 66.55 67.61 68.70 69.81 70.94 71.43 71.42 72.60 73.51 73.79 73.59 74.12 74.59 74.82 74.88 75.22 75.74 75.98 76.43 76.01 76.30 76.90 76.32
47.42 46.58 45.84 48.99 47.64 46.81 46.23 46.76 47.42 47.20 45.03 40.69 39.74 43.86 52.92 55.11 57.76 57.00 58.02 60.70 62.69 64.15 65.90 67.34 69.60 71.19 71.79 72.00 71.63 72.50 73.12 73.49 73.92 74.34 74.71 74.96 75.07 75.50 76.01 75.87 76.10 76.54 76.91 77.19
46.15 45.31 45.20 46.16 50.72 52.02 49.72 48.29 47.92 43.66 42.68 44.26 44.42 44.42 52.76 55.43 57.56 58.48 59.21 60.85 62.39 64.55 65.58 66.76 67.84 69.72 70.09 71.41 71.64 71.76 72.75 72.81 73.62 74.20 74.63 74.70 75.31 75.42 75.55 75.65 76.11 76.69 76.41 77.23
46.06 43.32 42.66 44.32 47.96 49.07 48.10 49.54 49.18 48.99 48.40 45.31 41.46 44.22 54.79 54.53 54.71 56.94 57.73 59.39 61.15 63.65 65.45 66.69 66.94 68.43 70.02 70.73 71.04 71.15 72.20 72.36 73.34 74.04 74.13 74.76 75.01 75.14 75.20 75.69 76.12 76.52 76.38 76.53
46.80 43.02 43.26 42.85 44.76 45.15 44.04 46.73 49.14 48.16 45.44 45.43 45.54 47.53 51.19 53.22 54.42 56.63 57.26 59.40 60.66 63.78 65.20 66.43 67.11 68.12 69.76 70.61 70.86 71.07 71.85 72.63 73.20 73.66 73.70 74.22 74.82 74.93 75.17 75.67 76.04 76.31 76.43 76.20
44.15 39.41 40.96 42.05 42.47 43.10 43.51 44.08 45.53 45.59 47.92 46.24 47.84 49.02 51.06 53.20 54.75 57.37 59.57 60.38 59.89 61.35 62.95 65.32 66.91 68.59 69.87 70.56 71.28 71.40 71.72 72.99 73.35 73.41 73.04 73.43 74.75 75.42 75.62 75.68 75.91 76.08 76.45 75.91
43.16 38.67 41.23 38.81 42.23 42.93 41.84 44.46 45.02 45.61 46.31 46.73 47.62 47.92 53.80 55.76 56.88 57.11 58.42 59.53 58.76 60.16 61.84 65.19 66.84 68.18 69.56 70.26 70.47 71.03 71.60 72.34 73.37 73.18 72.96 73.99 74.74 75.20 74.99 75.38 75.62 75.73 76.18 76.22
38.81 39.13 38.05 35.67 40.74 41.38 39.37 44.15 45.09 46.57 48.03 48.02 45.28 50.15 53.95 53.60 54.71 56.34 59.18 60.25 60.74 61.77 63.52 65.15 66.86 68.35 70.00 70.06 70.91 70.68 71.51 72.82 72.93 73.05 73.60 74.15 74.67 74.60 74.76 75.25 75.56 75.46 75.51 76.22
37.72 38.55 39.89 36.09 38.73 31.85 44.86 49.17 48.49 47.91 49.58 50.12 50.05 51.28 53.21 54.77 56.76 59.02 60.34 60.00 60.83 61.83 62.59 63.64 64.02 66.56 69.30 69.75 69.63 71.67 72.07 72.51 72.77 73.11 73.71 74.48 74.60 74.25 74.92 75.03 74.66 74.97 75.41 75.41
40.03 38.57 36.10 33.85 35.50 40.05 42.22 45.90 48.37 48.73 49.24 54.44 51.96 52.41 53.42 54.96 56.04 57.89 59.80 60.96 61.45 63.02 64.56 64.48 63.49 64.41 69.42 70.30 70.74 71.45 72.03 72.38 72.92 72.81 73.43 73.84 74.24 74.33 74.70 74.46 74.54 75.01 74.88 74.78
39.67 39.81 36.39 35.43 31.70 31.99 43.62 48.49 51.93 53.31 44.71 55.14 56.79 56.75 54.94 54.77 51.06 54.18 61.70 60.83 60.59 60.76 62.31 63.31 64.24 64.75 66.24 70.03 69.46 70.89 71.29 72.03 72.09 73.13 73.57 74.57 74.75 74.18 74.29 74.62 74.79 75.46 75.57 75.09
34.55 34.83 32.05 33.12 32.93 37.68 45.80 49.40 56.78 44.70 47.83 57.09 58.57 59.31 59.16 57.48 56.98 61.45 62.14 62.34 62.53 63.93 63.78 64.27 65.47 65.70 67.85 68.51 71.33 70.53 71.38 71.41 72.64 73.85 74.18 75.43 75.53 75.57 75.75 75.28 75.39 74.14 74.90 75.84
34.84 34.00 32.85 33.45 31.07 29.28 47.01 49.23 45.14 53.58 57.64 58.13 59.02 60.29 60.21 61.17 62.14 62.99 62.79 61.06 62.96 63.55 64.13 63.85 64.89 66.75 68.30 69.36 71.27 71.67 71.55 73.15 73.69 73.86 74.43 75.72 76.04 74.96 74.52 75.45 74.16 73.40 73.42 74.34
33.68 37.83 37.12 37.61 36.98 44.80 48.35 48.57 52.12 55.31 55.74 57.00 59.50 60.98 61.57 61.05 61.66 63.30 62.88 62.28 66.41 68.64 68.55 64.95 68.72 70.32 70.70 69.69 71.18 71.02 72.29 73.32 73.32 73.27 74.12 74.76 75.61 75.40 76.46 75.01 72.13 73.43 72.90 73.14
39.96 44.07 39.82 40.06 42.53 44.51 46.82 50.73 52.58 54.38 57.37 59.69 60.72 61.17 62.00 60.99 63.02 64.57 62.95 66.79 69.96 69.84 68.85 70.97 71.89 70.45 70.51 71.44 72.14 72.32 72.59 73.02 73.88 73.70 74.08 74.86 74.90 74.80 75.50 75.36 75.29 74.01 74.05 73.52
39.77 41.47 39.73 39.45 42.04 44.38 46.23 48.92 52.29 52.76 57.48 59.22 61.49 61.93 61.52 63.87 66.06 64.93 66.04 67.73 68.93 69.28 69.78 70.55 71.66 71.12 72.02 72.94 71.78 74.09 74.48 73.71 72.07 72.29 72.60 73.30 71.71 68.94 66.96 66.31 70.47 70.57 65.84 71.00
40.14 39.09 37.22 36.34 43.81 44.47 47.15 51.93 54.26 54.49 56.65 59.24 60.99 59.97 63.35 66.23 65.74 66.99 66.11 66.20 66.96 66.89 67.55 67.91 68.32 68.16 68.41 69.44 70.08 70.40 71.34 71.47 69.68 67.61 67.99 67.03 67.07 67.45 68.94 67.14 62.84 50.50 50.50 49.41

GFSCGP_sfc_wetblb_042.txt.gz
Wetbulb
55.40 51.40 49.73 51.23 54.28 54.65 54.13 53.53 53.40 57.01 58.94 58.31 58.97 59.97 61.96 64.18 66.56 66.65 68.26 68.55 68.92 69.16 70.63 71.54 72.31 72.76 73.12 74.16 74.40 74.91 75.05 76.96 75.64 74.75 74.06 73.44 72.42 73.38 73.46 74.78 76.94 78.47 79.22 79.34
51.46 49.18 52.93 54.07 53.02 52.76 52.63 51.77 52.96 56.66 57.26 56.80 57.52 57.64 60.63 62.13 64.67 66.51 67.74 68.36 69.02 69.63 69.99 70.77 71.76 72.23 72.73 73.60 74.61 75.29 75.40 76.50 76.63 75.60 75.51 74.44 73.74 73.48 74.12 75.80 78.05 79.30 79.11 79.65
50.08 51.32 53.50 52.41 52.15 51.02 51.43 51.48 52.52 53.40 56.14 56.49 56.09 55.41 57.58 60.17 62.89 65.39 67.35 69.24 69.70 69.74 69.46 70.20 70.93 71.81 72.41 73.13 74.35 75.46 76.69 76.75 77.09 77.83 75.92 75.35 74.75 74.60 74.02 75.66 77.04 78.40 78.88 79.20
51.61 53.49 51.72 51.14 50.43 51.71 49.15 52.63 52.44 52.49 52.50 50.85 56.35 50.48 57.39 59.58 61.09 64.01 65.71 68.03 69.10 69.96 70.65 70.67 70.84 71.20 72.10 73.23 75.04 76.11 76.85 77.37 77.41 77.79 76.68 77.26 73.33 72.13 73.91 75.88 76.36 77.45 78.84 78.67
50.01 50.80 50.31 49.78 50.43 52.13 49.90 52.99 51.89 51.53 51.18 51.79 52.83 51.28 55.04 59.53 58.53 62.29 65.15 66.83 69.14 70.15 70.81 70.63 70.94 71.51 72.33 73.52 74.43 75.62 76.85 77.96 78.29 77.79 78.18 75.83 75.69 73.43 75.19 75.46 78.79 79.40 79.80 78.94
51.38 53.86 52.77 52.11 52.91 52.68 53.05 51.56 51.63 51.59 50.56 46.40 51.61 51.73 52.68 55.76 58.97 61.02 64.74 66.59 68.59 69.82 70.79 71.69 72.46 72.09 72.52 73.67 74.51 75.47 76.96 78.68 78.60 77.85 77.12 78.82 77.62 75.99 75.07 76.66 75.70 75.99 76.49 77.10
49.74 50.74 52.85 53.49 51.27 53.21 51.74 49.69 44.86 43.85 44.34 44.52 52.36 50.81 53.41 57.18 59.37 61.43 62.96 65.79 68.22 70.15 70.59 71.27 71.92 72.13 72.16 72.91 74.05 75.13 77.75 78.21 78.38 77.31 77.73 77.57 78.38 78.10 78.40 77.98 76.17 77.71 75.31 75.71
46.33 44.70 50.60 53.26 51.99 50.58 50.21 49.94 45.76 41.55 42.85 45.34 51.33 47.98 52.09 58.21 59.95 60.98 63.02 64.40 68.09 69.35 70.68 71.08 72.09 72.84 73.06 73.02 75.07 75.77 77.56 77.62 77.29 77.29 78.82 79.35 79.74 76.46 76.55 78.26 76.78 76.14 75.60 75.80
48.33 48.22 52.65 53.09 53.42 53.32 50.53 48.60 51.62 47.38 48.56 46.07 48.71 51.27 54.92 57.17 58.42 59.58 60.34 62.47 64.22 68.13 69.94 70.84 71.98 72.70 73.62 74.10 75.73 76.60 77.62 78.27 78.38 77.59 79.22 79.24 79.16 78.75 77.13 79.20 79.67 77.36 79.12 76.62
52.73 48.63 52.18 52.05 53.69 53.69 52.79 53.25 46.97 48.08 42.96 42.23 46.22 48.42 49.83 54.30 55.92 58.63 59.40 61.40 63.64 66.70 69.35 70.59 71.35 72.34 73.43 74.39 75.35 76.65 77.95 78.07 78.29 77.29 78.31 78.10 78.78 79.36 79.39 79.73 79.59 79.52 79.59 78.95
52.47 51.29 50.93 51.92 50.08 49.68 50.26 49.79 50.56 50.08 48.35 44.92 44.03 47.51 55.23 55.46 57.78 57.83 59.52 62.05 64.25 66.32 68.54 70.41 71.52 72.35 73.39 74.20 74.39 75.52 76.56 77.35 77.30 77.93 78.50 78.68 78.74 78.43 79.06 78.33 79.49 79.89 79.92 80.46
52.64 51.39 48.97 49.39 52.81 53.86 52.82 51.01 51.06 46.65 46.79 48.12 48.01 48.98 54.54 56.00 57.19 59.44 60.27 62.06 64.22 65.75 67.46 69.29 70.08 71.62 72.55 73.23 73.91 74.26 75.11 75.62 76.20 77.72 78.65 78.52 79.19 78.90 78.38 78.81 79.30 79.91 79.98 80.23
51.90 48.91 46.47 48.47 50.90 52.38 50.58 51.55 51.79 51.38 51.09 48.91 45.74 48.26 56.44 56.90 56.87 59.12 60.19 61.65 63.56 65.04 66.54 67.64 68.54 69.65 71.57 72.87 75.00 73.89 74.40 74.76 75.78 77.13 76.62 77.68 78.30 78.25 78.82 79.10 79.41 79.67 79.87 80.18
49.24 50.24 49.16 47.04 49.19 51.42 49.24 50.48 51.37 50.58 48.27 48.70 49.52 50.86 53.61 54.80 55.91 58.32 59.07 60.12 61.34 63.69 65.47 66.39 67.67 69.25 70.44 72.86 75.50 76.18 74.53 74.68 75.28 75.66 75.97 77.18 78.14 78.39 78.63 79.25 79.55 79.60 79.94 80.09
48.44 47.00 48.00 50.66 47.82 47.93 50.78 50.14 50.64 50.23 50.95 48.73 51.12 51.69 54.52 55.91 56.77 57.61 59.48 59.82 60.73 62.17 64.47 66.53 67.92 68.64 69.81 71.76 75.29 76.04 75.19 76.23 75.87 76.96 76.57 77.10 78.37 78.98 79.33 79.23 79.46 79.75 79.78 79.98
47.52 44.94 46.14 45.68 47.56 46.75 46.10 48.95 50.11 51.10 51.88 51.87 52.31 52.40 57.19 58.05 58.70 58.87 59.09 59.55 59.80 60.53 62.22 64.63 67.55 69.75 70.69 72.19 73.30 74.31 75.42 75.65 76.46 77.10 76.53 77.70 78.26 79.15 79.07 79.05 79.22 79.56 79.50 79.67
43.36 43.93 43.17 42.95 47.37 46.59 43.70 47.86 49.38 50.60 52.39 52.08 49.75 54.06 56.95 56.85 57.02 58.14 59.52 60.25 60.42 61.43 62.39 63.32 66.42 68.92 70.82 71.13 73.29 73.80 75.68 75.64 76.24 76.55 77.46 77.72 78.44 78.45 78.89 78.85 79.03 79.38 79.15 79.36
42.61 42.72 43.50 42.63 45.02 37.27 48.84 53.83 52.50 50.68 52.14 53.43 53.65 54.90 56.45 57.24 58.63 59.79 61.04 60.91 61.02 61.71 62.76 64.03 64.34 65.94 69.94 71.43 70.39 74.06 74.26 76.24 76.39 76.55 76.97 77.88 78.23 78.11 78.72 78.94 78.60 78.96 79.17 78.96
44.93 42.92 40.69 39.28 40.58 45.31 47.71 48.67 49.27 49.66 50.59 54.33 54.02 55.58 56.15 57.04 57.60 58.03 60.05 61.04 61.99 63.22 64.06 64.76 64.80 64.91 66.61 67.73 70.12 72.57 73.91 74.20 74.89 76.52 76.78 77.55 78.19 78.03 78.43 78.14 78.22 78.10 77.85 77.57
43.96 43.66 40.76 40.91 37.15 37.26 47.00 51.26 52.58 53.01 46.69 55.89 56.16 57.84 58.91 58.86 53.13 56.04 60.88 61.42 62.83 63.48 63.90 64.11 65.16 65.40 65.77 67.74 68.99 71.03 73.22 74.72 75.48 76.27 76.74 77.67 78.21 78.45 78.04 77.90 77.92 77.96 77.61 76.88
38.53 39.20 36.71 37.91 37.55 42.55 49.14 51.55 56.24 45.08 51.94 59.31 59.33 59.98 60.54 60.15 62.13 64.73 66.30 65.96 66.42 66.42 65.84 66.58 66.74 66.57 69.30 70.03 71.64 72.43 73.10 73.87 76.09 75.84 76.09 77.10 78.29 79.05 78.32 78.86 78.66 78.41 77.79 77.83
39.10 37.17 36.86 38.20 36.47 34.79 48.54 48.65 46.34 53.05 55.64 56.81 58.00 58.87 59.44 61.19 62.68 63.74 64.93 66.30 67.63 67.39 66.94 65.33 66.90 67.24 69.63 72.76 72.69 75.35 75.16 76.31 77.04 76.65 75.79 77.13 78.06 76.97 76.39 78.66 78.32 78.43 78.21 77.37
36.73 41.05 39.90 41.14 40.55 47.74 49.41 49.48 52.51 53.76 53.24 54.74 56.13 58.98 60.19 60.57 61.83 63.56 64.19 66.47 68.05 68.86 67.41 68.53 69.30 69.08 72.07 73.34 73.66 73.68 77.27 77.70 76.32 76.14 76.73 77.18 77.89 77.40 78.51 77.46 77.32 76.14 76.87 75.39
42.65 45.52 41.89 42.46 45.22 46.73 48.81 51.21 52.45 52.64 52.73 54.29 56.26 56.44 58.68 58.97 61.29 63.37 64.79 66.99 69.34 68.56 70.71 72.07 71.26 71.82 72.87 74.28 74.82 74.94 75.92 76.75 76.15 75.82 76.46 76.88 76.91 76.56 76.88 76.65 76.58 76.02 75.26 74.86
43.01 44.83 42.74 42.55 45.44 47.16 48.64 50.27 51.32 51.79 52.29 52.35 54.21 55.92 58.46 59.22 60.03 63.30 64.21 68.55 69.90 69.76 72.25 72.99 73.42 73.31 74.34 74.35 75.29 75.60 75.50 75.98 75.29 75.72 75.95 76.14 76.43 76.36 76.66 76.86 72.72 76.01 77.61 70.38
44.01 42.15 40.07 39.82 46.53 46.76 47.81 50.58 52.13 52.30 54.16 54.64 55.54 56.88 58.93 60.32 61.01 63.03 66.23 70.10 70.61 70.59 71.63 73.45 73.61 72.35 72.45 71.66 71.69 75.89 76.98 75.76 75.49 75.04 74.94 74.75 75.31 75.77 75.56 74.23 68.64 49.73 48.55 45.71

GFSCGP_sfc_wetblb_045.txt.gz
Wetbulb
59.77 56.06 53.93 54.69 58.41 58.15 56.29 55.01 54.65 57.75 61.02 59.65 60.02 59.75 62.23 65.67 66.82 66.23 68.34 69.27 69.37 69.15 70.67 71.63 72.17 72.54 72.91 73.72 74.24 75.88 76.55 78.70 76.98 75.15 74.30 74.02 72.69 73.91 73.51 74.11 76.89 77.56 78.03 78.96
55.80 53.78 56.23 57.06 56.32 56.79 56.15 54.65 54.73 57.05 60.02 59.90 59.47 60.10 62.74 63.76 65.67 66.83 67.31 68.84 69.33 69.94 70.06 70.56 71.60 72.08 72.38 73.24 75.27 76.74 77.52 79.38 78.22 76.17 76.56 74.98 75.24 73.41 73.48 74.02 78.09 77.95 78.57 79.71
52.35 54.72 56.65 53.72 53.39 53.61 55.22 54.21 54.53 54.56 57.70 60.30 58.65 58.07 59.35 62.68 64.17 66.71 66.94 69.73 69.91 70.24 70.14 70.08 70.66 71.43 72.10 72.71 75.24 76.42 78.03 78.87 78.59 78.36 77.17 77.07 76.22 75.50 73.12 73.83 74.91 77.61 78.85 79.30
53.17 55.18 53.39 52.32 51.81 52.83 50.11 54.94 55.22 54.68 54.89 53.15 58.06 51.80 57.99 60.33 61.37 63.25 65.08 67.66 69.30 70.18 71.37 71.01 70.58 71.14 71.60 72.69 74.43 77.18 78.65 79.04 79.00 79.64 76.97 76.88 73.14 71.64 72.21 74.12 74.82 77.21 79.24 79.05
51.98 52.41 52.19 51.53 52.08 53.99 51.97 54.74 54.30 54.81 53.93 54.66 55.17 53.54 56.67 60.02 59.04 61.03 63.70 65.32 68.46 70.11 71.10 71.06 71.01 71.11 72.06 72.47 73.16 75.61 78.84 79.30 79.20 79.22 78.63 76.24 75.70 73.46 73.66 73.96 78.29 78.80 80.74 80.04
54.30 56.50 55.04 53.84 54.56 54.48 55.12 53.27 53.32 53.42 52.71 48.49 53.31 54.10 54.77 56.99 59.77 61.35 64.07 65.35 66.81 69.57 70.78 71.57 72.36 71.83 71.50 72.15 72.86 74.57 78.60 79.56 80.01 79.95 79.16 79.42 77.39 76.22 73.23 75.26 74.98 75.40 75.90 77.83
52.10 53.34 54.92 55.63 52.65 54.34 53.13 50.73 45.88 45.21 46.01 46.06 53.15 52.36 55.09 58.95 60.54 62.18 62.81 65.13 66.74 69.34 70.56 71.27 71.60 71.30 71.89 72.27 73.71 74.92 78.25 79.24 80.12 79.81 79.22 78.57 79.42 78.80 78.34 78.81 75.65 77.23 74.82 75.06
48.05 46.42 52.95 54.46 53.20 51.76 51.66 50.67 46.46 42.62 43.88 46.52 52.61 49.81 53.81 59.69 61.17 62.46 64.10 65.08 66.78 68.31 70.37 71.22 71.93 72.32 72.29 73.36 74.81 75.98 77.89 78.83 79.90 79.76 79.70 79.94 80.21 77.10 76.38 77.69 76.49 75.75 75.52 75.81
49.43 49.20 54.38 54.65 54.61 54.50 52.07 49.47 52.69 49.28 50.42 47.90 49.60 52.92 56.31 59.14 59.56 60.90 61.72 63.58 65.58 67.28 69.51 70.97 72.21 72.57 72.69 73.75 75.41 76.32 77.79 79.10 79.81 79.64 80.09 80.34 80.12 79.39 77.54 78.16 79.48 77.33 79.35 76.47
53.60 49.83 54.02 53.84 55.31 54.71 54.08 54.50 47.99 49.43 45.58 45.04 48.65 50.63 51.19 55.53 57.20 59.35 60.45 62.31 64.07 67.10 69.21 70.75 71.76 72.87 73.83 73.91 75.58 77.03 77.78 79.12 79.52 79.82 80.13 80.23 80.48 80.55 79.83 79.87 79.85 79.13 79.52 80.95
54.39 53.45 53.45 54.85 51.92 50.98 51.38 51.54 51.64 51.22 49.92 46.68 46.33 49.34 56.47 57.30 58.34 58.25 60.33 61.86 63.10 65.06 68.03 69.90 71.39 72.77 74.15 74.50 74.62 76.15 77.57 78.19 79.63 79.82 80.00 80.24 80.32 80.51 80.97 79.80 80.12 80.15 81.27 81.99
54.65 53.15 50.44 51.87 54.48 55.41 54.16 52.56 52.79 49.34 49.14 49.88 50.37 50.99 57.36 58.10 58.19 59.74 60.03 62.28 63.24 65.38 67.11 69.27 70.81 72.29 72.99 74.48 74.45 75.20 76.48 76.98 79.18 79.55 79.75 79.97 80.52 80.60 80.30 80.25 80.32 81.14 80.71 81.48
54.67 51.27 48.31 50.84 52.83 54.10 52.35 53.15 53.74 53.28 52.43 50.80 47.49 50.44 58.30 57.82 58.23 60.13 60.43 61.84 64.22 65.77 67.07 68.29 70.04 71.46 72.30 73.63 75.81 76.14 76.71 76.38 77.17 78.84 78.78 79.61 79.92 80.30 80.09 80.23 80.86 81.03 80.93 81.15
51.81 51.61 50.53 49.22 51.79 52.80 50.56 52.15 53.01 52.75 50.32 50.58 51.22 52.77 55.21 56.44 57.30 60.12 61.15 62.55 63.90 66.08 67.19 68.28 69.27 70.58 72.22 74.01 76.25 77.17 76.09 76.16 77.14 77.74 78.01 78.66 79.77 79.85 80.17 80.45 81.22 80.94 81.39 80.84
51.45 48.61 51.73 52.91 54.22 53.28 52.35 51.59 52.34 51.57 52.92 50.42 52.90 53.38 56.12 57.34 58.31 59.82 61.34 62.44 62.31 63.32 64.39 66.14 66.96 68.61 70.80 73.76 76.80 77.74 76.82 77.61 76.85 78.19 78.35 78.52 79.91 80.66 80.96 80.58 80.60 80.94 81.18 81.01
51.28 46.94 51.18 50.83 53.17 51.79 50.39 52.87 52.40 52.78 52.78 53.15 53.52 54.22 58.78 59.40 59.78 59.65 60.36 60.71 60.16 61.34 63.84 65.21 66.95 68.72 69.69 71.96 75.95 77.10 77.82 77.27 78.33 78.35 78.01 79.14 79.71 80.48 80.58 80.64 80.58 81.04 80.85 81.13
46.40 47.79 48.75 46.39 51.64 50.47 47.38 51.46 52.88 53.70 54.40 53.92 51.71 55.73 58.87 58.63 58.85 59.08 60.29 60.90 60.77 62.02 62.76 63.59 64.46 67.44 70.02 70.89 73.81 75.21 77.63 78.64 78.19 77.75 79.39 79.04 79.68 79.50 80.20 80.69 80.57 80.29 80.38 80.99
44.65 46.08 46.74 45.46 49.04 42.09 51.60 55.82 54.65 53.44 54.70 55.77 56.01 57.42 58.39 58.95 60.09 61.27 62.35 61.91 62.06 62.87 63.32 64.04 64.27 65.82 68.14 69.73 70.93 74.70 74.36 78.40 78.28 78.39 77.61 79.53 79.36 79.62 80.21 80.40 80.21 80.68 80.71 80.60
47.13 45.12 43.81 42.47 45.28 48.99 51.45 53.20 53.48 52.39 52.54 56.28 55.89 57.12 57.71 58.79 59.47 59.82 61.81 62.30 62.57 63.19 64.00 64.67 65.00 65.00 66.49 66.71 70.42 72.12 74.05 75.88 77.79 77.94 78.23 78.15 79.75 79.56 79.99 79.70 80.21 80.52 80.32 80.29
46.09 46.62 42.98 44.08 41.60 42.41 50.59 53.64 54.66 55.38 49.47 57.01 57.05 57.07 57.33 59.03 54.69 57.23 62.41 64.19 65.56 66.79 67.50 68.16 67.11 65.66 65.79 67.49 67.11 69.02 71.08 76.57 77.45 77.83 78.51 79.52 80.10 80.04 79.59 80.20 80.34 80.55 80.51 80.00
40.86 42.10 39.85 40.69 41.07 46.50 52.28 54.72 55.77 46.71 52.98 59.84 59.14 58.83 59.95 59.82 62.84 65.48 66.49 66.39 67.46 68.19 69.08 69.58 69.33 68.26 69.84 70.14 71.71 73.06 73.08 74.51 77.10 77.85 78.83 79.94 80.26 80.40 80.55 80.69 80.80 80.46 80.04 78.89
41.34 39.44 39.74 41.30 39.88 38.77 52.66 51.36 49.14 53.80 58.22 58.30 58.95 59.50 60.16 61.78 62.73 63.98 64.99 65.96 66.93 67.70 69.25 70.08 69.68 69.27 69.61 72.40 74.85 76.00 76.28 77.29 80.09 79.36 78.80 79.65 80.37 79.49 79.30 80.83 80.69 80.60 80.07 79.16
39.11 43.67 42.08 43.45 43.50 51.24 52.43 52.15 53.97 54.72 53.92 55.46 55.97 56.96 58.36 58.48 59.05 61.59 62.99 65.08 66.76 67.81 70.09 71.61 70.07 72.29 72.98 74.34 76.14 76.12 77.82 80.94 80.19 79.93 79.52 79.88 80.48 79.94 80.08 79.76 80.11 78.37 79.24 76.76
45.03 47.46 43.38 44.35 47.36 48.91 50.71 52.36 53.21 53.66 53.54 54.85 55.49 55.98 55.92 55.53 57.21 59.40 61.85 63.07 65.73 67.02 69.98 71.68 71.19 72.36 73.07 75.14 75.62 77.89 78.50 80.48 80.32 79.50 79.89 80.07 79.77 79.64 79.68 78.36 77.86 77.00 76.42 76.17
44.19 45.71 44.19 44.15 46.59 48.42 49.96 51.49 52.33 52.89 53.86 53.73 54.98 54.84 55.65 57.76 58.10 59.43 60.85 62.76 65.06 66.51 70.94 72.04 73.16 72.91 73.67 75.56 76.25 76.79 77.67 78.95 77.75 77.78 77.19 78.25 77.52 77.53 78.02 76.92 72.46 76.55 74.84 68.58
45.62 44.07 41.71 41.04 47.82 48.28 49.36 51.57 52.60 52.13 52.25 53.40 53.68 54.67 56.49 57.04 56.47 58.64 59.74 62.91 65.34 67.70 72.09 72.56 73.78 75.51 75.08 74.74 76.01 77.95 77.51 77.40 77.13 76.07 76.18 75.88 76.40 76.84 77.11 74.42 69.95 48.73 49.62 46.25

GFSCGP_sfc_wetblb_048.txt.gz
Wetbulb
58.79 54.22 51.99 54.41 56.38 56.71 56.99 55.99 54.09 56.85 60.53 58.95 58.23 59.80 61.39 62.40 62.70 63.32 66.66 68.10 67.30 68.29 70.29 71.83 72.14 72.75 73.43 73.75 74.43 74.33 75.60 77.03 75.85 75.35 74.72 74.77 73.51 75.51 76.25 77.13 78.11 79.18 79.31 79.40
56.08 53.03 55.92 56.63 57.07 56.14 56.17 54.56 53.87 55.92 58.90 59.08 58.75 58.77 62.68 61.73 60.91 63.50 66.29 64.72 68.51 68.27 69.35 70.97 71.63 72.34 72.61 73.14 74.12 75.12 75.53 76.77 76.55 75.77 75.41 75.25 75.88 74.88 74.86 76.14 78.04 79.06 78.54 79.88
53.86 55.78 57.80 56.11 55.36 53.38 55.15 54.44 54.16 53.92 56.51 59.76 58.43 56.33 60.09 63.86 65.27 61.92 62.36 68.92 69.24 69.17 68.67 70.03 70.94 71.50 72.06 72.87 73.91 74.84 75.55 77.30 76.77 76.52 76.60 77.27 76.73 77.13 74.37 74.22 75.31 77.08 78.56 79.62
55.73 57.80 55.77 55.21 53.62 54.38 51.01 57.06 56.41 55.12 54.00 50.84 58.80 50.98 58.66 60.61 62.05 63.17 65.97 67.78 68.10 69.42 70.13 69.78 70.26 70.91 71.51 72.68 74.32 75.28 75.96 76.57 77.11 77.43 75.58 75.60 72.57 71.75 72.70 74.11 74.85 76.15 77.70 78.70
54.69 55.29 54.05 53.36 53.76 54.70 52.18 55.59 55.24 55.30 53.56 53.07 53.24 53.29 56.05 60.90 59.49 60.81 64.60 65.66 68.35 69.13 70.23 69.71 70.23 70.83 71.94 73.01 74.23 75.17 76.22 76.26 77.31 76.24 76.99 74.66 74.07 73.11 74.19 73.85 76.02 76.26 78.32 79.15
55.88 58.75 55.20 54.02 55.51 54.19 54.63 52.91 53.19 53.88 52.89 48.68 52.13 53.46 53.86 57.01 59.98 60.69 63.26 64.30 68.33 69.06 70.50 71.19 71.34 71.65 71.62 72.99 73.77 74.65 75.88 76.03 77.04 77.27 75.95 77.42 74.33 74.93 72.56 73.65 74.21 76.06 77.44 78.04
54.41 55.67 55.48 55.20 52.29 53.83 52.93 50.30 45.52 44.57 45.77 45.98 52.72 51.75 55.38 59.61 61.48 61.79 62.73 63.75 65.96 69.61 70.32 71.04 70.97 70.88 71.28 71.88 72.53 73.83 75.86 76.01 76.94 77.40 76.81 75.82 77.91 75.26 75.68 77.70 73.46 75.34 75.06 76.19
48.06 47.98 54.22 54.63 53.07 51.46 51.12 50.36 46.43 41.60 43.19 45.32 51.92 49.25 53.57 60.20 61.90 63.50 64.02 64.62 65.88 67.38 70.45 71.17 71.79 71.53 71.19 71.75 72.31 73.27 75.15 75.77 77.16 76.56 77.14 76.91 76.88 77.72 74.89 75.80 76.13 74.88 75.57 75.95
49.54 48.85 55.47 55.53 54.98 54.42 51.03 48.47 52.26 48.09 49.06 46.30 48.76 52.07 55.62 59.08 59.59 61.30 61.38 64.17 65.41 66.35 69.95 71.02 72.13 72.21 71.49 71.71 72.20 72.67 74.67 76.23 77.18 77.17 77.55 77.81 76.64 76.92 76.94 75.43 77.07 78.05 76.64 77.13
52.07 48.45 53.12 54.40 55.51 54.58 52.97 53.92 47.44 48.64 43.58 43.91 47.28 50.69 51.01 55.77 58.25 60.03 60.24 61.59 64.36 67.06 68.64 70.70 71.91 72.46 72.33 72.08 72.65 73.53 75.23 76.27 77.48 77.91 77.89 78.01 77.97 76.73 76.65 77.68 75.64 76.30 78.25 78.97
51.74 50.97 51.12 54.04 52.11 50.71 51.21 50.89 50.53 50.09 48.76 45.24 45.13 48.57 57.10 57.88 58.66 59.88 60.87 62.35 63.04 66.09 67.94 69.96 71.45 72.87 73.07 72.60 72.67 73.46 74.34 76.54 77.39 77.95 78.26 78.02 78.14 78.02 77.59 76.27 77.27 76.83 77.66 78.25
53.89 50.10 47.87 50.87 54.96 55.16 53.22 51.54 52.38 48.51 47.92 49.52 49.67 49.64 57.98 58.73 60.09 60.06 60.75 62.48 63.48 65.77 68.43 69.91 71.42 72.77 73.25 73.16 72.93 73.18 74.15 75.22 77.28 78.34 78.22 78.10 78.63 78.93 78.37 77.28 77.08 77.84 78.28 78.86
50.55 49.94 46.46 48.57 53.22 54.20 52.01 52.42 52.16 52.89 51.04 50.24 46.87 49.31 59.00 58.44 59.66 60.91 60.69 62.19 64.52 67.17 68.56 69.79 70.55 72.26 73.02 73.53 73.32 73.39 74.42 74.84 76.57 78.24 78.33 78.20 78.41 78.60 78.50 78.56 77.90 78.20 77.77 78.53
52.08 49.46 49.28 47.34 50.79 54.04 51.31 51.53 52.42 51.40 49.61 49.55 50.79 52.41 55.20 56.53 57.04 60.03 62.36 62.83 64.68 66.47 66.76 69.14 69.93 70.95 73.28 73.81 74.20 74.57 74.29 75.33 76.19 77.34 78.15 77.89 78.22 78.55 78.90 79.03 79.13 78.33 78.59 77.69
51.66 47.71 50.82 52.00 53.55 54.13 51.84 51.12 51.91 51.11 52.93 49.97 52.39 53.55 55.84 57.60 58.54 61.31 63.28 64.44 64.45 66.17 67.50 70.49 69.47 70.15 72.68 74.31 74.66 75.30 75.61 75.79 76.09 76.02 76.95 77.47 78.11 78.98 79.03 79.02 79.14 79.28 78.63 78.70
49.51 47.07 50.29 49.56 52.37 53.11 52.23 52.22 52.18 52.36 52.13 52.89 53.39 53.94 59.25 60.10 61.56 62.47 63.15 63.00 64.30 65.56 66.69 68.33 70.28 72.10 73.26 73.77 75.39 75.42 75.69 76.38 76.72 76.41 76.36 77.61 77.92 78.00 78.75 78.83 78.85 78.93 79.03 78.69
45.43 46.33 46.67 44.79 51.14 51.67 49.44 52.44 52.41 52.98 54.01 53.67 52.14 56.91 59.98 59.32 60.20 61.72 63.50 62.81 63.39 63.14 65.22 68.03 69.65 72.81 76.91 74.42 76.06 75.90 75.81 76.75 77.04 76.31 77.54 77.68 77.89 77.75 78.21 78.83 78.67 78.42 78.47 78.86
42.65 44.36 46.07 44.50 48.71 42.36 52.48 56.72 55.46 53.98 54.82 55.48 55.93 57.52 59.20 60.71 62.08 62.99 64.30 62.79 61.79 62.58 64.21 67.27 65.77 67.49 71.57 70.23 70.84 76.59 77.55 77.26 76.55 77.41 77.25 78.34 78.21 77.83 78.50 78.67 78.49 78.56 78.50 78.55
46.53 44.04 42.76 42.81 44.13 49.28 51.97 54.53 54.11 53.01 53.43 56.78 56.67 57.93 58.99 59.91 60.63 61.54 62.76 63.81 64.74 66.40 67.73 67.42 65.94 66.23 71.55 69.90 71.16 74.94 75.17 76.65 77.49 76.66 76.80 77.42 78.60 78.08 78.11 78.09 78.45 78.78 78.50 78.54
45.79 46.56 42.96 44.03 41.39 41.27 50.98 55.41 57.28 57.07 49.64 57.52 57.14 57.15 57.90 58.46 54.55 59.52 66.28 66.48 67.06 68.22 69.63 70.16 70.21 69.75 70.51 71.13 70.09 75.81 73.91 76.40 75.92 76.72 76.94 78.32 77.89 78.15 77.98 78.18 78.52 79.16 79.11 78.39
40.28 41.38 40.03 41.41 41.16 47.12 51.78 54.51 56.23 48.34 51.48 59.17 60.07 60.33 58.59 58.91 62.42 64.80 65.78 66.17 67.37 67.97 68.71 70.84 71.43 70.89 72.64 74.01 73.89 77.67 78.63 75.84 77.04 77.52 78.18 78.19 78.29 77.56 78.79 78.91 79.01 79.03 78.80 78.68
40.08 38.65 38.98 41.69 40.56 39.64 52.78 52.99 49.70 55.55 57.51 56.89 57.15 57.65 58.66 60.74 61.38 61.78 62.93 64.18 65.41 67.40 68.06 69.68 71.28 72.13 73.78 74.40 74.48 74.46 76.60 78.79 82.06 78.47 78.23 78.24 78.90 77.61 78.56 78.81 79.10 79.32 78.81 78.03
38.96 43.62 41.86 43.74 43.81 53.83 52.16 52.09 54.02 54.39 54.41 55.29 55.19 55.77 56.93 56.50 56.99 58.12 59.01 62.71 64.16 65.93 68.03 68.95 71.29 73.38 74.60 74.27 79.72 77.89 77.94 81.60 81.80 81.41 79.28 78.84 78.84 78.84 78.50 78.63 78.48 78.37 78.63 77.71
44.22 47.46 43.24 44.41 47.33 48.90 50.88 52.57 53.83 53.79 53.39 54.06 54.60 54.75 55.35 55.07 55.65 57.68 59.20 61.46 63.12 64.74 66.38 67.75 69.28 71.88 73.85 79.08 78.56 79.54 80.29 80.14 80.28 80.51 79.69 79.38 79.08 78.43 78.70 79.08 78.84 78.09 77.63 77.22
43.12 44.53 43.14 43.41 46.92 48.94 49.66 50.98 51.95 52.65 53.58 53.39 54.06 54.30 54.52 54.98 55.02 57.74 58.72 59.87 61.29 63.64 66.88 67.80 70.55 73.00 74.88 78.34 79.43 79.13 79.74 79.37 78.42 79.43 79.03 78.87 78.78 77.87 78.45 74.36 71.45 77.19 70.65 67.28
44.72 43.11 40.67 41.00 47.12 47.47 49.31 51.43 52.84 51.80 51.75 53.04 53.10 53.39 54.58 55.34 55.85 57.35 58.11 59.42 60.10 61.67 66.14 66.64 71.51 71.99 74.00 76.23 76.37 77.84 79.06 80.25 79.32 78.00 77.76 76.77 76.78 77.84 77.61 70.36 66.86 48.44 48.08 45.65

GFSCGP_sfc_wetblb_051.txt.gz
Wetbulb
53.20 49.02 46.76 48.99 50.82 52.11 53.21 52.83 52.08 55.11 57.93 57.80 56.94 58.23 59.88 61.61 60.79 61.36 63.36 62.65 65.47 66.32 69.22 70.33 70.73 71.64 70.07 71.02 70.54 70.74 71.37 72.20 72.20 72.76 71.60 71.57 70.30 71.34 69.72 70.69 73.93 74.82 75.38 75.35
51.77 48.51 52.78 53.79 53.18 52.33 52.54 51.67 51.90 54.96 57.29 56.42 56.82 57.29 60.12 61.39 61.49 62.41 63.30 62.42 62.70 66.39 66.86 68.66 69.57 69.99 70.07 70.53 70.08 70.74 70.94 72.44 72.09 72.81 71.77 71.41 71.36 71.15 70.60 70.81 71.11 75.53 75.03 75.23
49.88 52.01 55.93 53.67 51.60 51.02 51.27 50.25 51.09 51.65 54.50 54.75 54.48 55.70 56.94 59.97 61.65 61.28 63.21 62.63 62.75 64.98 66.25 67.33 67.93 68.94 69.67 69.82 70.32 70.27 71.37 73.05 72.50 73.09 72.81 71.81 71.61 70.63 69.65 69.82 69.37 73.76 74.18 74.47
52.54 55.57 54.30 52.89 51.10 51.51 47.82 53.99 54.15 53.70 51.65 46.52 54.35 45.85 54.67 57.36 58.89 59.58 61.24 62.16 63.98 64.35 66.89 67.75 67.88 68.29 69.40 70.11 71.77 70.68 72.55 73.73 72.94 73.02 72.58 71.46 70.16 68.30 69.41 68.96 69.98 72.45 73.78 74.81
48.94 53.37 52.76 51.55 52.41 53.79 50.81 54.31 53.16 53.37 51.15 47.90 50.26 48.86 52.87 58.81 56.74 57.85 59.82 62.01 63.10 65.41 67.00 67.43 67.99 68.80 69.74 70.87 71.37 71.67 72.04 73.56 73.63 72.90 72.20 71.76 69.80 69.11 68.48 69.60 69.01 70.88 72.40 73.69
50.60 56.28 55.44 54.26 55.59 55.40 55.36 52.25 50.56 51.16 49.82 43.64 47.84 47.20 49.37 54.52 57.84 58.65 60.29 61.44 63.21 65.35 67.35 67.83 68.92 69.30 69.17 71.04 71.63 72.37 71.74 72.73 73.42 72.98 72.68 71.12 70.01 68.48 68.36 67.41 68.69 70.71 73.75 74.52
50.28 51.14 55.27 56.65 52.42 54.15 52.27 47.68 40.87 39.99 41.48 41.14 45.90 44.68 46.70 55.37 59.26 60.41 60.99 62.32 64.86 67.11 67.21 67.25 67.67 67.88 68.55 69.44 70.77 72.18 72.03 71.69 73.71 72.79 72.01 72.65 70.85 70.47 68.77 68.65 68.30 70.58 73.01 74.12
43.79 43.93 51.58 55.87 52.03 49.24 49.95 47.22 39.02 33.09 36.63 39.88 45.13 42.84 47.56 55.32 58.14 61.73 63.48 65.62 66.96 67.36 67.63 67.43 67.79 67.94 68.34 69.06 70.71 71.69 72.21 71.96 73.13 73.73 72.75 71.89 73.22 72.44 71.49 71.56 72.37 70.20 72.35 74.09
44.04 44.82 54.73 55.04 54.99 51.58 47.23 44.73 47.01 39.51 42.86 38.35 41.60 46.01 50.65 53.57 54.65 57.97 60.05 61.75 65.93 66.73 67.72 67.78 67.93 68.41 68.21 68.91 70.11 71.22 72.27 72.28 72.82 73.36 73.77 72.83 71.99 73.69 72.08 70.84 71.63 72.58 71.29 73.29
46.48 41.40 51.37 54.25 56.20 53.06 48.70 48.93 42.28 43.05 35.43 35.41 41.31 43.33 45.19 48.97 51.65 53.88 55.54 59.94 62.82 66.85 67.85 68.47 68.26 68.44 68.74 69.16 70.05 70.88 72.67 72.55 73.17 73.16 73.96 74.20 73.54 72.41 74.29 72.72 71.22 71.50 73.04 72.56
44.13 44.48 45.00 50.55 50.95 49.80 46.74 45.75 45.64 42.28 40.79 36.45 36.46 42.53 51.10 51.06 52.95 53.66 55.54 58.50 61.75 66.18 67.67 68.66 68.89 69.16 69.10 69.33 69.89 70.29 71.82 72.93 73.57 74.29 73.88 74.46 74.59 73.98 73.03 73.93 72.81 72.30 72.38 73.23
43.32 42.03 41.78 44.29 50.42 54.15 50.52 47.44 46.64 42.52 38.68 40.52 39.63 43.12 54.45 53.32 55.06 55.74 56.42 57.39 60.84 64.95 68.14 68.91 69.51 69.35 68.96 68.82 69.39 69.64 71.29 72.78 73.89 74.78 74.76 74.38 75.14 75.36 74.06 73.03 73.52 72.85 72.39 73.79
42.96 39.77 38.64 41.88 45.76 49.22 49.28 49.20 48.28 45.44 43.83 41.28 39.97 41.38 53.80 54.15 55.51 56.21 56.33 57.18 58.80 62.20 67.72 68.71 69.38 69.16 68.97 68.80 68.96 69.64 70.38 72.78 74.26 75.00 75.16 75.26 75.13 75.39 75.24 74.13 73.51 74.11 73.26 73.14
46.16 40.31 39.01 39.51 42.84 46.38 47.10 49.02 48.83 46.12 43.44 42.51 44.08 44.29 50.68 52.42 54.11 55.54 56.14 57.34 58.88 61.69 65.91 68.03 68.92 69.24 69.65 69.24 69.07 69.47 70.26 72.06 74.37 74.85 75.23 75.18 75.49 75.66 75.87 76.15 75.32 74.16 74.86 74.17
40.37 35.70 42.85 46.35 48.75 49.59 49.56 49.11 49.13 46.57 46.19 44.68 44.99 47.90 50.47 50.61 54.75 57.29 57.49 58.54 60.71 61.04 64.88 66.23 68.19 69.24 69.85 69.61 69.34 69.72 70.57 71.46 72.72 74.60 74.91 75.09 75.72 76.26 76.32 76.36 76.60 76.25 74.86 75.38
39.47 36.19 41.42 44.09 49.54 49.70 49.34 50.59 50.20 49.30 48.78 47.95 48.63 47.04 53.92 56.19 57.54 57.60 57.76 59.49 61.06 61.73 63.70 65.25 66.24 69.03 69.65 70.28 69.91 70.33 70.45 71.23 72.16 72.16 74.63 75.70 75.89 76.17 76.36 76.48 76.45 76.63 76.52 75.34
35.61 37.61 36.97 38.25 46.81 47.53 44.31 49.60 49.72 49.93 50.90 49.72 46.39 48.97 54.71 54.68 57.53 56.98 57.57 58.11 58.00 61.01 61.28 61.40 62.66 66.72 69.93 70.75 71.60 71.06 71.31 72.05 72.19 72.37 72.84 74.71 75.65 75.73 75.99 76.53 76.48 76.35 76.46 76.72
35.80 36.12 37.57 38.35 42.83 36.61 47.30 53.54 54.30 50.94 51.85 51.92 51.06 55.39 55.88 56.41 57.21 57.81 57.79 57.57 58.56 59.44 60.73 59.97 60.26 62.89 64.57 69.95 72.60 72.45 72.82 72.79 72.08 72.23 72.99 73.54 74.82 75.42 75.78 75.96 76.04 76.28 76.56 76.48
41.12 38.60 35.10 35.71 39.45 44.36 49.56 51.28 51.30 48.52 49.61 54.68 55.29 56.21 57.06 58.50 60.68 60.19 61.90 62.02 62.24 63.28 64.15 64.74 65.14 65.32 65.83 65.16 65.80 73.00 72.46 73.01 73.18 72.70 73.42 74.02 75.15 75.09 75.48 75.23 75.69 76.35 76.22 76.18
41.75 42.35 37.27 38.47 37.17 37.97 45.75 50.06 52.65 54.34 45.86 53.36 57.00 58.07 57.28 59.09 54.56 56.26 61.80 64.06 63.96 64.66 65.08 65.71 66.22 66.41 65.90 66.73 67.30 69.19 72.64 72.70 72.50 73.12 74.04 74.97 75.51 75.51 75.05 75.72 75.81 76.76 76.60 76.23
36.64 37.96 36.06 37.46 37.13 42.45 45.93 49.00 55.28 45.72 46.39 51.96 52.89 54.01 54.77 53.08 54.96 56.47 60.42 61.21 63.63 64.58 64.37 65.33 66.80 68.00 67.49 68.02 67.21 65.91 67.23 69.70 72.67 73.82 73.63 74.61 75.64 75.75 76.07 75.98 76.48 76.49 76.60 76.55
36.94 35.81 35.53 37.11 37.44 36.01 48.60 48.94 44.06 50.58 51.23 51.81 51.33 52.15 51.81 52.16 53.62 55.33 56.24 59.35 60.89 61.89 63.86 64.30 64.19 65.63 67.21 69.12 67.07 65.90 66.42 68.15 72.04 73.64 73.53 73.66 74.13 75.08 76.15 75.76 76.13 76.39 76.44 76.09
34.96 36.91 33.43 37.46 38.97 46.62 48.74 48.33 50.46 51.34 50.57 49.86 50.11 50.83 51.89 51.85 51.86 55.03 55.79 56.61 58.02 59.17 61.83 63.74 64.42 64.28 68.29 70.80 69.47 68.45 69.45 73.43 73.72 74.15 73.52 74.14 74.54 75.26 73.75 75.54 75.82 75.78 76.13 75.96
39.97 42.75 37.08 38.28 42.60 44.31 46.88 49.58 50.06 50.12 49.23 50.32 50.61 50.51 50.94 50.34 51.73 53.14 54.82 54.74 54.57 56.53 59.74 62.82 62.92 63.17 67.83 71.40 75.82 73.43 72.75 72.74 73.50 72.21 74.09 74.76 74.62 74.68 73.94 75.83 76.18 76.25 76.24 75.85
38.69 40.96 36.90 38.02 41.81 43.03 45.34 46.42 48.54 48.61 49.57 50.91 50.73 50.76 50.32 50.56 50.80 52.37 52.87 53.78 54.12 54.03 55.03 59.98 60.33 62.99 67.00 68.96 73.35 74.74 75.38 75.75 74.24 72.25 75.15 75.37 75.13 74.31 73.33 58.07 57.11 72.02 63.37 66.21
40.56 37.30 34.57 33.48 39.37 38.93 40.45 44.85 47.22 46.12 46.69 49.03 49.85 50.58 51.83 51.61 50.94 52.58 51.82 52.43 53.03 53.12 54.20 54.98 60.07 61.95 64.62 68.48 70.26 73.09 73.60 74.60 74.67 73.31 74.26 74.31 74.13 74.78 70.36 62.30 58.56 47.69 46.54 44.99

GFSCGP_sfc_wetblb_054.txt.gz
Wetbulb
48.67 44.20 41.40 44.29 46.01 46.39 48.41 47.88 48.39 52.90 56.64 58.86 58.45 57.77 60.27 63.73 64.03 64.28 64.71 65.44 65.56 65.85 67.81 68.75 69.43 69.94 69.76 68.94 69.98 69.59 69.63 70.69 70.95 70.41 69.87 68.68 68.24 69.31 69.82 69.32 71.66 72.49 72.96 73.83
45.57 43.71 47.15 49.32 48.77 47.62 47.86 47.45 48.58 53.05 56.02 55.04 57.75 57.10 60.34 61.87 62.39 63.97 63.50 63.38 65.23 66.22 67.13 67.88 68.54 69.49 69.43 68.57 69.90 69.74 69.90 70.00 70.81 70.93 70.93 69.83 69.20 69.44 70.07 68.98 72.28 73.14 73.36 74.08
45.79 48.66 51.49 50.41 48.85 47.66 47.54 46.21 48.40 49.47 53.31 53.54 57.67 55.33 57.16 60.24 60.58 62.34 64.31 65.01 65.38 64.79 66.34 67.38 68.05 69.05 69.71 68.54 69.09 69.18 70.27 70.24 70.83 71.22 70.45 70.18 70.69 69.16 68.89 68.20 68.23 73.13 73.88 74.18
47.90 52.11 51.32 50.22 49.39 49.86 44.64 50.89 51.12 51.24 48.77 44.67 53.35 47.64 54.23 57.42 57.85 60.58 62.07 63.94 64.48 65.13 64.54 67.90 68.44 68.81 69.61 69.00 69.69 69.70 70.90 70.78 71.05 71.64 70.33 70.06 70.13 69.41 68.44 67.57 67.95 71.79 73.59 73.24
45.10 50.18 50.11 49.53 50.57 52.21 48.20 51.78 50.85 51.09 47.17 43.59 48.66 47.17 52.02 57.02 55.48 57.69 60.92 63.44 64.07 64.76 65.33 65.58 68.51 69.24 69.94 69.76 69.21 70.18 71.26 71.09 71.27 71.97 71.03 70.24 69.42 69.49 68.11 67.71 67.74 68.48 71.95 72.69
47.02 51.19 53.35 52.42 54.07 53.91 53.16 50.20 49.43 49.29 44.31 40.16 47.03 44.67 47.36 53.20 55.97 57.70 60.55 62.55 63.78 61.93 64.32 65.48 68.43 69.38 69.23 69.92 69.77 69.98 70.68 70.96 71.29 71.91 71.34 70.59 69.39 67.83 67.38 66.76 66.97 67.20 69.91 71.33
46.78 47.41 49.94 55.11 51.18 52.88 51.87 44.53 39.96 36.13 37.96 37.98 46.04 42.97 45.69 56.44 58.99 59.79 59.98 62.03 63.69 63.20 63.38 65.04 66.81 67.30 68.20 68.93 69.63 69.22 70.45 70.66 71.22 71.54 71.30 70.89 70.30 68.86 68.21 67.17 66.41 67.56 69.83 70.83
39.84 38.94 47.34 50.49 51.32 49.44 48.31 47.35 37.54 32.73 33.63 39.71 42.23 39.56 45.04 57.68 60.71 61.95 62.22 62.83 63.93 63.36 64.53 65.42 67.07 67.67 68.15 68.95 69.65 69.61 69.30 70.37 71.51 71.47 71.05 71.13 69.75 70.55 69.41 67.98 67.78 67.27 70.05 72.21
32.83 40.67 50.10 51.77 52.12 52.84 48.39 45.12 45.91 37.06 36.09 35.62 39.19 42.84 48.02 51.36 57.81 61.34 61.76 62.42 62.58 63.02 64.21 65.83 67.43 67.99 68.13 68.96 69.49 69.99 69.44 69.74 71.56 71.62 71.64 71.48 71.45 70.69 70.36 69.44 68.77 68.83 69.91 73.01
37.82 33.28 46.51 50.09 52.72 52.75 50.66 48.19 40.51 36.33 34.31 30.83 37.11 39.05 43.17 46.57 48.29 56.19 59.85 61.42 62.56 63.54 64.88 66.74 67.38 68.07 68.50 69.23 70.00 70.59 70.67 69.88 70.95 72.18 71.66 71.19 71.42 72.86 71.78 69.88 68.89 70.64 70.00 71.38
38.67 35.18 40.92 45.09 46.90 47.90 44.77 46.35 43.84 42.57 37.27 36.41 33.07 39.24 46.23 46.87 48.53 49.35 55.73 62.04 63.17 64.46 65.53 67.43 67.54 68.29 68.62 68.83 69.89 70.44 70.83 70.59 70.76 71.51 72.49 72.08 71.44 70.86 72.80 72.21 69.93 70.14 69.96 71.63
40.40 38.07 33.75 40.85 47.84 49.10 51.97 43.47 44.37 41.17 35.50 36.05 37.18 42.03 50.74 50.50 50.87 51.93 52.37 61.26 63.83 66.05 67.13 67.95 67.59 68.03 68.05 68.11 69.03 69.90 70.97 71.08 71.18 71.74 72.13 72.50 72.65 72.21 70.47 71.80 72.80 71.35 70.35 70.73
39.97 37.66 30.40 37.06 39.81 44.89 43.29 49.17 43.06 40.59 39.03 37.06 38.99 41.60 49.26 49.58 51.20 52.94 53.41 56.57 64.79 66.37 67.30 67.62 67.45 67.29 67.46 67.74 68.26 69.52 70.55 71.40 71.87 72.14 71.93 71.96 72.79 72.99 72.49 71.31 71.75 73.24 71.85 70.70
41.75 35.81 33.51 29.71 35.82 41.20 41.07 45.37 45.60 45.05 40.57 40.01 41.20 42.77 46.84 49.51 50.90 52.03 52.94 56.15 62.63 65.91 66.70 67.27 67.22 67.28 67.56 67.71 67.95 68.77 69.64 71.79 72.06 72.56 72.65 71.94 72.56 73.46 73.91 73.63 72.38 71.93 73.04 71.88
37.82 31.85 32.94 35.17 38.61 41.23 42.78 46.62 46.62 43.03 43.58 42.20 43.43 44.14 46.49 48.19 52.04 52.06 53.68 55.78 60.84 65.01 66.20 67.08 67.05 67.37 67.71 67.57 67.85 68.70 69.47 70.98 72.41 72.55 72.72 72.86 73.10 73.68 74.38 74.48 73.88 73.18 72.09 72.79
37.82 31.16 32.89 32.17 42.84 44.83 44.83 48.56 48.13 46.96 45.73 44.65 43.89 44.82 48.86 50.89 54.54 54.63 55.57 56.94 61.20 64.54 66.11 67.30 67.80 67.94 67.84 67.89 67.71 68.33 68.74 70.32 72.03 72.19 72.71 73.17 74.00 74.05 74.21 74.53 74.75 74.28 73.54 72.55
34.47 30.85 29.26 29.21 41.79 45.43 41.57 46.13 47.90 47.24 47.44 47.04 43.09 45.94 50.72 52.89 53.76 53.46 55.11 57.54 57.47 61.20 65.97 66.93 67.87 68.22 68.46 68.47 68.52 67.88 68.69 69.62 71.59 72.09 72.71 73.60 73.73 74.41 74.31 74.85 74.83 75.05 74.89 74.43
35.22 31.13 29.60 30.51 37.29 34.64 43.52 47.15 47.70 48.55 49.21 49.65 51.46 51.41 53.28 56.22 59.09 60.15 60.02 60.25 60.89 61.85 62.03 61.66 63.48 66.78 68.74 69.57 69.17 68.89 69.19 69.51 69.65 71.51 72.69 73.46 74.01 74.02 74.75 74.80 74.68 74.98 75.45 75.38
38.59 34.32 28.31 32.73 34.76 41.56 42.58 44.85 44.08 43.71 45.46 48.92 49.45 54.53 58.64 59.77 60.06 58.53 60.92 61.88 61.75 62.55 63.17 63.28 63.99 64.26 65.10 66.44 68.91 69.11 68.84 69.24 69.46 69.60 70.03 72.88 74.02 74.38 74.57 74.48 74.76 75.29 75.32 75.35
38.55 38.52 31.75 32.90 34.72 34.02 41.63 46.38 50.32 51.20 39.65 48.54 49.41 50.25 55.70 57.18 51.12 52.28 57.45 61.43 61.24 62.18 63.56 65.51 66.71 67.42 66.29 64.51 67.21 69.58 69.63 69.53 69.21 69.92 70.90 71.50 72.62 74.08 74.48 74.59 74.70 75.67 75.63 75.50
33.25 33.68 33.57 34.33 36.58 41.23 41.81 46.57 52.19 40.23 41.76 48.01 48.71 48.78 49.50 49.26 50.65 52.44 56.44 56.99 60.34 61.39 62.36 64.26 65.91 66.49 65.85 67.05 64.33 65.54 68.73 69.29 70.77 71.11 70.99 72.33 72.66 72.79 74.30 74.75 75.09 74.76 75.17 75.38
33.66 33.34 31.64 33.85 35.40 33.45 43.81 45.28 38.84 42.37 47.55 48.40 47.95 47.63 48.00 48.55 52.61 52.90 53.29 53.73 55.02 59.68 60.31 61.85 62.87 66.52 68.73 73.23 68.61 66.45 65.21 65.42 69.31 71.92 71.51 72.44 73.44 73.62 74.29 74.00 74.66 74.86 74.65 74.73
31.61 35.99 33.99 34.92 36.72 43.60 46.15 45.53 47.91 47.01 45.42 46.12 46.68 47.81 47.98 48.34 50.26 52.07 51.70 52.04 52.71 53.26 55.75 59.81 60.22 63.79 67.21 68.58 73.50 72.72 71.19 72.30 71.26 71.24 70.88 71.68 72.72 73.78 74.31 74.10 73.89 74.23 74.55 74.53
38.30 40.38 34.54 33.28 39.81 40.05 43.02 46.74 46.69 45.12 45.59 45.82 46.68 47.88 48.58 46.88 49.89 50.20 50.74 51.01 51.58 52.46 52.77 55.23 59.03 59.99 61.37 65.53 69.40 72.21 73.08 73.63 73.04 70.81 69.36 71.43 71.77 72.02 71.82 74.68 74.70 74.43 74.68 74.48
37.24 37.90 35.73 33.39 36.81 40.40 43.16 44.46 44.26 44.52 46.04 45.62 46.31 46.98 48.93 48.59 49.47 49.46 49.42 50.08 51.23 52.22 52.55 53.37 54.99 58.48 59.26 61.70 66.01 68.63 71.93 72.05 71.30 71.87 72.02 71.19 72.33 70.76 70.65 63.57 64.21 72.09 69.08 69.68
38.93 36.34 34.06 33.66 38.98 39.27 40.11 43.31 45.04 43.93 44.25 45.42 44.97 45.15 47.89 48.74 49.23 49.36 49.16 50.03 50.62 51.08 51.02 50.81 53.01 58.56 59.29 60.24 61.58 66.28 70.69 70.51 69.71 70.21 72.16 72.46 72.84 71.53 65.65 60.95 56.86 47.73 47.46 45.18

GFSCGP_sfc_wetblb_057.txt.gz
Wetbulb
45.47 39.93 39.58 42.51 44.34 44.36 44.83 45.45 46.71 50.24 56.64 57.09 56.42 57.06 61.48 63.20 63.34 62.82 63.05 63.59 63.73 65.08 67.24 68.40 68.58 69.34 69.17 69.50 68.72 67.86 68.12 68.88 70.09 69.29 68.46 67.71 67.79 68.61 69.43 69.00 71.22 70.96 72.05 73.31
42.35 40.11 44.56 45.28 45.32 44.36 44.03 42.32 43.85 49.23 54.24 56.77 56.21 55.90 61.21 63.04 62.86 63.50 63.26 63.73 64.46 64.84 65.94 67.18 67.96 68.45 68.29 67.97 69.17 67.99 68.10 68.98 70.07 70.57 70.32 68.34 67.87 68.37 69.12 68.82 69.71 71.37 71.90 72.82
42.85 44.97 47.92 46.24 44.10 43.80 43.26 42.62 43.52 46.11 51.40 55.37 54.16 53.89 57.63 61.76 63.91 64.37 64.82 65.25 65.58 65.02 65.11 66.12 67.00 67.89 68.39 67.24 68.31 68.56 68.26 68.72 70.07 70.66 69.04 69.27 68.98 68.27 68.15 67.59 67.57 71.30 72.22 73.13
45.10 49.81 48.05 45.65 44.41 45.50 39.90 47.48 47.63 47.60 46.34 43.63 55.16 45.30 53.80 57.88 59.98 60.59 63.46 64.58 65.37 65.71 66.25 66.63 66.96 67.26 68.04 67.95 69.34 69.26 68.80 68.88 70.02 69.67 69.52 68.81 68.00 67.13 67.27 67.34 67.22 70.60 72.52 72.79
44.14 46.51 46.35 45.03 45.91 48.25 45.03 49.20 47.87 47.64 44.00 43.39 48.93 47.96 50.31 56.65 56.17 58.55 60.34 63.63 64.81 66.22 67.05 66.81 67.03 67.71 68.69 69.17 68.83 69.45 69.09 69.06 69.45 69.84 69.57 68.83 67.12 66.89 67.36 66.79 66.91 67.50 71.39 72.31
43.67 48.82 48.98 48.64 50.53 50.71 51.33 47.54 45.85 44.38 42.04 38.17 44.60 46.00 42.49 52.51 55.53 58.04 60.81 61.98 63.76 65.24 66.47 67.18 68.46 68.55 68.34 69.51 68.72 69.10 68.83 69.11 69.51 69.96 69.73 68.81 68.26 67.03 66.74 66.74 66.33 66.12 68.53 71.51
41.51 44.78 48.02 50.42 47.49 50.45 49.75 42.30 34.89 33.96 34.62 37.69 43.41 43.11 46.87 55.36 58.65 59.34 60.06 61.54 62.76 64.97 65.61 65.66 67.15 67.68 68.23 68.68 68.29 68.77 68.68 68.78 69.67 69.87 69.99 69.48 68.78 67.77 67.70 66.78 67.82 65.91 66.67 68.85
32.01 36.08 45.01 48.39 47.60 46.20 46.35 42.85 35.30 29.93 31.60 36.26 43.16 38.44 44.10 54.59 60.41 61.46 62.18 63.00 63.47 64.31 64.95 64.24 65.90 67.89 68.51 68.84 68.65 68.55 68.45 68.90 69.58 69.88 70.09 70.14 69.55 68.87 68.90 68.41 66.58 66.87 67.31 69.40
32.90 34.19 43.21 45.77 49.46 50.33 46.65 43.68 46.24 37.04 32.79 35.76 41.45 41.17 47.23 51.88 56.55 59.49 60.58 61.70 62.12 63.49 64.53 62.65 65.37 67.21 68.68 68.88 68.54 68.09 68.66 69.29 69.82 70.11 70.52 70.31 70.19 69.65 68.97 68.18 68.38 67.39 67.71 69.97
36.75 31.18 39.51 43.57 48.01 49.04 49.43 47.98 40.40 37.29 31.73 29.94 34.78 37.58 42.83 46.70 51.42 56.05 58.45 60.34 61.65 63.19 64.40 64.27 64.30 66.60 67.78 68.76 68.89 68.87 68.88 69.22 69.93 70.21 70.64 70.59 70.38 70.29 70.00 68.82 67.31 67.39 67.38 69.13
37.41 35.75 36.00 41.36 41.86 43.65 44.44 45.01 42.55 43.23 38.01 37.44 30.73 37.59 44.14 47.09 50.50 54.41 57.87 60.43 61.80 62.63 63.81 63.92 65.18 66.92 67.57 68.49 68.88 68.94 68.49 68.91 69.56 70.32 70.45 70.37 70.38 70.38 70.15 69.21 69.13 69.31 68.91 68.53
39.85 36.99 33.71 35.77 44.57 45.25 43.05 44.81 41.60 42.65 36.39 34.19 36.03 41.69 47.70 47.92 49.17 51.57 57.58 60.39 62.35 63.34 64.14 64.46 65.24 66.56 67.61 67.64 68.45 68.83 69.15 68.65 69.32 70.72 70.57 70.56 70.52 70.98 71.22 70.72 69.29 68.92 69.57 69.91
39.18 36.21 28.87 34.18 37.40 41.77 40.21 46.54 47.67 43.90 38.08 36.13 39.76 41.25 47.28 46.80 48.48 48.79 49.92 53.86 61.12 63.08 63.78 64.21 64.93 66.24 67.06 67.36 68.14 68.77 69.36 69.30 69.61 69.77 70.63 70.61 70.20 69.94 69.90 71.51 72.59 70.41 69.41 69.04
41.63 35.84 31.10 28.57 32.27 35.91 34.33 37.53 40.95 43.26 41.95 37.91 41.22 40.97 45.66 47.46 47.66 48.51 50.16 51.88 56.21 62.65 63.44 64.04 65.14 66.48 67.25 67.53 67.61 68.52 69.24 70.18 70.12 69.99 70.07 70.41 70.85 70.98 70.63 69.88 70.29 72.28 72.46 70.54
38.02 32.13 32.94 33.17 34.91 35.77 35.56 36.41 38.46 38.15 42.06 41.89 43.54 40.70 44.88 46.27 47.55 49.10 53.07 52.87 53.65 60.67 62.99 64.57 65.74 66.49 66.74 67.07 67.25 68.18 69.30 70.07 70.57 70.06 69.88 70.01 71.19 71.86 71.89 71.74 70.93 70.31 71.15 72.45
37.90 31.92 33.97 30.34 34.90 35.60 34.48 39.00 41.17 42.45 44.30 42.33 41.70 42.80 46.14 46.64 51.32 53.93 52.79 52.45 55.38 61.30 63.76 65.46 66.45 66.59 66.53 66.91 66.98 67.46 68.59 69.52 70.59 70.28 70.16 70.74 70.79 71.45 71.96 72.30 72.28 71.61 70.63 70.71
34.77 34.07 29.68 25.23 36.68 40.02 38.14 41.29 42.60 45.46 44.80 44.49 40.90 44.24 48.23 53.41 56.33 56.61 56.64 54.67 57.12 62.48 64.39 65.74 66.47 66.61 66.93 67.25 67.53 67.02 68.13 69.40 70.37 70.36 70.78 71.04 71.37 71.00 71.61 72.54 72.99 72.66 71.95 71.54
34.17 33.83 31.44 25.26 32.89 34.70 40.62 44.95 45.64 44.13 43.91 44.90 45.80 48.41 54.72 56.41 56.76 56.89 58.88 58.80 59.69 60.54 64.34 66.05 67.12 67.29 67.55 68.02 68.03 67.97 68.20 68.52 69.69 70.33 70.78 71.46 71.77 72.03 72.11 72.30 72.73 73.11 73.50 72.74
37.87 35.56 27.95 26.80 32.93 40.03 42.00 41.98 40.81 40.03 40.57 45.13 46.03 51.56 56.85 58.44 58.53 55.50 56.80 59.95 60.67 62.47 63.56 61.69 65.03 66.28 66.59 67.45 67.73 67.34 67.20 67.74 68.93 69.67 70.47 71.45 72.07 71.94 72.82 72.72 72.73 73.56 73.55 73.96
37.17 37.06 33.60 31.80 33.69 34.05 39.24 42.91 46.30 46.90 36.36 45.12 45.12 46.98 50.26 54.67 49.44 50.21 53.61 58.17 59.18 62.20 64.76 66.95 66.33 65.16 64.38 64.45 67.69 67.14 66.77 66.97 67.00 69.60 70.78 71.69 72.51 72.70 72.51 73.27 73.57 73.90 74.22 74.12
33.66 33.70 32.23 32.47 34.02 38.51 42.72 43.45 47.50 36.01 36.36 43.44 44.35 44.12 47.24 46.79 47.71 49.61 52.05 52.02 55.81 58.73 60.84 67.25 68.90 70.52 69.59 64.63 67.84 66.78 66.91 66.72 67.77 68.06 68.58 70.29 72.62 72.94 73.51 73.70 74.05 74.32 74.27 74.50
33.32 31.84 33.26 35.59 34.55 33.63 43.86 44.54 38.29 39.64 42.32 42.99 43.05 43.40 44.51 47.60 49.82 50.02 50.56 50.61 51.86 53.29 57.55 60.81 63.30 65.72 69.23 71.70 67.54 66.80 67.00 66.84 69.48 68.94 68.99 69.51 69.82 71.81 73.57 73.52 73.80 73.90 73.89 73.87
32.45 34.73 34.01 32.41 36.21 42.74 44.19 45.52 45.17 44.32 42.22 42.44 42.62 43.94 44.36 45.70 48.21 48.89 48.42 49.40 50.57 51.46 53.29 57.82 58.57 59.74 63.00 68.00 71.01 70.54 70.49 71.03 70.13 69.74 69.58 69.93 70.68 71.17 71.62 72.05 72.80 73.16 73.32 73.13
37.07 39.54 35.03 34.56 39.68 38.50 41.26 44.53 45.02 45.60 44.88 45.14 45.44 45.02 44.96 44.94 47.92 47.75 48.42 48.69 49.26 49.86 50.82 52.92 58.04 57.81 59.10 61.56 66.33 69.89 70.74 70.25 69.79 69.57 70.28 69.55 70.39 70.73 71.93 72.58 72.84 72.59 73.00 72.75
36.70 37.61 35.41 35.80 38.29 40.87 43.51 44.55 45.55 45.55 46.91 46.96 47.12 47.01 46.24 45.36 46.72 47.32 47.78 48.36 48.83 48.97 49.38 51.52 52.76 57.39 57.15 58.98 60.64 64.97 69.54 69.70 68.69 68.33 69.09 69.42 70.49 69.43 70.20 69.28 67.13 72.23 73.32 70.43
39.31 37.80 34.86 35.21 40.96 40.03 40.74 43.89 46.18 45.67 45.43 46.42 46.42 46.37 47.17 46.95 47.85 47.65 47.32 48.28 48.77 48.47 49.75 51.92 53.01 56.35 57.28 57.78 58.99 61.27 65.84 67.95 67.79 67.36 67.72 67.92 69.30 70.47 69.60 65.86 60.01 48.23 47.50 46.78

GFSCGP_sfc_wetblb_060.txt.gz
Wetbulb
44.20 39.32 38.84 41.36 42.92 43.02 43.73 43.21 44.43 48.17 54.13 55.97 55.18 55.63 60.76 61.86 60.76 59.78 60.43 60.98 61.80 63.33 66.17 67.84 68.49 69.48 69.65 69.49 68.25 68.12 67.61 67.63 69.38 69.03 68.26 68.79 69.07 70.09 70.38 70.41 72.35 72.45 73.14 73.85
40.19 38.19 43.43 44.22 43.15 43.03 42.99 40.80 41.39 46.75 52.29 55.06 54.05 54.93 60.68 61.67 61.43 61.25 60.59 60.77 61.99 63.38 65.15 66.68 67.72 68.65 68.70 68.55 67.85 67.74 67.54 67.58 69.58 70.07 69.99 69.55 69.16 69.68 70.91 70.59 71.67 72.32 72.86 73.97
38.97 41.84 46.03 43.90 41.64 40.74 40.05 41.66 41.16 43.66 49.38 56.72 53.77 51.99 57.45 61.80 62.82 63.16 63.46 63.16 63.01 63.49 64.49 66.02 66.71 67.66 68.65 68.03 68.34 67.23 67.69 67.84 69.51 69.83 69.56 69.29 69.08 69.30 69.37 69.53 69.84 71.59 72.50 73.34
42.99 47.53 45.35 42.92 41.17 42.16 34.54 44.25 45.69 44.60 43.60 43.39 53.25 41.74 51.87 58.30 60.32 61.71 62.74 63.21 63.63 64.14 65.30 66.26 66.82 66.97 67.74 68.07 69.25 68.90 67.98 68.03 69.25 70.00 69.53 69.27 68.31 67.39 67.86 68.74 69.50 71.18 72.57 73.09
42.35 44.42 45.13 41.66 42.93 44.56 40.93 45.62 44.44 44.68 42.33 42.17 46.45 45.95 48.31 56.72 57.33 59.90 62.11 63.37 64.49 65.35 65.68 65.68 66.44 67.41 68.05 68.57 68.34 69.26 68.63 68.25 68.95 69.60 69.92 69.38 68.86 67.78 67.97 68.41 69.22 69.65 72.29 72.97
41.69 46.03 45.63 46.97 47.98 46.68 47.35 44.79 42.88 41.41 39.93 35.98 42.58 46.11 41.90 51.09 55.79 58.77 62.38 63.56 64.86 65.58 66.18 66.52 67.24 68.12 68.13 69.06 68.45 68.89 68.18 67.95 68.59 69.41 69.49 69.21 68.90 67.35 67.58 67.53 67.77 68.03 69.69 72.16
40.07 42.88 44.68 47.10 43.11 46.83 45.95 41.10 32.70 31.50 32.39 35.82 42.46 42.88 45.14 50.41 57.47 59.22 60.24 62.58 64.13 66.10 66.68 66.66 66.33 66.87 67.54 67.92 68.16 68.68 68.37 67.55 68.29 68.92 69.11 69.04 68.89 68.11 67.96 68.01 67.59 67.14 67.84 69.69
31.30 33.66 41.44 43.76 43.61 42.72 43.56 40.27 33.36 27.88 29.15 36.02 39.50 37.74 43.78 52.37 56.86 59.91 61.48 62.63 63.59 64.69 66.39 66.82 67.30 67.52 67.49 68.05 68.40 68.31 68.15 67.91 68.47 68.66 69.00 69.47 69.44 68.79 69.19 68.81 68.65 68.23 67.95 69.18
31.89 33.27 41.94 44.09 45.37 43.67 42.50 40.82 43.95 35.19 32.34 32.78 40.44 41.19 47.42 50.11 52.75 56.35 58.91 60.17 61.65 63.27 65.08 65.92 67.33 68.14 68.19 68.07 68.27 67.92 68.17 68.35 68.61 69.05 69.34 69.57 69.64 69.42 69.15 69.12 69.09 69.20 69.06 69.52
34.84 28.01 37.94 41.78 44.89 45.86 41.81 45.54 39.44 35.75 30.98 28.29 34.70 37.07 44.11 46.43 48.76 52.76 56.24 59.08 60.95 62.72 64.04 65.15 66.63 66.81 68.56 68.94 68.93 68.65 68.57 68.22 68.90 69.46 69.78 69.85 69.93 69.89 69.90 69.29 69.00 69.13 68.71 70.21
34.20 32.92 33.08 39.55 38.65 38.95 40.90 40.87 40.84 42.54 38.51 34.45 29.74 36.34 43.84 47.50 51.23 52.16 54.61 59.72 61.07 62.33 63.41 64.52 65.15 66.49 67.92 69.31 69.41 68.88 68.43 68.33 68.83 69.43 69.83 70.03 70.10 70.30 70.34 69.30 69.26 69.04 69.02 68.91
36.24 35.29 30.58 33.26 41.48 43.64 40.98 38.38 41.01 40.50 36.37 36.95 35.35 40.04 47.79 48.45 50.32 52.97 54.64 58.46 61.32 62.66 63.73 64.71 65.11 65.03 66.51 68.28 69.02 68.98 68.42 68.43 69.17 69.73 69.91 70.08 70.62 70.51 70.20 69.96 69.86 69.71 69.16 69.41
37.26 33.71 27.12 30.33 33.71 38.31 36.42 38.36 36.82 38.93 38.86 38.78 38.86 39.47 48.35 47.65 47.87 48.85 49.84 55.07 60.01 62.22 63.26 64.05 64.83 64.44 65.00 67.12 68.40 68.70 68.38 68.61 69.59 69.93 69.96 70.00 70.15 70.04 69.96 70.12 70.20 70.30 70.30 70.28
39.91 33.09 30.74 25.86 29.15 33.65 31.96 35.31 37.12 33.56 34.63 38.80 41.62 42.71 45.08 48.95 47.14 48.74 49.50 50.52 54.08 60.89 62.63 63.56 63.65 64.33 65.26 66.69 67.57 68.16 68.58 68.81 69.18 69.64 69.85 69.71 69.88 70.27 70.54 70.86 71.09 70.08 70.08 69.90
35.19 29.78 29.85 31.88 33.79 34.75 33.87 33.79 35.19 34.10 36.04 34.06 42.45 42.18 45.18 47.11 49.26 50.40 49.54 52.93 52.98 53.76 61.38 62.93 63.39 64.01 65.34 66.44 67.30 68.08 68.78 69.05 69.10 68.80 69.55 69.68 70.30 70.49 70.60 70.73 71.59 72.44 71.45 70.31
36.73 25.73 33.38 30.93 34.32 34.86 33.26 35.93 36.73 37.83 38.44 38.85 41.00 42.12 47.32 49.60 52.15 55.85 56.61 57.47 55.11 53.15 55.55 62.58 63.65 64.22 65.12 66.46 66.98 68.11 68.50 69.01 69.38 68.63 68.70 70.12 70.57 70.76 70.59 70.49 70.28 70.46 71.56 72.51
33.22 30.97 31.04 24.98 32.43 32.60 30.57 35.40 39.72 42.07 42.28 42.33 39.23 43.78 47.55 53.23 54.40 53.61 54.88 57.51 58.52 58.72 55.31 58.82 63.34 64.54 65.90 66.90 67.33 67.57 68.59 69.58 69.51 69.15 69.43 69.71 70.27 70.78 71.15 71.60 71.54 70.82 70.14 70.59
32.38 31.29 33.14 24.97 30.98 27.31 38.37 44.96 44.86 41.78 41.14 41.49 42.44 48.05 52.53 54.47 54.86 53.77 53.16 54.73 58.05 60.79 60.49 62.30 64.42 65.77 66.77 67.78 67.87 68.11 69.07 69.23 69.36 69.34 69.59 70.08 70.21 70.36 71.16 71.63 71.68 71.94 72.07 71.10
36.88 34.65 29.98 24.67 28.80 36.46 41.46 41.54 40.58 38.52 39.15 41.94 40.85 43.05 48.89 54.78 56.95 54.99 52.19 52.35 55.64 60.92 64.50 63.29 66.07 66.54 67.03 67.35 67.83 67.44 67.78 68.66 69.34 69.44 69.78 70.37 70.88 70.68 70.95 70.96 71.71 72.45 72.75 72.62
36.71 36.03 31.65 31.91 27.96 33.80 38.16 41.54 45.17 44.83 34.87 42.62 41.83 41.28 43.35 53.75 46.21 47.01 51.42 53.17 54.08 60.16 66.76 65.10 64.58 65.23 65.46 66.19 67.47 66.50 66.74 67.52 68.66 69.56 70.39 71.43 71.77 71.88 71.52 71.76 71.82 72.88 73.28 73.45
30.94 32.25 27.92 29.47 32.10 38.00 39.85 43.12 46.69 37.23 35.81 42.44 42.11 41.75 42.34 44.99 46.96 50.25 51.76 52.13 54.08 57.04 59.16 67.13 69.26 68.63 65.35 66.60 66.99 65.80 66.30 66.57 68.68 70.09 71.10 71.50 72.19 72.21 72.73 73.15 73.49 73.31 73.47 73.66
32.21 30.24 32.06 32.78 32.96 33.69 41.90 43.76 38.05 40.65 43.34 42.64 42.48 43.09 42.38 45.31 48.98 49.98 50.40 51.05 52.53 53.26 56.49 60.00 64.26 67.01 69.62 67.25 66.39 65.54 66.17 67.52 68.15 69.59 70.54 71.21 71.84 72.81 73.07 72.99 73.46 73.95 73.86 73.65
32.04 34.18 32.45 32.96 33.64 39.99 42.24 42.58 42.77 43.71 43.10 43.46 42.85 44.58 44.22 44.54 46.22 48.42 48.82 49.68 52.51 53.78 55.31 58.31 59.25 62.56 64.89 70.26 70.96 69.96 70.16 69.58 69.45 68.35 68.88 69.69 71.76 72.66 73.18 73.24 73.20 73.18 74.01 73.48
36.71 38.87 33.69 35.13 38.72 41.08 42.75 45.05 46.28 45.54 45.70 46.17 45.82 45.59 46.76 45.23 45.82 46.74 48.39 48.84 50.10 52.02 53.45 56.54 57.66 58.10 58.66 61.39 65.76 68.85 69.97 70.55 71.30 71.05 71.03 71.26 70.39 70.03 71.53 73.26 73.66 73.62 73.44 73.21
37.43 38.24 34.80 36.18 40.27 42.44 43.62 44.66 45.37 46.23 47.02 46.86 47.15 47.50 47.46 46.92 47.12 46.71 47.64 48.48 49.17 50.90 52.27 53.88 54.80 54.77 56.03 58.25 59.58 61.71 65.49 69.38 69.11 69.51 70.29 71.81 72.25 71.08 72.22 72.25 70.90 72.96 74.15 70.57
41.09 38.89 36.01 36.07 41.37 41.55 41.94 44.84 46.03 45.73 45.63 46.93 46.94 47.55 48.34 48.12 46.84 49.11 47.78 49.00 49.56 49.95 51.78 52.76 53.66 54.34 54.87 55.86 56.30 58.69 61.00 64.61 67.53 68.34 69.03 69.35 71.47 72.30 71.70 70.16 66.29 49.14 49.50 47.51

GFSCGP_sfc_wetblb_063.txt.gz
Wetbulb
49.91 45.19 43.49 45.80 47.91 48.06 48.04 48.04 46.95 52.05 55.10 57.52 58.09 59.05 62.37 63.85 64.37 63.77 64.26 64.69 65.04 65.76 68.42 69.82 70.45 71.61 72.11 72.17 72.27 72.46 72.38 73.20 72.73 72.03 71.91 72.32 72.50 74.04 74.50 74.66 75.77 76.61 76.77 77.13
45.42 43.01 47.14 48.06 46.93 46.49 46.67 46.79 47.76 51.43 55.06 57.26 57.87 57.79 61.14 63.58 63.66 64.59 64.16 64.39 64.31 65.86 67.58 68.71 69.75 70.73 71.53 72.16 72.32 72.16 72.45 73.12 73.06 72.46 73.34 73.88 74.15 74.37 75.37 75.11 75.99 76.65 76.90 77.61
45.59 46.72 48.68 46.20 45.30 44.62 45.45 44.83 46.32 48.27 51.05 55.52 56.61 55.09 58.80 63.40 64.65 64.72 65.42 65.63 64.13 65.78 66.38 67.85 68.84 70.04 71.18 71.55 72.17 72.26 73.05 73.33 73.63 74.20 73.75 73.82 74.30 74.44 73.99 74.26 74.50 76.08 76.93 77.28
48.08 51.22 46.98 46.05 44.61 45.69 42.66 47.52 47.12 47.18 47.49 45.93 55.80 48.74 56.53 61.08 62.21 63.80 64.46 64.51 64.93 65.63 67.09 68.15 68.81 69.30 70.36 71.37 72.73 73.44 73.47 73.55 73.37 74.32 73.96 74.69 72.72 71.80 73.31 74.36 74.86 75.86 76.91 76.62
47.06 47.87 47.24 45.22 45.38 46.98 44.59 47.44 46.22 46.74 46.33 47.15 49.02 49.96 54.14 59.60 59.97 62.48 64.77 65.64 65.73 66.50 67.08 67.57 68.58 69.71 70.80 71.94 72.02 72.65 73.10 74.08 74.61 74.53 74.58 73.39 74.06 73.67 73.95 73.99 75.24 75.76 76.54 76.74
46.44 49.00 50.37 49.96 49.52 47.98 48.59 47.54 46.74 46.33 44.71 39.36 46.69 48.21 51.07 55.79 59.44 62.49 65.20 66.44 67.09 67.20 67.32 68.48 69.72 70.59 70.58 71.72 71.96 72.31 72.94 73.57 74.21 74.12 74.26 74.98 74.81 73.92 72.60 73.39 73.01 73.70 74.58 75.58
43.49 45.62 48.66 50.13 48.16 49.25 47.28 44.45 39.55 38.22 38.18 37.27 46.10 45.72 49.06 56.20 60.94 62.56 64.31 66.16 67.50 68.33 68.24 68.21 68.76 69.44 70.29 70.82 71.50 72.28 73.50 72.98 73.92 73.90 74.02 74.56 75.13 75.17 74.40 74.03 72.98 74.21 73.07 73.92
39.01 38.16 45.07 46.28 47.51 46.38 46.60 46.15 40.75 35.32 37.18 39.75 45.69 43.25 48.60 55.57 57.36 63.20 65.29 66.78 68.04 68.40 68.92 69.03 69.59 70.15 70.71 71.53 72.24 72.33 72.86 73.06 73.54 73.59 74.26 75.04 75.62 73.31 73.48 74.58 73.57 73.01 72.93 73.54
38.40 38.39 44.09 45.88 46.75 47.92 46.79 43.79 48.49 43.30 44.00 41.98 43.88 46.96 52.05 55.46 56.69 58.06 60.31 64.49 66.51 67.91 68.88 69.32 69.78 70.27 70.83 71.70 72.22 72.16 72.79 73.07 73.42 73.42 74.22 74.61 74.84 74.74 74.19 75.42 75.19 73.55 75.18 73.73
38.46 32.62 39.98 43.84 46.47 48.35 47.38 50.70 43.20 44.17 36.97 36.77 42.68 44.39 45.13 51.19 54.16 57.29 58.40 61.04 64.52 67.28 68.37 69.74 70.38 70.91 71.53 71.72 72.57 72.88 73.14 73.17 73.46 73.55 73.85 73.77 74.38 74.81 75.02 75.09 74.73 75.12 74.91 74.63
40.02 36.46 36.05 40.18 42.13 44.61 44.86 44.53 47.02 47.52 44.95 39.91 38.89 43.59 52.75 52.72 55.94 56.60 58.35 60.37 63.38 65.20 66.90 68.61 70.35 71.83 71.90 71.98 72.40 72.54 72.66 73.15 73.20 73.39 73.54 74.05 74.20 74.19 74.45 73.92 74.32 75.01 75.04 75.02
40.66 37.77 32.66 35.19 41.04 45.25 43.96 43.19 46.09 42.72 42.60 45.80 44.28 45.01 53.72 55.90 56.46 58.09 58.96 60.84 62.99 65.62 66.58 68.15 69.22 70.59 71.50 72.22 72.37 72.13 72.51 72.45 73.15 73.74 73.88 73.87 74.61 74.84 73.66 74.14 74.19 74.69 74.61 74.99
41.33 35.39 30.43 34.06 40.06 43.04 40.56 43.38 43.80 43.89 45.77 43.91 42.28 44.20 55.49 56.42 55.82 57.08 57.74 59.58 62.46 65.37 66.68 67.74 68.48 69.85 71.04 71.97 72.50 72.35 72.63 71.99 72.84 73.45 72.97 73.67 74.21 74.01 74.55 74.65 74.90 74.55 74.85 75.00
43.59 36.52 33.48 30.03 33.74 36.36 35.43 38.23 41.02 39.97 40.90 43.37 45.36 48.53 52.91 54.44 55.65 57.48 58.07 57.79 58.25 63.90 65.99 67.43 67.86 68.78 70.58 71.48 72.41 72.70 72.78 72.51 72.55 72.85 72.96 73.33 73.88 74.55 74.66 75.27 75.33 74.61 74.98 74.96
40.52 32.87 35.00 35.71 36.09 35.98 35.42 35.65 37.98 38.06 40.53 40.49 46.44 47.92 52.33 55.48 56.51 59.07 60.02 58.15 59.33 59.49 65.27 67.36 67.39 69.30 69.40 70.49 72.17 72.93 73.29 73.12 73.44 72.95 72.90 73.31 74.31 74.86 75.22 75.29 75.21 74.74 74.98 75.30
39.81 33.23 35.10 32.73 36.23 36.70 34.13 37.08 38.53 39.77 40.92 41.63 43.82 45.88 53.01 55.50 60.23 57.85 59.72 60.93 61.78 63.16 62.39 65.89 67.99 69.33 69.68 69.59 71.00 72.57 72.89 72.84 73.51 73.12 72.98 74.13 74.38 74.91 75.02 75.23 75.20 75.21 74.51 74.65
36.22 33.99 32.41 28.78 35.41 35.75 32.89 37.70 39.83 41.72 44.70 44.29 43.07 49.48 54.06 54.82 57.75 56.26 56.67 57.88 59.10 61.84 64.66 64.75 65.39 69.52 69.89 69.80 71.20 71.57 72.47 73.30 72.81 73.09 73.72 74.23 74.71 74.40 74.79 75.23 75.29 75.45 75.50 75.32
34.72 33.06 33.31 29.57 32.07 23.61 39.21 47.52 46.12 44.25 44.03 45.67 46.79 49.29 51.59 57.82 58.32 57.92 57.35 56.63 57.98 60.05 62.82 65.97 67.51 65.83 70.01 70.52 70.65 72.63 72.70 72.95 72.68 72.65 73.21 74.06 74.41 74.40 74.91 74.94 74.34 75.07 74.48 75.37
39.74 35.71 31.16 27.52 27.85 34.71 41.64 43.33 44.56 44.38 41.33 44.76 44.90 47.63 50.12 56.81 60.33 59.64 55.93 56.42 57.59 59.77 63.26 66.45 69.76 65.49 70.12 70.56 72.09 72.54 72.55 72.68 72.68 72.56 72.93 73.59 74.24 74.44 74.93 74.39 74.66 75.04 74.38 73.98
38.54 39.04 33.59 30.14 26.54 29.59 39.04 43.79 46.40 47.39 40.69 45.51 45.88 46.83 48.74 57.24 55.11 53.78 53.94 54.69 57.43 61.20 64.77 69.11 69.25 68.48 69.49 71.38 71.36 72.28 71.20 72.46 72.25 73.09 73.47 74.35 74.72 74.55 74.59 75.20 75.39 76.03 75.30 74.99
30.82 32.51 29.50 29.86 27.35 32.31 39.94 42.47 46.51 38.55 40.31 45.69 46.90 47.49 49.12 49.79 51.58 52.25 53.56 55.75 59.38 62.64 65.90 70.46 70.27 70.10 71.70 72.56 72.25 71.72 72.37 72.13 73.34 73.60 74.15 74.94 75.09 74.97 75.39 75.60 76.13 76.19 75.65 76.05
30.95 29.55 29.09 30.60 27.38 27.04 39.34 41.52 41.03 43.79 46.30 46.12 47.40 48.20 48.38 50.04 50.30 50.92 52.09 54.02 56.47 59.47 62.78 68.14 70.07 69.53 70.89 72.25 72.14 71.99 72.26 73.83 74.94 74.86 74.47 75.29 75.79 74.88 74.65 76.01 75.79 75.92 75.97 75.63
32.14 34.49 34.01 35.10 34.82 40.72 41.30 42.55 47.63 48.51 46.31 46.24 47.18 49.11 49.29 48.79 49.21 50.98 51.43 52.68 53.02 54.08 55.92 59.87 63.91 64.47 67.08 72.20 72.24 71.02 72.64 73.43 74.32 74.83 75.11 75.16 75.66 75.49 76.49 75.72 75.61 74.66 75.45 74.52
36.33 38.80 35.12 35.96 39.08 40.07 41.68 45.57 47.24 48.73 48.55 47.95 48.57 48.90 49.11 47.57 49.43 51.36 52.69 53.01 53.14 52.97 53.54 55.17 57.59 58.10 60.53 63.56 65.54 68.34 72.86 73.68 72.98 73.75 73.97 74.66 74.41 74.69 75.71 75.24 75.21 74.77 74.76 74.77
38.21 38.93 36.48 36.52 39.53 41.91 42.77 44.97 46.81 47.14 49.02 48.34 49.31 49.34 49.16 48.93 48.75 50.90 52.08 53.78 54.53 55.13 54.80 54.30 54.64 55.13 56.57 60.20 62.17 62.95 66.39 73.80 73.88 73.23 72.76 73.04 73.28 73.97 74.71 75.44 75.06 75.16 76.92 72.93
40.96 37.71 34.90 35.05 40.87 42.69 42.93 46.95 48.84 48.05 48.83 48.54 48.56 48.59 50.13 50.42 49.38 50.44 52.26 53.23 53.75 55.56 55.94 53.89 53.98 54.19 55.30 56.95 59.07 61.14 62.63 64.58 69.91 71.64 73.63 71.85 74.20 74.19 73.97 73.64 72.89 51.14 53.29 50.36

GFSCGP_sfc_wetblb_066.txt.gz
Wetbulb
53.01 49.49 47.51 49.68 51.28 51.33 49.96 49.95 49.18 52.93 55.63 60.20 61.04 62.34 64.82 66.91 67.37 67.66 68.20 68.47 68.33 69.12 70.85 71.53 71.76 72.08 71.98 72.43 73.01 73.53 73.46 74.64 73.97 72.99 72.20 73.01 73.48 75.08 75.66 76.29 77.57 78.30 78.69 78.53
50.32 46.97 50.96 51.95 51.28 50.42 49.84 48.86 49.66 52.33 55.64 56.51 61.08 61.53 63.94 66.41 66.48 67.69 68.07 68.37 68.58 68.89 70.31 71.09 71.68 71.99 71.92 71.82 72.77 73.58 73.81 74.50 74.42 72.92 73.21 73.90 74.93 75.50 76.29 76.85 77.74 78.67 78.64 78.78
48.84 50.03 51.55 49.68 49.21 47.87 48.80 48.34 49.00 49.79 53.78 56.51 58.40 59.20 61.70 64.53 67.13 67.51 68.51 69.54 69.62 68.89 69.07 70.46 71.10 71.46 72.29 71.98 72.36 73.37 74.51 74.89 74.91 75.48 74.00 75.39 76.04 76.28 75.82 76.13 76.75 77.82 78.49 78.46
50.28 52.69 50.30 48.89 47.55 48.87 46.74 50.07 49.36 48.95 50.10 49.05 56.43 51.79 59.41 62.49 63.98 65.84 67.27 68.42 69.22 69.47 69.76 70.77 71.11 71.32 72.17 72.78 73.40 73.93 74.81 75.23 74.93 75.30 75.56 77.06 74.19 73.33 74.17 75.39 75.51 76.32 78.39 78.24
49.78 49.85 49.89 48.87 49.50 50.47 47.94 51.01 49.63 49.14 47.94 48.58 52.14 51.52 56.59 61.94 61.24 64.63 66.47 67.78 69.07 69.70 70.06 70.06 71.21 71.84 72.63 73.38 73.57 74.35 74.96 75.46 76.60 76.21 76.35 75.00 75.35 73.79 74.33 75.07 77.25 77.91 78.55 78.37
50.28 54.48 52.47 51.86 52.68 51.48 51.87 50.15 49.45 49.21 47.79 42.93 48.23 51.12 53.36 57.48 61.24 64.42 66.89 67.82 68.63 69.86 70.24 70.98 71.66 72.63 72.62 73.46 73.61 74.08 75.17 76.56 76.76 75.99 75.51 76.67 77.00 76.39 74.58 75.47 74.74 74.91 75.61 76.82
46.59 48.29 52.38 53.42 50.84 52.99 50.76 48.18 43.62 41.63 41.54 41.04 47.96 47.16 52.15 59.27 62.02 63.90 65.94 67.50 68.99 70.07 70.41 70.67 70.95 71.33 72.24 72.65 73.17 73.59 76.19 76.47 77.04 75.54 75.55 75.24 76.19 76.62 76.35 76.12 74.80 76.60 74.33 74.66
42.44 41.50 48.15 52.41 50.92 50.08 49.77 48.57 44.89 40.36 41.20 43.22 48.21 44.27 48.43 57.52 60.75 64.23 65.87 67.89 69.32 70.20 70.75 70.81 71.42 71.73 72.00 72.73 73.29 74.16 76.20 76.22 76.09 76.07 77.20 77.76 77.65 74.80 75.41 76.29 75.28 74.93 74.43 74.80
42.38 41.58 49.13 49.68 52.47 52.22 49.96 46.56 51.02 46.82 48.51 45.79 47.38 48.74 52.18 55.26 57.75 60.49 62.88 65.57 67.26 69.53 70.65 71.10 71.66 72.24 72.53 72.73 74.26 75.40 76.48 77.17 76.81 75.54 77.65 77.82 77.65 77.16 75.69 78.63 77.73 75.54 77.28 75.54
42.74 38.32 45.39 48.29 49.89 51.50 50.84 53.03 45.94 47.19 41.26 41.18 46.02 47.70 47.33 51.75 55.39 58.23 59.99 61.83 65.74 68.66 70.30 71.44 72.20 72.49 73.16 73.47 73.79 74.47 76.08 76.90 76.84 75.75 76.17 75.97 76.91 76.91 77.65 77.31 77.63 77.83 77.35 77.05
43.03 40.07 40.97 43.59 45.34 46.60 48.47 47.51 49.35 49.57 47.39 43.27 42.75 46.69 54.40 54.32 55.43 57.46 59.28 61.54 63.59 67.07 69.45 70.93 72.32 73.20 73.60 74.04 74.01 73.87 74.63 75.09 75.36 75.95 76.83 77.49 76.46 76.29 76.73 76.14 76.73 77.28 77.59 77.40
43.54 41.17 38.12 40.43 46.04 47.70 46.43 48.50 49.55 45.69 45.00 47.16 47.19 48.43 55.79 56.56 57.02 57.40 58.66 61.45 63.18 65.14 67.19 69.80 71.35 72.93 73.33 73.53 73.77 73.88 74.17 74.33 75.01 76.54 77.59 76.91 77.18 77.37 75.89 76.25 76.62 77.30 77.06 77.79
44.26 39.01 35.42 37.73 41.62 44.65 43.17 46.76 49.30 49.72 49.87 47.29 45.17 47.12 57.12 57.52 57.52 59.43 58.85 59.60 62.61 64.90 66.41 67.90 69.87 71.13 73.06 73.40 74.72 74.08 74.20 74.27 74.97 76.07 75.44 76.08 76.15 75.96 76.88 76.61 76.92 77.24 77.30 77.36
44.15 40.60 38.06 35.64 38.25 41.28 39.18 42.41 46.24 46.79 44.49 46.42 47.67 50.59 54.76 55.80 56.67 58.66 60.33 61.33 61.68 62.84 65.03 67.67 68.87 70.24 72.32 74.01 75.68 75.64 74.34 74.70 74.96 75.20 75.25 76.61 76.90 77.24 75.98 77.78 77.77 77.19 77.36 77.36
43.61 37.41 39.80 39.93 40.23 39.64 38.81 38.94 40.41 41.49 44.81 44.19 48.21 49.89 54.51 57.16 58.10 59.75 61.31 62.69 61.79 61.77 64.41 67.06 68.84 69.89 71.70 73.44 76.13 75.80 74.72 76.32 75.86 76.50 75.83 76.91 77.88 77.94 78.32 78.29 78.01 77.62 77.83 77.39
43.88 37.26 38.97 36.82 39.60 39.36 37.60 39.56 40.64 40.78 43.20 45.10 47.21 48.07 55.09 57.78 58.88 60.35 61.63 62.09 63.16 64.11 65.04 65.79 69.20 70.60 71.11 72.65 74.12 75.95 75.79 75.99 76.88 76.97 76.51 77.76 78.17 78.43 78.27 78.47 78.33 78.23 77.85 77.63
40.37 38.68 36.27 33.48 38.42 38.04 34.74 39.84 40.89 42.06 44.18 45.74 43.89 49.85 54.58 55.63 57.63 60.21 61.99 62.36 62.61 64.03 65.55 67.47 67.99 69.65 71.47 72.38 74.05 75.29 76.21 76.68 76.57 77.13 77.15 77.82 78.18 78.07 78.32 78.42 78.66 78.29 78.29 78.00
38.03 38.69 37.69 33.75 36.14 28.03 38.92 44.97 44.70 43.42 44.24 48.12 49.15 51.57 54.15 55.67 58.68 61.95 62.94 62.35 63.23 64.41 65.61 67.09 68.50 69.96 69.84 72.39 73.04 74.31 75.24 76.71 77.03 76.99 77.02 77.65 78.02 77.98 78.38 78.44 78.26 78.69 77.78 78.02
41.73 38.41 33.92 31.36 32.29 36.43 38.63 43.50 44.10 44.39 46.25 48.47 50.84 52.79 54.72 56.74 60.34 61.22 62.02 62.08 63.05 64.89 66.50 67.89 69.45 70.32 72.01 70.68 72.82 74.58 74.28 75.39 75.44 76.33 76.94 77.52 77.83 77.87 77.85 77.56 77.81 78.21 77.60 77.62
40.93 40.79 34.33 33.93 28.69 27.09 36.31 40.39 43.24 44.34 43.08 51.33 51.84 52.94 53.83 56.15 54.02 58.88 60.62 62.42 64.36 66.36 68.24 69.20 70.93 71.94 72.72 72.35 71.79 72.91 73.62 75.74 75.58 76.07 76.85 78.17 77.95 78.09 77.57 78.04 78.11 78.35 77.36 76.77
34.91 34.84 31.03 33.09 31.13 35.03 42.21 41.60 41.12 36.06 43.10 50.98 52.41 53.45 55.14 56.27 57.17 58.57 58.98 59.80 62.45 64.92 68.26 71.47 73.63 73.02 72.94 71.82 72.47 74.49 74.40 74.91 75.79 75.67 75.75 77.08 77.67 78.46 78.74 78.94 78.60 78.46 77.82 77.90
33.24 32.30 32.27 33.95 29.70 28.54 43.46 39.95 37.15 43.41 49.73 49.31 51.30 53.34 54.04 55.54 56.08 54.82 55.52 55.42 57.43 61.11 66.50 68.78 72.67 71.97 72.28 73.18 75.13 75.41 75.23 75.83 77.39 77.03 76.05 77.31 78.00 76.70 76.59 78.79 78.29 78.60 78.69 77.83
32.30 36.99 34.96 36.62 35.91 42.28 43.18 41.21 43.97 47.20 47.62 48.16 49.63 51.72 53.01 51.95 52.42 52.97 53.02 53.43 54.47 57.15 62.03 66.45 68.53 70.87 73.30 74.14 74.74 73.68 76.80 77.79 76.54 76.58 77.04 76.84 77.30 76.68 78.21 77.65 77.04 76.29 77.31 76.20
34.13 37.26 34.19 34.86 39.73 39.42 40.87 43.20 44.89 46.25 47.38 49.31 50.12 50.20 50.63 50.39 51.95 54.02 52.79 53.28 54.16 54.92 55.39 58.17 62.42 63.83 65.49 67.94 70.73 71.98 75.61 76.39 75.92 76.08 76.31 76.55 76.37 76.17 76.76 76.91 76.90 76.27 76.00 75.61
37.43 38.96 36.03 35.69 39.23 41.90 42.86 44.58 46.30 48.50 49.49 49.20 50.26 50.32 50.54 50.58 50.06 51.84 52.04 52.97 54.41 56.09 56.05 56.24 57.06 57.08 58.33 62.59 64.99 67.72 73.34 75.37 75.12 75.51 75.80 76.11 76.45 76.14 76.57 77.13 76.47 76.79 78.74 73.84
40.66 36.54 34.56 34.89 40.82 40.68 43.02 46.37 48.66 48.15 48.26 49.09 49.25 49.91 50.61 50.46 49.83 51.19 52.04 52.94 53.65 55.77 56.56 56.88 57.73 57.94 57.80 59.28 62.16 63.73 65.33 66.39 75.38 74.07 74.34 74.67 75.05 75.78 76.02 75.92 75.86 53.00 55.21 51.97

GFSCGP_sfc_wetblb_069.txt.gz
Wetbulb
56.16 53.02 49.99 53.15 54.54 53.06 52.26 51.33 50.05 54.04 57.65 58.13 57.97 61.90 63.06 67.84 68.26 68.49 69.15 69.41 68.93 70.14 71.52 72.12 72.17 72.71 72.16 72.11 72.06 73.06 74.63 77.94 75.18 73.85 73.59 73.97 73.27 75.12 77.26 75.95 78.22 78.53 77.99 77.83
53.26 49.46 53.67 54.14 53.97 52.51 51.70 50.72 50.88 52.84 56.21 56.64 58.71 59.05 63.60 67.05 67.43 68.55 68.98 69.46 69.68 70.21 70.94 71.40 71.72 72.20 71.98 71.78 72.49 74.48 75.61 77.62 75.82 74.36 75.16 75.41 75.71 74.80 75.46 75.93 78.10 78.20 78.03 78.50
51.79 52.46 54.28 53.05 51.96 50.76 51.04 50.43 50.67 50.96 53.79 56.32 55.87 58.22 61.97 64.70 67.84 68.64 69.85 70.65 70.80 69.80 70.61 70.83 71.23 71.72 72.06 71.70 72.86 74.87 76.54 77.37 76.61 76.66 75.65 75.81 76.63 77.21 74.73 76.38 76.16 77.61 78.03 78.29
51.86 54.28 52.46 51.92 50.47 51.89 49.11 52.36 51.95 50.88 50.62 49.33 55.89 49.90 59.85 61.04 65.15 66.49 68.07 69.49 70.25 70.62 70.85 71.52 71.57 71.80 72.02 72.16 72.68 75.65 76.31 77.36 76.79 77.80 74.79 76.46 73.82 72.80 74.11 75.66 75.58 76.76 78.20 78.08
50.79 51.09 50.89 50.59 51.17 52.17 50.20 53.23 51.64 50.92 49.88 50.60 52.57 50.92 56.48 62.66 60.98 65.04 67.07 68.62 70.03 71.16 70.72 71.11 72.03 72.51 72.86 72.93 72.49 73.64 76.72 77.36 77.33 77.02 77.17 75.19 75.58 73.92 74.33 74.40 79.11 80.65 80.15 78.40
50.93 55.35 53.79 52.11 53.65 53.55 53.65 51.50 51.59 51.46 49.32 44.58 48.84 50.42 52.56 57.34 61.99 63.60 66.81 68.17 69.78 70.88 71.27 71.51 72.59 73.36 73.14 73.67 73.41 73.05 76.25 77.36 77.94 77.46 76.74 77.90 76.59 76.81 73.72 75.08 75.04 74.82 75.97 76.81
47.44 48.79 52.90 54.88 51.32 53.67 52.30 50.27 44.67 43.58 43.69 42.98 49.85 47.60 52.51 58.22 61.73 64.16 65.97 67.77 69.40 70.69 71.53 71.45 71.56 72.12 73.00 73.32 74.03 74.52 76.00 77.10 77.56 77.77 76.34 77.24 78.56 78.26 78.65 77.95 74.71 75.75 73.85 74.36
43.37 43.08 48.33 52.42 51.65 50.69 50.91 50.23 45.93 41.15 42.84 44.75 49.82 46.22 49.20 57.18 61.18 63.50 66.34 68.16 69.43 69.97 71.27 71.76 72.16 72.26 73.05 74.02 75.37 75.90 76.42 76.97 77.89 77.45 77.47 77.08 78.19 74.84 75.16 77.61 74.91 74.03 73.63 74.87
43.49 43.37 50.67 51.05 52.46 52.62 50.97 48.37 52.20 48.13 50.42 47.16 48.56 50.36 53.58 55.17 56.61 60.47 63.52 66.71 67.44 69.48 70.32 71.61 72.49 72.81 72.94 74.22 75.68 76.19 77.04 77.75 77.97 77.26 77.78 78.42 77.94 76.14 75.14 78.10 79.10 76.38 78.02 75.66
46.13 42.34 49.10 49.98 52.25 53.10 51.50 54.03 47.56 48.03 42.65 42.92 47.97 49.45 48.91 52.77 54.00 57.95 61.82 64.56 66.31 69.41 70.28 71.07 71.94 72.79 73.37 73.86 75.01 76.64 77.32 78.02 78.31 77.78 77.92 77.89 78.21 78.23 77.48 78.46 79.24 78.14 79.71 79.26
45.98 44.11 44.61 47.96 47.69 47.25 48.82 48.83 50.20 50.51 48.25 44.27 44.39 48.44 55.98 55.27 55.38 56.16 59.52 63.82 65.66 68.07 69.55 70.89 71.64 72.87 73.86 74.31 74.32 74.84 76.42 77.85 77.59 77.64 78.19 77.81 77.81 77.91 77.35 77.92 78.94 79.44 80.15 80.58
46.76 43.91 40.99 43.49 47.36 49.34 48.82 48.98 49.77 46.74 46.32 48.07 48.20 49.26 57.75 57.52 57.36 57.64 58.60 60.61 63.14 65.88 68.72 70.50 71.50 72.83 73.23 73.89 74.30 74.50 74.96 75.12 77.16 77.67 78.28 77.90 78.41 78.15 77.50 76.55 78.41 79.64 79.89 80.56
47.24 42.57 38.12 40.59 44.40 46.96 46.49 48.55 49.41 49.77 50.61 48.45 45.56 48.08 58.49 58.48 58.24 59.36 58.68 60.28 62.85 64.29 66.67 69.17 70.38 72.49 73.33 73.62 75.56 75.10 75.16 74.90 75.80 77.37 77.18 78.02 78.16 77.94 77.43 78.35 78.62 79.10 79.68 80.08
45.97 43.77 41.55 38.46 41.40 44.31 43.27 45.08 48.40 48.64 46.08 46.91 47.98 50.94 54.96 57.00 57.59 58.79 60.31 61.53 61.24 63.89 65.44 67.27 69.00 70.81 73.26 74.86 76.17 76.90 75.44 75.38 75.61 76.00 76.12 77.10 77.89 78.36 78.31 79.02 79.24 79.25 80.05 79.86
45.72 39.52 42.09 43.04 43.91 43.53 42.72 43.62 45.55 46.09 48.87 46.27 49.61 50.80 55.17 57.01 58.42 59.57 61.18 62.66 62.45 62.96 63.80 66.14 67.16 68.69 72.50 75.79 76.90 77.36 76.32 77.15 76.33 76.69 76.64 77.08 78.52 79.02 79.19 78.72 79.27 79.41 79.93 79.81
45.88 39.16 41.43 39.83 43.56 42.93 40.74 42.30 42.80 43.61 45.71 46.52 47.83 48.91 55.98 56.97 58.61 60.20 60.76 62.90 63.09 64.66 64.78 65.44 67.22 68.43 70.28 72.54 76.66 77.61 76.98 77.51 77.56 77.28 76.83 77.73 78.87 78.93 78.97 78.64 78.91 79.47 79.55 79.89
40.67 40.59 38.10 35.52 40.68 41.40 37.89 41.56 42.40 43.54 45.27 45.65 43.46 49.50 54.65 55.15 56.10 58.39 60.88 63.49 64.16 64.78 65.67 67.23 68.59 69.84 71.33 71.70 75.84 76.67 77.43 77.79 78.02 78.12 78.04 78.40 78.99 78.85 78.97 78.70 78.95 79.13 79.38 79.85
40.60 39.75 38.79 35.75 38.49 29.70 42.00 46.39 45.29 44.72 46.68 47.06 47.57 49.15 52.11 54.34 56.90 58.51 61.08 63.21 64.61 65.49 66.68 67.91 68.75 69.35 70.25 71.89 72.81 76.26 76.51 77.72 78.16 77.58 78.97 78.60 79.31 78.94 79.54 79.32 78.93 79.46 79.59 79.38
45.06 41.33 36.88 32.68 34.03 38.43 41.26 43.64 44.51 42.34 44.41 50.48 49.55 50.16 50.58 54.16 56.06 57.09 60.31 61.84 65.14 65.86 67.39 69.11 70.12 70.26 71.31 71.64 72.38 75.80 76.20 77.58 77.49 77.88 78.53 78.76 79.29 79.10 79.54 79.15 79.15 79.60 79.54 79.57
43.44 43.79 38.38 35.82 31.46 29.03 40.52 46.09 46.99 47.47 39.65 50.47 51.28 51.06 50.58 53.43 50.19 54.86 61.18 65.16 65.58 67.58 68.95 69.85 71.32 72.21 72.22 72.34 72.94 74.11 75.69 77.44 76.97 78.36 78.34 79.30 79.58 79.48 79.51 79.60 79.85 80.22 80.07 79.48
37.55 37.02 35.24 35.39 33.23 37.17 44.72 46.23 46.47 37.21 40.41 47.99 52.15 54.60 53.54 53.44 56.44 60.22 62.04 62.88 64.30 65.63 68.39 71.11 72.23 73.83 74.38 74.13 73.79 74.30 75.16 75.51 78.15 77.87 78.80 79.64 79.80 79.86 80.27 80.51 80.64 80.31 79.52 78.53
36.02 34.89 34.93 35.92 32.84 30.22 47.26 45.90 39.99 46.07 45.73 45.52 52.26 54.04 56.19 57.34 57.85 58.84 58.87 60.24 61.96 63.78 67.82 70.63 72.56 74.39 75.83 75.58 76.98 75.97 76.20 77.59 80.02 79.08 78.91 79.41 79.98 78.92 78.79 80.28 80.25 80.39 79.90 79.49
34.12 38.39 36.65 37.77 37.75 45.88 46.53 45.65 48.54 49.37 44.32 44.39 48.10 53.21 54.13 53.18 54.61 55.62 57.08 58.61 59.92 61.05 63.12 67.35 68.64 69.60 70.47 74.18 76.13 75.57 79.72 79.14 79.87 79.09 78.92 79.24 79.65 79.51 79.59 79.49 79.64 78.18 79.49 76.71
37.34 38.71 35.74 37.87 40.26 40.11 42.75 45.37 47.22 47.78 45.53 46.18 49.70 50.58 51.73 52.27 52.69 54.01 55.23 56.45 57.10 59.11 60.15 61.46 63.75 63.95 63.12 66.01 69.22 74.05 77.29 79.42 78.31 78.26 78.83 79.09 78.80 78.64 79.44 78.25 78.14 76.97 76.48 76.15
36.63 38.30 35.16 36.39 38.32 39.47 41.92 43.79 45.23 44.94 46.14 47.40 50.91 50.89 51.20 51.99 50.57 52.07 53.20 53.83 56.32 57.42 58.54 59.95 60.25 59.81 59.57 63.04 64.18 66.94 66.68 73.93 77.21 77.69 77.28 78.17 77.06 77.31 77.75 78.02 77.28 77.11 78.17 74.32
41.04 36.82 34.03 34.45 39.59 37.89 40.26 43.20 46.52 48.25 48.73 49.54 49.77 49.51 50.55 50.83 50.72 52.18 52.90 54.27 55.97 56.90 58.39 58.36 59.39 59.40 58.66 59.77 60.42 61.81 63.72 65.69 74.02 75.24 76.09 76.03 76.34 76.46 76.58 76.34 75.40 54.82 59.63 54.23

GFSCGP_sfc_wetblb_072.txt.gz
Wetbulb
57.67 53.56 50.75 53.01 53.47 54.16 52.11 50.90 49.77 51.61 55.89 56.44 58.29 60.23 60.66 61.19 61.37 62.69 67.36 67.52 68.38 69.20 70.62 72.02 72.25 72.94 71.89 71.47 72.53 74.34 74.44 75.38 75.01 75.37 74.42 74.62 74.65 76.01 76.65 74.89 78.64 79.37 76.88 78.81
53.14 50.69 55.08 54.81 54.49 53.44 52.90 50.90 50.12 52.86 53.90 55.08 56.27 58.00 60.25 61.22 61.32 62.38 63.14 67.82 68.08 69.24 70.26 71.33 71.87 72.39 71.65 71.39 72.12 73.28 74.55 75.58 74.71 75.98 75.96 76.05 76.84 75.25 75.16 75.97 78.30 78.76 79.11 79.23
51.09 52.17 54.63 53.66 52.51 51.48 51.81 50.50 50.32 50.53 53.22 53.95 54.76 55.21 58.76 60.72 62.92 64.72 64.06 69.50 68.41 69.60 69.39 70.49 70.85 71.65 71.96 71.40 71.90 72.57 74.94 75.73 75.02 76.10 75.38 77.13 77.59 76.91 75.35 77.33 77.15 77.88 79.28 79.19
53.07 55.32 53.66 51.92 50.89 52.17 48.74 52.79 51.82 51.06 50.20 47.02 53.68 46.95 59.20 62.20 63.50 62.86 65.82 68.17 68.28 69.22 70.44 70.77 70.38 71.43 71.59 71.93 72.95 73.28 74.79 76.06 75.13 76.59 74.58 76.02 73.69 73.69 75.05 75.87 75.65 77.14 79.48 79.23
50.24 50.52 51.37 50.89 51.65 53.10 50.39 53.53 52.14 51.29 49.88 49.34 49.68 48.25 51.69 60.95 60.58 59.71 61.39 66.97 68.71 68.80 70.44 70.44 70.86 71.43 72.14 72.72 72.61 73.78 74.32 75.91 74.71 74.88 76.55 74.80 74.51 74.66 75.57 75.13 77.57 77.28 79.89 80.19
50.19 53.65 53.18 51.94 53.28 53.60 54.10 51.66 51.39 51.39 49.46 44.52 48.05 48.05 50.41 55.61 61.66 60.08 60.39 63.83 68.52 69.06 69.71 71.34 72.03 72.43 72.44 73.09 72.56 73.94 74.02 74.82 75.42 74.53 75.15 75.57 73.84 76.48 75.41 75.32 75.37 76.45 76.71 78.12
46.50 47.93 51.62 54.30 51.39 52.75 52.43 49.26 43.07 42.52 43.16 42.50 48.84 47.13 50.91 55.92 63.46 63.49 61.48 64.09 68.40 70.41 70.45 70.73 71.19 71.65 72.08 72.23 72.30 72.68 73.82 73.68 74.83 74.65 73.70 76.16 74.44 75.12 77.80 77.20 75.14 74.60 75.03 75.14
42.73 42.52 47.22 50.60 51.21 50.30 49.77 49.38 44.45 39.06 40.89 43.56 49.46 46.15 49.46 55.25 57.41 66.27 64.04 65.70 66.23 68.43 70.98 70.70 71.67 72.14 72.30 72.86 72.58 72.47 73.69 73.58 74.32 75.19 73.13 74.73 76.77 74.56 75.44 78.28 74.94 75.88 73.95 75.41
42.94 42.66 49.63 51.20 50.92 52.07 49.73 47.63 51.32 46.60 48.20 45.17 47.78 50.47 53.43 55.68 55.52 57.64 64.50 63.59 64.09 66.64 71.23 71.09 71.96 72.57 73.22 73.15 73.30 73.05 73.51 74.17 74.77 74.74 74.98 73.50 75.84 76.49 74.61 77.84 79.15 75.95 78.04 77.74
45.80 40.71 47.78 49.40 51.60 51.32 49.78 51.51 46.33 47.74 41.06 40.97 45.88 48.95 49.41 53.61 55.12 56.15 58.43 63.92 64.98 65.47 68.62 71.67 72.08 72.71 73.53 73.94 74.48 74.69 74.67 74.45 75.33 74.62 75.67 74.46 74.27 75.33 76.45 75.13 78.27 77.49 78.84 78.22
46.45 43.72 43.28 47.17 47.04 46.67 47.87 47.52 48.80 48.97 47.98 42.92 42.32 46.83 56.19 56.78 56.56 56.40 56.84 60.52 65.36 65.48 68.40 71.00 72.17 73.12 73.71 74.42 74.51 74.70 75.05 74.86 75.35 75.79 75.43 75.39 74.49 74.55 74.41 75.33 75.07 76.85 77.49 80.89
47.59 44.63 40.20 42.92 48.15 50.50 49.78 48.41 48.34 45.86 45.09 47.57 47.53 47.74 57.56 58.90 57.57 57.09 57.59 59.40 64.06 64.83 67.96 66.86 67.59 72.79 73.52 73.98 74.30 74.69 75.00 75.92 76.22 76.37 76.01 75.37 76.23 75.40 74.41 73.19 75.30 77.77 77.32 78.41
46.98 42.94 38.12 39.96 44.09 47.43 45.02 46.40 48.02 48.26 48.45 47.09 44.82 47.05 57.18 58.64 58.46 58.23 57.93 59.42 62.69 67.59 65.17 62.62 62.60 65.43 72.76 73.51 73.93 74.44 74.89 75.04 76.90 77.03 76.52 75.99 75.54 75.93 75.48 73.56 75.43 76.39 77.12 78.63
47.61 42.77 40.31 37.38 41.75 44.68 43.54 44.50 46.74 46.20 44.41 45.39 47.86 49.73 53.88 56.54 57.64 59.86 60.44 61.24 61.81 65.91 66.66 66.15 65.68 68.28 72.26 73.56 73.96 74.45 74.75 75.59 75.90 76.59 76.22 75.91 76.03 75.90 75.82 76.21 74.05 76.94 76.96 76.75
45.23 39.05 41.21 42.46 43.93 44.27 43.90 43.76 44.26 44.38 46.75 44.96 47.33 49.61 53.90 53.97 55.56 59.69 61.36 62.18 63.88 65.05 65.50 66.46 68.02 70.80 71.09 74.15 74.25 74.96 75.35 74.97 75.79 75.62 75.99 75.95 76.74 76.71 76.70 76.37 75.91 74.24 77.05 77.51
46.36 38.03 41.36 39.28 42.73 42.86 41.76 44.08 43.93 44.42 45.68 47.51 48.68 48.33 54.95 55.33 57.60 58.61 60.42 61.08 64.58 65.80 66.79 67.92 69.62 69.38 72.04 73.05 74.45 74.88 75.33 75.34 75.71 75.23 75.49 76.34 76.77 76.62 76.70 76.47 76.34 76.26 75.98 76.92
42.35 40.69 38.39 34.57 40.63 41.01 37.59 42.60 43.56 44.32 46.06 46.41 44.17 49.04 53.14 52.40 55.46 56.99 58.98 57.13 60.89 64.90 66.26 67.57 68.30 69.45 71.70 73.39 74.86 75.46 75.81 76.45 75.51 75.60 75.95 76.03 76.49 76.47 76.26 76.64 76.51 76.76 76.16 76.81
41.63 39.77 38.14 35.14 37.55 28.96 41.92 47.35 46.71 44.68 45.47 46.43 46.56 47.63 49.37 50.85 53.30 56.44 59.29 57.12 60.10 64.29 65.58 66.66 67.60 69.15 70.12 70.65 73.58 76.96 76.92 76.17 76.43 75.58 76.13 76.19 76.37 76.13 76.82 76.76 76.37 76.61 76.82 76.50
44.25 42.08 36.63 31.80 32.70 37.57 40.73 44.57 44.40 43.54 43.67 47.56 47.23 49.61 51.60 52.23 51.48 53.31 57.02 59.93 60.31 63.38 66.01 67.11 67.71 68.68 71.79 72.08 72.10 73.67 76.71 76.23 75.67 76.44 76.02 76.38 76.22 76.16 76.80 76.36 76.57 76.59 76.64 76.68
43.41 43.22 39.78 35.50 30.02 28.14 40.28 45.50 48.47 47.39 39.23 48.33 50.81 50.87 52.45 54.60 49.44 50.81 59.75 62.78 64.08 65.77 66.75 67.47 68.70 69.34 70.52 72.49 72.83 71.97 74.85 76.58 75.37 75.57 76.41 77.77 77.10 77.10 76.77 76.96 76.85 77.01 77.22 76.78
38.19 39.48 35.61 34.78 32.86 36.42 44.31 45.40 47.54 36.13 39.78 50.28 51.04 50.63 51.76 51.65 54.46 59.79 60.76 61.87 63.02 63.79 64.94 67.55 69.76 70.50 72.59 75.31 74.66 73.58 72.68 75.28 77.09 76.88 77.82 77.11 78.49 77.52 77.88 77.91 78.01 77.58 77.42 77.28
35.41 35.28 35.13 36.72 33.10 30.77 47.28 45.51 40.64 45.78 48.85 49.30 49.24 50.52 49.47 51.18 55.02 57.94 59.50 60.40 61.83 62.22 63.27 66.14 68.86 70.02 70.71 70.49 70.24 74.87 72.69 76.34 78.55 78.11 76.92 78.01 78.46 78.20 78.41 77.96 78.34 78.20 77.73 77.13
34.77 36.57 33.54 37.34 38.27 46.00 46.72 44.70 47.59 47.51 46.33 47.73 48.66 49.29 50.17 49.11 53.01 55.75 57.18 58.86 59.53 61.16 62.02 62.39 63.85 66.38 66.19 67.30 69.67 70.98 75.51 77.67 78.07 78.65 76.95 78.19 78.36 78.21 78.12 77.75 77.94 77.54 77.87 77.05
39.64 40.11 35.55 36.39 41.06 41.29 42.95 45.54 46.39 46.66 46.84 48.21 49.23 49.00 48.36 48.93 52.02 53.45 55.18 56.29 57.94 58.86 59.76 60.97 61.71 62.12 61.98 63.67 64.91 66.91 68.12 69.36 77.66 77.91 76.88 78.31 78.02 77.12 77.58 78.11 78.02 77.60 77.21 76.88
37.05 38.67 36.38 36.24 39.90 39.30 42.01 41.77 42.14 42.58 45.00 46.63 48.65 48.26 47.46 50.66 51.25 52.63 54.19 55.34 56.54 57.11 58.28 59.39 59.11 58.61 58.96 60.44 62.05 64.13 65.51 68.14 78.61 78.00 77.36 77.58 77.51 76.69 77.24 77.19 77.63 77.52 78.10 76.20
40.35 36.46 34.10 33.74 38.15 37.78 38.02 41.47 42.98 44.23 46.42 49.81 48.30 46.83 50.56 51.00 50.75 52.74 54.44 55.54 56.16 56.68 57.90 57.58 58.05 57.75 58.19 58.68 59.73 62.70 64.29 65.65 69.36 77.52 77.24 76.38 76.50 76.78 77.02 76.14 74.41 55.29 61.93 57.15

GFSCGP_sfc_wetblb_075.txt.gz
Wetbulb
54.55 48.24 45.91 48.21 50.00 50.20 50.12 48.94 46.61 48.52 50.97 50.31 54.17 59.57 62.54 64.07 63.28 63.81 63.07 62.54 65.94 66.75 68.60 69.53 69.26 68.75 68.43 70.32 69.64 69.76 69.65 71.57 73.07 71.84 70.22 70.25 69.92 70.22 72.42 73.75 75.18 74.91 74.97 74.57
49.77 47.08 52.16 53.81 52.99 51.16 49.39 47.74 47.62 50.18 52.04 47.60 50.25 57.42 60.84 59.78 60.19 61.30 62.22 63.70 65.49 66.91 67.61 68.47 69.05 68.30 68.31 68.70 69.82 69.43 70.75 71.47 72.52 71.93 71.29 70.48 70.95 71.47 72.22 73.73 74.76 75.23 74.04 74.59
47.30 49.91 54.71 53.15 51.50 49.37 48.17 46.18 47.37 47.41 50.77 50.17 47.42 54.17 56.21 59.39 61.34 62.51 65.15 66.13 64.87 66.78 66.85 67.92 67.94 68.04 67.94 68.11 69.29 70.21 71.43 71.35 71.84 71.28 71.15 71.80 72.60 70.46 70.18 71.88 73.96 74.33 74.91 75.15
48.68 53.64 52.59 50.32 49.40 49.95 42.87 50.32 50.78 49.44 46.27 40.23 47.19 38.34 53.50 56.89 58.12 61.54 63.53 63.60 64.12 62.35 67.52 68.33 67.89 67.65 67.32 68.29 69.48 71.19 72.07 71.52 70.87 71.86 69.88 69.74 69.75 68.55 70.84 72.40 73.03 73.04 74.64 74.86
46.21 49.00 49.96 49.38 50.03 50.53 46.87 51.20 49.06 48.43 44.89 41.01 45.30 39.79 44.66 57.74 55.94 58.08 62.06 61.47 62.85 62.73 66.78 67.79 68.23 68.85 68.27 69.07 69.07 70.30 72.48 71.38 71.03 71.59 69.90 70.07 69.03 70.31 70.53 71.55 73.11 72.73 74.17 75.07
46.12 50.36 48.61 48.23 51.21 51.54 52.30 48.80 47.50 45.31 41.81 36.35 42.36 40.18 43.36 54.99 57.43 58.76 61.54 60.21 63.64 63.19 65.76 68.69 69.00 69.54 68.78 69.53 69.29 69.29 71.97 70.64 70.85 70.44 71.61 69.77 68.82 69.60 70.79 71.22 72.03 72.59 73.69 74.69
43.22 45.03 48.09 49.73 46.05 49.50 47.83 41.99 34.97 34.40 35.18 36.65 42.27 41.06 43.87 49.61 61.69 61.57 60.92 59.12 60.94 63.62 65.17 68.28 67.73 68.41 68.70 68.67 69.21 69.01 70.58 71.22 70.68 70.15 70.38 71.96 69.41 69.65 71.21 70.56 73.47 72.33 72.02 71.78
36.12 36.82 43.36 46.93 44.79 44.43 45.27 41.68 36.53 31.17 32.52 37.69 43.30 38.78 44.37 51.06 60.25 62.88 62.58 61.26 62.68 65.50 65.85 68.39 68.48 68.37 68.98 68.95 69.52 69.66 69.46 70.90 71.08 69.95 69.69 71.21 70.53 70.36 71.12 72.69 71.41 72.32 72.65 72.23
37.35 38.39 46.80 48.12 48.10 47.00 43.88 41.67 44.45 38.92 40.54 38.30 41.18 44.45 49.76 51.37 51.05 61.49 60.96 61.53 62.32 65.63 67.80 68.44 69.10 68.87 69.13 69.40 69.10 70.35 69.80 70.01 71.49 70.89 69.55 70.29 72.70 69.78 70.46 71.57 72.88 72.42 70.92 72.58
40.67 34.25 42.73 45.95 46.94 46.90 44.36 46.17 38.25 38.71 32.15 33.37 38.61 41.51 42.59 47.55 49.17 55.06 60.90 61.21 64.46 65.68 65.75 67.11 66.43 69.38 69.64 70.15 70.00 69.97 71.08 70.34 71.62 71.76 70.72 70.13 71.71 72.43 71.47 71.57 73.07 72.69 71.43 72.19
39.62 36.71 38.53 43.19 39.88 40.04 41.98 40.16 40.21 39.77 38.42 36.54 34.67 39.56 48.05 49.67 52.13 52.84 55.30 61.76 64.10 63.59 64.09 65.42 66.03 67.62 70.32 70.69 70.63 69.96 71.46 71.01 71.53 71.56 72.22 70.11 70.01 72.26 72.14 71.13 71.28 73.10 72.36 74.74
42.94 37.04 33.20 38.35 44.99 46.27 43.95 41.20 41.86 36.46 35.89 39.28 38.48 40.50 53.25 52.53 55.17 56.34 53.35 63.32 64.61 63.11 63.46 63.55 66.54 68.09 67.86 70.49 70.97 70.48 71.19 71.67 72.02 71.99 72.39 72.14 70.11 71.30 72.22 71.28 70.19 72.13 72.36 73.15
41.37 35.37 30.23 34.10 38.87 40.88 40.71 43.09 42.74 40.13 38.37 36.87 36.83 40.39 53.59 53.56 54.06 55.27 56.53 57.95 63.80 63.56 64.12 64.32 64.73 65.34 65.73 69.13 71.12 71.12 71.45 71.93 72.64 72.77 71.89 72.66 72.21 69.84 71.29 71.39 70.68 70.10 73.29 72.73
44.36 34.92 32.48 30.01 35.34 39.58 38.25 41.10 42.74 39.08 35.25 37.38 40.14 43.08 47.76 50.48 51.64 53.64 56.48 57.78 59.58 65.39 64.82 64.83 64.82 66.65 67.28 66.28 70.70 71.62 71.59 72.62 73.01 73.20 72.58 72.02 72.26 72.45 70.46 70.94 70.24 71.71 73.65 74.38
39.96 32.32 35.77 37.96 39.98 40.38 39.70 40.21 40.78 39.32 38.93 33.85 40.24 43.03 48.15 49.64 51.28 53.42 56.92 57.60 57.75 62.87 63.11 62.21 62.42 64.35 66.37 67.42 65.66 66.19 72.13 72.55 73.49 73.36 73.26 72.83 73.09 72.97 73.50 72.31 71.41 70.07 73.06 73.84
40.61 34.29 36.87 35.59 39.92 40.34 38.12 40.85 41.63 41.44 42.33 40.79 41.61 42.69 50.81 49.79 51.95 52.22 55.15 57.47 56.13 56.54 62.93 64.34 64.32 61.55 65.63 66.92 67.29 65.81 65.97 72.69 73.28 73.85 73.59 74.18 73.87 73.49 73.21 73.53 73.30 70.69 71.49 73.35
37.75 35.28 32.94 29.22 37.18 37.53 33.50 38.68 40.30 41.60 43.36 41.94 38.02 40.82 47.47 46.41 48.77 50.08 50.58 55.62 54.83 55.57 57.30 62.14 63.45 65.67 66.85 65.10 65.61 64.19 64.82 71.64 72.84 72.79 74.07 74.18 74.00 74.01 73.75 73.62 73.47 72.90 70.61 72.10
36.78 35.74 36.11 29.88 34.79 25.72 36.52 43.06 43.98 42.48 44.10 45.10 43.61 45.21 49.98 51.06 53.37 53.67 54.16 50.39 52.43 60.02 61.44 63.12 63.33 64.59 67.53 68.51 69.78 69.66 69.70 71.35 72.39 72.29 73.08 74.05 74.13 73.90 74.23 73.87 73.61 73.43 72.85 70.95
39.84 37.74 30.85 28.65 29.23 34.16 36.94 41.75 42.38 40.05 39.49 46.97 46.44 48.33 50.32 52.54 53.27 52.94 54.96 57.54 56.23 58.10 60.06 62.08 64.46 64.85 65.02 67.79 68.27 68.42 68.51 69.07 70.79 72.35 72.50 73.83 74.40 73.87 74.07 73.67 73.60 73.64 73.70 73.56
40.93 38.83 35.81 32.88 27.80 25.49 37.13 43.03 46.60 44.12 33.75 46.60 46.66 47.44 47.45 50.24 45.47 48.59 53.86 59.06 54.44 54.72 56.13 61.75 64.16 67.03 67.66 66.73 68.23 69.79 69.53 68.77 69.82 72.78 73.35 73.94 74.10 74.08 74.08 73.96 73.88 74.24 74.07 74.00
34.66 35.47 32.50 33.31 30.28 33.38 41.51 44.73 46.66 33.61 34.51 44.62 45.73 45.48 45.49 44.86 46.69 50.71 54.27 57.21 59.65 60.41 60.54 60.91 61.86 64.63 63.68 64.18 65.15 67.32 68.68 70.01 71.43 73.58 74.11 74.38 74.34 74.08 74.35 74.61 74.57 74.64 74.31 74.08
33.79 32.12 33.18 33.46 29.70 26.14 42.94 43.16 37.16 39.99 42.38 43.47 43.84 44.78 44.92 46.17 48.30 51.41 52.75 53.91 57.44 58.52 59.54 60.10 59.92 61.41 62.63 61.90 61.76 61.73 63.15 65.02 67.32 74.65 73.66 74.18 74.41 74.55 74.96 74.88 74.82 74.73 74.43 73.80
32.61 35.81 32.66 33.54 34.71 40.67 40.96 39.66 42.03 42.25 40.84 41.88 42.67 44.62 45.76 45.38 46.36 49.57 51.02 52.93 55.11 57.03 57.82 58.31 58.54 58.90 59.54 59.34 59.70 59.97 61.58 62.96 64.20 66.19 73.77 74.39 75.04 74.84 75.15 74.89 74.82 74.31 74.63 73.94
37.89 39.66 34.72 34.90 38.47 38.85 39.39 40.95 40.72 41.08 40.67 42.04 43.49 43.45 44.47 44.99 46.06 48.50 50.40 52.67 54.56 54.51 56.37 57.72 56.75 56.49 56.59 57.55 58.37 59.45 60.53 61.82 62.98 66.14 74.24 73.77 74.21 74.97 75.02 75.84 75.58 75.22 74.81 74.24
37.38 38.47 36.49 36.05 38.26 38.59 40.54 40.65 40.57 41.51 42.18 42.24 43.73 43.42 45.05 45.70 45.92 48.57 50.23 52.83 54.54 54.42 55.00 56.27 55.10 54.91 55.50 56.89 57.20 58.13 58.62 60.47 61.24 63.12 74.49 74.24 75.21 73.55 75.12 75.69 75.44 75.78 76.03 74.58
39.64 37.01 33.75 31.50 39.32 38.32 38.83 41.72 42.06 41.35 41.15 41.62 42.43 45.52 47.78 46.96 47.56 49.64 50.40 54.19 54.45 52.90 53.64 54.29 54.38 53.65 54.30 53.86 54.80 56.28 57.37 58.71 60.53 62.48 70.53 73.31 74.74 74.22 74.99 74.71 71.75 55.72 61.43 59.27

GFSCGP_sfc_wetblb_078.txt.gz
Wetbulb
50.78 46.19 43.35 47.86 48.57 48.40 47.09 44.85 44.85 48.97 51.83 47.38 52.16 59.40 59.61 61.36 63.04 63.17 63.82 63.88 63.86 65.92 68.02 67.29 67.83 68.68 69.73 69.45 68.35 68.50 69.84 68.74 70.54 68.65 68.83 69.20 69.11 70.11 71.86 72.67 73.44 73.26 72.96 73.53
48.04 44.31 50.26 51.97 51.66 49.30 47.74 45.38 44.77 47.84 51.32 47.75 56.92 58.83 61.20 60.75 59.31 62.65 60.79 64.02 64.34 65.33 66.94 67.27 67.07 67.46 68.80 68.39 68.46 68.19 70.19 69.60 70.08 69.54 68.89 69.44 69.15 69.70 72.05 72.82 73.59 73.97 73.17 72.90
45.66 48.83 53.95 52.33 49.65 48.54 46.28 43.10 44.68 45.15 49.42 47.74 57.47 56.77 59.19 61.23 61.21 61.64 62.72 64.64 64.89 65.38 65.86 66.40 65.91 66.08 68.68 68.25 67.99 68.31 69.95 70.53 70.58 70.13 69.84 69.82 69.76 70.21 69.89 71.28 72.48 73.75 73.74 73.54
47.57 52.95 51.31 49.62 48.50 48.38 41.12 49.22 48.79 47.97 43.58 38.98 44.42 37.69 55.31 59.19 59.01 61.41 61.73 63.48 64.24 66.10 66.87 67.13 66.14 65.91 68.27 68.42 68.81 69.07 69.94 70.65 71.01 70.03 69.52 68.89 69.24 66.85 68.88 70.41 72.38 73.15 74.01 73.64
41.94 47.01 48.33 48.06 48.65 50.10 46.49 50.36 47.31 46.44 41.27 39.27 41.25 37.98 39.80 56.60 54.66 57.25 61.06 64.46 64.20 65.96 67.12 67.03 66.60 66.52 67.75 68.78 68.77 70.13 69.48 70.67 71.41 70.23 69.28 69.29 68.06 68.08 69.76 70.16 71.23 71.47 72.59 73.31
43.81 47.99 46.48 46.61 49.40 48.82 51.03 46.68 44.24 41.15 39.16 34.07 37.55 38.87 40.47 52.77 55.60 57.87 60.91 63.79 64.42 64.64 64.79 64.92 67.94 67.38 67.11 68.37 69.20 70.19 69.46 69.73 70.70 70.30 67.91 68.30 67.90 68.24 68.88 69.78 70.84 70.47 71.88 73.07
41.07 42.74 44.43 46.73 42.23 45.83 45.54 39.17 33.16 32.99 32.85 32.44 36.88 38.38 40.48 55.27 58.40 59.87 60.45 63.09 64.10 65.89 65.08 65.31 65.47 66.67 66.29 67.02 67.94 70.23 69.62 68.93 69.55 70.20 69.01 68.41 68.74 67.79 68.96 69.55 71.43 70.48 71.10 72.02
33.37 34.48 41.78 46.11 41.64 38.95 39.98 38.84 34.06 29.48 30.25 33.26 39.49 35.99 42.09 50.67 57.13 61.86 62.26 63.25 62.60 62.39 64.83 65.24 66.63 67.46 66.60 67.26 67.29 69.18 69.71 68.77 69.05 69.44 70.23 69.18 68.72 68.31 69.81 70.33 71.62 71.87 71.85 72.04
33.77 35.80 45.12 46.17 45.41 42.57 40.46 37.35 41.47 35.90 34.19 33.67 37.39 42.14 47.84 50.01 49.28 59.92 61.13 60.03 60.50 61.55 63.48 64.85 67.06 68.20 67.27 67.40 67.23 67.50 69.76 69.28 69.23 69.08 68.92 69.84 70.40 67.93 69.00 70.88 70.99 71.90 72.18 72.06
36.73 32.91 39.55 44.23 44.87 44.28 39.73 41.98 36.45 34.72 29.94 28.46 35.12 37.34 39.79 45.66 50.21 54.63 60.02 60.77 60.05 61.48 63.96 65.91 67.51 68.16 68.28 68.18 68.05 68.01 68.54 69.59 69.61 69.43 68.83 69.03 70.24 70.74 68.06 69.73 70.96 70.85 71.22 70.89
36.55 33.91 36.18 40.89 37.40 36.84 38.25 35.76 35.22 34.53 34.68 30.90 30.39 35.63 43.28 46.48 49.79 51.00 53.92 56.63 62.29 62.03 64.27 66.42 67.89 68.59 68.61 68.79 68.73 68.51 67.97 68.84 70.04 70.06 69.23 68.59 68.89 70.67 69.02 69.19 69.87 71.98 70.60 70.87
38.34 32.86 30.15 34.75 41.63 43.72 40.20 37.48 34.31 30.08 31.52 34.20 34.86 36.84 50.19 50.81 50.75 53.04 54.70 56.70 59.04 64.00 64.99 67.14 68.02 68.19 68.67 68.45 68.55 68.66 69.15 68.61 69.83 70.72 70.29 68.85 68.57 69.72 70.90 70.52 69.35 71.63 71.05 72.73
38.80 31.34 27.11 31.81 34.57 39.58 37.78 39.29 35.14 34.94 31.30 31.67 31.97 35.58 49.20 49.84 51.70 54.39 54.77 58.12 60.13 63.69 65.41 66.52 67.78 67.24 68.29 68.33 68.46 68.79 69.64 69.67 69.81 70.80 70.69 70.14 68.26 68.56 70.16 71.47 70.29 68.78 71.54 71.55
42.57 30.67 29.41 25.73 29.50 35.58 34.99 38.59 38.62 33.68 27.66 30.73 33.00 38.12 44.09 47.30 50.30 53.40 54.79 55.23 61.78 62.43 63.55 62.64 62.80 63.76 64.96 66.06 65.77 66.92 69.02 70.87 70.63 70.68 70.51 70.47 70.10 68.49 68.86 71.00 70.37 70.05 69.67 70.76
37.19 30.14 32.59 34.05 37.77 38.60 37.91 38.04 39.00 35.19 34.42 30.50 35.54 37.03 42.63 43.87 48.45 50.72 54.40 54.74 56.72 59.20 61.99 63.46 63.94 64.51 64.05 63.63 66.04 66.45 69.25 70.52 71.41 70.91 70.17 70.42 71.45 70.88 68.86 68.99 70.63 69.92 69.54 71.22
37.11 31.58 33.24 31.09 37.53 36.70 35.48 38.08 39.06 39.33 39.38 37.97 39.12 38.12 44.15 46.63 50.96 52.58 52.13 53.02 56.61 59.20 61.00 64.37 64.98 64.94 65.12 64.83 67.01 66.62 67.44 70.71 71.51 71.08 70.96 70.65 71.22 71.80 71.02 68.85 69.00 69.50 69.62 71.24
33.26 32.21 29.16 23.51 34.35 33.99 29.98 35.05 37.32 38.85 40.66 39.48 35.56 38.65 47.10 48.07 50.31 50.43 52.44 54.47 57.74 59.14 60.14 61.05 63.32 64.16 64.90 66.50 67.16 67.25 66.01 66.72 70.49 71.32 71.77 71.96 71.12 71.41 71.64 71.90 69.82 69.64 68.70 69.29
31.54 31.67 30.02 25.31 29.12 21.00 32.86 40.31 41.08 39.55 43.49 44.73 44.96 45.72 47.12 47.42 49.95 51.87 52.20 52.50 56.31 58.65 57.98 59.24 63.76 65.51 67.30 67.32 67.32 68.31 69.35 69.55 69.80 70.33 72.20 72.44 72.69 71.91 71.98 71.96 72.18 71.37 70.86 68.92
34.94 32.29 27.64 24.78 25.08 30.20 35.66 39.26 40.49 36.91 38.96 43.31 42.02 43.51 45.31 47.64 49.92 50.48 51.22 53.55 56.71 57.21 56.55 61.52 65.98 64.69 65.20 65.87 68.28 68.82 68.94 69.02 69.31 69.15 71.34 73.20 73.26 72.94 72.60 71.86 71.92 72.61 72.16 71.09
36.34 35.47 30.52 28.38 25.73 23.44 34.57 40.18 44.99 43.49 34.53 41.79 42.50 42.05 42.48 45.39 40.80 45.03 49.44 53.05 55.58 59.15 59.11 60.22 63.33 63.59 62.81 63.20 65.58 66.36 66.65 67.05 67.11 67.84 69.39 71.86 73.74 73.23 73.07 73.04 72.73 73.11 72.98 72.47
29.00 31.27 26.58 32.03 30.59 32.00 38.00 40.34 42.83 32.28 34.37 41.66 42.30 41.82 41.89 40.04 43.22 46.17 49.48 52.14 54.25 57.45 58.36 59.44 60.40 60.24 60.25 60.81 62.13 62.47 63.23 62.29 63.75 65.47 68.10 69.94 73.19 73.77 73.79 73.79 73.87 73.57 73.15 73.03
32.41 29.06 29.83 31.51 31.52 27.23 39.72 38.60 34.73 37.47 38.30 39.91 40.95 40.57 40.88 42.37 43.63 45.81 47.69 50.82 52.63 54.91 57.07 58.44 57.93 57.92 58.46 58.53 58.76 58.85 60.24 61.72 62.25 63.45 64.85 67.22 73.09 74.08 74.34 73.65 73.74 73.67 73.29 72.42
31.94 31.50 28.81 30.74 31.66 38.95 40.13 37.46 40.79 39.05 38.24 38.63 39.21 40.60 41.83 42.05 41.93 43.37 45.83 49.00 51.82 54.19 55.95 57.19 56.61 56.78 57.09 57.43 57.71 56.89 58.09 59.52 60.74 61.53 63.63 67.00 72.92 73.48 73.99 73.41 73.27 73.00 73.21 72.63
34.80 39.50 34.69 33.48 35.87 36.98 39.15 41.18 41.48 41.27 39.71 40.54 40.83 40.84 41.10 40.94 41.91 42.81 44.85 47.34 50.73 53.64 54.77 55.52 54.73 54.23 54.62 54.88 55.05 55.83 57.09 57.44 58.31 59.35 61.39 63.87 71.69 72.75 73.17 73.77 73.96 73.31 72.96 72.76
35.84 36.17 34.97 33.21 36.38 37.86 39.62 40.09 41.21 41.40 41.65 41.12 41.60 41.83 41.90 41.98 42.64 44.12 45.11 47.02 50.74 53.00 52.42 54.01 52.99 52.24 52.74 52.74 52.87 54.36 55.28 55.95 56.62 58.60 60.66 61.29 72.25 72.27 73.12 73.72 73.70 73.94 74.41 72.80
38.68 35.27 31.78 28.44 35.63 35.25 36.58 40.34 42.58 41.66 41.72 42.57 42.03 41.93 43.55 44.94 46.75 47.02 45.75 48.49 50.82 49.80 50.89 50.99 51.25 51.28 51.37 51.62 52.35 53.42 53.67 54.93 54.61 57.17 60.42 59.13 62.66 73.07 73.96 73.28 73.62 55.91 60.87 58.96

GFSCGP_sfc_wetblb_081.txt.gz
Wetbulb
48.30 43.81 41.85 46.06 47.64 48.30 46.36 43.73 42.75 46.60 50.16 47.57 54.71 58.51 59.64 62.71 63.89 63.42 63.21 64.06 64.68 64.99 65.36 66.97 67.06 69.15 69.00 69.26 69.55 69.55 69.31 68.36 69.46 68.18 68.50 68.80 67.37 69.35 71.00 70.84 72.55 73.08 71.42 72.21
46.17 42.55 48.82 51.00 50.54 48.31 45.95 43.66 42.91 46.87 49.45 45.79 54.81 57.22 59.64 60.02 62.38 63.32 63.33 63.82 64.47 65.10 64.81 65.64 66.03 68.57 68.26 68.65 69.19 69.81 69.11 68.44 69.66 68.24 68.51 69.34 68.66 69.06 71.13 71.54 72.44 72.94 72.89 72.54
44.13 48.56 52.88 51.05 48.26 47.00 43.64 42.02 43.10 44.55 47.48 54.53 56.41 54.72 56.97 60.23 61.16 60.63 62.65 63.21 65.02 65.07 64.79 64.43 64.91 67.75 68.20 68.07 68.21 69.45 69.56 68.56 69.82 68.51 68.52 69.07 68.22 69.95 69.68 70.78 71.52 72.11 72.59 72.26
46.80 51.53 50.75 48.18 47.57 47.39 39.38 48.04 48.29 46.52 41.91 38.00 45.50 35.54 53.92 58.11 58.47 60.31 60.20 62.12 62.46 65.12 66.11 64.79 64.35 67.08 67.40 68.12 68.71 69.37 69.89 69.01 69.35 68.75 67.98 68.12 67.89 66.46 68.69 70.13 71.47 72.67 72.47 72.57
43.47 43.65 47.40 46.34 47.48 49.08 45.46 49.19 46.77 45.06 40.27 37.55 40.06 37.62 40.84 57.78 56.94 58.32 60.14 62.34 62.90 64.55 65.99 65.30 64.73 66.18 67.93 68.48 68.39 68.28 69.20 69.34 69.52 69.24 68.57 67.98 67.96 66.95 68.44 69.34 70.20 71.45 71.77 72.72
42.46 46.17 45.32 45.64 49.57 49.90 50.38 45.32 42.16 38.65 37.70 33.22 37.76 37.32 37.88 52.19 56.69 58.15 60.22 61.92 63.40 64.56 65.82 66.79 66.39 65.86 67.57 68.50 68.39 68.39 68.63 69.10 69.52 69.00 68.20 68.00 67.51 67.57 67.73 68.29 69.24 69.98 70.71 71.86
39.58 40.95 42.80 45.07 40.05 43.59 42.81 37.66 32.11 31.94 31.68 31.83 35.08 36.86 40.23 50.40 57.10 59.53 59.71 61.43 62.71 65.26 65.27 66.66 65.34 65.28 65.88 67.18 67.64 68.35 68.19 68.49 69.55 68.94 67.91 67.88 67.80 67.52 67.77 68.51 69.28 69.42 69.97 71.21
32.32 33.17 40.73 44.86 40.10 37.34 37.12 37.18 32.90 28.76 28.75 32.34 35.74 35.28 40.86 47.34 54.66 59.43 61.09 61.92 62.76 64.93 65.53 66.25 65.94 65.94 65.31 66.88 67.53 68.33 67.82 68.25 69.37 69.42 68.28 67.58 67.56 67.80 68.10 68.94 69.67 70.29 70.53 71.94
32.27 33.78 43.20 44.82 44.28 40.83 37.59 34.33 37.95 33.44 31.46 32.95 35.06 39.73 45.45 50.88 52.38 56.54 57.99 59.91 61.39 64.29 65.40 66.08 66.51 66.37 65.88 66.44 67.29 68.10 68.13 68.05 69.05 69.65 69.34 67.82 67.45 67.22 67.43 69.27 69.81 70.71 70.35 71.53
34.96 31.21 37.26 42.61 43.68 43.22 38.82 39.28 33.89 32.88 28.78 28.10 33.53 35.23 37.64 45.50 48.48 51.27 52.60 57.71 59.73 60.80 62.12 63.70 66.05 66.97 66.69 66.85 67.19 68.45 68.74 68.18 68.53 69.51 69.89 69.47 68.11 67.56 67.23 68.37 70.55 70.43 70.52 70.38
34.56 33.24 34.87 38.71 36.83 35.85 36.15 34.00 32.85 31.84 31.99 28.92 29.31 34.65 43.03 46.11 48.45 49.95 51.69 54.84 56.83 56.71 61.35 62.45 65.21 67.26 67.28 67.00 67.08 67.08 68.73 68.29 68.20 68.58 69.30 69.31 69.12 69.29 67.02 67.98 68.98 70.47 70.20 69.92
37.01 30.82 29.13 32.85 39.44 41.79 40.02 34.24 31.49 29.02 27.91 29.73 30.98 34.32 47.45 47.79 49.80 51.58 53.79 58.18 61.17 61.11 59.62 62.60 64.68 66.51 67.76 66.57 66.82 66.79 67.46 68.73 68.75 68.94 68.63 68.22 68.58 69.15 69.18 67.93 68.43 69.20 70.40 69.79
37.70 29.87 26.13 29.55 33.57 37.47 35.05 37.46 32.77 31.02 28.18 26.71 26.96 32.89 45.13 45.85 48.43 51.91 54.32 56.68 58.83 62.32 61.71 62.85 64.93 66.00 67.10 66.55 66.77 67.04 67.06 67.88 69.02 69.13 68.63 68.07 67.43 67.63 68.91 69.52 68.67 68.68 69.83 70.57
40.89 29.22 28.18 25.39 28.48 33.46 33.00 36.98 36.28 31.61 27.07 28.20 30.55 34.18 40.01 42.36 45.15 48.60 51.05 57.83 59.38 60.67 62.47 63.36 63.28 63.58 63.81 65.44 65.77 66.75 67.58 67.64 68.16 69.18 68.71 68.16 67.64 67.52 68.10 68.81 69.73 68.85 69.14 70.13
35.61 29.18 30.37 32.29 35.25 36.22 35.69 36.02 36.80 32.41 32.38 29.81 34.02 34.76 39.10 41.44 45.48 50.04 52.49 53.70 58.22 61.56 61.96 62.54 63.10 63.77 64.69 64.96 64.38 65.75 66.70 68.96 68.45 68.78 68.99 68.69 68.87 68.20 68.00 68.15 69.06 70.23 69.41 69.72
34.36 29.90 30.27 29.85 35.64 34.97 32.79 35.07 36.30 37.05 37.21 35.79 36.26 36.43 44.76 47.58 50.23 49.59 49.98 51.44 54.77 57.45 58.01 61.32 64.45 64.86 65.19 65.27 65.47 65.75 66.10 66.58 69.81 68.65 69.09 69.56 69.48 69.30 67.86 67.48 68.02 68.91 69.38 69.58
31.77 30.11 27.07 23.40 32.03 32.08 26.68 33.56 35.55 36.46 38.98 38.03 34.21 38.40 45.31 44.83 46.41 47.92 48.19 50.40 54.13 55.54 57.29 61.47 64.08 63.38 63.93 66.27 66.49 66.05 66.08 66.71 68.64 69.67 69.67 69.71 69.88 69.78 69.57 68.07 67.14 67.60 68.52 68.81
30.48 29.29 27.53 24.31 26.67 19.54 29.56 38.50 39.58 39.74 40.97 41.01 40.92 41.67 42.79 43.20 46.06 48.56 47.16 49.07 52.25 56.24 57.79 62.08 61.98 61.96 62.07 64.36 67.65 67.92 67.02 67.20 68.56 69.77 70.19 70.33 69.94 69.92 70.34 70.02 68.13 67.32 67.85 68.06
31.50 30.58 25.93 23.83 23.02 28.16 33.89 37.24 37.33 35.53 37.25 40.96 39.47 41.13 42.18 43.11 46.73 49.10 47.34 48.33 51.33 55.32 57.27 60.46 61.58 61.38 60.71 60.59 63.56 64.93 65.96 67.63 68.68 68.99 69.55 70.26 70.66 69.73 70.21 70.22 70.18 69.67 68.37 68.15
35.10 32.70 28.73 26.25 22.90 22.76 31.89 37.92 41.06 40.06 31.76 40.46 40.59 40.15 40.63 41.25 37.31 42.54 45.37 47.54 49.35 52.89 57.34 58.80 60.69 60.14 58.23 58.59 60.55 61.75 62.12 62.84 62.21 63.56 65.13 67.32 71.04 71.88 70.48 70.49 70.60 71.07 70.76 70.18
25.75 27.47 25.46 26.17 23.83 30.32 38.02 38.59 40.36 31.06 29.75 38.35 39.00 39.91 39.30 37.68 39.92 42.33 44.83 45.81 48.22 50.61 55.98 58.83 58.60 57.96 58.16 57.06 57.62 57.15 59.14 58.79 60.65 62.15 63.45 64.34 66.22 69.47 72.72 71.84 71.58 71.25 71.56 71.73
31.14 24.71 26.24 27.07 27.96 25.52 39.56 37.99 33.45 34.72 35.84 37.36 38.47 39.30 38.85 40.27 41.05 42.10 43.47 43.61 45.28 47.44 52.46 57.01 57.32 56.94 56.88 56.80 56.06 55.30 55.79 57.98 59.07 60.15 61.05 62.43 64.48 67.93 71.43 72.92 72.23 72.24 71.73 71.13
30.76 29.30 24.88 27.63 27.10 35.90 37.93 36.77 39.11 40.92 39.11 38.84 38.96 39.75 40.24 39.80 40.43 40.88 41.17 42.77 43.71 45.73 48.82 56.05 55.46 56.10 55.99 54.84 53.83 53.40 54.11 55.87 56.74 58.00 58.82 60.67 63.07 64.68 68.55 72.10 72.55 71.52 71.83 71.63
31.54 37.69 33.43 32.19 31.30 34.34 37.01 39.30 40.59 41.00 40.35 41.20 41.44 41.08 41.25 39.72 40.56 41.24 41.82 42.47 43.36 45.25 47.64 54.17 54.40 53.13 54.28 54.13 53.14 52.62 53.71 54.42 55.17 55.69 57.97 59.94 60.79 60.89 66.96 72.50 72.97 72.45 72.11 71.77
31.64 36.74 32.39 33.57 33.38 34.98 37.12 38.75 39.50 41.78 42.55 42.28 43.19 42.81 41.67 41.50 41.56 43.25 43.33 43.55 44.35 45.30 48.57 52.81 52.23 50.93 51.85 52.63 52.75 53.29 52.56 52.65 52.64 53.12 55.50 58.74 60.66 60.59 63.74 72.16 72.58 72.99 73.42 71.68
35.26 33.42 32.34 29.42 33.32 34.16 34.75 38.68 41.61 42.11 42.09 43.21 42.37 42.17 43.02 43.10 42.33 44.10 45.28 47.23 46.47 45.79 49.32 49.96 49.17 50.14 50.63 50.41 51.01 53.02 50.46 50.44 49.90 51.44 54.11 55.88 58.31 60.61 63.64 69.96 71.87 55.60 56.97 56.14

GFSCGP_sfc_wetblb_084.txt.gz
Wetbulb
46.45 42.08 39.48 43.36 46.62 46.88 45.50 43.80 42.83 45.51 48.66 46.73 48.02 55.15 57.99 62.65 63.29 63.15 63.62 63.58 64.15 64.18 66.15 67.06 67.65 68.13 68.52 68.87 68.27 68.54 68.63 69.13 69.80 68.75 68.77 68.88 68.11 69.67 71.89 72.24 72.83 72.84 72.71 72.61
44.23 39.82 46.55 49.30 49.25 47.22 45.05 43.05 41.97 48.49 49.49 45.71 47.93 51.09 58.70 61.11 62.26 62.90 63.51 63.40 63.97 64.78 64.59 65.64 66.18 67.43 67.76 67.86 68.35 68.62 68.83 68.77 69.78 69.75 69.36 70.34 69.37 70.26 72.21 72.66 73.39 73.93 72.76 72.87
42.94 47.11 51.11 50.00 47.40 46.14 43.16 41.45 41.99 44.65 48.09 54.67 53.61 47.95 55.05 59.42 61.03 61.69 64.28 64.61 64.51 64.73 63.24 64.69 65.01 66.38 67.81 67.59 68.15 68.77 68.93 69.07 70.42 69.45 69.40 69.06 70.24 70.60 71.09 71.92 72.61 73.42 73.60 73.51
45.83 50.12 50.22 47.40 47.03 46.89 38.61 47.20 47.39 45.79 41.39 37.27 44.78 34.96 47.42 56.02 57.73 60.09 60.33 62.00 62.54 64.23 64.21 64.62 64.78 66.19 67.41 67.97 69.13 69.34 69.42 69.04 70.56 69.02 69.03 69.00 67.94 68.00 69.87 71.36 72.54 73.24 73.92 73.39
45.17 45.06 46.77 45.13 46.62 48.51 44.95 48.27 46.25 44.81 39.49 37.00 39.19 36.60 38.57 54.51 55.41 57.88 60.57 61.18 62.62 62.98 65.06 64.10 64.84 66.79 67.77 68.61 68.82 69.41 69.61 68.87 70.20 69.18 69.21 68.80 68.04 68.93 70.11 71.06 72.03 72.62 73.28 73.83
41.54 44.48 45.23 46.76 48.99 49.35 49.14 43.26 40.15 37.62 36.06 32.37 37.04 36.90 37.11 51.81 55.35 58.32 60.58 62.34 62.87 63.28 64.58 65.42 65.04 66.97 67.75 68.64 68.76 69.07 69.31 68.80 69.18 69.52 68.17 68.36 68.94 67.91 68.58 69.63 70.49 71.28 72.58 73.08
38.79 39.89 42.16 43.59 39.37 41.81 41.89 37.39 30.82 30.97 30.96 31.64 32.92 36.58 38.83 44.76 49.35 58.32 59.78 61.37 63.08 63.96 64.05 65.32 64.34 64.64 66.99 67.39 68.11 68.38 68.57 68.56 69.05 69.13 68.74 68.12 68.79 68.92 68.63 69.21 69.94 70.54 71.20 72.30
31.77 32.82 39.71 43.81 38.95 37.41 36.40 36.62 32.07 27.74 27.95 31.91 35.08 34.18 42.23 49.61 52.26 55.27 60.02 60.85 62.30 63.21 64.49 65.35 66.49 64.61 66.18 67.41 67.68 68.17 67.57 68.33 69.05 69.05 68.80 68.74 68.36 69.11 69.22 69.60 70.02 70.77 71.20 72.28
32.13 32.67 42.00 43.36 42.81 39.59 36.53 33.94 35.78 31.83 29.25 31.79 34.07 38.94 44.56 49.92 51.14 52.30 53.63 58.62 59.81 62.01 64.35 65.11 66.96 66.56 65.20 67.11 67.37 67.79 67.57 68.20 68.85 69.27 69.06 68.12 68.17 68.35 68.76 69.85 70.59 71.19 71.88 72.64
33.38 30.75 36.41 41.06 42.46 41.81 37.96 37.81 33.26 32.49 28.54 28.01 32.59 34.11 37.15 44.24 46.74 49.84 52.28 53.01 55.51 58.23 63.47 65.23 66.26 66.85 66.41 66.56 67.94 67.97 68.38 68.13 68.88 69.58 69.54 68.59 68.14 68.28 68.80 69.60 70.00 71.12 72.01 72.15
33.24 32.62 34.30 37.37 34.75 32.98 35.23 32.94 31.98 31.75 30.96 29.21 28.98 34.09 41.31 41.44 45.23 48.04 51.07 55.96 58.18 60.40 59.67 62.49 66.12 67.33 67.17 66.56 67.60 67.62 68.22 68.08 68.41 69.41 69.83 69.47 68.35 67.77 67.76 68.83 70.35 71.20 72.04 72.11
36.34 30.84 27.98 30.27 37.72 39.74 36.55 32.87 30.37 29.75 28.98 28.53 30.37 34.50 42.85 42.43 45.23 49.27 50.53 53.55 59.19 61.84 62.43 60.18 63.00 66.54 67.07 66.22 66.64 67.24 68.02 68.12 68.47 69.05 69.66 69.59 69.51 68.94 67.66 67.94 68.84 70.77 71.76 71.92
37.12 29.81 25.59 28.29 32.94 36.31 34.95 36.36 30.23 29.31 27.78 27.36 29.34 32.93 43.61 44.59 46.93 50.68 50.91 52.93 60.40 61.72 62.96 62.90 62.39 63.72 66.38 66.29 66.25 66.79 67.96 68.21 68.86 68.92 68.90 69.29 69.37 69.23 68.94 68.24 68.22 69.54 70.40 71.17
40.51 29.94 28.51 26.02 28.48 32.66 32.36 35.87 34.83 30.03 27.64 27.97 30.02 33.95 38.07 45.17 47.19 48.81 49.71 51.89 55.99 56.76 60.88 62.94 63.10 63.91 63.99 65.99 66.10 66.62 66.92 68.67 69.03 68.56 68.44 68.21 68.44 68.90 69.52 69.91 69.25 69.05 69.67 70.22
35.15 30.23 30.79 31.92 34.54 35.22 34.47 35.33 35.52 31.87 32.13 29.91 33.14 34.79 37.69 44.84 47.07 47.87 48.75 50.98 54.01 55.47 59.73 64.03 64.30 64.58 65.46 65.66 65.24 67.22 67.14 67.25 68.58 68.60 68.21 68.03 68.52 68.76 68.81 69.14 70.07 69.94 69.43 70.19
33.48 30.95 31.25 30.49 35.11 34.06 32.17 34.41 34.99 35.62 35.71 34.65 35.23 35.57 44.23 46.28 47.19 46.33 45.43 47.01 50.90 55.47 58.07 62.70 62.83 62.65 64.26 66.23 66.45 66.47 67.31 68.16 68.12 68.58 68.54 69.07 68.64 68.73 68.19 68.36 68.64 70.00 69.96 69.86
30.79 28.96 26.00 22.56 30.79 30.75 28.05 32.54 34.51 35.76 39.98 38.32 32.27 37.38 41.77 41.34 42.88 45.41 44.39 45.50 48.36 51.15 56.28 60.18 60.98 60.39 60.15 62.60 67.15 66.39 67.08 67.77 68.64 67.88 68.84 69.72 69.47 69.12 68.86 68.38 68.39 68.53 69.55 70.13
30.44 27.82 26.31 24.20 24.20 18.81 28.26 38.41 39.53 38.23 40.50 40.31 40.36 40.47 41.38 41.58 42.62 44.11 46.26 44.80 46.40 48.31 50.95 57.30 60.06 60.06 59.63 60.93 62.86 65.39 68.09 67.55 68.30 69.04 69.26 69.71 69.88 69.67 69.80 69.29 67.77 68.04 68.75 69.20
30.83 29.06 25.23 23.20 22.17 26.86 34.28 35.10 35.08 34.79 36.14 39.19 38.20 39.49 40.49 40.91 43.02 46.84 45.82 45.20 45.17 46.88 48.98 52.82 58.67 60.61 59.51 59.23 61.67 62.25 62.66 62.97 62.89 63.24 65.45 68.75 70.42 69.92 70.11 69.54 69.57 68.58 68.12 68.49
33.28 31.11 27.85 25.61 23.17 22.52 31.58 37.82 40.24 39.01 31.25 37.86 37.52 36.83 38.02 38.81 35.32 43.52 44.56 44.08 45.29 46.77 47.64 48.31 53.12 59.27 59.01 58.29 59.62 60.17 59.84 59.75 59.30 60.66 62.29 63.98 65.14 68.07 70.05 70.56 70.71 70.43 69.28 68.59
24.46 26.46 25.27 26.29 22.85 28.65 37.49 38.50 39.61 30.37 30.71 37.32 37.83 37.57 37.35 35.68 38.65 40.63 43.06 43.77 45.18 45.93 46.39 47.52 49.57 56.83 57.84 57.95 58.12 57.63 57.45 57.41 58.77 59.94 61.08 62.54 63.82 65.11 67.28 71.23 71.41 71.37 70.95 70.73
25.38 22.59 24.83 29.03 28.27 25.24 39.08 37.23 31.75 34.52 36.40 37.61 38.13 39.16 38.76 39.29 39.95 40.77 41.70 42.23 43.56 43.83 45.05 46.33 46.70 50.65 57.58 56.74 55.28 55.25 55.25 56.98 57.96 59.03 60.44 61.42 62.43 63.93 66.12 68.32 72.03 71.42 70.91 70.71
24.31 28.00 24.22 26.31 26.63 35.00 37.60 35.32 38.21 38.75 37.92 39.39 39.65 40.53 40.74 39.59 39.54 40.31 40.71 41.77 42.68 43.70 44.71 45.91 46.32 49.12 56.18 56.68 54.56 52.86 54.73 56.22 56.83 57.46 58.56 60.12 61.71 63.30 63.87 64.07 67.26 71.83 71.57 70.93
29.66 35.08 33.50 28.95 30.99 34.33 36.65 38.98 39.55 39.82 40.34 41.51 41.98 41.80 42.11 40.58 41.39 41.00 41.54 42.09 42.83 44.63 45.00 46.13 46.12 47.08 52.97 55.62 54.26 53.77 54.30 55.02 55.38 55.24 56.18 58.39 60.17 61.00 62.56 64.46 66.52 70.73 72.46 71.21
30.86 36.44 32.01 29.05 32.90 34.54 36.46 38.28 38.92 40.52 43.09 42.76 43.43 43.42 42.57 42.40 42.05 42.18 42.02 43.02 43.99 45.33 46.85 47.28 46.38 47.31 51.98 53.91 52.81 54.03 53.48 52.72 52.24 52.94 54.09 56.11 57.69 59.30 60.80 63.27 65.24 68.26 73.26 71.68
34.13 32.09 28.65 28.56 34.07 34.16 35.09 38.91 40.57 41.47 42.16 43.58 43.31 43.06 43.48 43.13 42.27 43.24 42.83 43.69 44.86 45.70 47.86 47.78 47.23 49.07 51.86 51.26 51.62 52.37 52.64 52.10 50.71 50.79 52.05 53.02 54.26 56.56 59.75 62.09 64.13 58.96 56.38 54.06

GFSCGP_sfc_wetblb_087.txt.gz
Wetbulb
50.14 48.23 46.71 52.59 53.25 52.59 51.79 51.11 50.30 52.24 57.93 54.78 53.82 54.59 60.34 64.52 65.82 65.11 65.73 65.69 66.20 66.94 69.27 70.78 71.25 71.44 70.94 71.17 71.88 72.39 72.24 73.97 73.99 73.49 72.92 73.14 73.17 74.35 75.14 76.24 76.66 75.68 76.66 76.45
47.84 45.89 50.52 53.62 53.36 52.20 51.74 50.61 50.18 51.30 52.33 51.67 51.96 55.58 61.42 63.74 64.76 65.59 65.64 65.86 66.53 67.21 68.35 69.57 70.62 71.13 70.93 71.05 71.29 72.11 72.62 73.79 74.17 74.10 74.30 74.59 74.54 74.51 75.72 76.48 76.76 76.52 76.63 76.27
46.03 48.22 52.17 52.59 51.82 51.02 51.26 50.87 49.48 49.69 51.14 58.94 55.22 54.60 58.99 62.20 64.25 66.20 66.53 67.35 67.64 67.57 67.59 68.62 69.41 70.28 70.91 70.81 71.17 71.83 73.00 73.66 74.40 75.02 74.48 74.54 74.65 74.80 74.66 75.32 75.82 76.66 77.13 76.21
49.78 52.80 51.66 51.99 51.38 52.56 49.81 52.24 51.16 50.01 49.59 46.76 51.59 46.15 52.78 60.37 62.06 63.93 65.45 66.66 66.99 67.83 68.92 69.18 69.43 69.67 70.48 71.08 71.95 72.54 73.36 73.81 74.41 75.02 74.35 74.53 73.29 72.40 73.72 75.19 75.87 76.68 77.24 76.94
49.19 51.19 50.86 50.75 52.18 53.35 51.30 52.78 51.80 50.75 49.31 47.38 46.73 46.86 49.10 58.74 58.71 62.31 64.84 66.40 67.36 68.17 68.90 68.83 69.48 70.00 70.71 71.54 71.56 72.43 73.44 73.82 74.36 74.53 75.40 74.18 74.40 74.21 74.54 75.00 76.47 76.96 77.37 77.35
47.23 49.83 52.41 53.39 53.33 54.27 52.65 49.60 47.99 47.59 47.53 43.55 46.64 46.79 46.74 52.94 54.62 56.13 63.68 66.32 66.90 68.01 68.80 69.31 70.15 70.64 70.61 71.60 71.80 72.12 72.89 74.03 74.22 74.36 74.41 74.67 74.87 74.65 73.78 74.45 74.85 75.14 75.98 76.77
44.43 44.55 46.86 47.37 48.79 50.67 51.19 48.80 42.23 41.19 41.30 42.39 44.89 45.47 49.76 53.75 55.59 57.83 57.80 64.44 67.38 68.14 68.49 69.01 68.70 69.11 69.96 70.69 71.28 71.75 73.36 73.48 73.64 73.89 74.11 74.01 74.70 75.22 75.09 75.24 74.79 75.40 75.08 75.54
41.50 39.06 44.56 47.00 45.61 47.42 49.79 49.21 43.51 38.18 39.16 42.11 44.32 44.26 48.40 54.48 57.50 60.02 62.04 64.30 66.12 67.71 68.80 68.78 69.38 69.18 69.48 70.63 71.25 71.71 72.66 73.56 73.08 73.26 74.73 75.17 75.16 73.89 74.14 75.43 74.75 74.85 74.97 75.66
40.97 39.98 45.46 46.27 46.78 46.06 44.65 44.70 46.27 43.10 41.75 43.25 44.72 46.42 51.07 53.61 55.09 57.84 58.85 61.57 62.41 65.00 67.45 68.80 69.58 69.83 69.51 70.60 71.66 72.25 72.97 73.69 73.60 73.19 74.74 74.76 74.32 74.48 74.37 75.81 75.79 74.97 76.37 76.05
42.42 39.95 43.28 44.81 46.54 47.12 46.05 45.64 43.48 45.14 39.09 38.93 41.54 43.74 44.79 47.59 50.31 55.32 57.23 59.37 63.07 64.70 65.96 66.55 69.03 69.99 69.93 70.60 71.56 72.04 73.10 73.17 74.14 73.55 73.77 73.53 73.69 74.20 74.60 74.77 75.24 75.77 76.04 76.62
43.48 43.06 41.52 44.68 41.64 40.12 44.47 43.66 42.44 45.04 42.85 41.37 39.56 41.93 46.37 47.97 51.24 54.61 57.06 58.85 62.10 64.80 66.08 66.86 67.26 69.62 70.74 70.42 71.13 71.44 71.92 72.37 72.54 73.06 74.35 74.59 73.66 73.39 73.66 73.25 74.41 75.49 76.55 76.88
42.98 42.44 38.02 39.21 43.12 44.22 43.49 41.28 41.57 43.58 40.83 41.67 44.76 41.54 49.24 51.34 53.92 55.27 55.75 57.84 60.54 64.31 66.62 67.35 65.86 66.79 70.45 70.76 70.09 70.90 71.46 71.65 72.18 73.72 74.41 73.39 74.05 73.47 72.95 72.95 73.68 74.71 75.29 76.76
43.51 39.39 36.69 37.57 41.97 43.98 41.63 42.07 41.60 40.54 42.85 41.20 41.91 40.85 49.70 53.15 53.84 54.73 55.21 56.77 60.62 62.52 64.71 67.09 68.06 68.07 68.41 70.46 70.46 70.39 71.07 71.65 72.27 72.59 72.45 73.38 73.33 72.92 72.83 73.22 73.66 73.97 75.09 75.79
45.34 40.06 38.29 38.08 38.62 41.52 39.23 40.26 41.54 41.48 41.49 40.30 42.31 41.99 45.77 50.37 51.37 52.94 54.15 56.36 59.48 60.38 61.73 63.09 62.99 64.82 68.54 69.50 70.48 70.35 70.69 71.47 72.23 72.21 72.17 72.89 73.52 74.10 73.03 74.05 73.90 73.41 74.16 74.87
44.03 38.38 39.27 39.29 39.80 39.95 39.16 39.52 39.98 39.60 40.66 40.21 41.44 41.58 45.97 49.31 50.40 50.90 53.46 55.45 56.52 54.07 57.37 60.62 60.55 60.70 62.13 65.56 69.76 70.09 70.57 71.76 72.04 71.96 71.83 72.26 73.83 73.99 74.10 74.64 74.67 73.63 73.68 74.24
41.97 37.57 38.61 35.56 38.30 38.20 36.46 38.85 39.08 39.56 39.93 40.09 40.70 41.08 47.12 49.23 50.47 49.95 51.01 53.57 51.74 50.68 51.59 55.77 60.68 60.17 58.86 59.84 63.77 69.66 70.46 70.75 71.90 71.84 71.61 72.75 72.78 72.95 73.38 73.70 74.10 74.28 73.90 73.65
39.46 38.63 36.24 32.96 36.51 36.66 33.85 37.57 38.39 39.94 42.76 42.28 39.23 42.89 46.71 46.87 47.11 47.55 48.11 49.89 48.25 47.37 48.64 50.33 54.15 60.01 59.80 58.66 60.31 64.79 70.52 71.27 71.07 71.63 72.09 72.37 72.74 72.27 72.85 72.48 73.14 73.56 73.88 74.15
38.94 37.97 37.13 33.61 34.76 27.83 37.80 42.83 42.79 40.54 42.71 43.83 44.22 43.47 44.64 44.90 46.70 48.51 48.37 47.94 48.29 48.11 47.80 49.94 52.08 53.13 60.40 60.92 58.83 61.35 65.53 68.40 69.96 70.92 71.32 71.84 72.42 72.20 72.54 72.81 72.10 73.13 72.96 73.54
40.62 39.79 34.32 32.75 31.71 33.99 37.01 38.75 39.30 39.78 40.45 42.45 41.90 42.24 43.03 44.58 46.99 49.02 49.32 48.25 47.78 49.02 49.42 49.13 51.24 51.81 54.82 61.25 60.57 59.65 61.08 63.22 64.56 66.49 68.28 68.10 70.94 72.07 72.54 72.05 72.46 72.39 72.01 72.60
40.42 40.79 39.42 34.75 30.64 28.90 37.82 41.10 42.76 42.81 36.78 41.48 41.43 41.73 41.90 43.11 41.84 48.32 48.11 47.61 47.68 48.37 49.17 48.91 50.11 51.24 51.73 57.22 61.11 58.83 59.12 60.38 61.12 62.20 63.42 64.50 65.77 66.54 70.29 72.93 73.31 73.51 72.74 71.93
36.71 37.90 35.71 35.24 33.83 36.44 41.73 41.55 43.28 34.91 37.16 41.38 41.48 41.79 41.81 40.71 42.75 45.11 46.62 46.91 47.94 47.61 47.78 49.40 49.61 50.60 52.06 53.03 59.81 59.11 58.30 57.85 59.65 61.89 63.25 64.17 64.66 65.41 66.37 69.28 70.88 72.33 72.85 72.59
35.69 34.88 34.92 35.72 32.92 29.75 43.84 40.49 37.34 40.27 42.00 41.90 42.36 42.72 42.22 43.33 44.25 45.01 45.86 46.10 46.94 47.33 47.24 47.84 48.16 49.67 51.97 53.63 55.74 58.94 57.62 58.79 58.65 59.07 62.89 65.31 65.01 66.91 68.54 69.32 70.44 71.38 71.72 71.42
34.37 37.88 36.77 37.77 37.78 41.92 43.52 42.35 43.53 43.14 41.54 42.59 42.65 43.47 44.02 43.40 43.98 44.77 45.41 46.18 46.82 47.37 47.92 49.01 48.56 49.56 51.19 53.10 55.26 57.73 59.32 58.98 57.74 56.74 58.16 61.16 64.63 65.60 66.91 67.25 68.86 69.93 69.95 70.76
38.54 40.02 38.86 36.96 40.78 41.34 43.23 43.87 44.16 44.19 43.58 43.95 44.51 44.43 44.37 43.59 44.53 44.09 44.31 45.43 46.23 47.23 47.64 48.91 49.55 50.00 51.14 52.53 54.81 58.20 59.36 58.70 57.09 54.74 55.28 57.25 59.75 62.20 64.29 65.32 67.27 67.96 69.03 69.86
40.39 40.89 39.15 37.72 40.00 40.41 42.42 44.33 44.56 44.40 45.53 45.27 45.97 45.62 44.86 44.25 44.27 43.49 43.05 43.78 45.71 47.08 48.05 49.07 49.02 49.92 52.03 53.14 52.87 57.28 58.82 57.75 55.48 54.72 53.23 55.16 56.99 58.58 60.85 62.99 64.04 66.93 69.32 66.02
40.87 40.27 38.55 39.88 43.87 43.09 43.24 45.38 45.84 44.84 45.09 46.14 45.68 45.64 46.12 45.53 44.61 44.43 43.16 44.77 45.62 46.89 48.11 47.87 48.59 49.12 52.26 53.80 54.19 56.38 57.98 56.27 55.02 54.27 54.15 52.61 53.45 56.51 58.62 60.66 61.91 55.68 54.31 54.20

GFSCGP_sfc_wetblb_090.txt.gz
Wetbulb
53.62 50.13 48.62 52.34 55.30 56.30 56.57 57.42 55.09 58.55 62.24 60.32 61.16 59.56 64.22 67.18 67.99 66.31 66.71 67.46 67.48 67.36 69.36 71.53 72.20 72.24 71.40 72.03 72.89 73.96 74.43 75.73 75.50 74.86 74.27 74.66 74.68 77.52 76.72 77.20 77.82 77.00 76.99 77.03
50.54 48.36 52.17 55.00 56.34 55.71 55.88 55.67 55.79 55.89 56.21 55.84 55.68 56.37 60.81 64.60 66.61 68.25 67.91 68.17 67.98 68.48 69.14 71.09 72.23 72.92 72.43 71.73 72.43 73.46 74.22 75.63 76.24 75.61 75.88 75.71 75.79 76.87 76.68 77.43 78.01 78.04 77.15 77.44
49.20 50.85 53.44 54.55 55.90 53.92 54.59 54.99 54.39 54.30 54.67 58.08 56.84 56.37 60.39 63.81 66.23 67.55 68.83 69.20 69.87 69.35 68.60 70.61 71.73 72.50 72.99 72.72 72.03 73.10 74.41 75.34 76.40 76.96 76.62 77.04 76.93 77.28 76.24 77.71 76.62 77.56 77.73 77.14
50.34 53.13 52.27 53.12 54.00 54.92 51.85 55.86 55.65 53.52 52.99 51.41 56.63 50.42 57.22 62.89 63.74 66.20 68.18 69.20 69.58 69.94 70.28 70.50 71.64 72.29 72.90 73.20 73.04 73.41 74.80 75.49 76.21 77.29 76.66 76.93 74.67 73.56 74.57 76.32 76.83 77.46 78.43 78.10
50.24 50.67 51.75 52.29 54.22 56.28 53.36 56.51 54.97 54.98 53.47 51.99 52.61 50.87 55.31 59.79 61.03 64.16 66.88 68.72 69.72 70.56 70.73 70.42 71.49 72.31 73.15 73.81 73.84 73.41 74.75 75.72 76.43 77.11 77.36 76.12 76.03 74.65 75.61 75.87 78.57 79.33 79.15 78.55
53.12 55.16 54.52 55.66 56.85 56.92 56.52 54.97 54.39 54.01 53.35 47.27 51.65 50.90 52.32 55.93 56.79 59.28 62.94 68.42 69.92 70.56 71.21 71.64 72.24 72.75 73.06 74.05 74.26 74.25 74.62 75.97 76.49 76.65 77.03 77.01 76.35 75.79 74.44 75.92 75.04 79.30 77.00 77.35
50.04 51.83 52.82 54.08 54.90 56.98 55.33 52.25 46.40 45.15 45.25 45.44 52.85 50.60 53.50 56.95 60.26 61.78 60.17 65.34 69.83 71.19 71.07 71.63 71.83 72.08 72.81 73.38 74.09 74.30 74.92 75.55 76.44 76.31 76.59 76.90 77.14 77.08 76.50 77.12 75.26 78.32 77.45 75.87
45.92 43.12 49.96 51.05 53.31 52.90 53.61 52.43 47.20 41.89 43.20 46.02 51.51 47.86 52.43 58.85 62.20 63.49 65.41 66.58 68.30 70.35 71.27 71.55 72.22 72.39 72.88 73.27 74.07 74.45 74.79 75.40 76.27 76.24 76.60 77.30 77.64 76.35 75.98 76.09 75.08 75.32 74.87 76.31
46.23 44.13 48.45 48.89 50.44 51.10 53.05 50.39 53.29 47.87 49.79 47.34 48.80 52.36 55.62 57.87 60.01 62.56 64.05 65.90 66.33 68.10 70.36 71.35 72.34 72.78 72.86 73.30 74.12 74.79 75.05 75.67 76.14 76.03 76.66 77.10 77.44 77.02 76.21 76.74 76.96 75.61 77.22 76.71
48.40 43.61 47.33 48.09 49.79 50.34 51.86 55.15 47.79 48.40 43.57 42.84 46.84 49.06 49.94 53.68 57.61 60.36 61.25 63.50 66.61 68.42 68.55 69.36 71.17 72.66 73.54 73.70 74.24 74.93 75.46 75.59 76.12 76.20 76.30 76.26 76.94 77.23 77.25 76.86 76.63 76.55 76.71 77.36
49.40 48.32 45.62 48.54 47.24 47.19 48.44 49.17 50.13 50.64 48.88 45.34 43.75 46.90 52.34 54.24 58.31 58.97 61.09 63.57 65.93 66.16 69.12 69.67 68.81 70.79 73.16 74.15 73.93 74.05 74.76 75.29 75.73 76.10 76.24 76.24 76.30 76.74 77.08 76.39 76.26 76.63 77.28 77.60
48.50 48.66 44.75 45.55 47.37 48.78 48.52 49.17 50.39 46.87 46.70 48.71 48.75 44.98 54.49 56.55 59.27 60.27 60.97 63.80 62.24 63.56 64.25 66.70 70.28 70.74 71.01 72.57 73.49 73.41 74.19 74.49 75.38 76.12 76.33 76.27 76.67 76.74 76.24 76.22 76.01 76.55 76.47 77.53
48.60 46.76 42.15 42.72 46.20 48.03 47.34 47.86 48.93 49.67 50.30 48.37 45.65 44.61 55.69 57.44 58.86 59.84 60.37 62.26 60.84 60.66 62.02 63.43 63.97 65.08 69.40 71.14 73.31 73.53 73.60 74.13 74.96 75.71 75.51 75.88 76.20 76.29 76.06 76.29 76.51 76.43 76.44 76.63
50.01 47.48 44.78 42.34 44.51 47.72 44.87 45.21 47.00 48.16 46.69 47.99 48.17 47.62 51.80 53.87 55.53 57.93 59.54 60.86 60.70 60.40 58.57 60.90 62.18 61.54 63.16 66.20 67.51 73.11 73.24 74.04 74.66 75.04 75.09 75.52 75.88 76.25 76.08 76.45 76.62 76.50 76.69 76.30
48.40 44.34 46.11 45.28 44.92 45.27 44.85 44.22 44.36 45.87 47.12 46.22 48.43 48.63 51.31 52.81 53.78 55.81 58.39 59.39 58.24 58.03 58.58 58.72 59.37 61.14 61.37 60.51 63.61 67.43 73.27 73.68 74.39 74.19 74.44 75.06 75.98 76.30 76.42 76.53 76.41 76.47 76.67 76.42
47.90 43.38 44.96 42.13 43.14 43.40 42.39 43.85 43.73 43.71 44.52 46.38 47.87 46.86 52.13 53.43 54.18 53.74 55.36 56.28 55.80 55.69 56.26 57.78 59.57 59.23 62.17 61.58 61.12 61.36 65.46 72.22 73.98 73.93 73.34 75.09 75.66 76.02 76.36 76.38 76.27 76.32 76.35 76.39
45.23 44.92 42.86 39.92 41.55 40.94 39.09 43.88 43.82 43.92 46.20 46.38 44.88 48.52 50.57 50.42 50.33 51.08 52.68 54.19 54.29 54.46 54.70 55.31 57.42 58.28 59.53 62.86 63.44 60.82 61.86 66.76 71.97 73.23 73.87 73.65 74.93 75.00 75.58 75.89 76.07 75.92 75.97 76.27
43.79 43.91 43.82 41.85 40.46 33.51 43.25 46.95 46.00 44.58 46.77 47.94 48.25 48.10 48.75 49.44 51.01 53.35 53.52 52.79 52.98 53.48 54.34 55.27 55.95 56.77 58.00 60.06 63.77 63.69 62.08 62.19 64.51 68.44 71.86 73.09 73.50 73.91 74.91 74.87 75.14 75.33 75.44 75.72
47.13 44.64 40.67 38.31 38.34 39.89 40.91 43.23 44.01 44.00 44.43 47.34 47.62 47.66 48.30 49.92 51.40 52.73 53.59 53.00 52.76 53.45 54.05 54.74 55.92 55.99 57.40 57.80 58.88 63.58 63.37 62.60 62.43 61.78 63.85 67.13 72.80 73.37 74.04 73.43 73.93 74.96 75.00 74.73
44.19 46.00 42.68 39.84 35.95 33.52 43.29 44.96 47.39 47.57 41.49 47.16 47.76 47.07 46.86 48.30 45.92 51.10 52.10 52.12 52.35 53.21 53.80 53.88 54.65 55.66 56.66 57.73 57.89 58.72 62.30 62.89 62.52 61.69 61.40 64.01 65.83 68.27 71.66 73.93 75.25 75.21 75.15 74.64
41.19 42.19 39.51 40.01 38.14 41.71 46.19 45.82 48.09 38.33 41.71 46.88 46.67 46.74 46.55 46.10 47.78 49.95 51.11 51.48 52.39 52.86 53.26 54.18 54.49 54.57 55.96 57.36 57.87 57.42 59.26 60.99 62.58 62.94 63.31 62.12 65.92 66.69 69.37 70.79 70.56 72.76 75.46 76.21
41.22 40.30 39.92 41.27 38.13 35.54 48.60 45.42 42.09 45.99 46.99 46.46 46.82 47.14 46.84 47.37 48.39 49.41 50.40 50.60 51.42 51.91 52.59 53.46 53.39 53.98 55.93 56.91 56.67 57.18 57.89 61.46 62.99 62.99 62.56 62.61 62.09 64.45 67.88 70.50 71.46 72.72 72.67 74.00
39.38 43.96 44.08 42.51 43.96 48.43 48.99 47.55 48.73 47.57 46.69 46.86 47.80 47.92 47.80 47.11 48.11 49.20 49.28 49.63 50.41 51.10 51.81 52.90 53.03 53.53 54.99 56.59 57.36 56.19 58.77 61.30 61.89 61.78 61.49 61.93 62.15 62.89 65.66 68.19 69.24 70.18 71.51 71.58
44.02 45.58 43.19 41.88 45.24 46.84 47.69 47.68 48.19 48.04 47.66 48.10 48.75 47.78 47.61 47.32 48.39 48.45 49.30 48.98 48.65 49.69 50.41 51.98 52.38 52.56 53.31 55.64 56.75 58.26 58.32 60.16 60.30 59.54 60.10 60.16 59.67 59.46 61.91 64.20 66.31 67.32 68.32 68.65
46.95 45.51 43.88 43.40 45.63 45.86 47.73 48.70 48.90 48.33 48.48 48.17 48.89 48.44 47.78 48.52 48.21 48.47 48.09 46.77 47.94 46.97 49.49 51.16 49.49 49.25 51.58 54.02 55.49 57.68 59.01 58.84 60.09 59.54 57.78 59.47 58.21 57.57 58.88 61.06 62.75 64.09 67.31 65.44
46.42 45.09 43.04 43.64 47.60 47.13 47.58 49.70 50.10 48.85 48.32 48.18 48.24 47.75 48.71 48.48 48.02 48.36 46.56 47.39 47.06 48.30 47.17 47.88 47.42 48.16 48.63 51.39 54.31 57.38 58.92 59.14 59.22 58.93 59.05 57.30 58.30 57.68 56.90 57.25 59.41 55.63 53.10 52.26

GFSCGP_sfc_wetblb_096.txt.gz
Wetbulb
55.21 50.55 48.87 51.56 54.65 56.91 57.25 56.76 57.75 58.90 60.95 61.28 57.00 56.13 62.09 66.46 66.25 65.62 65.95 65.06 65.75 66.41 68.49 69.40 70.01 71.09 71.10 73.40 73.90 75.54 76.27 77.01 76.60 76.11 75.38 77.26 75.16 76.91 76.57 73.35 76.08 78.10 78.79 78.31
52.67 48.88 52.57 53.51 54.25 53.89 55.62 55.12 57.23 59.14 60.89 60.87 57.82 57.04 62.20 66.00 66.43 66.67 65.99 65.52 66.54 66.99 67.61 69.08 69.70 69.97 70.61 72.84 73.84 75.31 76.66 76.73 77.39 76.31 78.25 78.00 74.58 75.82 76.34 73.12 75.83 79.26 77.42 78.67
50.55 51.90 54.15 52.85 52.17 51.97 53.00 53.73 57.59 55.46 57.70 62.54 61.22 56.46 53.19 64.98 66.89 67.52 67.59 68.03 67.67 67.61 67.19 67.61 68.57 69.06 70.16 72.20 73.27 74.85 76.69 76.34 77.24 78.50 79.31 73.65 72.93 72.45 75.12 75.94 77.26 77.74 78.36 77.97
51.06 54.40 52.84 52.27 50.95 53.01 50.65 56.39 56.91 58.78 56.92 52.53 59.67 52.09 60.11 63.35 62.80 61.77 65.21 67.51 68.08 68.57 69.32 67.99 68.16 68.88 69.66 71.73 73.60 75.00 76.66 76.47 76.83 78.57 78.01 77.34 73.57 71.19 73.66 75.81 77.29 77.50 77.24 78.22
49.96 51.56 51.58 51.04 51.49 54.80 53.19 57.43 57.87 58.09 56.56 54.40 54.80 54.16 57.47 60.89 59.30 56.59 61.45 67.46 68.10 68.42 67.41 68.08 68.08 69.50 70.46 71.86 72.15 74.52 75.82 76.82 77.44 78.57 79.00 76.35 76.15 74.24 72.75 75.49 72.59 77.55 79.79 79.70
52.21 55.17 53.75 52.98 54.12 57.06 57.31 55.35 55.27 56.80 55.07 49.11 53.87 52.88 55.21 58.17 57.05 59.40 61.14 67.96 67.93 68.67 67.85 68.63 69.92 71.54 71.72 71.61 71.66 73.89 75.13 76.01 77.89 77.59 78.06 77.50 73.15 71.24 73.05 74.79 73.74 75.82 76.93 78.08
52.14 52.33 53.60 54.93 52.46 55.82 55.30 53.68 47.60 47.77 47.60 46.71 54.29 53.12 55.74 57.75 58.87 62.84 64.06 67.64 66.15 66.07 67.25 69.38 70.21 70.79 70.71 70.20 70.57 73.26 74.91 75.19 76.90 76.89 77.10 77.86 76.65 76.63 70.90 72.99 72.57 76.13 75.55 74.62
47.77 46.62 52.73 54.29 53.32 52.99 53.43 53.48 48.09 43.49 44.60 47.26 53.19 50.66 55.04 62.06 63.55 63.69 66.48 67.37 68.23 64.18 65.33 69.56 70.60 71.73 70.31 72.04 70.98 72.70 74.46 75.36 75.97 76.71 76.98 78.19 78.65 76.81 75.85 74.50 76.99 76.04 76.17 74.72
48.71 48.31 54.69 54.43 55.81 55.55 53.54 51.39 55.18 49.73 50.54 47.67 51.55 55.58 59.03 61.79 62.44 64.28 67.24 67.46 66.50 68.87 69.27 65.77 69.51 72.05 71.19 71.52 72.39 72.87 74.50 75.34 76.01 76.24 77.45 78.21 78.24 78.29 77.44 78.39 79.12 76.99 78.05 73.69
52.02 45.84 52.86 53.40 55.46 56.46 54.95 56.24 50.04 51.66 44.83 43.94 49.99 51.63 52.70 57.79 61.56 64.62 64.55 65.38 66.41 67.55 68.68 67.71 66.72 67.57 68.16 70.35 71.96 74.78 75.25 75.80 76.29 76.60 77.11 77.36 77.96 78.37 78.77 80.37 78.41 78.14 77.38 73.58
52.05 50.06 49.41 51.78 50.61 51.03 52.25 51.31 52.53 52.59 50.99 46.24 45.87 48.76 59.23 60.12 62.46 62.33 62.38 63.03 64.13 65.92 66.82 68.23 66.48 66.21 65.49 71.32 72.67 74.04 75.80 76.79 76.91 77.25 77.42 77.05 77.58 78.20 78.47 78.28 78.53 78.93 78.12 76.69
52.99 49.90 46.51 48.19 51.99 53.42 52.56 52.80 52.87 48.54 48.39 50.55 47.76 49.77 57.75 61.23 62.98 62.09 61.57 62.21 63.18 64.19 65.87 66.78 67.63 68.04 69.21 70.39 70.68 70.96 71.32 74.06 76.84 77.23 77.96 77.58 77.81 77.89 77.95 77.80 78.36 78.51 78.46 77.93
52.73 49.21 44.94 46.22 49.09 51.40 49.81 51.87 52.44 53.07 53.07 48.36 46.35 48.59 59.48 60.51 60.80 61.88 61.07 61.93 62.59 62.99 63.64 65.17 66.07 66.87 67.81 68.57 68.23 68.51 70.35 71.96 71.69 75.85 77.29 76.97 77.35 77.41 77.39 78.02 78.31 78.78 78.38 78.40
54.37 49.51 46.93 42.13 46.17 49.83 47.50 50.01 51.67 51.29 48.01 49.41 48.22 51.23 56.71 57.33 57.80 60.23 61.23 62.06 62.12 62.27 62.60 63.70 64.19 66.21 66.47 66.78 67.22 67.45 68.00 71.55 73.54 71.95 72.59 75.81 76.70 77.33 77.51 78.14 78.33 78.56 78.92 78.08
50.65 45.66 48.13 49.04 49.45 49.12 48.88 48.54 49.79 49.34 50.60 48.67 50.59 52.84 54.74 57.52 57.56 58.66 60.12 60.55 60.16 60.01 60.16 60.76 60.97 62.75 65.28 66.49 66.22 66.48 68.63 68.56 71.15 70.71 70.82 72.24 71.58 76.52 77.33 78.23 78.77 78.42 78.59 78.50
51.22 46.89 48.62 46.67 47.89 47.98 47.08 49.11 49.75 49.72 50.13 51.53 52.33 51.06 55.65 57.52 58.27 57.90 59.21 59.22 58.64 58.96 59.19 59.61 60.14 61.23 61.70 62.58 65.05 66.00 66.20 67.25 67.78 68.25 67.49 70.08 72.25 72.80 76.51 77.59 78.22 78.72 78.92 78.37
49.39 47.85 46.99 43.02 46.97 45.46 43.01 47.12 47.87 48.29 50.32 53.16 49.50 52.22 56.14 55.98 56.46 56.34 57.00 57.24 56.81 57.43 58.46 59.11 59.55 60.22 61.78 61.24 62.28 64.28 66.48 66.57 65.89 65.29 65.78 66.50 70.01 71.15 71.61 74.85 76.38 77.70 77.72 78.02
49.33 48.83 47.90 43.82 45.66 37.68 46.23 51.25 50.43 48.98 50.08 54.11 55.39 54.68 55.47 55.39 56.60 57.15 57.38 56.23 56.03 56.59 57.06 57.57 58.06 58.89 60.53 61.29 61.18 63.46 64.48 66.96 65.62 65.03 64.68 64.45 65.61 68.23 69.65 70.41 72.47 74.62 75.86 75.84
49.84 48.34 44.68 41.83 41.61 45.01 47.15 47.81 47.84 47.04 48.24 54.04 54.26 54.53 54.87 55.03 55.58 53.77 55.36 55.73 55.24 55.80 56.53 57.12 57.94 58.53 59.93 60.09 61.45 62.60 63.51 63.62 64.79 64.45 64.25 64.28 64.83 64.16 67.19 69.31 70.06 71.20 72.87 74.17
49.04 49.48 45.82 43.88 39.87 37.14 45.95 49.51 51.20 50.11 44.70 52.98 54.07 53.08 52.68 52.75 49.24 51.53 55.04 55.21 55.15 55.68 55.99 56.13 56.75 57.60 58.24 59.19 59.95 60.75 61.37 62.99 62.56 63.39 64.37 65.55 65.65 64.88 64.11 66.20 67.89 70.86 72.41 73.56
43.45 44.56 42.30 42.65 41.69 44.89 49.44 49.64 50.67 41.06 44.86 53.18 53.79 53.35 52.30 50.26 52.53 54.30 54.85 54.48 55.13 55.33 55.39 55.90 56.61 56.30 57.91 59.19 59.50 59.09 60.47 60.29 61.80 63.06 64.78 65.11 65.61 66.06 67.40 67.70 68.42 69.72 69.28 71.12
43.74 42.13 41.82 43.05 41.06 39.15 51.26 49.27 44.43 50.72 53.21 52.46 52.12 52.16 51.73 52.43 52.82 53.02 53.13 52.93 53.30 53.52 54.11 54.87 54.95 55.65 56.93 58.53 59.14 58.85 59.16 61.09 62.18 62.96 62.16 64.62 65.39 64.35 63.64 66.18 66.27 67.08 68.37 69.22
43.40 46.23 45.17 45.25 46.10 51.92 52.17 52.28 53.95 53.53 51.51 51.47 51.22 51.41 51.61 50.42 51.20 51.87 51.63 52.56 52.49 53.11 53.11 54.10 54.59 55.22 56.43 56.75 56.92 54.78 57.38 58.87 59.85 60.29 62.08 62.29 64.59 65.13 64.96 64.52 63.69 64.78 66.82 68.26
47.91 50.12 46.76 47.44 49.63 51.02 51.26 53.09 53.31 53.80 52.07 51.91 52.06 50.97 50.42 50.10 50.84 51.00 51.60 52.09 51.70 52.23 52.16 52.48 52.56 52.45 52.89 54.62 55.33 56.65 57.55 58.15 58.76 59.03 60.22 61.75 61.80 63.43 64.38 63.00 62.71 61.58 62.05 63.36
49.04 49.10 46.74 47.02 49.43 50.27 51.35 51.20 51.07 51.48 52.40 51.52 51.49 51.29 51.02 50.77 50.45 50.38 50.50 50.88 51.35 51.64 51.79 51.80 51.07 51.04 51.62 52.85 53.37 54.10 54.97 55.97 54.58 56.75 58.45 59.78 60.57 61.26 62.99 63.63 62.31 62.09 64.19 60.10
49.69 47.28 46.50 44.34 50.54 50.32 50.52 51.96 51.98 50.77 50.57 51.18 51.07 50.58 51.57 51.40 50.67 50.49 50.02 51.14 50.85 50.54 51.11 50.18 50.20 49.88 50.05 50.49 51.19 53.30 52.99 54.49 52.95 52.80 55.43 56.68 57.36 59.18 60.39 61.22 61.40 56.19 51.02 49.89

GFSCGP_sfc_wetblb_099.txt.gz
Wetbulb
51.90 45.28 42.20 45.86 48.36 50.21 52.01 51.43 51.93 58.11 62.14 60.06 58.98 58.18 62.09 65.06 64.53 63.43 63.13 62.05 63.04 63.60 65.37 68.04 69.21 69.53 70.57 70.97 69.49 71.62 71.13 72.68 70.82 71.59 71.50 71.58 71.50 70.03 71.32 72.99 73.25 73.67 73.92 74.05
47.37 43.72 49.69 50.92 51.00 50.48 51.06 49.92 54.66 58.78 61.30 59.02 57.25 58.92 62.60 65.08 64.46 64.11 63.47 62.88 63.21 64.33 64.98 66.37 67.88 68.92 69.47 69.63 69.96 71.70 72.01 71.91 70.75 71.05 72.21 72.52 72.75 72.01 72.39 72.59 73.20 74.15 74.27 74.41
45.52 49.07 52.96 50.51 48.81 48.37 48.32 46.39 53.68 55.05 58.18 59.33 57.09 55.55 56.47 61.80 65.16 64.45 64.46 64.45 65.23 64.77 64.77 65.38 66.33 67.12 69.42 69.60 70.49 72.36 71.81 71.84 72.75 71.79 71.49 71.79 70.00 69.27 71.17 69.66 72.05 74.26 74.97 74.48
47.76 51.96 51.30 49.07 48.08 48.37 42.69 51.17 53.46 56.98 53.45 51.66 59.20 47.85 52.37 58.55 62.38 63.47 63.60 64.36 64.41 65.77 66.49 66.31 65.23 65.99 69.20 69.79 71.48 72.75 72.56 71.69 72.32 73.97 71.23 69.12 67.65 65.04 69.61 71.44 72.62 74.14 75.17 73.98
46.37 48.04 48.26 48.15 49.14 50.44 47.42 52.36 56.82 55.83 52.64 50.95 52.48 50.39 50.82 57.25 58.17 61.52 64.19 64.91 65.18 65.82 66.89 65.57 65.36 66.26 69.68 70.67 70.97 72.62 72.78 71.78 71.37 73.54 72.64 70.55 70.28 70.70 71.53 71.84 71.90 72.31 73.75 74.37
49.06 52.26 50.05 49.32 51.96 51.56 52.86 51.04 55.35 54.97 50.63 46.38 50.16 50.48 50.47 54.49 58.35 59.05 62.81 65.52 66.53 66.85 66.72 66.47 66.14 66.83 69.07 70.42 70.99 71.94 73.15 72.05 72.27 72.87 72.70 71.75 69.72 69.60 69.90 70.03 68.67 71.12 72.15 73.26
48.10 49.01 50.58 52.14 46.99 49.97 50.41 45.93 39.58 41.92 43.62 42.99 49.39 50.68 51.30 58.17 59.31 59.70 60.55 61.29 64.25 67.13 67.29 66.40 65.62 66.33 67.89 68.54 70.31 71.43 72.09 72.05 72.38 72.80 72.88 73.19 70.51 69.94 70.08 69.86 69.56 70.73 71.38 72.39
41.70 41.10 48.79 51.66 47.47 45.36 46.77 45.20 40.81 37.51 39.44 43.63 50.12 48.38 51.23 58.65 61.68 61.93 62.42 62.65 64.87 64.60 66.32 66.01 67.43 67.87 67.44 68.20 69.66 70.99 71.20 71.60 71.83 73.19 73.36 74.08 72.89 70.78 70.58 70.74 71.03 71.66 72.52 72.81
44.05 44.07 52.03 51.71 51.98 50.14 47.09 44.91 48.71 42.78 43.09 41.13 48.06 51.61 57.03 59.06 58.52 62.51 60.35 63.06 64.14 65.48 66.06 66.99 65.70 67.20 67.81 68.26 68.35 70.45 71.06 71.44 71.81 73.30 72.96 73.80 73.75 71.90 70.13 69.15 71.82 72.21 73.29 73.98
47.01 40.75 49.42 52.15 51.82 51.41 49.71 51.75 43.17 42.75 38.07 35.85 45.69 46.87 49.01 56.40 59.93 62.71 63.17 64.24 65.40 66.36 62.54 63.92 67.01 67.45 67.50 70.46 70.29 70.54 71.91 71.87 72.42 72.87 73.92 73.67 73.77 73.77 73.98 73.22 72.95 72.28 72.26 72.55
46.11 43.73 46.15 48.65 45.23 45.44 47.50 45.44 46.37 44.40 44.38 38.67 40.72 46.81 57.32 58.40 59.43 59.67 61.45 62.85 64.27 62.25 62.17 63.77 66.35 67.42 67.66 69.10 68.66 70.51 70.57 71.03 73.10 72.93 73.74 73.99 74.11 73.88 73.15 74.14 73.49 73.97 71.79 70.79
48.53 43.31 39.32 44.17 48.29 50.09 48.40 47.57 46.20 40.67 39.99 46.31 45.64 45.18 58.87 60.09 59.49 59.51 59.83 60.89 62.70 64.66 65.35 66.44 67.81 68.12 67.42 67.69 67.27 68.89 70.15 71.18 71.19 71.15 72.64 73.74 74.50 74.40 73.89 73.91 74.26 73.95 72.14 71.63
47.17 42.30 38.24 40.59 42.63 45.39 43.60 46.90 44.49 44.87 44.70 45.12 41.64 43.34 59.71 59.21 59.09 59.80 59.55 60.30 61.05 62.53 63.95 64.83 65.05 65.98 65.89 66.78 67.45 68.67 68.38 70.83 70.31 71.28 71.52 71.44 73.73 74.59 73.92 73.79 74.74 73.55 73.97 73.19
51.50 44.60 41.47 37.49 39.23 44.37 42.78 46.39 46.94 42.55 41.74 44.63 46.85 50.72 55.60 56.77 57.53 58.56 58.12 58.59 58.89 59.76 60.71 62.37 63.44 63.89 63.89 65.45 66.40 67.79 69.03 71.03 70.31 71.37 70.09 69.79 71.59 71.84 73.64 74.44 74.85 75.49 75.04 74.41
45.60 41.97 41.77 43.48 46.75 46.17 45.53 46.34 46.95 43.18 46.67 45.33 45.79 50.12 53.61 55.59 56.04 56.71 57.35 57.27 56.85 56.49 56.67 56.44 58.34 59.59 62.23 63.47 64.44 66.07 67.38 68.10 68.64 68.74 68.58 71.20 71.90 70.91 71.09 72.73 74.18 74.91 75.24 74.87
46.97 42.13 42.88 42.32 47.43 46.03 44.06 46.09 47.24 46.84 51.00 49.82 51.24 50.86 57.38 57.64 56.98 56.50 56.19 56.21 55.19 55.18 56.19 56.44 57.02 56.86 56.60 57.26 60.27 62.88 63.37 64.58 64.91 65.11 66.64 69.82 70.15 69.49 70.03 70.89 72.38 72.98 73.59 74.48
44.35 44.25 42.20 35.65 44.05 43.15 38.89 43.29 45.26 50.80 53.56 52.61 47.43 50.96 55.98 55.12 55.26 54.24 53.80 54.14 53.84 53.87 54.34 54.34 54.96 55.74 55.56 56.48 57.78 58.56 62.05 62.57 62.24 62.50 64.41 66.67 68.73 68.58 69.41 70.85 71.51 72.20 72.26 72.42
42.39 43.21 40.66 36.99 39.47 32.03 41.88 47.52 48.31 48.83 52.34 53.03 52.61 52.99 54.60 54.48 54.34 53.74 53.69 52.82 52.66 53.27 53.36 53.03 52.89 54.32 55.26 56.97 57.59 59.24 59.24 61.54 61.45 61.17 61.71 62.52 63.98 65.78 68.42 68.51 69.19 69.89 70.45 70.66
44.28 41.29 37.51 34.60 34.06 40.24 46.09 46.35 45.67 47.06 49.09 54.04 52.19 53.15 53.35 53.34 51.88 49.49 52.66 52.57 51.78 52.05 51.83 52.16 52.71 54.42 55.07 55.01 56.59 57.75 58.12 59.12 58.91 59.54 61.29 62.25 62.41 62.56 64.46 65.32 66.69 68.84 69.14 70.92
44.88 44.65 40.36 39.11 33.50 32.17 40.39 47.28 50.05 49.95 41.93 53.60 52.71 51.36 51.48 51.54 45.11 47.78 50.88 52.14 51.62 52.12 51.72 51.60 52.65 53.56 53.57 53.87 55.09 55.49 56.55 57.50 56.95 57.77 58.75 61.25 61.17 61.10 62.65 63.39 65.24 67.16 68.44 68.75
38.37 39.36 37.38 37.02 36.91 41.60 46.05 47.38 49.06 38.68 42.58 50.65 51.70 50.11 50.20 45.52 47.04 49.19 50.96 50.83 51.38 51.24 51.19 52.07 52.36 51.76 53.32 54.29 54.52 54.02 53.52 53.12 55.46 56.98 58.44 58.67 60.87 60.82 59.68 60.81 61.71 61.94 63.27 66.87
39.70 37.24 36.60 37.22 34.87 34.62 49.48 47.07 42.59 46.76 47.31 48.22 49.36 49.87 49.00 48.93 49.55 49.56 49.59 49.23 49.79 49.56 50.36 51.55 51.18 51.64 51.64 52.17 51.84 50.78 50.85 53.22 54.70 55.28 56.19 57.83 58.21 60.11 61.36 59.71 60.02 59.20 60.56 61.98
37.64 42.03 40.05 41.48 40.73 46.52 49.25 48.23 49.37 48.80 47.44 47.56 47.48 48.82 49.67 49.45 48.08 48.35 47.71 48.12 48.95 48.82 48.74 49.81 49.35 49.51 50.10 50.99 51.34 49.85 51.38 52.79 53.18 53.77 54.90 55.83 57.96 58.83 60.30 59.21 57.65 57.75 57.80 57.21
44.23 46.53 41.93 42.81 46.85 47.98 49.16 50.26 50.16 49.98 48.70 48.97 48.34 47.74 47.76 46.76 48.41 47.44 47.95 47.26 47.23 47.81 47.78 48.27 47.48 47.08 47.69 48.91 49.93 49.89 50.79 51.52 50.81 50.48 52.16 54.46 54.79 55.53 56.27 59.39 59.19 57.37 55.99 56.23
45.29 45.84 42.69 42.55 46.73 47.85 50.63 48.88 48.72 50.35 49.96 49.61 49.17 48.13 47.52 47.79 47.02 46.72 46.29 46.03 47.06 47.07 47.14 46.86 45.77 45.47 45.77 46.95 47.62 48.47 49.46 49.28 50.16 49.28 50.29 51.16 52.32 52.76 53.41 55.59 56.46 57.38 57.34 55.53
46.49 44.23 40.83 39.89 46.38 46.43 46.85 48.09 49.22 49.14 48.52 48.65 47.95 47.75 48.66 48.62 46.73 47.05 46.23 46.51 46.25 46.17 46.15 45.67 45.54 45.14 45.28 45.95 46.48 47.66 48.44 48.13 47.11 46.72 48.02 48.77 49.11 50.49 51.53 51.79 52.85 52.75 50.54 49.17

GFSCGP_sfc_wetblb_102.txt.gz
Wetbulb
50.27 43.89 41.16 44.72 45.34 46.74 46.25 46.18 55.35 58.75 61.61 59.01 57.49 56.45 59.61 62.05 63.43 64.14 62.51 60.94 61.76 64.85 66.28 67.74 69.36 70.71 70.51 69.87 68.77 69.54 70.11 68.78 69.49 70.42 70.22 68.97 68.35 68.61 69.10 70.19 72.23 72.85 72.98 73.31
45.06 41.50 47.09 49.08 48.88 47.41 46.30 46.42 54.38 57.79 60.60 58.93 58.60 58.30 61.84 62.64 63.35 63.43 61.93 60.29 61.80 63.67 65.29 66.45 68.01 69.24 68.71 68.35 69.88 69.81 70.30 69.04 69.08 70.68 71.04 70.97 70.77 70.38 70.63 71.35 72.11 72.82 73.04 72.89
42.76 46.69 50.97 49.55 47.33 45.96 44.83 43.39 53.65 54.34 57.45 58.73 57.58 55.12 57.96 61.07 63.60 63.41 63.25 61.91 63.26 63.02 64.37 65.44 66.89 68.11 68.50 68.75 69.73 70.23 70.64 69.23 68.85 71.14 70.75 69.17 68.89 70.18 69.92 69.46 70.74 72.77 73.19 73.17
46.02 50.35 49.94 47.88 46.57 46.29 39.42 47.84 55.88 56.08 53.67 50.84 56.57 44.94 53.50 57.05 59.94 62.02 63.05 62.48 62.20 62.93 64.95 65.71 66.35 67.30 68.16 69.08 70.66 70.97 70.62 69.96 71.02 70.99 69.38 68.48 66.72 65.52 69.05 69.19 70.86 72.93 73.46 73.34
44.36 46.69 46.66 46.21 47.43 48.36 45.38 49.55 54.28 55.98 51.29 51.93 53.16 48.42 49.31 56.79 58.12 60.86 62.95 63.29 64.16 64.30 65.02 65.18 65.96 67.48 68.56 70.25 70.89 70.81 70.43 70.10 71.07 72.49 70.20 68.23 66.76 68.23 70.29 71.72 70.88 71.61 73.04 72.60
46.99 50.45 47.81 47.13 49.61 49.69 50.54 54.18 53.37 51.72 48.48 42.98 49.27 49.68 50.84 54.06 58.36 60.82 62.86 63.07 64.85 65.60 65.34 65.58 66.41 68.70 68.63 70.02 71.38 70.86 69.96 69.00 69.56 71.94 71.54 69.66 68.99 69.19 70.02 69.75 69.34 69.91 71.36 72.37
46.12 47.18 49.13 49.62 45.58 47.33 47.56 42.75 36.55 39.86 43.59 41.27 50.33 49.04 50.19 57.60 61.17 62.52 63.31 64.45 65.12 65.16 66.19 64.63 64.99 67.39 67.91 68.36 70.08 71.63 69.96 68.78 69.91 71.41 71.54 70.59 69.30 69.27 69.87 69.29 68.04 69.13 70.06 70.89
38.97 39.25 46.41 49.69 46.61 43.75 43.33 43.63 38.02 35.64 37.42 40.62 50.26 46.27 51.69 58.87 60.38 62.13 63.52 63.40 64.43 64.88 66.98 65.79 65.90 66.89 67.91 68.47 69.48 71.31 70.78 69.32 70.42 71.69 71.03 71.92 70.09 69.13 69.62 70.14 69.29 69.55 70.29 70.72
38.81 41.06 50.35 50.09 50.08 48.00 43.16 41.25 45.50 40.98 39.51 41.74 46.40 49.99 55.07 59.36 58.91 60.32 59.43 63.43 64.40 64.31 65.78 65.90 66.79 68.28 69.01 69.20 68.72 69.81 71.19 70.40 70.31 72.05 71.63 71.92 71.32 69.70 69.75 69.64 69.96 69.61 71.21 72.16
43.58 39.30 45.34 49.92 49.10 48.88 46.27 47.91 44.60 40.63 35.52 34.97 43.83 45.74 47.16 53.82 59.78 61.85 59.95 62.15 63.75 62.80 65.29 66.70 66.85 67.35 68.33 68.48 68.91 69.78 71.03 70.49 70.12 71.48 72.25 72.54 72.62 71.12 70.21 69.25 69.05 71.19 71.70 72.53
42.55 41.17 42.98 46.19 43.34 43.54 45.72 43.69 43.08 42.01 39.57 37.12 39.70 43.25 57.62 58.39 60.54 60.99 62.86 63.30 62.19 62.28 63.10 64.40 65.87 68.22 68.22 68.61 68.58 69.29 68.31 71.30 70.91 70.76 71.92 72.32 73.01 73.30 72.59 72.32 72.17 71.50 71.37 71.79
44.81 40.13 36.99 41.91 47.33 48.75 47.44 44.67 42.61 39.51 37.90 43.84 42.39 47.54 59.56 58.91 59.63 60.70 61.28 61.86 63.35 63.95 64.79 65.98 65.22 65.78 68.24 66.72 67.30 67.75 68.22 69.28 70.34 70.83 71.35 70.71 71.21 73.32 72.56 72.29 73.13 72.77 70.86 70.52
44.55 38.97 37.02 39.47 41.72 45.01 42.40 43.34 40.62 41.16 42.25 39.94 39.80 45.59 59.34 59.50 59.08 60.22 60.53 61.84 62.51 62.48 62.56 63.78 64.55 65.32 65.88 66.90 66.49 67.28 68.20 68.16 70.32 70.05 69.35 68.85 69.06 71.13 71.39 72.42 72.83 73.09 71.52 70.26
50.12 38.27 39.02 36.78 37.54 41.68 40.46 43.43 43.13 39.87 37.71 41.16 44.15 50.26 55.49 56.91 57.29 59.05 59.27 59.64 59.88 61.63 61.54 61.83 61.93 63.09 64.23 65.96 67.71 67.12 68.40 70.49 69.85 70.10 69.49 68.22 68.36 70.26 69.80 71.07 71.37 72.18 72.79 71.28
44.77 37.90 38.94 41.22 44.23 43.62 43.13 43.72 44.18 40.93 43.94 40.93 48.63 50.57 55.37 56.93 56.08 55.57 56.46 56.55 56.52 56.91 57.68 58.27 58.49 60.30 62.47 63.75 64.98 66.19 66.63 66.92 69.71 68.38 68.74 68.95 69.75 70.48 68.65 69.03 70.03 72.15 72.57 73.40
42.98 38.33 40.69 39.87 44.47 43.89 42.01 44.62 47.50 49.19 51.21 50.08 50.99 50.48 56.13 55.90 55.41 54.20 54.63 54.46 54.07 54.86 55.20 55.14 56.06 57.16 58.08 60.81 62.80 63.48 63.70 64.05 65.84 65.91 67.21 70.28 70.07 69.06 68.50 68.68 68.92 70.50 71.75 72.76
41.59 39.25 39.20 36.54 41.49 40.73 37.13 41.71 45.17 50.03 51.40 51.88 48.20 51.80 55.19 53.96 53.73 52.99 53.55 53.71 53.42 52.86 52.58 52.98 53.82 54.35 56.93 56.73 60.00 61.39 62.04 62.40 62.36 62.61 63.83 65.89 68.25 68.81 69.76 69.42 69.71 69.98 69.51 69.83
38.77 38.39 37.12 36.46 37.13 30.71 40.32 45.58 49.17 51.23 51.90 53.19 52.92 53.65 54.09 53.14 53.27 53.19 52.90 51.71 51.16 51.19 50.78 50.31 51.66 53.44 54.27 55.07 57.13 59.08 59.51 59.70 60.26 60.88 61.84 63.15 63.33 64.36 66.61 66.97 67.62 68.74 69.92 70.21
40.48 36.85 34.59 33.07 33.17 38.62 44.21 45.15 45.75 47.28 47.25 54.09 51.50 51.04 50.57 50.99 50.66 49.57 53.15 51.69 49.92 49.53 49.41 49.85 52.49 52.00 52.38 53.71 55.70 56.64 56.17 56.53 57.00 57.06 57.75 60.07 60.75 61.60 63.79 64.26 64.17 66.54 68.11 68.43
40.14 38.08 36.13 33.63 31.56 32.58 41.30 46.92 49.75 48.73 42.52 52.30 51.82 49.56 49.08 49.78 43.98 46.21 50.63 50.79 49.99 50.56 50.77 51.30 52.25 52.57 52.62 52.64 53.37 52.10 52.10 53.08 53.43 54.61 55.99 57.33 58.12 59.43 59.02 60.44 62.41 63.50 63.72 66.27
36.05 36.66 33.57 33.02 32.06 37.72 44.61 47.45 49.97 38.51 38.85 50.88 53.05 50.66 49.09 45.16 46.14 49.08 51.22 49.49 50.45 50.43 50.54 51.33 50.98 50.11 49.94 50.40 50.69 49.73 50.58 51.14 52.86 54.70 55.31 55.91 56.93 56.96 58.67 58.30 58.74 58.03 58.43 61.07
36.41 33.24 34.33 35.65 32.66 30.57 47.93 47.15 41.51 43.01 44.15 47.80 48.96 47.26 46.50 47.36 47.92 47.70 47.66 47.95 49.57 49.78 49.77 50.35 49.14 48.87 49.45 50.13 49.70 48.59 49.28 50.95 51.64 52.29 52.94 54.31 55.25 56.76 58.16 57.68 58.28 56.57 56.52 55.72
35.07 39.14 37.28 38.79 37.87 43.57 46.21 45.10 45.78 45.28 44.39 45.64 47.50 48.13 48.34 47.41 46.82 47.11 46.29 46.28 46.88 47.24 47.00 47.60 46.56 46.84 46.99 48.20 48.28 47.09 48.59 49.58 49.45 49.30 49.81 51.26 53.33 53.33 53.94 54.94 56.12 56.53 55.71 53.94
40.09 42.37 39.21 40.32 43.08 44.16 45.88 46.91 48.14 47.80 45.97 46.73 46.64 46.60 47.37 46.04 46.50 45.87 46.12 45.50 45.90 46.18 45.79 45.82 45.51 44.66 44.48 45.65 46.99 47.19 47.40 48.39 47.71 47.26 47.90 49.05 49.17 49.88 50.86 52.55 53.19 52.76 52.93 53.38
40.48 40.90 38.90 38.66 42.42 44.66 46.64 46.50 47.50 47.75 48.00 47.47 47.05 46.97 45.60 45.88 45.58 45.26 44.02 44.82 44.81 44.67 44.56 44.61 43.77 43.43 43.46 44.47 44.97 46.21 46.91 46.22 44.95 45.08 45.62 45.58 46.45 46.80 48.75 49.81 49.92 51.38 51.67 48.99
41.97 40.18 36.86 36.22 42.37 41.83 43.63 46.42 48.80 47.50 47.14 46.95 46.55 45.92 46.13 46.59 44.41 45.27 44.67 43.95 44.36 43.91 43.99 43.58 43.12 43.09 43.01 43.83 44.29 44.75 44.91 44.82 43.41 43.06 43.75 43.86 44.41 45.51 46.61 46.93 48.06 48.74 47.94 47.65

GFSCGP_sfc_wetblb_105.txt.gz
Wetbulb
47.46 43.38 40.62 44.11 45.09 45.69 45.22 45.60 55.02 58.41 59.96 57.29 56.46 57.53 59.35 62.17 63.18 63.60 64.21 59.42 63.09 64.27 66.79 68.00 68.86 70.26 70.00 69.67 68.00 69.40 68.99 68.29 70.14 70.05 68.99 68.15 66.12 67.68 68.04 68.75 71.31 72.08 71.72 72.68
43.85 40.91 46.21 48.33 47.76 46.38 45.02 50.59 54.19 57.52 60.37 58.86 56.05 56.81 60.03 61.57 62.24 63.39 63.83 59.19 62.85 63.64 65.61 67.43 68.45 69.43 68.90 68.46 68.08 68.71 69.39 67.63 69.34 69.48 69.57 69.73 69.19 69.12 69.41 69.70 71.23 71.91 72.17 71.61
42.14 45.48 49.59 48.01 45.92 45.22 41.51 43.28 53.10 54.04 57.28 59.19 57.41 55.22 57.44 60.73 62.72 63.87 65.04 60.77 63.62 63.53 64.30 66.34 67.62 68.63 68.31 67.61 68.15 68.95 68.94 67.85 68.07 70.68 70.00 69.15 69.80 69.69 69.23 69.30 70.13 71.67 72.39 72.26
44.36 49.24 48.52 45.45 45.41 45.43 36.95 46.25 55.40 55.34 52.00 47.68 56.88 46.10 53.68 59.02 60.24 62.37 62.94 60.89 62.48 63.57 64.45 66.00 67.14 67.55 67.09 68.13 69.34 69.13 69.36 67.97 68.67 70.47 69.28 68.61 68.24 67.43 68.65 68.79 69.76 71.23 72.63 72.50
43.84 45.70 45.74 44.82 46.27 47.18 44.37 48.73 53.55 55.06 51.46 50.80 53.49 47.12 47.62 58.29 57.63 60.02 62.12 61.19 62.44 64.24 64.71 65.16 66.70 67.27 67.30 69.46 69.30 69.90 69.42 68.34 69.78 69.54 69.00 67.82 66.60 66.83 68.89 69.57 69.00 70.67 71.86 72.11
45.80 48.60 47.14 46.55 48.34 48.40 50.39 53.41 52.17 49.84 47.60 42.34 50.55 48.73 48.65 53.40 57.10 59.45 61.96 62.68 62.48 64.30 65.09 65.74 67.63 67.87 67.55 70.45 69.58 69.94 69.06 68.11 70.43 70.77 69.01 67.93 66.72 67.74 69.48 69.41 69.10 70.09 71.01 71.58
44.07 45.91 47.54 48.32 43.00 45.29 45.52 44.99 38.75 39.96 40.82 40.75 47.12 47.63 48.47 56.23 59.71 61.01 61.58 62.37 63.35 63.82 64.72 65.24 65.96 66.92 67.69 69.27 69.09 69.48 68.57 67.21 68.70 70.74 70.74 69.31 68.14 68.45 69.12 69.38 69.27 69.19 69.75 70.25
37.05 37.67 45.24 47.34 45.31 42.19 41.91 43.14 36.98 34.85 37.36 39.62 47.60 43.27 48.64 57.81 60.86 62.38 64.40 64.10 65.14 65.30 64.73 64.94 66.08 67.06 67.54 68.81 69.59 69.33 68.32 67.13 68.21 69.63 70.43 70.25 69.03 68.87 69.07 69.64 68.70 68.51 69.76 70.30
36.43 39.43 48.23 48.60 47.82 47.09 41.67 40.07 43.61 38.45 37.13 41.25 44.60 47.81 54.15 58.55 57.83 61.24 61.97 63.57 64.34 64.63 65.37 65.64 65.71 66.66 68.19 68.63 68.33 70.42 69.44 68.05 68.57 69.73 70.18 70.61 69.91 68.60 68.31 69.50 69.27 68.56 69.58 70.85
40.33 37.26 43.55 48.44 47.70 48.75 43.93 46.31 40.69 38.14 33.45 33.88 42.72 43.75 46.65 54.79 56.93 57.43 60.71 61.21 62.85 64.70 65.52 66.14 67.36 67.49 67.97 68.75 68.93 68.62 70.15 68.77 69.19 69.86 70.35 70.94 71.09 69.92 69.20 69.37 68.91 69.40 69.67 71.12
41.02 39.56 42.14 44.05 41.45 42.60 44.97 42.71 40.89 39.78 37.71 37.86 38.15 43.78 57.16 57.30 60.22 60.36 61.19 61.66 62.71 64.12 64.69 65.82 66.90 67.35 67.61 68.24 68.44 67.90 67.10 69.71 69.33 69.88 70.65 70.86 71.18 71.49 70.25 69.75 69.24 69.23 70.30 70.59
42.92 38.31 36.26 40.08 45.22 45.82 43.86 43.10 41.47 38.03 37.26 40.50 41.74 45.59 59.32 60.18 60.97 61.15 61.23 62.03 62.68 62.23 62.61 64.29 65.63 67.41 67.39 66.96 67.73 67.41 67.73 68.40 68.90 69.82 69.63 69.72 69.84 70.20 70.54 70.52 70.84 72.39 70.59 70.71
42.29 37.61 35.43 38.49 40.64 44.02 41.36 41.39 38.82 39.70 40.70 39.16 39.78 45.82 59.31 59.80 59.54 61.06 60.93 61.63 62.52 63.65 64.39 64.28 64.06 65.21 65.67 65.95 65.91 65.71 67.19 68.02 68.85 69.21 67.95 67.66 68.76 68.99 69.24 70.31 70.97 71.43 71.01 69.80
48.06 37.03 36.87 34.40 36.88 39.58 38.05 41.57 40.67 38.35 36.75 39.92 43.26 51.54 56.29 57.59 56.55 57.67 59.06 60.82 60.99 61.27 61.96 62.58 63.25 64.29 65.41 65.31 65.18 65.77 67.41 68.24 68.65 68.61 67.46 67.57 67.84 68.09 67.55 68.29 69.66 71.40 71.53 70.13
43.02 38.44 39.04 42.01 42.37 42.43 41.53 43.46 42.77 38.79 41.70 39.90 49.73 51.82 55.54 57.34 56.97 55.81 57.17 58.37 57.92 58.53 58.15 59.05 59.90 61.99 63.26 64.26 64.96 65.73 66.31 68.29 68.81 67.82 67.01 67.77 67.97 68.76 68.94 68.38 67.79 69.19 70.65 71.89
42.63 38.20 39.69 40.60 44.68 42.86 40.96 42.94 47.52 48.70 50.73 49.56 51.78 52.07 57.38 57.52 54.61 53.77 55.00 54.41 54.06 54.91 55.66 56.17 57.81 58.95 60.33 61.69 62.00 62.60 62.84 64.78 68.27 67.81 68.02 69.01 69.64 68.74 68.13 67.93 67.70 68.02 69.21 69.80
42.09 39.54 37.75 35.37 40.51 41.68 37.35 40.85 42.33 49.23 50.82 52.65 49.95 53.26 55.19 53.41 53.01 52.89 53.37 53.36 52.75 53.55 53.69 54.55 55.26 56.06 57.27 59.24 60.57 59.73 60.19 62.67 62.89 62.89 63.29 64.23 68.45 68.40 68.63 68.90 67.68 67.61 69.33 69.60
38.72 39.50 37.57 34.51 38.28 31.75 39.59 46.68 52.55 50.68 51.54 52.31 53.03 54.00 53.46 53.17 52.40 52.27 52.52 51.13 51.29 51.65 51.42 52.01 53.74 54.48 56.13 57.71 57.76 57.97 58.15 58.04 59.00 59.37 60.51 61.87 62.85 64.33 65.65 66.11 66.85 67.93 68.81 68.09
39.50 37.26 33.55 31.99 33.53 39.61 43.43 43.58 43.43 45.38 49.61 54.02 52.55 53.59 51.92 51.88 51.98 50.32 51.41 51.19 49.03 50.14 50.90 50.88 51.45 52.26 53.16 52.70 53.04 53.54 53.67 54.56 55.16 55.47 56.61 58.51 59.90 61.29 61.61 61.30 62.43 62.81 63.88 66.00
39.30 37.35 35.39 33.55 30.79 30.87 42.42 47.47 49.31 51.19 45.38 51.92 52.23 51.07 50.46 51.16 44.49 45.75 50.31 50.85 50.27 51.57 52.19 51.75 51.75 51.85 50.78 50.13 51.30 51.60 50.87 51.16 51.59 53.29 54.43 56.04 57.24 58.11 58.67 59.40 60.56 61.38 61.56 62.22
33.74 33.26 31.78 32.28 30.67 36.31 43.39 47.36 49.52 38.84 39.55 51.06 51.51 50.96 50.22 48.05 47.72 48.07 49.93 49.97 50.10 50.71 49.74 49.79 49.73 48.70 48.86 49.47 49.82 48.95 48.99 48.76 50.18 51.57 52.78 53.98 54.77 56.05 56.21 56.63 57.99 56.80 57.68 57.18
35.07 31.16 32.03 31.89 30.99 31.09 46.10 45.26 40.99 43.65 45.37 51.40 50.80 50.75 47.92 48.41 49.13 48.81 50.46 50.28 49.67 48.42 48.62 48.98 47.63 47.22 47.51 48.32 48.82 47.33 47.45 48.48 48.84 49.33 49.81 51.01 51.37 52.95 53.60 54.43 54.16 55.47 54.70 54.58
33.35 37.68 35.96 36.54 36.00 42.61 44.13 42.51 43.68 43.97 45.68 48.92 49.50 48.47 48.72 48.22 47.22 47.28 46.08 47.06 48.05 48.35 47.70 48.02 46.63 45.94 46.14 46.84 46.24 45.22 45.77 47.36 47.02 47.00 46.72 47.26 48.47 49.46 50.44 50.53 50.94 52.00 52.05 51.83
38.65 40.73 38.39 38.96 41.52 42.54 44.15 45.40 45.08 45.52 45.87 48.75 50.03 49.38 49.28 47.61 47.49 46.26 45.71 45.41 45.41 45.35 45.47 45.26 44.24 43.95 43.79 44.56 45.86 45.27 45.28 44.98 44.46 43.92 44.10 44.87 45.18 46.66 47.62 49.04 50.04 49.61 48.63 48.40
38.72 39.18 37.06 37.67 41.23 43.20 44.45 44.56 45.31 45.24 46.56 48.40 50.14 50.31 49.20 48.11 46.78 45.65 44.73 45.00 45.07 44.47 43.71 43.61 42.73 42.41 42.26 43.72 44.20 44.62 44.35 43.99 42.79 42.54 42.66 42.64 43.83 43.53 43.84 44.71 46.61 47.84 47.16 46.47
40.29 38.28 36.06 35.60 40.68 40.90 42.42 44.30 46.81 45.63 44.99 46.02 46.40 45.75 46.98 46.74 44.64 45.62 45.10 45.00 44.22 43.17 42.75 42.20 41.86 41.84 42.12 43.10 43.04 43.33 43.49 42.90 40.96 40.65 41.28 41.65 41.59 41.57 42.13 42.25 43.43 46.13 46.35 45.49

GFSCGP_sfc_wetblb_108.txt.gz
Wetbulb
45.26 43.58 41.47 42.03 44.54 44.87 44.13 52.66 54.45 58.08 59.45 57.98 56.39 56.11 59.30 62.25 62.60 62.32 61.00 61.09 63.01 63.95 66.03 67.66 68.69 69.82 69.59 69.40 69.13 69.48 68.65 69.11 70.45 70.17 69.14 68.82 66.78 68.55 69.37 70.94 72.57 72.78 73.06 73.45
43.32 41.53 46.74 47.99 46.46 45.45 48.36 53.08 53.87 57.69 60.11 56.83 56.01 56.21 60.22 61.47 61.95 63.05 63.26 58.70 62.15 63.17 65.06 66.52 68.11 69.10 69.10 68.81 68.67 69.20 68.63 68.87 70.68 70.64 70.33 70.09 69.15 69.74 70.00 70.69 72.51 73.25 73.09 73.33
42.72 45.40 48.25 47.05 44.73 44.14 40.69 49.84 53.04 53.24 57.62 57.77 56.34 54.76 57.48 61.16 62.54 63.61 64.61 60.96 63.13 63.57 64.14 65.50 67.02 68.32 68.61 68.32 68.07 68.97 68.82 68.73 70.00 70.96 70.56 70.17 70.60 70.63 69.82 70.42 71.79 72.57 73.45 73.18
43.99 48.23 47.11 45.04 44.36 44.32 37.59 47.15 56.26 55.39 50.47 47.46 55.46 46.07 54.95 58.32 59.52 61.60 62.70 60.01 61.96 63.55 65.29 65.86 66.77 67.57 67.81 68.42 69.13 69.39 69.09 68.17 69.27 70.87 70.21 69.94 69.61 68.34 69.58 70.24 71.25 72.20 73.55 73.53
43.65 44.79 44.80 43.90 45.19 46.20 43.60 47.77 56.00 54.53 51.02 48.76 52.91 46.66 49.36 58.05 56.97 59.27 61.74 61.33 62.36 63.79 64.97 65.65 66.69 68.01 68.39 68.66 68.56 68.75 69.11 68.08 69.04 70.47 70.51 69.74 69.28 69.34 70.23 70.72 70.90 71.91 73.34 73.50
45.07 47.34 46.47 46.18 47.52 47.70 52.56 52.82 51.30 49.47 48.06 42.41 48.58 47.96 48.23 54.25 56.68 58.99 60.91 62.86 62.44 63.78 65.21 66.49 67.64 68.74 68.44 69.09 69.13 69.20 68.59 68.12 69.40 69.81 69.60 69.29 68.44 68.24 69.79 70.23 69.60 71.07 72.69 73.15
42.66 44.19 46.00 47.00 42.15 43.78 45.60 44.22 40.54 39.16 40.49 39.86 44.52 47.49 47.26 55.00 59.54 60.43 60.24 61.96 61.87 64.02 64.55 65.45 66.72 67.25 67.39 68.43 68.79 69.22 68.51 67.91 69.72 70.12 69.19 69.07 68.75 68.83 69.66 70.47 70.04 70.55 71.36 72.39
36.62 36.45 43.96 46.24 44.54 41.51 42.68 43.75 39.88 35.04 37.17 39.76 46.74 44.16 48.12 57.44 59.41 62.21 62.48 63.58 61.77 63.04 64.28 64.86 66.57 66.88 66.44 68.77 69.03 69.27 68.23 67.67 69.10 70.65 70.73 70.30 69.66 69.17 69.85 70.90 70.57 70.54 71.54 72.12
35.32 37.80 46.35 46.37 45.60 46.03 40.51 40.56 43.79 39.02 35.30 40.26 43.40 47.53 53.53 58.15 59.42 61.27 62.12 62.97 62.57 62.72 64.17 65.09 66.24 67.66 67.51 68.64 69.36 68.81 68.00 67.87 68.42 69.68 70.50 70.76 69.72 69.90 69.97 70.89 71.18 70.32 71.28 72.06
39.51 35.57 42.04 46.18 47.54 47.13 43.10 44.95 39.01 36.88 32.78 33.20 41.58 43.92 46.27 54.55 56.60 60.45 61.13 62.66 63.19 63.34 63.82 65.01 65.87 67.36 68.84 68.94 69.59 70.56 69.81 68.97 69.19 69.74 70.38 71.06 70.19 70.44 70.04 70.42 70.51 70.26 70.60 71.72
39.76 38.66 40.89 42.41 39.76 42.60 43.40 40.54 39.03 39.07 37.54 37.80 37.98 42.55 56.45 56.57 57.18 59.55 61.27 63.08 63.62 63.98 64.53 64.66 65.64 66.96 68.19 68.66 68.35 68.06 68.69 69.83 70.00 70.34 71.07 71.70 72.03 70.95 69.97 70.42 70.35 70.58 70.63 71.63
41.85 37.14 35.63 40.04 43.24 43.81 42.55 41.26 40.32 37.71 38.26 39.73 40.72 43.50 59.71 60.17 61.51 60.29 60.85 62.38 63.38 64.30 65.46 66.42 66.42 66.99 67.69 68.01 67.88 67.29 68.08 69.02 68.91 68.96 70.43 70.93 71.32 71.83 72.04 72.04 71.71 71.72 71.45 71.79
42.27 36.53 33.56 37.04 38.84 41.99 39.92 39.88 38.42 39.21 41.35 39.95 39.72 43.55 59.58 60.12 60.18 61.36 60.46 61.70 62.12 62.82 63.82 64.70 66.30 66.91 66.93 66.96 66.89 67.00 67.52 68.64 69.85 68.64 68.19 68.91 69.32 69.70 70.47 71.05 71.92 72.29 72.66 72.40
48.00 37.27 35.65 33.83 34.91 38.54 38.16 41.65 39.91 38.35 36.75 38.64 41.37 49.68 56.29 57.45 58.44 60.18 61.09 61.69 62.25 62.91 62.80 63.33 64.11 65.59 65.69 65.44 65.71 66.42 67.49 68.57 68.98 69.08 67.67 68.17 68.89 68.84 68.84 69.06 69.67 70.30 72.30 72.44
43.26 37.68 38.67 39.32 40.95 41.68 40.63 42.05 44.08 37.95 39.56 40.97 44.38 49.96 54.51 57.17 57.50 59.05 60.12 60.60 60.30 60.09 60.10 61.80 62.67 63.92 65.19 65.57 66.02 66.71 67.50 68.19 68.42 68.10 67.38 67.76 68.91 69.53 69.41 68.76 68.84 69.48 70.44 71.59
43.76 40.04 39.65 40.44 43.60 42.38 40.06 44.92 43.13 49.04 47.61 48.87 50.48 51.31 57.83 58.25 57.10 57.63 58.25 57.99 57.05 56.91 57.35 58.45 59.76 61.41 61.63 62.00 61.77 62.78 63.41 65.87 68.98 67.40 66.09 67.63 69.92 69.09 68.88 68.58 68.57 68.63 69.28 70.78
41.20 39.84 38.07 35.09 39.89 42.34 38.61 42.21 41.28 48.13 50.30 51.30 47.99 52.08 56.39 54.30 54.98 54.39 53.95 54.73 54.66 54.91 55.79 56.55 57.21 58.23 58.41 58.41 58.84 58.35 59.69 60.99 61.30 61.57 62.49 63.34 65.79 68.24 69.41 69.47 68.41 68.34 69.81 70.50
39.09 39.06 37.45 34.66 36.55 30.80 41.31 48.76 51.59 50.25 51.30 52.26 53.52 55.85 55.18 53.36 52.39 52.74 52.75 52.18 51.92 53.09 54.28 55.07 56.19 56.36 56.66 56.57 56.64 57.05 57.84 58.45 58.02 58.95 59.65 60.77 62.27 62.45 62.98 63.71 63.76 65.21 67.58 68.35
39.21 37.47 34.52 34.68 34.25 38.79 42.33 45.01 45.23 45.76 48.92 53.71 54.71 54.69 51.88 52.35 51.63 49.50 52.32 52.90 51.15 51.04 51.59 53.96 55.84 54.28 53.98 54.20 55.61 54.41 54.04 54.55 55.40 55.62 56.81 57.93 59.90 60.26 60.87 61.10 61.20 60.95 62.76 64.43
38.72 37.44 36.04 33.13 33.15 31.86 40.46 46.45 48.48 47.46 42.89 53.69 52.93 50.94 50.84 51.93 47.32 47.94 50.49 52.18 51.64 51.83 53.11 52.41 52.00 51.72 51.17 51.22 52.32 51.05 51.03 51.62 51.96 53.26 54.60 55.65 57.08 57.37 57.68 59.24 60.18 60.50 61.87 62.22
33.37 33.32 31.34 32.09 30.35 35.62 42.43 45.99 47.56 37.93 38.63 51.40 52.14 51.45 51.57 49.73 50.00 49.61 50.72 51.43 52.08 50.89 50.16 50.68 50.28 49.92 49.97 50.44 50.18 48.71 49.30 49.06 50.81 52.30 52.93 52.93 53.44 54.59 55.28 55.98 57.13 56.74 57.02 58.11
33.88 30.55 30.84 30.94 30.47 30.88 44.62 44.59 40.91 42.93 46.54 51.69 51.87 51.83 51.45 49.15 49.74 50.55 51.24 49.67 48.68 48.81 48.71 48.78 48.12 47.54 48.43 49.28 48.99 47.85 47.35 48.94 49.82 49.79 49.91 50.40 50.99 52.06 52.67 53.57 53.90 53.82 54.34 53.93
33.04 36.51 35.03 35.72 34.88 41.17 43.58 42.91 44.10 44.21 45.65 51.09 50.75 50.03 49.68 49.04 49.36 50.67 49.28 48.83 48.65 47.93 47.46 47.63 47.02 46.62 47.15 47.43 47.67 46.37 46.96 47.74 47.35 47.22 47.09 47.90 48.99 49.17 50.17 51.07 51.83 50.73 50.60 51.24
37.58 39.98 37.90 38.84 40.63 42.56 44.06 45.14 45.75 46.76 47.22 50.01 49.74 50.28 50.52 49.09 49.20 49.08 49.56 48.77 46.21 46.70 46.13 46.37 46.04 45.00 45.04 46.92 46.67 46.07 46.25 46.63 45.98 45.46 45.50 46.00 46.15 46.15 46.64 48.24 49.50 48.36 47.89 48.49
37.84 38.37 37.03 37.43 41.10 42.98 44.80 44.95 45.27 47.02 49.17 49.68 50.37 50.52 49.91 49.95 49.52 49.20 47.01 46.15 45.67 45.41 44.98 45.15 44.55 44.63 44.63 45.90 45.33 45.90 45.79 45.36 43.89 43.49 43.79 43.64 43.80 43.86 44.22 45.32 46.05 47.96 47.92 46.72
40.05 37.98 36.10 36.36 41.13 40.74 42.04 44.91 47.03 46.52 47.57 49.17 49.45 49.48 50.54 50.69 47.86 47.70 46.45 46.33 45.70 44.80 44.08 43.69 43.37 43.93 43.98 44.45 44.77 45.09 44.63 44.11 43.51 42.25 42.18 42.52 42.03 42.32 42.73 42.76 43.13 44.44 44.54 43.74

GFSCGP_sfc_wetblb_111.txt.gz
Wetbulb
51.06 50.54 50.02 53.32 53.17 50.62 50.89 54.47 57.08 58.84 61.05 59.85 57.36 56.61 59.60 62.71 64.03 63.83 64.61 65.26 65.92 67.07 69.33 70.38 71.05 71.80 72.29 73.19 73.30 73.75 73.59 74.53 74.28 73.69 73.15 72.80 72.43 73.65 74.57 76.34 76.17 76.37 75.82 76.43
49.31 46.93 53.47 53.41 50.31 50.72 59.10 57.60 56.47 59.12 60.02 58.86 57.51 57.56 60.26 62.09 63.03 64.03 64.35 65.21 66.23 67.42 68.45 69.41 70.44 71.62 71.94 72.63 73.31 73.77 73.64 74.15 74.65 74.42 74.48 74.59 73.36 73.83 74.53 75.32 76.30 76.26 76.24 76.82
47.69 50.02 54.12 51.70 49.46 48.99 52.24 54.09 56.44 56.57 58.69 59.59 58.77 56.27 58.80 61.92 63.46 64.47 65.36 65.72 66.60 67.27 67.37 68.86 69.82 71.09 71.98 72.38 72.95 73.34 74.16 74.53 75.05 75.28 74.89 74.39 74.32 74.38 72.62 73.44 74.85 75.74 76.60 76.46
50.91 51.39 52.31 49.64 49.43 50.41 47.99 53.08 58.74 56.77 54.99 51.73 57.06 47.62 54.64 59.55 60.71 62.22 63.70 64.93 64.94 66.93 68.52 69.29 69.97 70.62 71.49 72.38 73.35 73.80 74.41 74.35 74.87 75.62 74.88 74.49 75.42 73.84 74.07 73.34 75.05 75.60 76.65 76.40
49.41 49.61 49.13 48.62 50.15 50.76 49.31 53.04 59.04 57.30 55.07 54.39 53.49 51.06 53.89 58.76 58.10 60.65 63.20 64.75 65.16 66.66 68.05 68.76 69.84 71.05 71.91 72.79 72.87 73.33 74.18 73.85 74.88 75.47 75.91 76.62 75.83 76.71 74.23 73.93 75.14 75.98 76.54 76.81
50.29 51.98 52.41 51.76 51.76 52.05 55.59 57.92 57.31 56.43 54.82 46.45 52.38 52.05 52.12 55.82 57.44 60.62 63.12 64.54 65.99 66.34 67.79 69.08 70.59 71.73 70.95 72.79 72.77 72.96 73.65 73.70 74.47 75.21 75.35 75.45 75.20 74.51 73.58 73.95 75.09 76.91 77.23 77.53
49.13 48.91 50.99 51.39 48.99 51.51 54.42 52.50 46.82 46.15 46.56 45.42 52.49 52.19 53.97 59.32 61.23 62.12 62.19 64.27 65.58 66.99 67.23 68.41 69.35 70.31 70.98 71.03 72.15 72.75 73.41 73.60 73.83 73.97 74.65 75.00 74.96 74.53 74.81 75.88 74.13 74.71 74.99 76.32
44.76 42.78 49.27 50.71 50.36 48.17 53.88 52.06 46.55 40.52 42.55 46.72 53.08 49.89 53.79 60.66 62.81 64.60 64.63 64.46 65.51 66.54 67.23 68.24 69.57 70.39 69.67 71.00 70.15 72.41 72.81 73.38 73.68 73.59 74.31 74.98 75.28 74.38 74.43 75.38 74.90 73.88 75.32 78.13
44.19 43.90 49.72 50.45 51.53 51.34 47.73 46.46 52.89 48.57 48.57 48.42 51.78 53.99 57.85 61.11 61.23 63.54 63.81 64.30 64.63 65.49 67.21 68.03 69.69 69.72 70.41 71.40 71.20 72.40 72.91 73.11 73.42 73.66 74.98 74.91 74.97 74.38 74.07 74.59 75.57 75.04 75.50 76.12
47.30 43.68 48.92 50.56 51.21 50.77 50.38 52.18 45.73 47.65 43.63 42.68 48.47 50.60 54.21 57.26 59.02 61.44 62.59 63.19 64.88 66.27 66.98 68.07 69.37 68.92 69.72 70.92 70.48 73.03 73.24 73.32 73.32 74.04 74.80 75.42 75.45 75.33 75.08 74.84 74.91 74.51 75.01 75.34
49.11 47.05 47.38 49.29 48.52 48.09 48.47 48.00 48.55 49.62 48.21 45.89 45.54 50.23 58.34 58.76 60.69 61.59 63.46 64.05 65.49 65.66 66.64 68.05 67.81 68.13 69.11 70.52 70.27 71.11 73.04 73.33 73.03 73.41 74.12 74.54 75.01 75.40 75.27 74.83 75.03 74.67 75.10 75.51
48.96 47.71 45.06 46.74 49.46 49.99 51.33 50.35 51.31 45.92 46.49 50.47 50.29 51.69 61.05 61.99 62.65 63.24 63.02 64.43 65.15 65.89 66.54 67.44 67.23 69.56 70.05 69.14 69.01 70.56 72.40 72.91 73.85 74.19 74.49 74.48 75.45 75.53 75.02 75.02 75.37 75.54 74.34 75.48
49.16 45.56 43.64 44.44 47.35 48.76 48.05 47.84 50.30 52.54 53.24 50.48 47.95 50.41 61.03 62.50 62.47 63.36 62.17 63.54 64.53 65.53 66.13 66.97 66.92 67.52 68.57 68.21 68.39 68.11 70.73 72.33 72.99 73.49 73.96 74.31 74.64 75.10 75.31 75.64 75.74 76.16 76.37 76.40
51.75 45.31 44.77 43.36 44.86 47.35 46.02 47.58 48.73 49.69 48.34 49.88 50.91 52.82 57.52 59.45 61.19 60.95 61.79 62.93 63.65 64.59 65.21 66.20 67.24 68.01 68.48 67.86 67.14 67.97 68.11 69.25 69.92 70.73 71.22 72.41 72.74 73.12 73.62 74.70 75.22 75.71 76.54 76.54
49.31 43.95 45.77 46.00 46.81 48.11 48.92 47.88 48.03 47.06 49.08 48.47 51.98 53.99 57.46 59.95 60.87 61.60 62.23 62.48 62.72 62.42 63.06 64.65 65.95 66.28 66.85 66.89 67.67 67.23 68.35 69.62 70.51 70.33 70.40 70.92 72.60 72.57 72.48 72.48 73.17 73.21 74.47 75.44
50.30 45.42 45.94 44.89 46.89 46.07 48.06 50.31 51.45 51.48 50.25 52.80 54.47 54.56 61.15 61.70 61.70 60.53 61.13 61.14 60.14 60.66 61.79 63.35 64.24 63.90 64.18 64.09 64.68 65.67 66.18 68.67 70.70 69.22 68.62 69.24 71.34 70.79 71.56 71.34 71.66 71.78 72.66 74.10
47.90 47.74 45.38 41.89 46.13 45.43 44.18 49.30 51.28 51.90 54.06 54.59 52.75 56.73 60.76 59.08 59.32 58.76 58.72 58.71 57.93 58.75 59.21 59.56 58.95 58.72 59.23 60.40 61.79 61.01 61.40 63.50 64.02 65.09 67.70 67.74 66.69 70.42 71.61 71.83 71.73 71.05 72.08 73.12
46.66 45.34 46.02 42.61 45.50 38.43 45.61 53.15 53.05 53.71 54.25 56.07 56.85 58.72 59.69 58.23 56.86 57.91 59.27 57.32 56.76 57.09 57.56 57.85 57.39 56.95 57.20 57.78 58.06 59.15 59.41 59.47 60.36 61.50 64.40 64.08 63.28 63.63 65.45 67.40 68.28 69.39 71.00 71.36
46.82 45.70 41.63 39.77 40.50 43.67 45.71 49.81 50.14 49.74 51.37 56.49 56.90 57.04 55.14 54.12 54.34 54.30 57.95 58.46 57.10 57.76 58.06 57.14 56.72 56.23 56.29 55.95 56.64 55.81 56.29 58.29 59.33 58.96 61.56 62.42 63.06 63.08 63.26 63.28 63.20 64.17 66.05 67.02
47.35 46.50 44.81 41.30 39.47 37.60 45.95 48.50 51.23 50.19 46.50 56.42 57.99 55.58 53.15 54.18 52.53 53.44 54.66 55.36 56.70 58.79 56.37 54.75 54.59 54.56 53.76 53.79 54.52 54.11 54.95 56.09 56.50 58.98 59.36 60.10 60.45 61.88 61.41 61.90 62.80 64.42 65.92 65.98
42.85 42.84 40.70 41.24 40.70 43.03 47.49 49.51 51.06 43.13 46.23 56.85 58.21 56.99 55.10 55.67 57.81 56.15 55.78 55.19 57.99 58.83 56.79 54.17 54.56 54.76 55.21 56.04 56.10 55.37 55.03 54.87 56.56 57.84 57.85 58.32 59.37 59.02 59.53 58.82 60.10 60.85 61.31 61.92
42.43 41.24 41.31 40.45 39.54 37.44 49.29 49.60 46.60 49.54 51.62 55.69 57.45 57.90 57.47 55.85 54.74 55.53 56.21 55.58 55.87 54.89 54.70 55.47 54.94 54.42 54.96 55.40 55.13 53.99 53.61 54.47 55.78 56.53 56.72 56.62 57.23 57.28 57.75 58.72 57.66 58.08 58.42 58.70
42.83 45.93 45.42 43.96 44.10 48.61 49.92 49.49 51.72 51.44 50.32 53.76 57.76 58.06 56.29 54.54 54.04 55.20 54.36 53.06 53.70 54.50 54.09 54.41 53.76 52.86 53.05 54.06 54.34 52.50 52.63 53.85 54.43 54.55 53.98 53.99 54.53 55.30 56.06 56.05 55.36 55.53 55.64 55.92
45.10 46.70 46.67 46.46 48.37 48.90 49.54 50.83 51.65 52.73 52.53 53.92 57.39 56.21 55.94 54.56 54.58 54.08 53.70 52.22 50.72 51.26 51.36 52.85 53.01 52.34 51.59 52.18 51.93 51.92 51.96 52.74 52.81 52.14 51.65 52.14 52.06 52.66 53.82 53.98 53.49 53.08 53.13 53.90
47.03 46.68 45.64 46.18 48.85 49.73 50.07 50.68 51.13 53.03 53.89 54.37 55.56 55.54 54.64 54.35 53.54 53.88 53.55 52.44 51.15 51.06 51.95 51.67 51.77 51.85 50.93 51.22 51.30 51.35 51.41 51.84 50.76 49.97 49.73 49.82 50.16 50.51 50.68 50.76 51.08 51.51 49.27 48.78
47.97 47.50 46.09 44.75 48.97 50.08 49.53 51.28 51.97 51.87 52.92 54.08 54.57 53.84 54.55 54.70 53.11 52.13 50.50 49.43 50.35 51.76 51.62 51.50 51.27 51.23 50.39 50.61 50.40 50.28 50.96 51.16 49.90 48.70 48.30 47.98 48.41 48.30 48.64 48.88 47.53 43.57 43.84 42.19

GFSCGP_sfc_wetblb_114.txt.gz
Wetbulb
52.18 50.84 50.15 56.61 59.27 55.68 55.84 55.14 58.75 60.61 61.72 60.40 59.83 58.28 61.01 62.83 62.64 63.91 64.30 66.52 67.57 68.42 71.03 71.82 72.02 72.61 73.45 74.24 74.85 75.18 75.27 76.23 75.96 75.65 73.87 74.06 73.53 74.86 75.36 76.18 77.28 77.69 77.14 77.60
50.55 48.71 53.56 58.52 59.01 53.82 56.74 55.62 58.95 61.29 63.22 60.84 59.77 59.92 62.93 62.47 61.56 65.47 65.21 65.69 67.29 68.30 68.72 71.37 71.95 72.76 73.34 74.11 74.64 75.14 75.61 76.35 77.22 76.12 76.90 75.76 74.95 75.09 75.55 76.41 77.34 77.54 77.26 77.73
49.31 50.43 55.49 56.94 55.62 53.02 58.89 57.20 58.98 58.57 61.44 62.34 60.33 57.99 60.73 61.75 63.09 65.63 66.72 67.81 67.44 67.17 69.06 70.71 71.63 72.36 73.23 73.95 74.74 75.30 76.01 76.45 77.02 76.71 77.75 75.85 77.78 75.85 74.85 75.30 75.66 76.74 77.49 77.30
50.75 54.39 53.77 55.81 55.31 54.84 53.40 56.94 59.78 60.15 58.60 53.93 61.86 48.50 59.05 60.27 61.88 64.22 65.49 66.82 67.61 68.19 69.38 70.66 71.57 72.19 72.83 73.92 75.25 75.95 76.21 76.65 76.32 77.58 76.42 76.58 75.52 74.30 74.59 74.58 75.70 75.98 77.15 77.09
49.65 51.78 53.51 54.07 55.80 55.32 53.36 57.53 59.31 59.89 58.43 57.51 56.94 50.80 54.82 61.16 58.88 60.40 63.89 65.81 66.83 68.03 68.47 69.61 71.13 72.53 73.30 74.17 74.80 75.54 76.30 76.96 76.90 76.89 76.98 74.91 74.49 74.26 75.05 75.29 76.82 77.14 77.84 77.60
53.21 56.62 56.75 55.60 56.60 55.29 55.10 56.87 57.58 57.52 57.13 50.17 55.54 55.52 54.68 58.48 60.59 62.99 64.09 65.03 66.69 67.65 68.13 69.88 71.24 72.11 73.28 74.20 74.70 74.81 75.68 76.49 76.82 77.03 76.52 75.96 75.48 74.79 75.64 76.14 75.77 75.19 75.55 75.91
51.58 52.79 55.20 56.51 54.23 55.88 56.24 55.61 49.19 47.91 48.82 49.44 55.15 53.38 56.75 61.58 62.86 63.79 64.18 64.89 67.60 67.68 67.67 68.86 70.28 70.75 73.32 73.45 74.18 74.47 75.52 75.71 76.45 76.27 76.35 76.23 75.64 75.73 75.01 75.64 74.23 74.57 75.84 75.21
47.02 45.47 52.56 54.45 53.16 52.51 53.57 54.50 48.73 43.61 47.18 50.10 55.83 51.16 56.03 62.18 64.88 65.86 66.35 65.59 68.21 68.48 68.25 68.95 70.75 71.75 71.15 73.29 74.45 74.54 75.33 75.48 76.03 75.88 76.27 77.01 77.10 75.15 74.86 75.85 77.37 75.27 75.82 75.03
47.25 47.66 53.68 53.84 54.52 53.63 52.78 51.73 56.08 51.25 53.19 50.96 53.72 56.41 59.44 62.57 63.46 64.57 65.93 66.30 65.28 67.75 68.20 69.16 70.72 72.01 73.29 73.47 74.50 74.68 75.21 75.97 76.01 75.81 76.31 76.59 76.82 76.63 77.38 76.63 76.39 76.08 77.47 76.01
50.56 46.51 51.44 52.63 54.12 53.93 53.01 56.93 51.18 52.30 46.89 45.54 51.54 52.99 55.84 59.44 62.01 64.02 64.52 65.55 64.78 66.91 67.95 69.84 70.89 72.35 73.44 70.84 74.58 74.18 75.88 75.89 75.84 75.89 76.25 75.63 76.28 76.87 77.08 77.91 77.30 77.08 77.63 77.92
52.61 50.11 49.25 52.05 50.10 49.72 50.51 50.26 52.31 53.02 51.53 48.20 47.77 51.81 62.88 62.46 63.50 64.41 65.63 65.21 65.67 66.97 67.85 69.70 71.19 72.86 73.71 73.68 72.77 74.37 74.89 75.46 75.09 75.33 75.84 75.44 75.66 75.98 76.90 76.59 77.30 77.73 78.00 78.06
53.21 50.86 48.41 48.44 52.40 53.94 52.71 51.13 51.82 48.59 48.97 51.70 52.30 54.55 63.65 64.37 64.97 65.39 66.46 66.57 67.63 68.60 68.79 69.85 71.39 72.15 72.77 72.68 72.11 71.73 73.28 74.59 75.38 75.88 76.21 76.38 76.10 76.46 75.82 76.16 76.93 77.52 77.37 77.86
53.80 49.84 46.19 47.50 50.42 52.82 51.23 52.13 52.62 52.90 53.02 51.15 48.57 53.10 64.33 65.04 65.41 65.95 65.08 66.04 66.74 67.60 69.21 69.61 69.27 68.41 69.03 71.06 71.87 71.49 71.79 73.07 74.93 75.82 75.37 75.71 75.49 75.68 75.74 76.31 76.23 76.83 77.27 77.49
54.67 51.21 49.46 44.93 48.49 51.09 49.80 50.96 52.51 52.31 49.67 50.47 51.86 56.03 61.10 63.22 63.39 63.00 64.00 65.28 66.32 67.93 68.43 67.40 68.14 67.96 69.48 70.44 69.44 70.61 71.81 73.23 73.99 75.01 75.36 75.52 75.99 76.03 75.90 76.49 76.89 77.25 77.81 77.09
53.36 48.68 50.54 50.30 51.27 51.19 50.78 50.76 51.37 51.01 51.98 50.17 51.83 53.62 60.40 63.62 64.45 63.38 64.11 65.02 65.52 65.59 66.53 67.45 67.15 67.87 68.76 68.43 68.44 68.34 69.54 69.56 70.30 72.03 72.89 73.83 74.92 75.52 76.38 76.69 76.72 76.74 77.03 76.79
53.27 48.46 50.72 48.24 49.47 51.66 50.54 51.81 51.67 51.87 52.34 52.94 53.50 56.84 63.73 65.61 65.21 64.68 63.66 63.04 62.98 64.90 65.36 66.15 67.60 68.36 69.04 69.09 67.93 67.70 68.17 68.73 69.51 70.20 70.37 71.86 73.44 73.52 74.15 74.70 75.12 75.63 76.13 76.56
50.42 50.14 48.84 46.31 49.27 48.83 48.54 52.10 53.15 54.12 56.00 56.68 51.87 59.86 63.98 62.84 62.34 62.08 61.20 61.33 61.43 61.74 62.22 61.32 60.98 61.05 63.36 65.88 67.63 66.89 66.76 69.47 70.41 69.59 70.13 70.85 71.95 71.26 72.72 73.00 73.76 73.79 74.27 74.80
50.80 49.86 49.73 47.79 48.12 41.62 50.55 54.95 54.06 54.82 56.69 58.16 58.88 60.59 63.04 61.91 61.08 61.98 61.71 61.20 60.17 60.28 60.75 60.44 60.12 59.80 59.56 60.36 61.90 63.80 63.96 65.29 66.71 68.07 68.95 70.45 70.47 66.87 66.67 70.44 72.08 73.23 73.56 74.18
53.97 49.75 45.08 44.05 44.02 46.74 48.78 52.20 51.68 51.36 54.46 58.26 59.52 61.39 60.86 61.26 61.31 58.35 60.41 62.11 61.56 61.55 60.06 59.05 57.65 57.81 58.37 58.31 59.98 60.41 61.05 61.53 62.73 63.00 65.59 68.03 67.46 64.14 64.42 65.70 67.49 69.50 71.73 71.96
50.73 52.88 48.29 44.85 42.53 39.68 48.45 51.70 53.50 53.77 50.17 59.57 60.46 60.16 59.69 60.89 57.48 56.49 60.58 60.80 60.28 59.22 58.10 57.80 58.12 56.68 55.15 55.34 56.46 56.78 57.69 59.38 60.53 62.79 65.28 66.75 67.25 67.01 66.88 66.44 67.33 68.85 69.39 68.89
47.80 48.18 45.34 46.13 44.46 47.15 50.89 52.08 53.96 46.44 48.22 56.10 60.77 60.79 60.41 58.91 61.68 61.09 59.19 58.22 58.31 58.33 57.29 57.53 57.38 55.90 55.09 55.55 55.93 55.40 56.05 55.83 58.52 60.94 62.30 63.56 64.89 65.34 65.63 66.32 67.80 67.87 67.12 67.06
46.06 45.26 46.06 46.24 43.19 40.98 53.05 52.73 49.82 53.17 56.10 56.82 60.21 61.39 60.10 58.48 60.18 61.12 60.54 61.57 59.83 56.86 55.55 56.31 56.75 55.64 56.56 57.35 57.29 57.07 57.36 58.71 59.48 60.21 60.56 61.20 62.69 63.46 63.80 63.95 63.88 65.03 65.08 64.21
46.38 49.62 48.26 48.20 48.20 52.64 53.91 54.00 55.66 56.69 56.58 56.88 58.85 61.52 61.84 60.02 59.42 60.18 59.41 60.37 60.23 60.87 60.39 60.25 57.67 57.65 59.02 59.37 59.56 58.50 58.16 59.14 59.72 59.88 59.88 60.27 61.40 61.77 62.69 62.23 61.99 61.83 62.61 62.09
50.11 52.35 51.29 49.37 51.71 52.42 53.19 54.93 56.09 57.14 57.66 59.05 59.82 61.03 61.42 59.95 59.82 58.93 59.34 59.30 59.16 59.06 58.38 58.60 57.92 57.13 56.55 57.28 57.57 57.66 57.59 58.10 58.22 57.84 57.89 58.36 58.63 59.12 60.40 60.44 60.76 61.17 61.87 60.70
51.65 51.35 48.73 49.49 52.64 53.35 53.83 54.70 55.49 56.53 57.71 58.55 59.86 60.19 60.41 60.04 59.51 58.89 58.33 58.17 57.67 57.56 57.02 57.67 56.73 56.38 56.04 56.25 56.07 56.09 56.37 56.94 56.32 55.77 55.95 56.31 56.35 57.17 56.34 54.87 53.49 54.64 49.80 48.91
51.98 49.75 47.87 48.21 53.69 53.07 54.07 54.98 55.09 54.99 55.94 57.44 57.89 58.36 59.68 60.39 59.30 59.19 57.82 56.96 54.81 55.96 56.53 56.41 55.77 56.03 55.53 55.44 55.35 55.14 55.66 55.73 55.18 54.50 54.23 54.08 54.26 54.68 54.84 53.30 50.60 42.75 43.07 41.62

GFSCGP_sfc_wetblb_117.txt.gz
Wetbulb
54.01 51.14 50.98 55.27 60.77 59.23 58.08 57.18 57.74 59.78 62.07 58.94 57.56 58.32 60.20 62.31 61.89 62.81 64.31 65.28 66.29 67.09 69.19 70.17 71.73 72.39 72.50 73.62 73.93 75.05 75.34 76.33 78.30 74.77 73.67 73.95 73.63 75.17 74.69 75.14 76.78 76.95 76.91 77.07
51.37 49.22 53.71 56.45 60.82 59.62 57.65 56.48 58.09 60.31 60.97 57.97 58.17 59.15 61.74 59.13 60.02 65.36 63.58 64.29 65.47 66.87 68.39 69.64 70.86 71.40 72.05 72.99 74.23 74.43 75.84 76.51 75.99 75.30 75.18 77.34 75.16 76.57 75.37 75.68 76.46 76.81 76.68 77.29
50.22 51.77 54.01 54.90 58.21 57.70 56.97 56.39 57.62 58.18 59.41 59.37 58.70 57.52 59.37 60.09 59.32 61.46 65.16 66.24 66.47 66.88 68.43 68.24 70.09 71.13 72.15 72.58 73.54 74.70 75.97 76.47 77.14 78.04 76.75 76.57 76.38 76.49 75.30 75.33 75.85 77.51 76.87 76.64
50.98 54.26 52.35 53.60 56.27 58.40 54.38 60.91 59.40 58.56 58.42 53.16 60.54 51.90 58.42 60.68 58.13 60.32 62.51 64.44 65.74 68.02 67.05 70.40 69.78 70.17 72.45 73.13 74.47 74.83 76.13 76.69 76.94 77.63 77.32 76.37 75.20 72.92 74.04 75.03 75.37 75.96 78.32 77.62
49.69 51.92 51.63 52.72 56.14 58.82 55.04 58.43 57.02 56.82 57.90 54.13 56.86 53.28 58.61 61.24 55.81 57.62 61.01 64.72 65.96 66.86 68.44 69.48 70.63 71.37 71.59 73.37 74.05 74.79 75.73 76.63 77.52 77.96 76.87 75.12 75.70 74.84 74.54 74.69 77.19 78.66 77.64 78.68
52.03 55.49 55.41 54.93 57.80 59.53 58.14 56.39 58.79 58.72 57.48 51.36 54.37 54.87 56.80 55.52 56.52 59.69 64.40 65.87 67.49 68.01 67.38 69.44 70.91 71.58 71.47 73.11 73.83 74.30 75.31 76.42 77.03 76.88 76.34 76.30 76.10 75.69 75.11 75.66 74.78 74.55 75.94 75.81
50.80 53.35 55.37 57.30 55.06 58.49 56.65 54.36 49.33 48.97 49.12 48.77 57.72 54.70 55.66 62.43 63.52 64.32 63.39 65.66 66.96 67.23 67.56 68.57 69.32 69.41 72.70 71.97 72.96 73.83 75.27 75.70 76.24 76.23 76.31 76.48 76.28 76.68 75.64 76.24 75.01 75.14 73.70 74.59
46.36 47.03 53.40 56.44 55.56 54.52 55.51 54.95 50.80 46.08 48.09 51.06 56.92 52.04 57.14 64.75 66.79 67.12 66.45 67.42 66.27 67.04 68.29 68.31 69.74 71.20 71.75 72.50 72.63 73.50 75.31 75.58 76.02 75.75 76.27 77.07 76.93 75.24 75.20 76.32 76.91 74.65 74.38 75.02
47.47 48.04 54.77 55.32 56.33 56.32 54.63 52.62 58.72 53.07 54.81 49.25 53.49 58.62 62.46 64.18 64.60 66.28 66.48 66.35 66.07 67.02 67.03 68.17 69.69 71.28 71.23 72.78 73.25 73.71 75.46 76.05 75.83 76.04 77.59 76.78 76.61 76.32 75.60 76.74 77.43 76.08 77.38 75.70
52.42 47.91 53.57 54.00 55.41 55.03 53.95 57.59 52.49 53.95 47.83 46.71 51.81 50.86 55.74 60.65 62.41 64.86 65.19 66.93 67.56 68.73 68.65 68.18 69.69 69.38 73.28 73.28 73.46 74.38 75.75 75.75 75.96 75.87 76.45 76.13 76.41 76.46 76.38 76.60 76.33 77.65 78.80 77.90
53.30 51.43 50.66 53.14 51.55 51.07 51.48 51.07 54.23 54.27 53.17 47.86 48.32 50.48 63.49 62.77 64.25 64.29 65.60 67.43 68.02 67.58 66.39 69.31 69.67 72.66 70.64 74.32 75.06 74.68 75.48 75.93 75.41 75.50 75.96 75.89 75.58 75.88 76.45 75.90 76.25 77.05 77.91 78.69
53.55 51.43 48.22 50.18 53.53 54.21 53.66 51.88 53.78 50.88 51.03 52.62 50.27 52.34 64.27 65.54 65.76 66.09 66.27 68.06 68.78 68.62 67.85 69.26 70.46 70.52 73.42 74.08 73.92 72.34 75.86 75.67 75.74 75.54 76.32 75.82 76.06 75.96 75.50 75.35 76.74 77.18 77.32 79.94
54.38 50.26 46.71 48.29 51.06 52.87 50.89 52.79 52.66 53.51 53.30 51.50 48.99 52.38 62.72 66.15 65.87 67.11 66.83 66.76 66.74 67.55 68.53 69.05 70.21 71.26 72.95 74.04 74.43 74.48 74.58 73.72 75.51 76.61 76.04 76.13 75.78 75.65 75.49 75.77 76.46 77.42 77.33 77.54
56.63 52.33 49.48 45.85 49.35 52.15 49.54 51.39 52.40 51.73 49.08 50.25 52.24 58.22 62.68 64.71 65.49 66.71 67.61 67.77 67.21 68.67 69.41 70.33 70.71 73.23 73.01 73.07 73.46 72.53 72.28 73.49 74.49 74.20 76.17 76.27 76.33 76.34 75.80 75.96 76.79 76.58 77.53 77.43
54.73 50.12 51.77 52.00 53.25 53.18 51.08 50.33 51.43 51.06 52.28 50.00 51.57 54.47 62.30 64.55 65.78 65.13 66.58 67.35 67.14 67.70 69.59 69.49 68.89 70.08 70.92 69.76 71.95 71.80 72.14 70.43 69.70 71.19 73.78 75.25 76.17 77.12 76.73 76.62 77.13 76.92 77.08 76.89
56.08 49.77 52.78 48.35 51.12 52.77 50.32 51.31 51.48 52.14 52.43 53.00 53.31 54.85 62.18 67.35 67.47 65.41 64.75 65.88 66.07 66.26 67.21 68.69 70.08 67.47 68.49 69.29 69.68 70.16 70.07 70.05 69.56 69.10 70.64 73.86 74.75 75.29 75.64 76.25 76.36 76.73 77.04 76.93
51.90 51.14 51.10 47.03 51.07 51.17 47.50 51.17 52.12 52.53 53.97 54.34 53.87 57.88 61.87 64.78 64.63 63.71 63.85 63.58 64.84 64.46 65.12 67.48 67.95 68.85 69.52 70.13 70.42 69.62 69.86 70.48 68.14 70.17 70.80 72.33 72.58 73.42 74.49 74.54 74.97 74.66 75.16 76.22
51.69 50.45 50.53 49.29 50.50 42.90 52.05 55.39 56.90 56.34 57.50 58.48 59.06 62.61 63.67 64.69 63.78 64.63 65.18 63.52 61.67 62.02 61.80 62.07 62.02 62.36 65.75 68.62 68.42 68.13 69.25 70.64 70.24 70.60 70.59 71.03 71.50 71.16 71.73 72.86 73.14 73.66 75.19 74.58
54.74 50.82 45.44 44.47 40.55 47.89 52.03 53.37 53.83 54.07 54.62 59.15 60.07 63.40 64.15 64.37 64.14 61.98 64.14 64.44 64.47 63.35 61.06 59.96 59.76 59.40 59.74 60.53 63.62 65.74 66.59 68.55 69.25 67.98 69.54 70.35 70.79 70.69 69.48 65.85 66.13 67.89 71.28 70.47
53.15 53.70 49.54 48.95 43.49 40.86 51.02 54.80 55.89 56.27 51.32 58.58 61.88 61.78 61.58 61.38 58.73 59.92 62.69 63.21 62.77 62.72 60.29 58.19 57.66 58.20 58.52 58.41 60.14 60.67 61.33 62.74 62.94 65.07 67.51 68.95 68.51 67.69 66.21 64.81 67.04 69.67 69.88 68.58
48.97 49.47 46.55 46.19 44.45 45.70 52.35 52.72 55.94 47.67 50.89 57.62 61.78 62.05 62.63 59.85 62.07 63.07 63.61 62.46 63.49 62.81 60.93 59.76 58.86 56.42 56.32 57.32 57.78 56.37 57.42 56.93 60.40 62.62 64.66 67.65 68.66 68.32 68.68 69.03 68.75 68.47 67.85 67.72
48.26 46.80 46.23 47.10 45.05 39.68 54.96 54.24 51.34 54.74 58.08 58.34 61.14 62.29 61.34 61.96 62.30 62.07 62.24 62.80 62.03 61.68 60.34 60.25 58.78 58.55 60.01 59.04 57.96 56.58 55.93 57.81 59.34 61.10 62.57 63.98 64.75 64.98 65.76 67.59 68.08 69.17 68.23 66.88
46.99 51.77 50.24 50.45 49.72 55.25 56.68 56.25 57.69 58.42 58.70 58.93 59.50 61.85 63.04 61.54 60.31 60.50 59.64 60.69 61.10 60.78 60.29 60.48 59.84 58.70 58.87 58.93 59.60 56.89 58.80 59.83 59.81 59.46 59.69 62.79 63.45 65.01 65.10 64.92 65.66 65.12 66.42 65.79
51.98 54.24 50.74 51.01 53.46 54.13 55.34 57.08 58.06 58.60 58.78 60.43 61.09 62.07 63.19 61.63 60.79 60.49 60.46 61.01 60.70 60.44 59.11 58.65 57.92 57.54 57.20 59.26 59.21 58.90 59.76 60.90 60.71 60.44 60.34 60.08 61.68 62.15 63.00 63.45 63.68 64.04 63.05 63.04
53.14 53.51 51.13 51.73 54.73 55.18 55.43 56.61 56.84 57.28 58.52 59.60 61.50 61.51 61.59 62.33 60.00 59.90 60.16 60.51 60.57 61.11 61.01 60.49 59.76 58.55 58.35 59.10 58.78 58.79 58.78 59.63 59.56 58.88 59.22 59.00 58.34 59.80 58.90 53.37 49.60 56.55 48.56 46.29
53.44 50.53 49.43 50.13 55.43 54.96 56.20 56.79 56.41 56.07 56.47 58.29 59.33 60.38 61.93 60.81 59.90 60.14 59.81 60.25 60.37 59.75 59.02 58.68 58.93 58.30 57.81 57.97 57.66 57.96 58.61 58.54 58.30 57.36 56.89 56.82 57.37 58.10 56.89 55.42 51.21 43.05 42.60 41.12

GFSCGP_sfc_wetblb_120.txt.gz
Wetbulb
54.67 51.03 49.34 53.42 57.34 58.75 58.22 57.55 56.52 58.66 60.59 58.09 57.60 57.88 59.12 64.29 63.24 62.39 63.62 64.10 64.58 65.33 67.75 68.97 70.09 72.28 71.98 72.89 73.54 74.72 73.34 75.80 76.24 75.49 71.08 74.94 75.90 77.77 75.42 76.42 77.85 79.29 77.86 77.02
51.22 48.36 52.14 55.66 56.31 57.97 57.94 58.60 56.10 58.98 60.58 58.48 57.03 56.78 59.83 62.00 62.54 63.52 63.27 64.23 64.70 65.96 66.30 68.70 70.06 71.48 72.79 73.49 71.42 74.19 75.34 76.54 76.27 75.37 76.59 72.83 77.18 76.11 76.98 77.65 77.86 78.44 78.22 78.14
48.99 50.89 53.27 52.71 53.79 55.75 58.06 57.29 57.57 56.58 57.85 58.02 56.73 54.91 57.99 61.22 60.45 63.05 65.12 65.81 65.86 65.87 65.24 68.79 68.80 69.40 71.66 73.59 73.67 74.76 75.70 76.84 76.15 72.12 72.87 74.13 76.32 73.27 76.36 74.60 76.31 77.89 77.88 78.26
49.89 53.50 52.08 51.25 52.13 54.88 55.13 61.40 60.63 57.82 55.05 50.60 57.56 49.55 56.14 57.87 58.10 60.41 63.34 65.19 64.18 66.44 66.48 68.37 68.76 69.27 70.81 72.61 75.34 76.16 76.56 76.65 76.38 77.75 75.09 72.36 71.84 71.79 74.16 75.61 76.63 75.19 77.29 78.02
48.58 49.88 51.25 50.22 52.00 56.14 57.07 61.18 60.54 58.81 56.12 54.39 54.65 53.03 55.83 58.18 55.81 56.95 60.18 64.28 65.48 65.83 66.83 68.16 69.18 70.65 70.36 72.69 73.11 76.34 76.51 76.21 76.74 78.06 77.48 75.41 77.18 75.01 70.95 76.29 75.22 78.74 79.12 77.33
50.79 53.77 53.68 53.18 54.41 57.46 59.36 59.30 58.30 56.16 53.79 46.33 53.80 53.83 55.02 56.84 59.52 59.38 61.18 64.35 65.98 65.37 67.46 67.26 69.23 70.97 71.23 72.77 73.05 74.33 76.01 76.05 77.22 76.29 76.62 77.16 76.44 73.53 75.05 74.11 75.26 75.41 76.86 77.28
49.04 50.31 54.28 55.75 52.49 56.10 57.52 54.28 47.79 47.02 46.65 46.31 54.74 53.92 56.03 61.31 62.80 61.57 61.90 64.25 65.62 66.48 67.86 66.78 66.29 70.18 70.69 72.13 73.29 73.71 75.57 75.68 76.22 76.41 76.68 76.49 77.55 74.27 76.09 75.99 76.24 73.89 73.69 74.83
45.42 44.04 52.75 54.87 54.33 52.91 56.06 54.73 49.97 45.08 45.69 48.23 55.25 50.56 55.63 64.04 64.45 63.62 63.78 65.34 66.64 67.07 66.02 68.25 67.46 71.01 69.61 72.04 73.66 73.43 75.19 75.40 75.74 76.32 76.66 77.09 76.69 76.26 76.74 77.77 77.29 77.52 73.31 74.80
47.48 46.44 54.19 55.18 56.04 55.97 54.66 51.61 56.46 52.89 54.28 50.59 51.93 54.09 62.31 63.68 62.05 61.97 63.17 65.64 65.96 66.51 66.00 67.86 70.76 69.90 68.16 71.92 72.14 74.48 75.22 75.06 75.88 75.86 76.68 77.06 78.59 76.98 73.96 78.12 75.15 78.28 77.20 76.46
51.65 47.80 52.14 54.25 55.59 56.02 55.01 56.91 51.38 52.66 46.88 44.65 49.61 52.56 53.58 58.38 59.97 62.56 64.16 65.63 66.56 67.32 68.26 67.79 69.36 70.56 70.10 70.89 71.76 75.06 76.07 75.42 75.86 75.86 76.10 75.95 76.66 77.15 77.47 78.37 78.89 77.68 77.11 80.00
52.71 51.42 51.00 53.55 51.71 50.47 51.51 50.92 52.47 54.06 52.59 47.87 45.52 48.94 60.09 57.42 58.39 64.02 65.45 65.91 67.23 66.81 69.04 70.05 70.19 71.26 69.31 70.22 71.25 75.13 75.79 75.63 75.37 76.13 75.77 76.07 75.99 76.49 77.02 77.13 77.78 78.65 78.68 78.10
54.29 51.33 48.14 50.59 54.28 54.52 53.25 51.48 52.31 48.69 49.35 51.89 51.34 51.42 58.62 57.48 61.26 62.50 65.59 67.71 66.74 68.31 69.54 70.33 69.34 69.67 69.79 71.70 70.47 74.85 74.61 75.36 75.14 75.16 75.80 76.24 76.63 76.49 75.60 76.38 76.91 78.64 79.60 77.74
54.47 50.03 45.81 47.98 51.52 53.40 50.80 52.09 51.85 51.48 52.71 51.49 48.31 52.16 59.59 59.71 62.06 66.17 65.06 67.82 67.40 69.98 69.04 67.83 67.88 68.50 67.51 66.51 68.20 71.84 72.13 68.33 74.25 75.90 75.65 75.74 76.12 75.83 76.80 76.19 77.39 77.08 78.57 77.82
57.26 51.39 49.29 44.65 48.49 51.95 49.20 50.08 51.86 50.34 48.17 49.95 50.81 55.75 60.07 61.29 64.43 65.76 66.36 67.93 69.03 68.80 66.93 66.76 64.85 69.98 68.32 68.95 70.61 72.21 72.16 72.12 72.64 74.49 71.88 73.37 75.94 77.60 77.25 78.20 78.05 78.06 77.62 78.52
53.84 49.26 51.27 51.70 52.10 52.59 52.36 50.21 50.28 50.28 50.64 48.89 53.48 56.64 59.65 58.22 64.11 66.22 66.72 67.77 67.88 68.19 68.81 68.41 67.77 69.21 66.57 65.69 69.32 72.18 73.25 72.89 72.26 71.12 73.51 71.98 72.42 74.38 77.54 76.38 78.33 78.22 78.15 77.35
55.37 50.06 52.39 50.12 52.60 52.72 51.19 52.76 51.11 51.15 51.70 51.29 52.46 56.24 56.77 56.87 59.28 63.65 66.67 66.95 66.34 67.41 68.08 70.06 70.68 70.40 68.00 68.76 70.66 70.92 70.55 71.42 72.45 70.93 71.74 71.64 71.82 73.27 74.87 75.51 75.75 77.04 77.19 78.21
53.14 52.41 50.46 47.59 51.08 50.07 47.68 52.23 53.91 53.10 53.48 53.14 52.81 59.10 57.74 55.35 55.20 58.63 63.57 66.56 67.02 67.68 68.96 69.33 69.50 68.76 69.11 68.87 70.84 70.80 70.83 70.90 70.37 69.47 70.55 70.54 70.46 70.82 71.73 75.26 76.05 75.08 75.57 75.89
51.76 52.36 49.83 46.65 48.93 39.78 51.25 57.04 55.98 55.83 57.28 57.88 60.27 61.02 58.34 58.43 62.23 63.78 64.84 62.13 62.57 62.84 63.80 63.75 65.44 67.33 69.86 69.91 70.34 71.17 71.17 70.41 69.95 69.72 70.07 70.79 70.00 69.76 69.95 72.73 73.41 74.19 75.04 74.38
53.55 52.27 47.50 45.34 45.30 47.05 49.93 53.78 52.87 51.22 54.09 56.48 59.47 57.26 60.01 63.57 62.68 61.71 64.38 64.07 63.06 60.63 60.19 60.28 60.44 61.61 62.58 64.51 67.16 68.43 69.41 70.34 69.84 69.73 70.04 70.36 70.87 69.53 68.79 68.13 68.98 69.93 70.67 69.05
52.63 54.61 49.51 48.32 42.40 39.56 48.80 53.90 56.44 55.31 49.03 57.31 57.25 59.08 59.32 61.50 56.47 58.07 62.57 62.99 62.33 62.04 59.32 58.46 58.90 59.24 60.39 61.18 64.02 64.40 62.86 64.03 64.93 66.82 68.73 70.08 70.28 69.28 68.42 68.32 68.91 69.21 67.93 65.72
47.01 49.58 47.03 44.16 44.54 46.11 50.70 54.24 55.27 46.47 49.72 58.15 61.33 62.05 58.35 58.63 60.43 62.20 63.36 62.87 62.19 60.38 57.84 57.70 57.79 57.52 57.98 60.36 59.56 58.21 59.25 59.19 62.12 63.45 65.37 67.67 69.48 69.58 68.66 68.02 68.46 66.69 66.23 64.86
44.01 43.21 46.54 46.13 41.93 41.75 54.34 54.86 50.52 54.64 58.95 58.48 60.48 62.30 61.66 62.28 62.42 62.49 62.28 61.03 60.94 59.23 58.69 58.25 56.93 56.61 57.68 58.56 58.41 57.68 56.73 60.22 61.61 61.33 62.98 64.18 67.01 67.90 67.36 68.52 68.95 68.01 66.80 65.31
42.81 43.44 47.47 50.37 49.11 55.87 56.89 56.24 58.04 58.79 58.81 59.12 59.42 62.60 62.27 61.81 60.59 60.62 60.13 60.29 60.28 59.67 59.45 60.07 59.33 59.72 59.92 59.43 58.90 56.40 57.62 59.03 59.06 58.99 58.86 61.40 64.16 66.45 66.94 67.49 66.56 65.72 68.02 65.18
51.72 54.14 51.01 51.58 53.53 54.51 55.71 57.09 58.09 58.39 58.48 59.61 60.97 62.80 62.72 61.66 61.55 60.55 60.26 59.67 58.45 59.17 59.08 59.43 58.98 57.85 58.25 59.55 59.33 59.57 60.45 60.69 60.55 58.17 57.69 58.91 60.12 60.27 57.79 61.56 60.25 56.55 52.40 55.61
53.14 53.75 49.71 52.92 54.78 55.62 55.87 56.95 57.29 57.62 58.29 58.94 60.45 61.23 62.79 62.35 61.52 60.27 60.05 59.42 59.20 58.79 58.39 57.99 56.91 56.94 57.25 58.35 58.63 59.06 59.83 61.05 59.70 58.82 59.48 59.15 58.38 59.39 51.81 46.16 46.30 47.99 41.97 42.68
52.71 50.45 49.20 50.09 56.70 55.62 55.96 57.74 56.77 56.23 56.71 57.97 58.72 59.77 62.16 62.59 61.21 60.95 60.69 61.50 61.06 59.47 60.07 59.69 59.05 57.34 57.12 57.72 58.32 59.01 60.89 61.16 60.70 59.35 58.80 59.01 58.02 58.86 56.83 53.79 47.02 42.80 41.98 41.16